<?xml version='1.0' encoding='UTF-8'?><gpx version="1.1" creator="JPX - https://github.com/jenetics/jpx" xmlns="http://www.topografix.com/GPX/1/1"><trk><trkseg><trkpt lat="45.7758269" lon="12.0472974"><ele>112.00000000000001</ele><time>2026-04-25T08:15:32.372Z</time></trkpt><trkpt lat="45.7759017" lon="12.0472648"><ele>112.0</ele><time>2026-04-25T08:15:34.372Z</time></trkpt><trkpt lat="45.7759612" lon="12.0472154"><ele>112.0</ele><time>2026-04-25T08:15:36.371Z</time></trkpt><trkpt lat="45.776035" lon="12.0471594"><ele>112.0</ele><time>2026-04-25T08:15:39.371Z</time></trkpt><trkpt lat="45.7760873" lon="12.0471026"><ele>112.00000000000001</ele><time>2026-04-25T08:15:59.371Z</time></trkpt><trkpt lat="45.7761481" lon="12.047078"><ele>112.0</ele><time>2026-04-25T08:16:03.371Z</time></trkpt><trkpt lat="45.7762372" lon="12.0470535"><ele>112.16666666666667</ele><time>2026-04-25T08:16:06.371Z</time></trkpt><trkpt lat="45.7763077" lon="12.0470175"><ele>112.33333333333334</ele><time>2026-04-25T08:16:08.371Z</time></trkpt><trkpt lat="45.7763678" lon="12.0469809"><ele>112.5</ele><time>2026-04-25T08:16:09.371Z</time></trkpt><trkpt lat="45.7764604" lon="12.0469247"><ele>112.66666666666666</ele><time>2026-04-25T08:16:11.372Z</time></trkpt><trkpt lat="45.776547" lon="12.0468742"><ele>112.83333333333333</ele><time>2026-04-25T08:16:13.371Z</time></trkpt><trkpt lat="45.7766241" lon="12.046838"><ele>113.0</ele><time>2026-04-25T08:16:15.371Z</time></trkpt><trkpt lat="45.7767151" lon="12.0467911"><ele>113.0</ele><time>2026-04-25T08:16:17.372Z</time></trkpt><trkpt lat="45.7768061" lon="12.0467541"><ele>113.00000000000001</ele><time>2026-04-25T08:16:19.371Z</time></trkpt><trkpt lat="45.776901" lon="12.0467146"><ele>113.00000000000001</ele><time>2026-04-25T08:16:21.371Z</time></trkpt><trkpt lat="45.7769949" lon="12.0466738"><ele>113.0</ele><time>2026-04-25T08:16:23.372Z</time></trkpt><trkpt lat="45.7770878" lon="12.0466261"><ele>113.0</ele><time>2026-04-25T08:16:25.371Z</time></trkpt><trkpt lat="45.7771687" lon="12.0465754"><ele>113.2</ele><time>2026-04-25T08:16:27.372Z</time></trkpt><trkpt lat="45.7772477" lon="12.0465266"><ele>113.4</ele><time>2026-04-25T08:16:29.371Z</time></trkpt><trkpt lat="45.7773468" lon="12.0464801"><ele>113.60000000000001</ele><time>2026-04-25T08:16:31.371Z</time></trkpt><trkpt lat="45.7774611" lon="12.0464513"><ele>113.80000000000001</ele><time>2026-04-25T08:16:33.371Z</time></trkpt><trkpt lat="45.777575" lon="12.0464625"><ele>114.0</ele><time>2026-04-25T08:16:35.371Z</time></trkpt><trkpt lat="45.7776846" lon="12.046515"><ele>114.2</ele><time>2026-04-25T08:16:37.371Z</time></trkpt><trkpt lat="45.7777881" lon="12.0465701"><ele>114.4</ele><time>2026-04-25T08:16:39.371Z</time></trkpt><trkpt lat="45.7778814" lon="12.0466314"><ele>114.6</ele><time>2026-04-25T08:16:41.371Z</time></trkpt><trkpt lat="45.7779626" lon="12.0466915"><ele>114.8</ele><time>2026-04-25T08:16:43.371Z</time></trkpt><trkpt lat="45.778031" lon="12.0467321"><ele>115.0</ele><time>2026-04-25T08:16:45.371Z</time></trkpt><trkpt lat="45.7781031" lon="12.046787"><ele>115.00000000000001</ele><time>2026-04-25T08:16:48.371Z</time></trkpt><trkpt lat="45.7781613" lon="12.0468467"><ele>115.0</ele><time>2026-04-25T08:16:50.372Z</time></trkpt><trkpt lat="45.7782296" lon="12.0468166"><ele>115.0</ele><time>2026-04-25T08:16:52.372Z</time></trkpt><trkpt lat="45.7782807" lon="12.0467331"><ele>115.0</ele><time>2026-04-25T08:16:54.372Z</time></trkpt><trkpt lat="45.7783352" lon="12.0466618"><ele>115.00000000000001</ele><time>2026-04-25T08:16:56.372Z</time></trkpt><trkpt lat="45.7784091" lon="12.0466432"><ele>115.0</ele><time>2026-04-25T08:16:58.371Z</time></trkpt><trkpt lat="45.778494" lon="12.0466081"><ele>115.28571428571428</ele><time>2026-04-25T08:17:01.371Z</time></trkpt><trkpt lat="45.7785602" lon="12.0465937"><ele>115.57142857142857</ele><time>2026-04-25T08:17:03.371Z</time></trkpt><trkpt lat="45.7786255" lon="12.0465844"><ele>115.85714285714286</ele><time>2026-04-25T08:17:05.371Z</time></trkpt><trkpt lat="45.778693" lon="12.0465841"><ele>116.14285714285714</ele><time>2026-04-25T08:17:07.372Z</time></trkpt><trkpt lat="45.7787615" lon="12.0465765"><ele>116.42857142857144</ele><time>2026-04-25T08:17:09.372Z</time></trkpt><trkpt lat="45.7788268" lon="12.0465522"><ele>116.71428571428572</ele><time>2026-04-25T08:17:11.372Z</time></trkpt><trkpt lat="45.7789198" lon="12.0465381"><ele>117.0</ele><time>2026-04-25T08:17:14.371Z</time></trkpt><trkpt lat="45.7789897" lon="12.0465251"><ele>117.0</ele><time>2026-04-25T08:17:16.371Z</time></trkpt><trkpt lat="45.7790628" lon="12.0465164"><ele>117.0</ele><time>2026-04-25T08:17:18.371Z</time></trkpt><trkpt lat="45.7791276" lon="12.0465127"><ele>117.0</ele><time>2026-04-25T08:17:20.371Z</time></trkpt><trkpt lat="45.7792165" lon="12.0465055"><ele>117.0</ele><time>2026-04-25T08:17:23.371Z</time></trkpt><trkpt lat="45.7793157" lon="12.0464893"><ele>117.0</ele><time>2026-04-25T08:17:26.371Z</time></trkpt><trkpt lat="45.7794049" lon="12.046465"><ele>117.0</ele><time>2026-04-25T08:17:29.371Z</time></trkpt><trkpt lat="45.7794861" lon="12.0464312"><ele>117.83333333333333</ele><time>2026-04-25T08:17:32.372Z</time></trkpt><trkpt lat="45.7795765" lon="12.0464286"><ele>118.66666666666666</ele><time>2026-04-25T08:17:35.372Z</time></trkpt><trkpt lat="45.7796622" lon="12.0464137"><ele>119.5</ele><time>2026-04-25T08:17:38.371Z</time></trkpt><trkpt lat="45.7797375" lon="12.0463951"><ele>120.33333333333333</ele><time>2026-04-25T08:17:41.371Z</time></trkpt><trkpt lat="45.7798282" lon="12.0463779"><ele>121.16666666666666</ele><time>2026-04-25T08:17:44.372Z</time></trkpt><trkpt lat="45.7798994" lon="12.0463647"><ele>122.0</ele><time>2026-04-25T08:17:47.371Z</time></trkpt><trkpt lat="45.7799658" lon="12.0463476"><ele>121.99999999999999</ele><time>2026-04-25T08:17:50.371Z</time></trkpt><trkpt lat="45.7800344" lon="12.0463137"><ele>122.0</ele><time>2026-04-25T08:17:53.371Z</time></trkpt><trkpt lat="45.780109" lon="12.0462837"><ele>122.0</ele><time>2026-04-25T08:17:56.372Z</time></trkpt><trkpt lat="45.7801918" lon="12.0462713"><ele>122.0</ele><time>2026-04-25T08:17:59.371Z</time></trkpt><trkpt lat="45.7802674" lon="12.0462563"><ele>121.99999999999999</ele><time>2026-04-25T08:18:02.371Z</time></trkpt><trkpt lat="45.7803408" lon="12.0462456"><ele>122.0</ele><time>2026-04-25T08:18:05.371Z</time></trkpt><trkpt lat="45.7804097" lon="12.0461966"><ele>123.49999999999999</ele><time>2026-04-25T08:18:08.371Z</time></trkpt><trkpt lat="45.7804452" lon="12.0460833"><ele>125.0</ele><time>2026-04-25T08:18:11.371Z</time></trkpt><trkpt lat="45.7804515" lon="12.0459764"><ele>126.5</ele><time>2026-04-25T08:18:13.371Z</time></trkpt><trkpt lat="45.7804462" lon="12.0458677"><ele>128.0</ele><time>2026-04-25T08:18:15.371Z</time></trkpt><trkpt lat="45.7804526" lon="12.0457509"><ele>129.5</ele><time>2026-04-25T08:18:17.371Z</time></trkpt><trkpt lat="45.780453" lon="12.045644"><ele>131.0</ele><time>2026-04-25T08:18:19.371Z</time></trkpt><trkpt lat="45.7804446" lon="12.0455378"><ele>130.85714285714286</ele><time>2026-04-25T08:18:21.371Z</time></trkpt><trkpt lat="45.780439" lon="12.0454312"><ele>130.71428571428572</ele><time>2026-04-25T08:18:23.372Z</time></trkpt><trkpt lat="45.7804318" lon="12.045335"><ele>130.57142857142858</ele><time>2026-04-25T08:18:25.371Z</time></trkpt><trkpt lat="45.780432" lon="12.0452246"><ele>130.42857142857144</ele><time>2026-04-25T08:18:27.372Z</time></trkpt><trkpt lat="45.7804313" lon="12.0451201"><ele>130.28571428571428</ele><time>2026-04-25T08:18:29.371Z</time></trkpt><trkpt lat="45.7804232" lon="12.0450102"><ele>130.14285714285717</ele><time>2026-04-25T08:18:31.371Z</time></trkpt><trkpt lat="45.780415" lon="12.0449011"><ele>130.0</ele><time>2026-04-25T08:18:33.371Z</time></trkpt><trkpt lat="45.7804503" lon="12.0448068"><ele>130.00000000000003</ele><time>2026-04-25T08:18:35.371Z</time></trkpt><trkpt lat="45.7805157" lon="12.0447773"><ele>130.0</ele><time>2026-04-25T08:18:37.371Z</time></trkpt><trkpt lat="45.780597" lon="12.0447855"><ele>130.0</ele><time>2026-04-25T08:18:40.371Z</time></trkpt><trkpt lat="45.7806636" lon="12.0447946"><ele>130.0</ele><time>2026-04-25T08:18:42.371Z</time></trkpt><trkpt lat="45.7807275" lon="12.0447778"><ele>130.0</ele><time>2026-04-25T08:18:44.372Z</time></trkpt><trkpt lat="45.7808058" lon="12.0447788"><ele>130.00000000000003</ele><time>2026-04-25T08:18:47.371Z</time></trkpt><trkpt lat="45.7808825" lon="12.0447679"><ele>130.0</ele><time>2026-04-25T08:18:50.371Z</time></trkpt><trkpt lat="45.7809553" lon="12.0447384"><ele>132.83333333333334</ele><time>2026-04-25T08:18:53.371Z</time></trkpt><trkpt lat="45.7810259" lon="12.0446747"><ele>135.66666666666669</ele><time>2026-04-25T08:18:56.371Z</time></trkpt><trkpt lat="45.7810757" lon="12.044592"><ele>138.5</ele><time>2026-04-25T08:18:59.371Z</time></trkpt><trkpt lat="45.7811078" lon="12.0444774"><ele>141.33333333333334</ele><time>2026-04-25T08:19:02.372Z</time></trkpt><trkpt lat="45.7811201" lon="12.0443875"><ele>144.16666666666666</ele><time>2026-04-25T08:19:04.371Z</time></trkpt><trkpt lat="45.7811247" lon="12.0442647"><ele>147.0</ele><time>2026-04-25T08:19:07.372Z</time></trkpt><trkpt lat="45.7811231" lon="12.0441728"><ele>146.33333333333334</ele><time>2026-04-25T08:19:09.371Z</time></trkpt><trkpt lat="45.7811593" lon="12.0440643"><ele>145.66666666666666</ele><time>2026-04-25T08:19:12.372Z</time></trkpt><trkpt lat="45.7812081" lon="12.0439674"><ele>145.0</ele><time>2026-04-25T08:19:15.371Z</time></trkpt><trkpt lat="45.7812491" lon="12.0438961"><ele>144.33333333333331</ele><time>2026-04-25T08:19:17.371Z</time></trkpt><trkpt lat="45.7813189" lon="12.0438403"><ele>143.66666666666666</ele><time>2026-04-25T08:19:20.371Z</time></trkpt><trkpt lat="45.7813879" lon="12.0437832"><ele>143.0</ele><time>2026-04-25T08:19:23.371Z</time></trkpt><trkpt lat="45.7814507" lon="12.0437506"><ele>142.99999999999997</ele><time>2026-04-25T08:19:26.371Z</time></trkpt><trkpt lat="45.7815121" lon="12.0437207"><ele>143.0</ele><time>2026-04-25T08:19:29.371Z</time></trkpt><trkpt lat="45.7815766" lon="12.0436677"><ele>143.0</ele><time>2026-04-25T08:19:32.371Z</time></trkpt><trkpt lat="45.7816478" lon="12.0436286"><ele>143.0</ele><time>2026-04-25T08:19:35.371Z</time></trkpt><trkpt lat="45.7817062" lon="12.0435903"><ele>143.0</ele><time>2026-04-25T08:19:38.37Z</time></trkpt><trkpt lat="45.7817637" lon="12.043531"><ele>142.99999999999997</ele><time>2026-04-25T08:19:41.371Z</time></trkpt><trkpt lat="45.781834" lon="12.0434838"><ele>143.0</ele><time>2026-04-25T08:19:45.37Z</time></trkpt><trkpt lat="45.7819022" lon="12.0434651"><ele>144.28571428571428</ele><time>2026-04-25T08:19:48.37Z</time></trkpt><trkpt lat="45.7819809" lon="12.0434349"><ele>145.57142857142856</ele><time>2026-04-25T08:19:52.37Z</time></trkpt><trkpt lat="45.7820411" lon="12.0433885"><ele>146.85714285714283</ele><time>2026-04-25T08:19:55.37Z</time></trkpt><trkpt lat="45.782106" lon="12.0433688"><ele>148.14285714285714</ele><time>2026-04-25T08:19:58.37Z</time></trkpt><trkpt lat="45.782168" lon="12.0433378"><ele>149.42857142857144</ele><time>2026-04-25T08:20:01.37Z</time></trkpt><trkpt lat="45.7822448" lon="12.0433266"><ele>150.7142857142857</ele><time>2026-04-25T08:20:04.37Z</time></trkpt><trkpt lat="45.7823254" lon="12.043317"><ele>152.0</ele><time>2026-04-25T08:20:07.37Z</time></trkpt><trkpt lat="45.7823963" lon="12.0432844"><ele>152.5</ele><time>2026-04-25T08:20:10.37Z</time></trkpt><trkpt lat="45.7824747" lon="12.0432507"><ele>153.0</ele><time>2026-04-25T08:20:13.37Z</time></trkpt><trkpt lat="45.7825436" lon="12.0432191"><ele>153.5</ele><time>2026-04-25T08:20:16.37Z</time></trkpt><trkpt lat="45.7825747" lon="12.0431401"><ele>154.0</ele><time>2026-04-25T08:20:19.371Z</time></trkpt><trkpt lat="45.7825854" lon="12.0430295"><ele>154.5</ele><time>2026-04-25T08:20:22.37Z</time></trkpt><trkpt lat="45.7825513" lon="12.0429386"><ele>155.0</ele><time>2026-04-25T08:20:26.37Z</time></trkpt><trkpt lat="45.782466" lon="12.0428833"><ele>155.0</ele><time>2026-04-25T08:20:29.37Z</time></trkpt><trkpt lat="45.7823914" lon="12.0428555"><ele>155.0</ele><time>2026-04-25T08:20:32.37Z</time></trkpt><trkpt lat="45.782306" lon="12.0428408"><ele>155.0</ele><time>2026-04-25T08:20:35.37Z</time></trkpt><trkpt lat="45.7822384" lon="12.0428124"><ele>155.0</ele><time>2026-04-25T08:20:37.37Z</time></trkpt><trkpt lat="45.7821664" lon="12.0427767"><ele>155.0</ele><time>2026-04-25T08:20:39.37Z</time></trkpt><trkpt lat="45.7821111" lon="12.0427204"><ele>155.0</ele><time>2026-04-25T08:20:41.37Z</time></trkpt><trkpt lat="45.7820653" lon="12.0426499"><ele>155.0</ele><time>2026-04-25T08:20:43.37Z</time></trkpt><trkpt lat="45.7820381" lon="12.0425232"><ele>155.0</ele><time>2026-04-25T08:20:46.37Z</time></trkpt><trkpt lat="45.7820054" lon="12.0423993"><ele>155.0</ele><time>2026-04-25T08:20:49.37Z</time></trkpt><trkpt lat="45.7820007" lon="12.0423074"><ele>155.0</ele><time>2026-04-25T08:20:51.371Z</time></trkpt><trkpt lat="45.7819931" lon="12.0422108"><ele>155.0</ele><time>2026-04-25T08:20:53.37Z</time></trkpt><trkpt lat="45.7819897" lon="12.0421132"><ele>155.0</ele><time>2026-04-25T08:20:55.37Z</time></trkpt><trkpt lat="45.7820075" lon="12.0420136"><ele>155.0</ele><time>2026-04-25T08:20:57.371Z</time></trkpt><trkpt lat="45.782019" lon="12.0419117"><ele>155.0</ele><time>2026-04-25T08:20:59.37Z</time></trkpt><trkpt lat="45.7820127" lon="12.0418024"><ele>155.0</ele><time>2026-04-25T08:21:01.371Z</time></trkpt><trkpt lat="45.7820397" lon="12.0417022"><ele>155.0</ele><time>2026-04-25T08:21:03.37Z</time></trkpt><trkpt lat="45.7820892" lon="12.0416172"><ele>155.0</ele><time>2026-04-25T08:21:05.37Z</time></trkpt><trkpt lat="45.7821474" lon="12.0415479"><ele>155.0</ele><time>2026-04-25T08:21:07.37Z</time></trkpt><trkpt lat="45.7822123" lon="12.0414916"><ele>155.0</ele><time>2026-04-25T08:21:09.37Z</time></trkpt><trkpt lat="45.7822726" lon="12.0414651"><ele>155.0</ele><time>2026-04-25T08:21:11.371Z</time></trkpt><trkpt lat="45.7823533" lon="12.0414335"><ele>154.83333333333331</ele><time>2026-04-25T08:21:14.37Z</time></trkpt><trkpt lat="45.7824276" lon="12.0414002"><ele>154.66666666666666</ele><time>2026-04-25T08:21:17.37Z</time></trkpt><trkpt lat="45.7825032" lon="12.0413797"><ele>154.5</ele><time>2026-04-25T08:21:20.37Z</time></trkpt><trkpt lat="45.7825748" lon="12.0413649"><ele>154.33333333333334</ele><time>2026-04-25T08:21:23.371Z</time></trkpt><trkpt lat="45.7826427" lon="12.0413405"><ele>154.16666666666669</ele><time>2026-04-25T08:21:26.37Z</time></trkpt><trkpt lat="45.7827233" lon="12.0413182"><ele>154.0</ele><time>2026-04-25T08:21:29.37Z</time></trkpt><trkpt lat="45.7827965" lon="12.0412963"><ele>155.33333333333334</ele><time>2026-04-25T08:21:32.37Z</time></trkpt><trkpt lat="45.7828725" lon="12.0412559"><ele>156.66666666666669</ele><time>2026-04-25T08:21:35.37Z</time></trkpt><trkpt lat="45.7829379" lon="12.0412022"><ele>158.0</ele><time>2026-04-25T08:21:38.37Z</time></trkpt><trkpt lat="45.7829975" lon="12.0411339"><ele>159.33333333333334</ele><time>2026-04-25T08:21:41.37Z</time></trkpt><trkpt lat="45.7830557" lon="12.041051"><ele>160.66666666666666</ele><time>2026-04-25T08:21:44.371Z</time></trkpt><trkpt lat="45.7831075" lon="12.0409516"><ele>162.0</ele><time>2026-04-25T08:21:47.371Z</time></trkpt><trkpt lat="45.7831449" lon="12.0408772"><ele>161.71428571428572</ele><time>2026-04-25T08:21:49.37Z</time></trkpt><trkpt lat="45.7831775" lon="12.0407969"><ele>161.42857142857142</ele><time>2026-04-25T08:21:51.371Z</time></trkpt><trkpt lat="45.7832148" lon="12.0407224"><ele>161.14285714285714</ele><time>2026-04-25T08:21:53.371Z</time></trkpt><trkpt lat="45.783283" lon="12.0406358"><ele>160.85714285714286</ele><time>2026-04-25T08:21:56.371Z</time></trkpt><trkpt lat="45.7833533" lon="12.04056"><ele>160.57142857142858</ele><time>2026-04-25T08:21:59.37Z</time></trkpt><trkpt lat="45.7834082" lon="12.0405141"><ele>160.28571428571428</ele><time>2026-04-25T08:22:01.37Z</time></trkpt><trkpt lat="45.7834647" lon="12.0404742"><ele>160.0</ele><time>2026-04-25T08:22:03.371Z</time></trkpt><trkpt lat="45.7835462" lon="12.040414"><ele>160.83333333333334</ele><time>2026-04-25T08:22:06.37Z</time></trkpt><trkpt lat="45.7836279" lon="12.0403554"><ele>161.66666666666669</ele><time>2026-04-25T08:22:09.371Z</time></trkpt><trkpt lat="45.783713" lon="12.040296"><ele>162.5</ele><time>2026-04-25T08:22:12.37Z</time></trkpt><trkpt lat="45.7837885" lon="12.0402353"><ele>163.33333333333334</ele><time>2026-04-25T08:22:15.37Z</time></trkpt><trkpt lat="45.7838613" lon="12.04017"><ele>164.16666666666666</ele><time>2026-04-25T08:22:18.37Z</time></trkpt><trkpt lat="45.7839198" lon="12.0401343"><ele>165.0</ele><time>2026-04-25T08:22:20.37Z</time></trkpt><trkpt lat="45.7839905" lon="12.0400893"><ele>165.0</ele><time>2026-04-25T08:22:23.37Z</time></trkpt><trkpt lat="45.7840681" lon="12.0400194"><ele>165.0</ele><time>2026-04-25T08:22:26.37Z</time></trkpt><trkpt lat="45.7841429" lon="12.0399596"><ele>165.0</ele><time>2026-04-25T08:22:29.37Z</time></trkpt><trkpt lat="45.7842179" lon="12.0398939"><ele>165.0</ele><time>2026-04-25T08:22:32.37Z</time></trkpt><trkpt lat="45.7842956" lon="12.0398382"><ele>165.0</ele><time>2026-04-25T08:22:35.371Z</time></trkpt><trkpt lat="45.7843652" lon="12.039779"><ele>165.0</ele><time>2026-04-25T08:22:38.37Z</time></trkpt><trkpt lat="45.7844363" lon="12.039707"><ele>166.33333333333334</ele><time>2026-04-25T08:22:41.37Z</time></trkpt><trkpt lat="45.784515" lon="12.0396563"><ele>167.66666666666666</ele><time>2026-04-25T08:22:44.37Z</time></trkpt><trkpt lat="45.7845663" lon="12.039603"><ele>169.0</ele><time>2026-04-25T08:22:46.371Z</time></trkpt><trkpt lat="45.7846507" lon="12.0395535"><ele>170.33333333333331</ele><time>2026-04-25T08:22:49.371Z</time></trkpt><trkpt lat="45.7847098" lon="12.0395159"><ele>171.66666666666666</ele><time>2026-04-25T08:22:51.37Z</time></trkpt><trkpt lat="45.7847846" lon="12.0394627"><ele>173.0</ele><time>2026-04-25T08:22:54.37Z</time></trkpt><trkpt lat="45.7848657" lon="12.0394019"><ele>173.0</ele><time>2026-04-25T08:22:57.37Z</time></trkpt><trkpt lat="45.7849436" lon="12.0393489"><ele>173.0</ele><time>2026-04-25T08:23:00.37Z</time></trkpt><trkpt lat="45.7850222" lon="12.0392796"><ele>173.0</ele><time>2026-04-25T08:23:03.37Z</time></trkpt><trkpt lat="45.7850813" lon="12.0392387"><ele>173.0</ele><time>2026-04-25T08:23:05.371Z</time></trkpt><trkpt lat="45.7851402" lon="12.0391983"><ele>173.0</ele><time>2026-04-25T08:23:07.371Z</time></trkpt><trkpt lat="45.7851929" lon="12.0391419"><ele>173.0</ele><time>2026-04-25T08:23:09.37Z</time></trkpt><trkpt lat="45.785271" lon="12.0390776"><ele>173.42857142857142</ele><time>2026-04-25T08:23:12.37Z</time></trkpt><trkpt lat="45.7853382" lon="12.0390269"><ele>173.85714285714286</ele><time>2026-04-25T08:23:14.37Z</time></trkpt><trkpt lat="45.7854131" lon="12.038962"><ele>174.28571428571428</ele><time>2026-04-25T08:23:17.37Z</time></trkpt><trkpt lat="45.7854652" lon="12.0389079"><ele>174.71428571428572</ele><time>2026-04-25T08:23:19.371Z</time></trkpt><trkpt lat="45.7855188" lon="12.0388577"><ele>175.14285714285714</ele><time>2026-04-25T08:23:21.37Z</time></trkpt><trkpt lat="45.7855694" lon="12.0388023"><ele>175.57142857142858</ele><time>2026-04-25T08:23:23.371Z</time></trkpt><trkpt lat="45.7856209" lon="12.0387459"><ele>176.0</ele><time>2026-04-25T08:23:25.37Z</time></trkpt><trkpt lat="45.7856733" lon="12.0386903"><ele>176.0</ele><time>2026-04-25T08:23:27.37Z</time></trkpt><trkpt lat="45.7857281" lon="12.0386379"><ele>176.0</ele><time>2026-04-25T08:23:29.37Z</time></trkpt><trkpt lat="45.7857823" lon="12.0385798"><ele>176.0</ele><time>2026-04-25T08:23:31.369Z</time></trkpt><trkpt lat="45.7858411" lon="12.0385274"><ele>176.0</ele><time>2026-04-25T08:23:33.369Z</time></trkpt><trkpt lat="45.7858973" lon="12.0384751"><ele>176.0</ele><time>2026-04-25T08:23:35.369Z</time></trkpt><trkpt lat="45.7859544" lon="12.0384241"><ele>176.0</ele><time>2026-04-25T08:23:37.369Z</time></trkpt><trkpt lat="45.786008" lon="12.0383654"><ele>176.0</ele><time>2026-04-25T08:23:39.369Z</time></trkpt><trkpt lat="45.7860644" lon="12.0383064"><ele>176.5</ele><time>2026-04-25T08:23:41.369Z</time></trkpt><trkpt lat="45.7861263" lon="12.0382597"><ele>177.0</ele><time>2026-04-25T08:23:43.369Z</time></trkpt><trkpt lat="45.7862032" lon="12.0381776"><ele>177.5</ele><time>2026-04-25T08:23:46.369Z</time></trkpt><trkpt lat="45.7862632" lon="12.0381317"><ele>178.0</ele><time>2026-04-25T08:23:48.369Z</time></trkpt><trkpt lat="45.7863198" lon="12.0380825"><ele>178.5</ele><time>2026-04-25T08:23:50.369Z</time></trkpt><trkpt lat="45.786407" lon="12.03801"><ele>179.0</ele><time>2026-04-25T08:23:53.37Z</time></trkpt><trkpt lat="45.7864612" lon="12.0379575"><ele>179.0</ele><time>2026-04-25T08:23:55.369Z</time></trkpt><trkpt lat="45.7865144" lon="12.0378967"><ele>179.0</ele><time>2026-04-25T08:23:57.369Z</time></trkpt><trkpt lat="45.7865662" lon="12.0378386"><ele>179.0</ele><time>2026-04-25T08:23:59.369Z</time></trkpt><trkpt lat="45.7866425" lon="12.0377588"><ele>179.0</ele><time>2026-04-25T08:24:02.369Z</time></trkpt><trkpt lat="45.786699" lon="12.0377163"><ele>179.0</ele><time>2026-04-25T08:24:04.369Z</time></trkpt><trkpt lat="45.7867735" lon="12.037642"><ele>179.0</ele><time>2026-04-25T08:24:07.37Z</time></trkpt><trkpt lat="45.78683" lon="12.0375871"><ele>180.16666666666666</ele><time>2026-04-25T08:24:09.369Z</time></trkpt><trkpt lat="45.7868885" lon="12.037534"><ele>181.33333333333331</ele><time>2026-04-25T08:24:11.369Z</time></trkpt><trkpt lat="45.7869402" lon="12.0374806"><ele>182.5</ele><time>2026-04-25T08:24:13.37Z</time></trkpt><trkpt lat="45.7870125" lon="12.0374014"><ele>183.66666666666666</ele><time>2026-04-25T08:24:16.369Z</time></trkpt><trkpt lat="45.7870854" lon="12.0373387"><ele>184.83333333333334</ele><time>2026-04-25T08:24:19.369Z</time></trkpt><trkpt lat="45.7871403" lon="12.0372931"><ele>186.0</ele><time>2026-04-25T08:24:21.37Z</time></trkpt><trkpt lat="45.7872197" lon="12.0372231"><ele>186.0</ele><time>2026-04-25T08:24:24.369Z</time></trkpt><trkpt lat="45.7872885" lon="12.0371503"><ele>186.0</ele><time>2026-04-25T08:24:27.369Z</time></trkpt><trkpt lat="45.7873617" lon="12.0370847"><ele>186.0</ele><time>2026-04-25T08:24:30.369Z</time></trkpt><trkpt lat="45.7874397" lon="12.0370101"><ele>186.0</ele><time>2026-04-25T08:24:33.369Z</time></trkpt><trkpt lat="45.787493" lon="12.0369561"><ele>186.0</ele><time>2026-04-25T08:24:35.369Z</time></trkpt><trkpt lat="45.7875683" lon="12.036875"><ele>186.0</ele><time>2026-04-25T08:24:38.369Z</time></trkpt><trkpt lat="45.7876399" lon="12.0368035"><ele>186.66666666666666</ele><time>2026-04-25T08:24:41.369Z</time></trkpt><trkpt lat="45.7877221" lon="12.0367426"><ele>187.33333333333334</ele><time>2026-04-25T08:24:44.369Z</time></trkpt><trkpt lat="45.7877748" lon="12.0366892"><ele>188.0</ele><time>2026-04-25T08:24:46.369Z</time></trkpt><trkpt lat="45.7878479" lon="12.0366203"><ele>188.66666666666669</ele><time>2026-04-25T08:24:49.369Z</time></trkpt><trkpt lat="45.7879225" lon="12.0365409"><ele>189.33333333333334</ele><time>2026-04-25T08:24:52.369Z</time></trkpt><trkpt lat="45.7879757" lon="12.0364845"><ele>190.0</ele><time>2026-04-25T08:24:54.37Z</time></trkpt><trkpt lat="45.7880528" lon="12.0363989"><ele>190.0</ele><time>2026-04-25T08:24:57.369Z</time></trkpt><trkpt lat="45.7881057" lon="12.0363344"><ele>190.0</ele><time>2026-04-25T08:24:59.37Z</time></trkpt><trkpt lat="45.7881732" lon="12.0362511"><ele>190.0</ele><time>2026-04-25T08:25:02.37Z</time></trkpt><trkpt lat="45.7882237" lon="12.0361904"><ele>190.0</ele><time>2026-04-25T08:25:04.369Z</time></trkpt><trkpt lat="45.7882722" lon="12.0361032"><ele>190.0</ele><time>2026-04-25T08:25:06.37Z</time></trkpt><trkpt lat="45.7883223" lon="12.0360226"><ele>190.0</ele><time>2026-04-25T08:25:08.369Z</time></trkpt><trkpt lat="45.7883705" lon="12.0359268"><ele>190.0</ele><time>2026-04-25T08:25:10.369Z</time></trkpt><trkpt lat="45.788424" lon="12.0358375"><ele>190.0</ele><time>2026-04-25T08:25:12.369Z</time></trkpt><trkpt lat="45.788475" lon="12.0357464"><ele>190.0</ele><time>2026-04-25T08:25:14.369Z</time></trkpt><trkpt lat="45.7885097" lon="12.0356566"><ele>190.0</ele><time>2026-04-25T08:25:16.369Z</time></trkpt><trkpt lat="45.7885459" lon="12.0355737"><ele>190.0</ele><time>2026-04-25T08:25:18.369Z</time></trkpt><trkpt lat="45.788592" lon="12.0354827"><ele>190.0</ele><time>2026-04-25T08:25:20.369Z</time></trkpt><trkpt lat="45.7886517" lon="12.035397"><ele>190.0</ele><time>2026-04-25T08:25:22.369Z</time></trkpt><trkpt lat="45.7887127" lon="12.035336"><ele>190.0</ele><time>2026-04-25T08:25:24.37Z</time></trkpt><trkpt lat="45.7887816" lon="12.0352844"><ele>190.0</ele><time>2026-04-25T08:25:26.369Z</time></trkpt><trkpt lat="45.7888529" lon="12.0352835"><ele>190.0</ele><time>2026-04-25T08:25:28.369Z</time></trkpt><trkpt lat="45.7889219" lon="12.0353331"><ele>190.0</ele><time>2026-04-25T08:25:30.37Z</time></trkpt><trkpt lat="45.7889831" lon="12.0353868"><ele>190.0</ele><time>2026-04-25T08:25:32.369Z</time></trkpt><trkpt lat="45.7890513" lon="12.0354446"><ele>190.0</ele><time>2026-04-25T08:25:34.369Z</time></trkpt><trkpt lat="45.7891173" lon="12.0354866"><ele>190.0</ele><time>2026-04-25T08:25:36.369Z</time></trkpt><trkpt lat="45.7891893" lon="12.0354885"><ele>190.0</ele><time>2026-04-25T08:25:38.369Z</time></trkpt><trkpt lat="45.7892703" lon="12.0354707"><ele>190.0</ele><time>2026-04-25T08:25:40.369Z</time></trkpt><trkpt lat="45.7893671" lon="12.035443"><ele>190.0</ele><time>2026-04-25T08:25:42.37Z</time></trkpt><trkpt lat="45.7894624" lon="12.0354258"><ele>190.0</ele><time>2026-04-25T08:25:44.369Z</time></trkpt><trkpt lat="45.7895557" lon="12.0353992"><ele>190.16666666666669</ele><time>2026-04-25T08:25:46.37Z</time></trkpt><trkpt lat="45.7896454" lon="12.0353738"><ele>190.33333333333334</ele><time>2026-04-25T08:25:48.369Z</time></trkpt><trkpt lat="45.7897344" lon="12.0353559"><ele>190.5</ele><time>2026-04-25T08:25:50.37Z</time></trkpt><trkpt lat="45.7898089" lon="12.0353469"><ele>190.66666666666666</ele><time>2026-04-25T08:25:52.369Z</time></trkpt><trkpt lat="45.7898667" lon="12.0353099"><ele>190.83333333333331</ele><time>2026-04-25T08:25:54.369Z</time></trkpt><trkpt lat="45.7899274" lon="12.0352271"><ele>191.0</ele><time>2026-04-25T08:25:56.369Z</time></trkpt><trkpt lat="45.7899879" lon="12.0351488"><ele>191.0</ele><time>2026-04-25T08:25:58.369Z</time></trkpt><trkpt lat="45.7900364" lon="12.0350733"><ele>191.0</ele><time>2026-04-25T08:26:00.369Z</time></trkpt><trkpt lat="45.7900617" lon="12.0349874"><ele>191.0</ele><time>2026-04-25T08:26:02.37Z</time></trkpt><trkpt lat="45.7901155" lon="12.0348997"><ele>191.0</ele><time>2026-04-25T08:26:05.369Z</time></trkpt><trkpt lat="45.7900928" lon="12.0349486"><ele>191.0</ele><time>2026-04-25T08:34:01.367Z</time></trkpt><trkpt lat="45.790034" lon="12.0349815"><ele>191.0</ele><time>2026-04-25T08:34:04.367Z</time></trkpt><trkpt lat="45.7899842" lon="12.0350718"><ele>191.0</ele><time>2026-04-25T08:34:07.366Z</time></trkpt><trkpt lat="45.7899422" lon="12.0351447"><ele>191.0</ele><time>2026-04-25T08:34:11.366Z</time></trkpt><trkpt lat="45.7899011" lon="12.0352155"><ele>191.0</ele><time>2026-04-25T08:34:15.366Z</time></trkpt><trkpt lat="45.7898292" lon="12.0352504"><ele>191.0</ele><time>2026-04-25T08:34:20.366Z</time></trkpt><trkpt lat="45.789778" lon="12.0351799"><ele>191.0</ele><time>2026-04-25T08:34:23.367Z</time></trkpt><trkpt lat="45.7897275" lon="12.0351053"><ele>191.0</ele><time>2026-04-25T08:34:26.366Z</time></trkpt><trkpt lat="45.7896745" lon="12.0350387"><ele>191.0</ele><time>2026-04-25T08:34:29.366Z</time></trkpt><trkpt lat="45.7895892" lon="12.0349814"><ele>191.0</ele><time>2026-04-25T08:34:32.366Z</time></trkpt><trkpt lat="45.7895221" lon="12.0349342"><ele>190.85714285714286</ele><time>2026-04-25T08:34:34.366Z</time></trkpt><trkpt lat="45.7894609" lon="12.034889"><ele>190.7142857142857</ele><time>2026-04-25T08:34:36.366Z</time></trkpt><trkpt lat="45.7893917" lon="12.0348409"><ele>190.57142857142856</ele><time>2026-04-25T08:34:38.367Z</time></trkpt><trkpt lat="45.7893263" lon="12.034806"><ele>190.42857142857144</ele><time>2026-04-25T08:34:40.367Z</time></trkpt><trkpt lat="45.7892633" lon="12.0347717"><ele>190.28571428571428</ele><time>2026-04-25T08:34:42.366Z</time></trkpt><trkpt lat="45.7892013" lon="12.0347338"><ele>190.14285714285714</ele><time>2026-04-25T08:34:44.366Z</time></trkpt><trkpt lat="45.7891369" lon="12.034694"><ele>190.0</ele><time>2026-04-25T08:34:46.366Z</time></trkpt><trkpt lat="45.7890605" lon="12.034689"><ele>189.6</ele><time>2026-04-25T08:34:48.367Z</time></trkpt><trkpt lat="45.7889799" lon="12.034743"><ele>189.2</ele><time>2026-04-25T08:34:50.366Z</time></trkpt><trkpt lat="45.788904" lon="12.0348059"><ele>188.8</ele><time>2026-04-25T08:34:52.366Z</time></trkpt><trkpt lat="45.7888154" lon="12.034876"><ele>188.4</ele><time>2026-04-25T08:34:54.366Z</time></trkpt><trkpt lat="45.7887177" lon="12.0348949"><ele>188.0</ele><time>2026-04-25T08:34:56.366Z</time></trkpt><trkpt lat="45.7886211" lon="12.0348684"><ele>188.0</ele><time>2026-04-25T08:34:58.366Z</time></trkpt><trkpt lat="45.7885334" lon="12.0348046"><ele>188.0</ele><time>2026-04-25T08:35:00.366Z</time></trkpt><trkpt lat="45.7884361" lon="12.0347419"><ele>188.0</ele><time>2026-04-25T08:35:02.366Z</time></trkpt><trkpt lat="45.788332" lon="12.0346685"><ele>188.0</ele><time>2026-04-25T08:35:04.366Z</time></trkpt><trkpt lat="45.7882273" lon="12.0346095"><ele>188.0</ele><time>2026-04-25T08:35:06.366Z</time></trkpt><trkpt lat="45.7881626" lon="12.0345889"><ele>187.57142857142856</ele><time>2026-04-25T08:35:07.367Z</time></trkpt><trkpt lat="45.7880947" lon="12.034558"><ele>187.14285714285714</ele><time>2026-04-25T08:35:08.366Z</time></trkpt><trkpt lat="45.7880281" lon="12.0345293"><ele>186.71428571428572</ele><time>2026-04-25T08:35:09.366Z</time></trkpt><trkpt lat="45.7879645" lon="12.0344994"><ele>186.28571428571428</ele><time>2026-04-25T08:35:10.367Z</time></trkpt><trkpt lat="45.7878971" lon="12.034475"><ele>185.85714285714286</ele><time>2026-04-25T08:35:11.366Z</time></trkpt><trkpt lat="45.7878224" lon="12.0344447"><ele>185.42857142857142</ele><time>2026-04-25T08:35:12.366Z</time></trkpt><trkpt lat="45.7877471" lon="12.0344146"><ele>185.0</ele><time>2026-04-25T08:35:13.366Z</time></trkpt><trkpt lat="45.7876643" lon="12.0343746"><ele>184.33333333333331</ele><time>2026-04-25T08:35:14.366Z</time></trkpt><trkpt lat="45.7875835" lon="12.0343375"><ele>183.66666666666666</ele><time>2026-04-25T08:35:15.366Z</time></trkpt><trkpt lat="45.7875044" lon="12.034308"><ele>183.0</ele><time>2026-04-25T08:35:16.366Z</time></trkpt><trkpt lat="45.7874208" lon="12.0342731"><ele>182.33333333333334</ele><time>2026-04-25T08:35:17.366Z</time></trkpt><trkpt lat="45.7873371" lon="12.0342316"><ele>181.66666666666669</ele><time>2026-04-25T08:35:18.366Z</time></trkpt><trkpt lat="45.7872636" lon="12.0341936"><ele>181.0</ele><time>2026-04-25T08:35:19.366Z</time></trkpt><trkpt lat="45.7871901" lon="12.0341545"><ele>180.5</ele><time>2026-04-25T08:35:20.366Z</time></trkpt><trkpt lat="45.7871192" lon="12.0341004"><ele>180.0</ele><time>2026-04-25T08:35:21.366Z</time></trkpt><trkpt lat="45.7870525" lon="12.0340226"><ele>179.5</ele><time>2026-04-25T08:35:22.366Z</time></trkpt><trkpt lat="45.7869942" lon="12.0339324"><ele>179.0</ele><time>2026-04-25T08:35:23.366Z</time></trkpt><trkpt lat="45.7869438" lon="12.0338356"><ele>178.5</ele><time>2026-04-25T08:35:24.366Z</time></trkpt><trkpt lat="45.7868968" lon="12.0337267"><ele>178.0</ele><time>2026-04-25T08:35:25.366Z</time></trkpt><trkpt lat="45.7868424" lon="12.0336261"><ele>177.2</ele><time>2026-04-25T08:35:26.366Z</time></trkpt><trkpt lat="45.7867786" lon="12.0335316"><ele>176.4</ele><time>2026-04-25T08:35:27.366Z</time></trkpt><trkpt lat="45.7866954" lon="12.0334738"><ele>175.6</ele><time>2026-04-25T08:35:28.366Z</time></trkpt><trkpt lat="45.7866082" lon="12.0334437"><ele>174.79999999999998</ele><time>2026-04-25T08:35:29.367Z</time></trkpt><trkpt lat="45.7865172" lon="12.0334236"><ele>174.0</ele><time>2026-04-25T08:35:30.366Z</time></trkpt><trkpt lat="45.7864166" lon="12.0334103"><ele>174.0</ele><time>2026-04-25T08:35:31.366Z</time></trkpt><trkpt lat="45.7863185" lon="12.033394"><ele>174.0</ele><time>2026-04-25T08:35:32.366Z</time></trkpt><trkpt lat="45.7862179" lon="12.0333814"><ele>174.0</ele><time>2026-04-25T08:35:33.367Z</time></trkpt><trkpt lat="45.7861117" lon="12.0333755"><ele>174.0</ele><time>2026-04-25T08:35:34.366Z</time></trkpt><trkpt lat="45.786014" lon="12.033366"><ele>174.0</ele><time>2026-04-25T08:35:35.366Z</time></trkpt><trkpt lat="45.7859176" lon="12.0333626"><ele>173.66666666666666</ele><time>2026-04-25T08:35:36.366Z</time></trkpt><trkpt lat="45.7858258" lon="12.0333506"><ele>173.33333333333334</ele><time>2026-04-25T08:35:37.366Z</time></trkpt><trkpt lat="45.7857423" lon="12.0333251"><ele>173.0</ele><time>2026-04-25T08:35:38.366Z</time></trkpt><trkpt lat="45.7856652" lon="12.0332785"><ele>172.66666666666669</ele><time>2026-04-25T08:35:39.367Z</time></trkpt><trkpt lat="45.7855936" lon="12.0331985"><ele>172.33333333333334</ele><time>2026-04-25T08:35:40.366Z</time></trkpt><trkpt lat="45.7855356" lon="12.0331066"><ele>172.0</ele><time>2026-04-25T08:35:41.366Z</time></trkpt><trkpt lat="45.7854777" lon="12.0330068"><ele>171.83333333333334</ele><time>2026-04-25T08:35:42.366Z</time></trkpt><trkpt lat="45.7854216" lon="12.0329119"><ele>171.66666666666669</ele><time>2026-04-25T08:35:43.367Z</time></trkpt><trkpt lat="45.7853673" lon="12.0328085"><ele>171.5</ele><time>2026-04-25T08:35:44.366Z</time></trkpt><trkpt lat="45.785314" lon="12.0327089"><ele>171.33333333333334</ele><time>2026-04-25T08:35:45.366Z</time></trkpt><trkpt lat="45.7852494" lon="12.0326348"><ele>171.16666666666666</ele><time>2026-04-25T08:35:46.366Z</time></trkpt><trkpt lat="45.7851727" lon="12.0326075"><ele>171.0</ele><time>2026-04-25T08:35:47.366Z</time></trkpt><trkpt lat="45.7850905" lon="12.0326092"><ele>169.8</ele><time>2026-04-25T08:35:48.366Z</time></trkpt><trkpt lat="45.785004" lon="12.0326215"><ele>168.60000000000002</ele><time>2026-04-25T08:35:49.366Z</time></trkpt><trkpt lat="45.7849141" lon="12.0326446"><ele>167.4</ele><time>2026-04-25T08:35:50.366Z</time></trkpt><trkpt lat="45.7848246" lon="12.032656"><ele>166.2</ele><time>2026-04-25T08:35:51.366Z</time></trkpt><trkpt lat="45.784739" lon="12.0326653"><ele>165.0</ele><time>2026-04-25T08:35:52.366Z</time></trkpt><trkpt lat="45.7846433" lon="12.0326893"><ele>165.0</ele><time>2026-04-25T08:35:53.366Z</time></trkpt><trkpt lat="45.7845442" lon="12.0327253"><ele>165.0</ele><time>2026-04-25T08:35:54.367Z</time></trkpt><trkpt lat="45.7844423" lon="12.0327408"><ele>165.0</ele><time>2026-04-25T08:35:55.366Z</time></trkpt><trkpt lat="45.7843395" lon="12.0327392"><ele>165.0</ele><time>2026-04-25T08:35:56.366Z</time></trkpt><trkpt lat="45.7842328" lon="12.0327196"><ele>165.0</ele><time>2026-04-25T08:35:57.367Z</time></trkpt><trkpt lat="45.7841216" lon="12.0327062"><ele>163.5</ele><time>2026-04-25T08:35:58.366Z</time></trkpt><trkpt lat="45.7839998" lon="12.0326921"><ele>162.0</ele><time>2026-04-25T08:35:59.367Z</time></trkpt><trkpt lat="45.7838795" lon="12.0326782"><ele>160.5</ele><time>2026-04-25T08:36:00.366Z</time></trkpt><trkpt lat="45.7837572" lon="12.0326579"><ele>159.0</ele><time>2026-04-25T08:36:01.366Z</time></trkpt><trkpt lat="45.7836282" lon="12.0326299"><ele>156.75</ele><time>2026-04-25T08:36:02.366Z</time></trkpt><trkpt lat="45.7834974" lon="12.0326037"><ele>154.5</ele><time>2026-04-25T08:36:03.367Z</time></trkpt><trkpt lat="45.7833654" lon="12.0325807"><ele>152.25</ele><time>2026-04-25T08:36:04.367Z</time></trkpt><trkpt lat="45.7832262" lon="12.0325675"><ele>150.0</ele><time>2026-04-25T08:36:05.366Z</time></trkpt><trkpt lat="45.7830954" lon="12.0325613"><ele>150.0</ele><time>2026-04-25T08:36:06.366Z</time></trkpt><trkpt lat="45.7829712" lon="12.0325381"><ele>150.0</ele><time>2026-04-25T08:36:07.366Z</time></trkpt><trkpt lat="45.7828394" lon="12.0325288"><ele>150.0</ele><time>2026-04-25T08:36:08.366Z</time></trkpt><trkpt lat="45.7827112" lon="12.0325462"><ele>150.0</ele><time>2026-04-25T08:36:09.366Z</time></trkpt><trkpt lat="45.7825876" lon="12.0325725"><ele>148.75</ele><time>2026-04-25T08:36:10.366Z</time></trkpt><trkpt lat="45.7824601" lon="12.0326198"><ele>147.5</ele><time>2026-04-25T08:36:11.366Z</time></trkpt><trkpt lat="45.7823426" lon="12.0326552"><ele>146.25</ele><time>2026-04-25T08:36:12.366Z</time></trkpt><trkpt lat="45.7822173" lon="12.032694"><ele>145.0</ele><time>2026-04-25T08:36:13.366Z</time></trkpt><trkpt lat="45.782087" lon="12.0327206"><ele>145.0</ele><time>2026-04-25T08:36:14.366Z</time></trkpt><trkpt lat="45.7819516" lon="12.0327399"><ele>145.0</ele><time>2026-04-25T08:36:15.367Z</time></trkpt><trkpt lat="45.781822" lon="12.0327365"><ele>145.0</ele><time>2026-04-25T08:36:16.367Z</time></trkpt><trkpt lat="45.7816916" lon="12.032719"><ele>145.0</ele><time>2026-04-25T08:36:17.366Z</time></trkpt><trkpt lat="45.7815622" lon="12.0326978"><ele>142.5</ele><time>2026-04-25T08:36:18.366Z</time></trkpt><trkpt lat="45.7814387" lon="12.0326686"><ele>140.0</ele><time>2026-04-25T08:36:19.367Z</time></trkpt><trkpt lat="45.7813191" lon="12.0326472"><ele>137.5</ele><time>2026-04-25T08:36:20.366Z</time></trkpt><trkpt lat="45.7811977" lon="12.0326222"><ele>135.0</ele><time>2026-04-25T08:36:21.366Z</time></trkpt><trkpt lat="45.7810793" lon="12.0326038"><ele>133.2</ele><time>2026-04-25T08:36:22.366Z</time></trkpt><trkpt lat="45.7809611" lon="12.0325996"><ele>131.4</ele><time>2026-04-25T08:36:23.366Z</time></trkpt><trkpt lat="45.780856" lon="12.0326009"><ele>129.6</ele><time>2026-04-25T08:36:24.366Z</time></trkpt><trkpt lat="45.7807549" lon="12.0326226"><ele>127.8</ele><time>2026-04-25T08:36:25.366Z</time></trkpt><trkpt lat="45.7806761" lon="12.0326719"><ele>126.0</ele><time>2026-04-25T08:36:26.366Z</time></trkpt><trkpt lat="45.7805988" lon="12.0327299"><ele>126.0</ele><time>2026-04-25T08:36:27.366Z</time></trkpt><trkpt lat="45.780524" lon="12.0327988"><ele>126.0</ele><time>2026-04-25T08:36:28.366Z</time></trkpt><trkpt lat="45.7804455" lon="12.0328666"><ele>126.0</ele><time>2026-04-25T08:36:29.366Z</time></trkpt><trkpt lat="45.7803664" lon="12.0329351"><ele>126.0</ele><time>2026-04-25T08:36:30.366Z</time></trkpt><trkpt lat="45.7802811" lon="12.0329999"><ele>126.0</ele><time>2026-04-25T08:36:31.366Z</time></trkpt><trkpt lat="45.7801942" lon="12.0330304"><ele>124.66666666666667</ele><time>2026-04-25T08:36:32.366Z</time></trkpt><trkpt lat="45.7801097" lon="12.0330392"><ele>123.33333333333334</ele><time>2026-04-25T08:36:33.367Z</time></trkpt><trkpt lat="45.780023" lon="12.033041"><ele>122.0</ele><time>2026-04-25T08:36:34.366Z</time></trkpt><trkpt lat="45.7799374" lon="12.0330335"><ele>120.66666666666667</ele><time>2026-04-25T08:36:35.367Z</time></trkpt><trkpt lat="45.7798516" lon="12.033031"><ele>119.33333333333334</ele><time>2026-04-25T08:36:36.366Z</time></trkpt><trkpt lat="45.7797671" lon="12.0330226"><ele>118.0</ele><time>2026-04-25T08:36:37.366Z</time></trkpt><trkpt lat="45.7796806" lon="12.0330125"><ele>118.00000000000001</ele><time>2026-04-25T08:36:38.367Z</time></trkpt><trkpt lat="45.7795935" lon="12.0330025"><ele>118.0</ele><time>2026-04-25T08:36:39.366Z</time></trkpt><trkpt lat="45.7795055" lon="12.0330005"><ele>118.0</ele><time>2026-04-25T08:36:40.367Z</time></trkpt><trkpt lat="45.7794185" lon="12.0330014"><ele>118.0</ele><time>2026-04-25T08:36:41.367Z</time></trkpt><trkpt lat="45.7793256" lon="12.0329973"><ele>118.00000000000001</ele><time>2026-04-25T08:36:42.366Z</time></trkpt><trkpt lat="45.7792331" lon="12.0329927"><ele>118.0</ele><time>2026-04-25T08:36:43.366Z</time></trkpt><trkpt lat="45.7791443" lon="12.0329719"><ele>117.4</ele><time>2026-04-25T08:36:44.366Z</time></trkpt><trkpt lat="45.7790566" lon="12.032933"><ele>116.80000000000001</ele><time>2026-04-25T08:36:45.366Z</time></trkpt><trkpt lat="45.7789713" lon="12.0328666"><ele>116.2</ele><time>2026-04-25T08:36:46.366Z</time></trkpt><trkpt lat="45.7789047" lon="12.0327682"><ele>115.6</ele><time>2026-04-25T08:36:47.366Z</time></trkpt><trkpt lat="45.7788545" lon="12.032663"><ele>115.0</ele><time>2026-04-25T08:36:48.366Z</time></trkpt><trkpt lat="45.7788087" lon="12.0325501"><ele>114.83333333333334</ele><time>2026-04-25T08:36:49.366Z</time></trkpt><trkpt lat="45.7787656" lon="12.0324393"><ele>114.66666666666667</ele><time>2026-04-25T08:36:50.366Z</time></trkpt><trkpt lat="45.7787192" lon="12.0323326"><ele>114.5</ele><time>2026-04-25T08:36:51.366Z</time></trkpt><trkpt lat="45.7786724" lon="12.0322245"><ele>114.33333333333334</ele><time>2026-04-25T08:36:52.366Z</time></trkpt><trkpt lat="45.7786303" lon="12.0321103"><ele>114.16666666666667</ele><time>2026-04-25T08:36:53.367Z</time></trkpt><trkpt lat="45.7785865" lon="12.0320016"><ele>114.0</ele><time>2026-04-25T08:36:54.366Z</time></trkpt><trkpt lat="45.7785394" lon="12.0318979"><ele>113.5</ele><time>2026-04-25T08:36:55.367Z</time></trkpt><trkpt lat="45.7784942" lon="12.0317928"><ele>113.0</ele><time>2026-04-25T08:36:56.366Z</time></trkpt><trkpt lat="45.7784481" lon="12.0316905"><ele>112.5</ele><time>2026-04-25T08:36:57.366Z</time></trkpt><trkpt lat="45.7784062" lon="12.0315892"><ele>112.0</ele><time>2026-04-25T08:36:58.366Z</time></trkpt><trkpt lat="45.7783614" lon="12.0314893"><ele>111.5</ele><time>2026-04-25T08:36:59.367Z</time></trkpt><trkpt lat="45.7783178" lon="12.0313897"><ele>111.0</ele><time>2026-04-25T08:37:00.367Z</time></trkpt><trkpt lat="45.7782716" lon="12.0312843"><ele>110.83333333333333</ele><time>2026-04-25T08:37:01.367Z</time></trkpt><trkpt lat="45.7782291" lon="12.0311795"><ele>110.66666666666666</ele><time>2026-04-25T08:37:02.367Z</time></trkpt><trkpt lat="45.7781839" lon="12.0310747"><ele>110.5</ele><time>2026-04-25T08:37:03.366Z</time></trkpt><trkpt lat="45.7781419" lon="12.0309671"><ele>110.33333333333333</ele><time>2026-04-25T08:37:04.366Z</time></trkpt><trkpt lat="45.778101" lon="12.0308622"><ele>110.16666666666666</ele><time>2026-04-25T08:37:05.366Z</time></trkpt><trkpt lat="45.7780556" lon="12.0307655"><ele>110.0</ele><time>2026-04-25T08:37:06.367Z</time></trkpt><trkpt lat="45.7780172" lon="12.030672"><ele>109.71428571428571</ele><time>2026-04-25T08:37:07.366Z</time></trkpt><trkpt lat="45.7779833" lon="12.0305818"><ele>109.42857142857143</ele><time>2026-04-25T08:37:08.367Z</time></trkpt><trkpt lat="45.7779519" lon="12.030499"><ele>109.14285714285714</ele><time>2026-04-25T08:37:09.367Z</time></trkpt><trkpt lat="45.7778952" lon="12.0303734"><ele>108.85714285714286</ele><time>2026-04-25T08:37:11.367Z</time></trkpt><trkpt lat="45.7778659" lon="12.0302828"><ele>108.57142857142857</ele><time>2026-04-25T08:37:13.366Z</time></trkpt><trkpt lat="45.7778892" lon="12.0301933"><ele>108.28571428571428</ele><time>2026-04-25T08:37:15.366Z</time></trkpt><trkpt lat="45.777951" lon="12.0301523"><ele>108.0</ele><time>2026-04-25T08:37:17.367Z</time></trkpt><trkpt lat="45.7780212" lon="12.0301005"><ele>108.0</ele><time>2026-04-25T08:37:19.367Z</time></trkpt><trkpt lat="45.7780949" lon="12.0300246"><ele>108.0</ele><time>2026-04-25T08:37:21.366Z</time></trkpt><trkpt lat="45.7781553" lon="12.0299516"><ele>108.0</ele><time>2026-04-25T08:37:23.366Z</time></trkpt><trkpt lat="45.7781969" lon="12.029882"><ele>108.0</ele><time>2026-04-25T08:37:25.366Z</time></trkpt><trkpt lat="45.7781995" lon="12.0297777"><ele>108.0</ele><time>2026-04-25T08:37:33.366Z</time></trkpt><trkpt lat="45.7782098" lon="12.0296694"><ele>108.0</ele><time>2026-04-25T08:37:36.366Z</time></trkpt><trkpt lat="45.7782259" lon="12.0295319"><ele>108.0</ele><time>2026-04-25T08:37:39.365Z</time></trkpt><trkpt lat="45.7782383" lon="12.0294239"><ele>108.0</ele><time>2026-04-25T08:37:41.365Z</time></trkpt><trkpt lat="45.7782567" lon="12.0293127"><ele>108.0</ele><time>2026-04-25T08:37:43.365Z</time></trkpt><trkpt lat="45.7782734" lon="12.0291955"><ele>108.0</ele><time>2026-04-25T08:37:45.365Z</time></trkpt><trkpt lat="45.7782871" lon="12.0290903"><ele>108.0</ele><time>2026-04-25T08:37:47.366Z</time></trkpt><trkpt lat="45.7782963" lon="12.0289873"><ele>108.0</ele><time>2026-04-25T08:37:49.365Z</time></trkpt><trkpt lat="45.7782672" lon="12.0289047"><ele>107.66666666666667</ele><time>2026-04-25T08:37:51.365Z</time></trkpt><trkpt lat="45.7782068" lon="12.0288473"><ele>107.33333333333334</ele><time>2026-04-25T08:37:53.365Z</time></trkpt><trkpt lat="45.7781425" lon="12.0287855"><ele>107.0</ele><time>2026-04-25T08:37:55.366Z</time></trkpt><trkpt lat="45.7780648" lon="12.0287325"><ele>106.66666666666667</ele><time>2026-04-25T08:37:57.365Z</time></trkpt><trkpt lat="45.7779938" lon="12.0286763"><ele>106.33333333333334</ele><time>2026-04-25T08:37:59.365Z</time></trkpt><trkpt lat="45.777924" lon="12.0286273"><ele>106.0</ele><time>2026-04-25T08:38:01.365Z</time></trkpt><trkpt lat="45.7778498" lon="12.028593"><ele>106.0</ele><time>2026-04-25T08:38:03.365Z</time></trkpt><trkpt lat="45.7777726" lon="12.0285521"><ele>106.0</ele><time>2026-04-25T08:38:05.365Z</time></trkpt><trkpt lat="45.7776995" lon="12.0285132"><ele>106.0</ele><time>2026-04-25T08:38:07.365Z</time></trkpt><trkpt lat="45.7776402" lon="12.0284551"><ele>106.0</ele><time>2026-04-25T08:38:09.366Z</time></trkpt><trkpt lat="45.7776107" lon="12.0283681"><ele>106.0</ele><time>2026-04-25T08:38:11.365Z</time></trkpt><trkpt lat="45.7775914" lon="12.02828"><ele>106.0</ele><time>2026-04-25T08:38:13.365Z</time></trkpt><trkpt lat="45.7775862" lon="12.028185"><ele>106.0</ele><time>2026-04-25T08:38:15.365Z</time></trkpt><trkpt lat="45.7775791" lon="12.0280671"><ele>106.50000000000001</ele><time>2026-04-25T08:38:18.365Z</time></trkpt><trkpt lat="45.7775708" lon="12.0279375"><ele>107.0</ele><time>2026-04-25T08:38:21.366Z</time></trkpt><trkpt lat="45.7775697" lon="12.0278381"><ele>107.5</ele><time>2026-04-25T08:38:23.366Z</time></trkpt><trkpt lat="45.7775667" lon="12.0277087"><ele>108.0</ele><time>2026-04-25T08:38:26.365Z</time></trkpt><trkpt lat="45.7775275" lon="12.0276295"><ele>108.50000000000001</ele><time>2026-04-25T08:38:29.365Z</time></trkpt><trkpt lat="45.7774532" lon="12.0276044"><ele>109.0</ele><time>2026-04-25T08:38:33.365Z</time></trkpt><trkpt lat="45.7774699" lon="12.0274914"><ele>108.66666666666667</ele><time>2026-04-25T08:38:37.365Z</time></trkpt><trkpt lat="45.7775245" lon="12.0274229"><ele>108.33333333333334</ele><time>2026-04-25T08:38:41.365Z</time></trkpt><trkpt lat="45.7775669" lon="12.0273261"><ele>108.0</ele><time>2026-04-25T08:38:44.365Z</time></trkpt><trkpt lat="45.777572" lon="12.0271923"><ele>107.66666666666666</ele><time>2026-04-25T08:38:47.365Z</time></trkpt><trkpt lat="45.7775658" lon="12.0270798"><ele>107.33333333333333</ele><time>2026-04-25T08:38:50.365Z</time></trkpt><trkpt lat="45.7775664" lon="12.0269543"><ele>107.0</ele><time>2026-04-25T08:38:53.365Z</time></trkpt><trkpt lat="45.7775691" lon="12.0268398"><ele>106.99999999999999</ele><time>2026-04-25T08:38:56.365Z</time></trkpt><trkpt lat="45.7775692" lon="12.0267358"><ele>107.0</ele><time>2026-04-25T08:38:59.365Z</time></trkpt><trkpt lat="45.7775726" lon="12.0266193"><ele>107.0</ele><time>2026-04-25T08:39:02.365Z</time></trkpt><trkpt lat="45.777574" lon="12.0265242"><ele>107.0</ele><time>2026-04-25T08:39:05.366Z</time></trkpt><trkpt lat="45.7775617" lon="12.0264111"><ele>106.99999999999999</ele><time>2026-04-25T08:39:08.365Z</time></trkpt><trkpt lat="45.7775584" lon="12.0262964"><ele>107.0</ele><time>2026-04-25T08:39:11.365Z</time></trkpt><trkpt lat="45.7775627" lon="12.0261877"><ele>107.16666666666666</ele><time>2026-04-25T08:39:14.365Z</time></trkpt><trkpt lat="45.7775627" lon="12.0260937"><ele>107.33333333333333</ele><time>2026-04-25T08:39:16.365Z</time></trkpt><trkpt lat="45.7775618" lon="12.0259918"><ele>107.5</ele><time>2026-04-25T08:39:18.365Z</time></trkpt><trkpt lat="45.7775709" lon="12.0258594"><ele>107.66666666666666</ele><time>2026-04-25T08:39:21.365Z</time></trkpt><trkpt lat="45.7775543" lon="12.0257647"><ele>107.83333333333333</ele><time>2026-04-25T08:39:24.365Z</time></trkpt><trkpt lat="45.7774887" lon="12.0257405"><ele>108.0</ele><time>2026-04-25T08:39:27.365Z</time></trkpt><trkpt lat="45.7773983" lon="12.025758"><ele>108.0</ele><time>2026-04-25T08:39:30.365Z</time></trkpt><trkpt lat="45.7773064" lon="12.0257578"><ele>108.0</ele><time>2026-04-25T08:39:33.365Z</time></trkpt><trkpt lat="45.7772279" lon="12.0257608"><ele>108.0</ele><time>2026-04-25T08:39:36.365Z</time></trkpt><trkpt lat="45.7771601" lon="12.0257582"><ele>108.0</ele><time>2026-04-25T08:39:39.365Z</time></trkpt><trkpt lat="45.7770965" lon="12.025772"><ele>108.0</ele><time>2026-04-25T08:39:49.365Z</time></trkpt><trkpt lat="45.7770321" lon="12.0257805"><ele>108.0</ele><time>2026-04-25T08:39:55.366Z</time></trkpt><trkpt lat="45.7770189" lon="12.0259021"><ele>108.0</ele><time>2026-04-25T08:39:59.365Z</time></trkpt><trkpt lat="45.7769951" lon="12.0260093"><ele>108.0</ele><time>2026-04-25T08:40:02.365Z</time></trkpt><trkpt lat="45.7769661" lon="12.0261201"><ele>108.0</ele><time>2026-04-25T08:40:05.365Z</time></trkpt><trkpt lat="45.7769451" lon="12.0262218"><ele>108.0</ele><time>2026-04-25T08:40:08.365Z</time></trkpt><trkpt lat="45.7769251" lon="12.0263268"><ele>108.0</ele><time>2026-04-25T08:40:11.365Z</time></trkpt><trkpt lat="45.7769006" lon="12.0264309"><ele>108.0</ele><time>2026-04-25T08:40:14.365Z</time></trkpt><trkpt lat="45.7768807" lon="12.0265395"><ele>108.0</ele><time>2026-04-25T08:40:17.365Z</time></trkpt><trkpt lat="45.7768701" lon="12.0266529"><ele>108.0</ele><time>2026-04-25T08:40:20.365Z</time></trkpt><trkpt lat="45.7768615" lon="12.026771"><ele>108.0</ele><time>2026-04-25T08:40:23.365Z</time></trkpt><trkpt lat="45.7768453" lon="12.0268589"><ele>108.0</ele><time>2026-04-25T08:40:25.366Z</time></trkpt><trkpt lat="45.7768234" lon="12.0269868"><ele>108.0</ele><time>2026-04-25T08:40:28.365Z</time></trkpt><trkpt lat="45.7768158" lon="12.0271206"><ele>108.0</ele><time>2026-04-25T08:40:31.365Z</time></trkpt><trkpt lat="45.7768269" lon="12.0272193"><ele>108.0</ele><time>2026-04-25T08:40:33.365Z</time></trkpt><trkpt lat="45.7768293" lon="12.0273141"><ele>108.0</ele><time>2026-04-25T08:40:35.366Z</time></trkpt><trkpt lat="45.7768383" lon="12.0274152"><ele>108.0</ele><time>2026-04-25T08:40:37.365Z</time></trkpt><trkpt lat="45.7768538" lon="12.0275077"><ele>108.0</ele><time>2026-04-25T08:40:39.365Z</time></trkpt><trkpt lat="45.7768658" lon="12.027602"><ele>108.0</ele><time>2026-04-25T08:40:41.365Z</time></trkpt><trkpt lat="45.7768706" lon="12.0277008"><ele>108.0</ele><time>2026-04-25T08:40:43.365Z</time></trkpt><trkpt lat="45.7768723" lon="12.0278032"><ele>108.0</ele><time>2026-04-25T08:40:45.365Z</time></trkpt><trkpt lat="45.7768754" lon="12.0279109"><ele>108.16666666666667</ele><time>2026-04-25T08:40:47.365Z</time></trkpt><trkpt lat="45.7768768" lon="12.0280081"><ele>108.33333333333334</ele><time>2026-04-25T08:40:49.365Z</time></trkpt><trkpt lat="45.7768718" lon="12.028115"><ele>108.5</ele><time>2026-04-25T08:40:51.365Z</time></trkpt><trkpt lat="45.7768803" lon="12.028242"><ele>108.66666666666667</ele><time>2026-04-25T08:40:54.365Z</time></trkpt><trkpt lat="45.7768816" lon="12.0283656"><ele>108.83333333333334</ele><time>2026-04-25T08:40:57.365Z</time></trkpt><trkpt lat="45.7768837" lon="12.0284972"><ele>109.0</ele><time>2026-04-25T08:41:00.365Z</time></trkpt><trkpt lat="45.7768999" lon="12.0286216"><ele>109.00000000000001</ele><time>2026-04-25T08:41:03.364Z</time></trkpt><trkpt lat="45.7769105" lon="12.0287385"><ele>109.0</ele><time>2026-04-25T08:41:06.364Z</time></trkpt><trkpt lat="45.776911" lon="12.0288417"><ele>109.0</ele><time>2026-04-25T08:41:09.364Z</time></trkpt><trkpt lat="45.7769046" lon="12.0289546"><ele>109.0</ele><time>2026-04-25T08:41:12.364Z</time></trkpt><trkpt lat="45.7768456" lon="12.0290352"><ele>109.00000000000001</ele><time>2026-04-25T08:41:15.365Z</time></trkpt><trkpt lat="45.7767825" lon="12.0290389"><ele>109.0</ele><time>2026-04-25T08:41:17.365Z</time></trkpt><trkpt lat="45.7766954" lon="12.0290118"><ele>109.16666666666667</ele><time>2026-04-25T08:41:20.365Z</time></trkpt><trkpt lat="45.7766079" lon="12.0289877"><ele>109.33333333333334</ele><time>2026-04-25T08:41:23.364Z</time></trkpt><trkpt lat="45.7765325" lon="12.0289548"><ele>109.5</ele><time>2026-04-25T08:41:26.364Z</time></trkpt><trkpt lat="45.7764614" lon="12.0289405"><ele>109.66666666666666</ele><time>2026-04-25T08:41:29.364Z</time></trkpt><trkpt lat="45.7763941" lon="12.0289301"><ele>109.83333333333333</ele><time>2026-04-25T08:41:32.364Z</time></trkpt><trkpt lat="45.7763224" lon="12.0289135"><ele>110.0</ele><time>2026-04-25T08:41:39.365Z</time></trkpt><trkpt lat="45.7762406" lon="12.028904"><ele>110.0</ele><time>2026-04-25T08:41:41.364Z</time></trkpt><trkpt lat="45.7761636" lon="12.0289009"><ele>110.0</ele><time>2026-04-25T08:41:43.364Z</time></trkpt><trkpt lat="45.7760814" lon="12.0288949"><ele>110.0</ele><time>2026-04-25T08:41:45.364Z</time></trkpt><trkpt lat="45.7759815" lon="12.0288856"><ele>110.0</ele><time>2026-04-25T08:41:47.364Z</time></trkpt><trkpt lat="45.7758799" lon="12.0288845"><ele>110.0</ele><time>2026-04-25T08:41:49.364Z</time></trkpt><trkpt lat="45.7757715" lon="12.028879"><ele>109.6</ele><time>2026-04-25T08:41:51.364Z</time></trkpt><trkpt lat="45.7756638" lon="12.0288475"><ele>109.2</ele><time>2026-04-25T08:41:53.364Z</time></trkpt><trkpt lat="45.7755601" lon="12.0287935"><ele>108.80000000000001</ele><time>2026-04-25T08:41:55.365Z</time></trkpt><trkpt lat="45.7754461" lon="12.0287506"><ele>108.4</ele><time>2026-04-25T08:41:57.364Z</time></trkpt><trkpt lat="45.7753841" lon="12.0287296"><ele>108.0</ele><time>2026-04-25T08:41:58.364Z</time></trkpt><trkpt lat="45.7752723" lon="12.0286764"><ele>107.4</ele><time>2026-04-25T08:42:00.365Z</time></trkpt><trkpt lat="45.7751585" lon="12.0286311"><ele>106.80000000000001</ele><time>2026-04-25T08:42:02.365Z</time></trkpt><trkpt lat="45.7750398" lon="12.0286155"><ele>106.2</ele><time>2026-04-25T08:42:04.365Z</time></trkpt><trkpt lat="45.7749766" lon="12.0286083"><ele>105.6</ele><time>2026-04-25T08:42:05.365Z</time></trkpt><trkpt lat="45.774858" lon="12.0286093"><ele>105.0</ele><time>2026-04-25T08:42:07.365Z</time></trkpt><trkpt lat="45.774795" lon="12.0286173"><ele>105.0</ele><time>2026-04-25T08:42:08.364Z</time></trkpt><trkpt lat="45.7746744" lon="12.0286296"><ele>105.0</ele><time>2026-04-25T08:42:10.364Z</time></trkpt><trkpt lat="45.7745597" lon="12.0286321"><ele>105.0</ele><time>2026-04-25T08:42:12.365Z</time></trkpt><trkpt lat="45.7744439" lon="12.0286416"><ele>105.0</ele><time>2026-04-25T08:42:14.365Z</time></trkpt><trkpt lat="45.7743295" lon="12.0286368"><ele>104.8</ele><time>2026-04-25T08:42:16.364Z</time></trkpt><trkpt lat="45.7742328" lon="12.0286386"><ele>104.6</ele><time>2026-04-25T08:42:18.364Z</time></trkpt><trkpt lat="45.7741401" lon="12.028641"><ele>104.4</ele><time>2026-04-25T08:42:20.364Z</time></trkpt><trkpt lat="45.7740196" lon="12.028664"><ele>104.2</ele><time>2026-04-25T08:42:22.364Z</time></trkpt><trkpt lat="45.7738993" lon="12.028662"><ele>104.0</ele><time>2026-04-25T08:42:24.364Z</time></trkpt><trkpt lat="45.77379" lon="12.0286608"><ele>104.0</ele><time>2026-04-25T08:42:26.364Z</time></trkpt><trkpt lat="45.7737234" lon="12.0286731"><ele>104.0</ele><time>2026-04-25T08:42:27.365Z</time></trkpt></trkseg><trkseg><trkpt lat="45.7714754" lon="12.0284881"><ele>103.00000000000001</ele><time>2026-04-25T08:43:06.364Z</time></trkpt><trkpt lat="45.7714148" lon="12.0284511"><ele>103.0</ele><time>2026-04-25T08:43:07.364Z</time></trkpt><trkpt lat="45.7713439" lon="12.0284438"><ele>103.0</ele><time>2026-04-25T08:43:08.364Z</time></trkpt><trkpt lat="45.771275" lon="12.0284284"><ele>103.0</ele><time>2026-04-25T08:43:09.364Z</time></trkpt><trkpt lat="45.7711508" lon="12.0284021"><ele>103.00000000000001</ele><time>2026-04-25T08:43:11.365Z</time></trkpt><trkpt lat="45.771083" lon="12.0283926"><ele>103.0</ele><time>2026-04-25T08:43:12.364Z</time></trkpt><trkpt lat="45.7710096" lon="12.0283786"><ele>102.57142857142857</ele><time>2026-04-25T08:43:13.364Z</time></trkpt><trkpt lat="45.7709371" lon="12.0283643"><ele>102.14285714285714</ele><time>2026-04-25T08:43:14.364Z</time></trkpt><trkpt lat="45.7708684" lon="12.0283462"><ele>101.71428571428572</ele><time>2026-04-25T08:43:15.364Z</time></trkpt><trkpt lat="45.7707991" lon="12.0283302"><ele>101.28571428571428</ele><time>2026-04-25T08:43:16.364Z</time></trkpt><trkpt lat="45.770724" lon="12.0283073"><ele>100.85714285714286</ele><time>2026-04-25T08:43:17.364Z</time></trkpt><trkpt lat="45.7706524" lon="12.0282855"><ele>100.42857142857143</ele><time>2026-04-25T08:43:18.365Z</time></trkpt><trkpt lat="45.7705798" lon="12.0282618"><ele>100.0</ele><time>2026-04-25T08:43:19.365Z</time></trkpt><trkpt lat="45.7705076" lon="12.0282438"><ele>99.33333333333334</ele><time>2026-04-25T08:43:20.364Z</time></trkpt><trkpt lat="45.7704328" lon="12.0282306"><ele>98.66666666666667</ele><time>2026-04-25T08:43:21.365Z</time></trkpt><trkpt lat="45.7703574" lon="12.0282142"><ele>98.0</ele><time>2026-04-25T08:43:22.365Z</time></trkpt><trkpt lat="45.7702819" lon="12.028197"><ele>97.33333333333334</ele><time>2026-04-25T08:43:23.364Z</time></trkpt><trkpt lat="45.7702119" lon="12.0281751"><ele>96.66666666666667</ele><time>2026-04-25T08:43:24.364Z</time></trkpt><trkpt lat="45.7701358" lon="12.0281621"><ele>96.0</ele><time>2026-04-25T08:43:25.364Z</time></trkpt><trkpt lat="45.7700623" lon="12.0281542"><ele>95.83333333333333</ele><time>2026-04-25T08:43:26.364Z</time></trkpt><trkpt lat="45.7699956" lon="12.0281435"><ele>95.66666666666667</ele><time>2026-04-25T08:43:27.364Z</time></trkpt><trkpt lat="45.7699248" lon="12.0281379"><ele>95.5</ele><time>2026-04-25T08:43:28.364Z</time></trkpt><trkpt lat="45.7698556" lon="12.0281323"><ele>95.33333333333334</ele><time>2026-04-25T08:43:29.365Z</time></trkpt><trkpt lat="45.7697863" lon="12.0281202"><ele>95.16666666666667</ele><time>2026-04-25T08:43:30.365Z</time></trkpt><trkpt lat="45.7696613" lon="12.0280989"><ele>95.0</ele><time>2026-04-25T08:43:32.365Z</time></trkpt><trkpt lat="45.7695956" lon="12.0280548"><ele>95.0</ele><time>2026-04-25T08:43:33.364Z</time></trkpt><trkpt lat="45.7695403" lon="12.0279995"><ele>95.0</ele><time>2026-04-25T08:43:34.364Z</time></trkpt><trkpt lat="45.7694914" lon="12.0279209"><ele>95.0</ele><time>2026-04-25T08:43:35.364Z</time></trkpt><trkpt lat="45.7694467" lon="12.0278455"><ele>95.0</ele><time>2026-04-25T08:43:36.364Z</time></trkpt><trkpt lat="45.7694012" lon="12.027783"><ele>95.0</ele><time>2026-04-25T08:43:37.364Z</time></trkpt><trkpt lat="45.7692934" lon="12.0277638"><ele>95.0</ele><time>2026-04-25T08:43:39.365Z</time></trkpt><trkpt lat="45.7692054" lon="12.0278656"><ele>95.6</ele><time>2026-04-25T08:43:41.364Z</time></trkpt><trkpt lat="45.7691373" lon="12.0279663"><ele>96.2</ele><time>2026-04-25T08:43:43.365Z</time></trkpt><trkpt lat="45.7690288" lon="12.0279715"><ele>96.80000000000001</ele><time>2026-04-25T08:43:45.364Z</time></trkpt><trkpt lat="45.7689273" lon="12.0279445"><ele>97.4</ele><time>2026-04-25T08:43:47.364Z</time></trkpt><trkpt lat="45.7688167" lon="12.0279188"><ele>98.0</ele><time>2026-04-25T08:43:49.365Z</time></trkpt><trkpt lat="45.7687129" lon="12.0278943"><ele>98.0</ele><time>2026-04-25T08:43:51.364Z</time></trkpt><trkpt lat="45.7685991" lon="12.0278612"><ele>98.0</ele><time>2026-04-25T08:43:53.368Z</time></trkpt><trkpt lat="45.7684884" lon="12.0278332"><ele>98.0</ele><time>2026-04-25T08:43:55.367Z</time></trkpt><trkpt lat="45.7683711" lon="12.0278014"><ele>98.0</ele><time>2026-04-25T08:43:57.367Z</time></trkpt><trkpt lat="45.7682537" lon="12.0277743"><ele>97.75</ele><time>2026-04-25T08:43:59.368Z</time></trkpt><trkpt lat="45.7681306" lon="12.0277486"><ele>97.5</ele><time>2026-04-25T08:44:01.367Z</time></trkpt><trkpt lat="45.7680131" lon="12.027719"><ele>97.25</ele><time>2026-04-25T08:44:03.367Z</time></trkpt><trkpt lat="45.7679072" lon="12.0276936"><ele>97.0</ele><time>2026-04-25T08:44:05.367Z</time></trkpt><trkpt lat="45.7678102" lon="12.027664"><ele>97.0</ele><time>2026-04-25T08:44:07.367Z</time></trkpt><trkpt lat="45.7677084" lon="12.0276347"><ele>97.0</ele><time>2026-04-25T08:44:09.367Z</time></trkpt><trkpt lat="45.7676028" lon="12.0275964"><ele>97.0</ele><time>2026-04-25T08:44:11.367Z</time></trkpt><trkpt lat="45.7675062" lon="12.0275515"><ele>97.0</ele><time>2026-04-25T08:44:13.367Z</time></trkpt><trkpt lat="45.7674113" lon="12.0274996"><ele>97.0</ele><time>2026-04-25T08:44:15.367Z</time></trkpt><trkpt lat="45.7673161" lon="12.0274455"><ele>97.0</ele><time>2026-04-25T08:44:17.368Z</time></trkpt><trkpt lat="45.7672141" lon="12.0273763"><ele>97.0</ele><time>2026-04-25T08:44:19.367Z</time></trkpt><trkpt lat="45.767106" lon="12.027296"><ele>97.0</ele><time>2026-04-25T08:44:21.367Z</time></trkpt><trkpt lat="45.7670017" lon="12.0272227"><ele>97.0</ele><time>2026-04-25T08:44:23.367Z</time></trkpt><trkpt lat="45.7668949" lon="12.0271481"><ele>96.75</ele><time>2026-04-25T08:44:25.367Z</time></trkpt><trkpt lat="45.7667931" lon="12.0270721"><ele>96.5</ele><time>2026-04-25T08:44:27.367Z</time></trkpt><trkpt lat="45.7666873" lon="12.0269976"><ele>96.25</ele><time>2026-04-25T08:44:29.367Z</time></trkpt><trkpt lat="45.7665794" lon="12.0269143"><ele>96.0</ele><time>2026-04-25T08:44:31.367Z</time></trkpt><trkpt lat="45.7664714" lon="12.0268354"><ele>96.0</ele><time>2026-04-25T08:44:33.368Z</time></trkpt><trkpt lat="45.7664163" lon="12.0267904"><ele>96.0</ele><time>2026-04-25T08:44:34.367Z</time></trkpt><trkpt lat="45.7663107" lon="12.0267174"><ele>96.0</ele><time>2026-04-25T08:44:36.368Z</time></trkpt><trkpt lat="45.7661994" lon="12.0266532"><ele>96.0</ele><time>2026-04-25T08:44:38.367Z</time></trkpt><trkpt lat="45.7660955" lon="12.0265791"><ele>96.0</ele><time>2026-04-25T08:44:40.368Z</time></trkpt><trkpt lat="45.76599" lon="12.02651"><ele>95.25</ele><time>2026-04-25T08:44:42.368Z</time></trkpt><trkpt lat="45.7658875" lon="12.0264378"><ele>94.5</ele><time>2026-04-25T08:44:44.368Z</time></trkpt><trkpt lat="45.7657787" lon="12.026364"><ele>93.75</ele><time>2026-04-25T08:44:46.367Z</time></trkpt><trkpt lat="45.7656703" lon="12.0262891"><ele>93.0</ele><time>2026-04-25T08:44:48.368Z</time></trkpt><trkpt lat="45.7655609" lon="12.0262179"><ele>93.0</ele><time>2026-04-25T08:44:50.367Z</time></trkpt><trkpt lat="45.7654498" lon="12.0261477"><ele>93.0</ele><time>2026-04-25T08:44:52.368Z</time></trkpt><trkpt lat="45.765345" lon="12.0260695"><ele>93.0</ele><time>2026-04-25T08:44:54.367Z</time></trkpt><trkpt lat="45.7652411" lon="12.0259913"><ele>93.0</ele><time>2026-04-25T08:44:56.367Z</time></trkpt><trkpt lat="45.7651341" lon="12.0259198"><ele>93.2</ele><time>2026-04-25T08:44:58.367Z</time></trkpt><trkpt lat="45.7650262" lon="12.0258391"><ele>93.4</ele><time>2026-04-25T08:45:00.368Z</time></trkpt><trkpt lat="45.7649684" lon="12.0258028"><ele>93.60000000000001</ele><time>2026-04-25T08:45:01.367Z</time></trkpt><trkpt lat="45.7648561" lon="12.0257306"><ele>93.80000000000001</ele><time>2026-04-25T08:45:03.367Z</time></trkpt><trkpt lat="45.7647455" lon="12.0256573"><ele>94.0</ele><time>2026-04-25T08:45:05.367Z</time></trkpt><trkpt lat="45.7646337" lon="12.0255796"><ele>94.0</ele><time>2026-04-25T08:45:07.367Z</time></trkpt><trkpt lat="45.7645198" lon="12.025508"><ele>94.0</ele><time>2026-04-25T08:45:09.367Z</time></trkpt><trkpt lat="45.764404" lon="12.0254441"><ele>94.0</ele><time>2026-04-25T08:45:11.367Z</time></trkpt><trkpt lat="45.7642935" lon="12.0253822"><ele>94.0</ele><time>2026-04-25T08:45:13.367Z</time></trkpt><trkpt lat="45.7641799" lon="12.025326"><ele>94.25</ele><time>2026-04-25T08:45:15.367Z</time></trkpt><trkpt lat="45.7640631" lon="12.0252751"><ele>94.5</ele><time>2026-04-25T08:45:17.367Z</time></trkpt><trkpt lat="45.7639446" lon="12.0252257"><ele>94.75</ele><time>2026-04-25T08:45:19.367Z</time></trkpt><trkpt lat="45.7638248" lon="12.0251792"><ele>95.0</ele><time>2026-04-25T08:45:21.367Z</time></trkpt><trkpt lat="45.7637037" lon="12.0251322"><ele>95.0</ele><time>2026-04-25T08:45:23.367Z</time></trkpt><trkpt lat="45.7635887" lon="12.0250774"><ele>95.0</ele><time>2026-04-25T08:45:25.367Z</time></trkpt><trkpt lat="45.763528" lon="12.0250504"><ele>95.0</ele><time>2026-04-25T08:45:26.367Z</time></trkpt><trkpt lat="45.7634094" lon="12.0250023"><ele>95.0</ele><time>2026-04-25T08:45:28.367Z</time></trkpt><trkpt lat="45.7632924" lon="12.0249507"><ele>95.0</ele><time>2026-04-25T08:45:30.367Z</time></trkpt><trkpt lat="45.7631748" lon="12.0248995"><ele>94.66666666666667</ele><time>2026-04-25T08:45:32.367Z</time></trkpt><trkpt lat="45.7630519" lon="12.0248489"><ele>94.33333333333334</ele><time>2026-04-25T08:45:34.367Z</time></trkpt><trkpt lat="45.7629911" lon="12.0248242"><ele>94.0</ele><time>2026-04-25T08:45:35.367Z</time></trkpt><trkpt lat="45.7629276" lon="12.0247961"><ele>93.66666666666667</ele><time>2026-04-25T08:45:36.367Z</time></trkpt><trkpt lat="45.7628079" lon="12.024751"><ele>93.33333333333333</ele><time>2026-04-25T08:45:38.367Z</time></trkpt><trkpt lat="45.7627438" lon="12.0247249"><ele>93.0</ele><time>2026-04-25T08:45:39.367Z</time></trkpt><trkpt lat="45.7626837" lon="12.0246946"><ele>92.80000000000001</ele><time>2026-04-25T08:45:40.367Z</time></trkpt><trkpt lat="45.7625678" lon="12.0246391"><ele>92.6</ele><time>2026-04-25T08:45:42.367Z</time></trkpt><trkpt lat="45.7624506" lon="12.0245873"><ele>92.4</ele><time>2026-04-25T08:45:44.367Z</time></trkpt><trkpt lat="45.7623893" lon="12.0245574"><ele>92.19999999999999</ele><time>2026-04-25T08:45:45.367Z</time></trkpt><trkpt lat="45.7622672" lon="12.0245117"><ele>92.0</ele><time>2026-04-25T08:45:47.367Z</time></trkpt><trkpt lat="45.7621486" lon="12.0244609"><ele>92.0</ele><time>2026-04-25T08:45:49.367Z</time></trkpt><trkpt lat="45.7620872" lon="12.0244381"><ele>92.0</ele><time>2026-04-25T08:45:50.367Z</time></trkpt><trkpt lat="45.7619767" lon="12.0243869"><ele>92.0</ele><time>2026-04-25T08:45:52.367Z</time></trkpt><trkpt lat="45.7618653" lon="12.0243371"><ele>92.0</ele><time>2026-04-25T08:45:54.367Z</time></trkpt><trkpt lat="45.7617544" lon="12.0242904"><ele>92.0</ele><time>2026-04-25T08:45:56.367Z</time></trkpt><trkpt lat="45.761635" lon="12.024243"><ele>92.0</ele><time>2026-04-25T08:45:58.367Z</time></trkpt><trkpt lat="45.7615695" lon="12.0242255"><ele>92.0</ele><time>2026-04-25T08:45:59.367Z</time></trkpt><trkpt lat="45.7614519" lon="12.0241789"><ele>92.0</ele><time>2026-04-25T08:46:01.367Z</time></trkpt><trkpt lat="45.7613377" lon="12.0241307"><ele>92.0</ele><time>2026-04-25T08:46:03.367Z</time></trkpt><trkpt lat="45.7612258" lon="12.0240724"><ele>92.0</ele><time>2026-04-25T08:46:05.367Z</time></trkpt><trkpt lat="45.7611116" lon="12.0240314"><ele>91.75</ele><time>2026-04-25T08:46:07.367Z</time></trkpt><trkpt lat="45.760992" lon="12.0239937"><ele>91.5</ele><time>2026-04-25T08:46:09.368Z</time></trkpt><trkpt lat="45.7608801" lon="12.02394"><ele>91.25</ele><time>2026-04-25T08:46:11.367Z</time></trkpt><trkpt lat="45.7607686" lon="12.0238789"><ele>91.0</ele><time>2026-04-25T08:46:13.367Z</time></trkpt><trkpt lat="45.7606572" lon="12.0238075"><ele>91.0</ele><time>2026-04-25T08:46:15.367Z</time></trkpt><trkpt lat="45.7605983" lon="12.0237639"><ele>91.0</ele><time>2026-04-25T08:46:16.367Z</time></trkpt><trkpt lat="45.7604914" lon="12.0236835"><ele>91.0</ele><time>2026-04-25T08:46:18.368Z</time></trkpt><trkpt lat="45.7603861" lon="12.0235858"><ele>91.0</ele><time>2026-04-25T08:46:20.367Z</time></trkpt><trkpt lat="45.7602842" lon="12.0234879"><ele>91.0</ele><time>2026-04-25T08:46:22.367Z</time></trkpt><trkpt lat="45.7601869" lon="12.0233789"><ele>91.19999999999999</ele><time>2026-04-25T08:46:24.367Z</time></trkpt><trkpt lat="45.7600882" lon="12.0232716"><ele>91.39999999999999</ele><time>2026-04-25T08:46:26.367Z</time></trkpt><trkpt lat="45.7599917" lon="12.0231572"><ele>91.6</ele><time>2026-04-25T08:46:28.367Z</time></trkpt><trkpt lat="45.7598959" lon="12.0230445"><ele>91.8</ele><time>2026-04-25T08:46:30.368Z</time></trkpt><trkpt lat="45.7598466" lon="12.0229847"><ele>92.0</ele><time>2026-04-25T08:46:31.368Z</time></trkpt><trkpt lat="45.7597483" lon="12.0228669"><ele>92.0</ele><time>2026-04-25T08:46:33.367Z</time></trkpt><trkpt lat="45.7596505" lon="12.0227639"><ele>92.0</ele><time>2026-04-25T08:46:35.367Z</time></trkpt><trkpt lat="45.7595539" lon="12.0226515"><ele>92.0</ele><time>2026-04-25T08:46:37.367Z</time></trkpt><trkpt lat="45.7594562" lon="12.0225288"><ele>92.0</ele><time>2026-04-25T08:46:39.367Z</time></trkpt><trkpt lat="45.7593599" lon="12.0224204"><ele>91.8</ele><time>2026-04-25T08:46:41.367Z</time></trkpt><trkpt lat="45.759264" lon="12.022315"><ele>91.6</ele><time>2026-04-25T08:46:43.367Z</time></trkpt><trkpt lat="45.759172" lon="12.0221951"><ele>91.39999999999999</ele><time>2026-04-25T08:46:45.367Z</time></trkpt><trkpt lat="45.7590768" lon="12.0220823"><ele>91.19999999999999</ele><time>2026-04-25T08:46:47.367Z</time></trkpt><trkpt lat="45.7590273" lon="12.0220252"><ele>91.0</ele><time>2026-04-25T08:46:48.367Z</time></trkpt><trkpt lat="45.7589299" lon="12.0219087"><ele>91.0</ele><time>2026-04-25T08:46:50.367Z</time></trkpt><trkpt lat="45.7588807" lon="12.0218486"><ele>91.0</ele><time>2026-04-25T08:46:51.367Z</time></trkpt><trkpt lat="45.7587887" lon="12.0217319"><ele>91.0</ele><time>2026-04-25T08:46:53.367Z</time></trkpt><trkpt lat="45.7587365" lon="12.0216766"><ele>91.0</ele><time>2026-04-25T08:46:54.367Z</time></trkpt><trkpt lat="45.7586409" lon="12.0215573"><ele>91.0</ele><time>2026-04-25T08:46:56.368Z</time></trkpt><trkpt lat="45.7585909" lon="12.021502"><ele>91.0</ele><time>2026-04-25T08:46:57.367Z</time></trkpt><trkpt lat="45.7585412" lon="12.0214398"><ele>91.0</ele><time>2026-04-25T08:46:58.367Z</time></trkpt><trkpt lat="45.758492" lon="12.0213773"><ele>91.0</ele><time>2026-04-25T08:46:59.367Z</time></trkpt><trkpt lat="45.7583988" lon="12.0212518"><ele>91.0</ele><time>2026-04-25T08:47:01.368Z</time></trkpt><trkpt lat="45.758301" lon="12.0211409"><ele>91.0</ele><time>2026-04-25T08:47:03.367Z</time></trkpt><trkpt lat="45.7582533" lon="12.0210818"><ele>91.0</ele><time>2026-04-25T08:47:04.368Z</time></trkpt><trkpt lat="45.7581608" lon="12.0209711"><ele>91.0</ele><time>2026-04-25T08:47:06.367Z</time></trkpt><trkpt lat="45.7581107" lon="12.020912"><ele>91.0</ele><time>2026-04-25T08:47:07.368Z</time></trkpt><trkpt lat="45.7580605" lon="12.0208561"><ele>91.0</ele><time>2026-04-25T08:47:08.368Z</time></trkpt><trkpt lat="45.7580113" lon="12.0207983"><ele>91.0</ele><time>2026-04-25T08:47:09.368Z</time></trkpt><trkpt lat="45.7579616" lon="12.0207405"><ele>91.0</ele><time>2026-04-25T08:47:10.367Z</time></trkpt><trkpt lat="45.7579111" lon="12.0206808"><ele>91.0</ele><time>2026-04-25T08:47:11.368Z</time></trkpt><trkpt lat="45.7578616" lon="12.0206226"><ele>91.0</ele><time>2026-04-25T08:47:12.367Z</time></trkpt><trkpt lat="45.7578108" lon="12.0205689"><ele>91.0</ele><time>2026-04-25T08:47:13.367Z</time></trkpt><trkpt lat="45.7577165" lon="12.0204512"><ele>91.0</ele><time>2026-04-25T08:47:15.367Z</time></trkpt><trkpt lat="45.7576672" lon="12.0203937"><ele>91.0</ele><time>2026-04-25T08:47:16.367Z</time></trkpt><trkpt lat="45.757578" lon="12.0202775"><ele>91.0</ele><time>2026-04-25T08:47:18.367Z</time></trkpt><trkpt lat="45.7574869" lon="12.0201674"><ele>91.0</ele><time>2026-04-25T08:47:20.368Z</time></trkpt><trkpt lat="45.7574391" lon="12.0201075"><ele>91.0</ele><time>2026-04-25T08:47:21.367Z</time></trkpt><trkpt lat="45.7573437" lon="12.0199956"><ele>91.0</ele><time>2026-04-25T08:47:23.367Z</time></trkpt><trkpt lat="45.7572481" lon="12.0198829"><ele>91.0</ele><time>2026-04-25T08:47:25.367Z</time></trkpt><trkpt lat="45.7571531" lon="12.0197651"><ele>91.0</ele><time>2026-04-25T08:47:27.367Z</time></trkpt><trkpt lat="45.7571021" lon="12.0197071"><ele>91.0</ele><time>2026-04-25T08:47:28.367Z</time></trkpt><trkpt lat="45.7570072" lon="12.0195954"><ele>91.0</ele><time>2026-04-25T08:47:30.366Z</time></trkpt><trkpt lat="45.7569119" lon="12.0194808"><ele>91.0</ele><time>2026-04-25T08:47:32.366Z</time></trkpt><trkpt lat="45.7568121" lon="12.0193683"><ele>91.0</ele><time>2026-04-25T08:47:34.367Z</time></trkpt><trkpt lat="45.756714" lon="12.0192587"><ele>91.0</ele><time>2026-04-25T08:47:36.366Z</time></trkpt><trkpt lat="45.7566616" lon="12.0192048"><ele>91.0</ele><time>2026-04-25T08:47:37.366Z</time></trkpt><trkpt lat="45.7566095" lon="12.0191493"><ele>91.0</ele><time>2026-04-25T08:47:38.366Z</time></trkpt><trkpt lat="45.7565112" lon="12.0190458"><ele>90.8</ele><time>2026-04-25T08:47:40.366Z</time></trkpt><trkpt lat="45.7564101" lon="12.0189387"><ele>90.6</ele><time>2026-04-25T08:47:42.366Z</time></trkpt><trkpt lat="45.7563548" lon="12.0188863"><ele>90.4</ele><time>2026-04-25T08:47:43.367Z</time></trkpt><trkpt lat="45.7562541" lon="12.018781"><ele>90.2</ele><time>2026-04-25T08:47:45.366Z</time></trkpt><trkpt lat="45.7561558" lon="12.0186872"><ele>90.0</ele><time>2026-04-25T08:47:47.366Z</time></trkpt><trkpt lat="45.7560544" lon="12.0185942"><ele>90.0</ele><time>2026-04-25T08:47:49.366Z</time></trkpt><trkpt lat="45.7559476" lon="12.0185033"><ele>90.0</ele><time>2026-04-25T08:47:51.366Z</time></trkpt><trkpt lat="45.7558957" lon="12.0184511"><ele>90.0</ele><time>2026-04-25T08:47:52.366Z</time></trkpt><trkpt lat="45.7558402" lon="12.0184045"><ele>90.0</ele><time>2026-04-25T08:47:53.367Z</time></trkpt><trkpt lat="45.755737" lon="12.0183069"><ele>90.0</ele><time>2026-04-25T08:47:55.366Z</time></trkpt><trkpt lat="45.7556343" lon="12.0182074"><ele>89.83333333333333</ele><time>2026-04-25T08:47:57.366Z</time></trkpt><trkpt lat="45.7555806" lon="12.0181588"><ele>89.66666666666667</ele><time>2026-04-25T08:47:58.367Z</time></trkpt><trkpt lat="45.755525" lon="12.01811"><ele>89.5</ele><time>2026-04-25T08:47:59.366Z</time></trkpt><trkpt lat="45.7554216" lon="12.018012"><ele>89.33333333333334</ele><time>2026-04-25T08:48:01.366Z</time></trkpt><trkpt lat="45.755365" lon="12.0179659"><ele>89.16666666666667</ele><time>2026-04-25T08:48:02.366Z</time></trkpt><trkpt lat="45.7552674" lon="12.0178718"><ele>89.0</ele><time>2026-04-25T08:48:04.366Z</time></trkpt><trkpt lat="45.755213" lon="12.0178245"><ele>89.0</ele><time>2026-04-25T08:48:05.367Z</time></trkpt><trkpt lat="45.7551078" lon="12.0177293"><ele>89.0</ele><time>2026-04-25T08:48:07.366Z</time></trkpt><trkpt lat="45.7550027" lon="12.0176327"><ele>89.0</ele><time>2026-04-25T08:48:09.366Z</time></trkpt><trkpt lat="45.7549499" lon="12.0175827"><ele>89.0</ele><time>2026-04-25T08:48:10.366Z</time></trkpt><trkpt lat="45.7548553" lon="12.017488"><ele>89.0</ele><time>2026-04-25T08:48:12.366Z</time></trkpt><trkpt lat="45.7547549" lon="12.0173994"><ele>89.0</ele><time>2026-04-25T08:48:14.366Z</time></trkpt><trkpt lat="45.7546512" lon="12.0173068"><ele>89.0</ele><time>2026-04-25T08:48:16.366Z</time></trkpt><trkpt lat="45.7545939" lon="12.0172573"><ele>89.0</ele><time>2026-04-25T08:48:17.366Z</time></trkpt><trkpt lat="45.7544843" lon="12.0171674"><ele>89.0</ele><time>2026-04-25T08:48:19.367Z</time></trkpt><trkpt lat="45.7544311" lon="12.017116"><ele>89.0</ele><time>2026-04-25T08:48:20.366Z</time></trkpt><trkpt lat="45.7543782" lon="12.0170648"><ele>89.0</ele><time>2026-04-25T08:48:21.366Z</time></trkpt><trkpt lat="45.7543239" lon="12.0170169"><ele>89.0</ele><time>2026-04-25T08:48:22.366Z</time></trkpt><trkpt lat="45.7542691" lon="12.0169683"><ele>89.0</ele><time>2026-04-25T08:48:23.366Z</time></trkpt><trkpt lat="45.7542158" lon="12.0169153"><ele>89.0</ele><time>2026-04-25T08:48:24.366Z</time></trkpt><trkpt lat="45.7541602" lon="12.0168624"><ele>89.0</ele><time>2026-04-25T08:48:25.366Z</time></trkpt><trkpt lat="45.7541031" lon="12.0168165"><ele>89.0</ele><time>2026-04-25T08:48:26.366Z</time></trkpt><trkpt lat="45.7540459" lon="12.0167677"><ele>89.0</ele><time>2026-04-25T08:48:27.366Z</time></trkpt><trkpt lat="45.7539438" lon="12.0166687"><ele>88.75</ele><time>2026-04-25T08:48:29.366Z</time></trkpt><trkpt lat="45.7538421" lon="12.0165664"><ele>88.5</ele><time>2026-04-25T08:48:31.366Z</time></trkpt><trkpt lat="45.7537397" lon="12.0164866"><ele>88.25</ele><time>2026-04-25T08:48:33.367Z</time></trkpt><trkpt lat="45.7536351" lon="12.0163909"><ele>88.0</ele><time>2026-04-25T08:48:35.366Z</time></trkpt><trkpt lat="45.7535358" lon="12.016293"><ele>88.0</ele><time>2026-04-25T08:48:37.367Z</time></trkpt><trkpt lat="45.7534821" lon="12.0162453"><ele>88.0</ele><time>2026-04-25T08:48:38.366Z</time></trkpt><trkpt lat="45.7533736" lon="12.0161559"><ele>88.0</ele><time>2026-04-25T08:48:40.366Z</time></trkpt><trkpt lat="45.7532724" lon="12.0160557"><ele>88.0</ele><time>2026-04-25T08:48:42.367Z</time></trkpt><trkpt lat="45.7532188" lon="12.0160075"><ele>88.0</ele><time>2026-04-25T08:48:43.366Z</time></trkpt><trkpt lat="45.7531658" lon="12.0159557"><ele>88.0</ele><time>2026-04-25T08:48:44.367Z</time></trkpt><trkpt lat="45.7530558" lon="12.0158664"><ele>88.0</ele><time>2026-04-25T08:48:46.366Z</time></trkpt><trkpt lat="45.753001" lon="12.0158199"><ele>88.0</ele><time>2026-04-25T08:48:47.366Z</time></trkpt><trkpt lat="45.7528996" lon="12.0157278"><ele>88.0</ele><time>2026-04-25T08:48:49.366Z</time></trkpt><trkpt lat="45.7527934" lon="12.0156402"><ele>88.0</ele><time>2026-04-25T08:48:51.366Z</time></trkpt><trkpt lat="45.7527375" lon="12.0155986"><ele>88.0</ele><time>2026-04-25T08:48:52.367Z</time></trkpt><trkpt lat="45.7526323" lon="12.0155168"><ele>88.0</ele><time>2026-04-25T08:48:54.366Z</time></trkpt><trkpt lat="45.752525" lon="12.0154342"><ele>88.0</ele><time>2026-04-25T08:48:56.366Z</time></trkpt><trkpt lat="45.7524143" lon="12.0153619"><ele>88.0</ele><time>2026-04-25T08:48:58.366Z</time></trkpt><trkpt lat="45.7523041" lon="12.0152865"><ele>88.0</ele><time>2026-04-25T08:49:00.366Z</time></trkpt><trkpt lat="45.7521926" lon="12.0152196"><ele>88.0</ele><time>2026-04-25T08:49:02.366Z</time></trkpt><trkpt lat="45.7520791" lon="12.0151597"><ele>88.0</ele><time>2026-04-25T08:49:04.366Z</time></trkpt><trkpt lat="45.751977" lon="12.0150964"><ele>88.0</ele><time>2026-04-25T08:49:06.366Z</time></trkpt><trkpt lat="45.7518656" lon="12.0150351"><ele>88.0</ele><time>2026-04-25T08:49:08.366Z</time></trkpt><trkpt lat="45.7517572" lon="12.0149614"><ele>87.66666666666666</ele><time>2026-04-25T08:49:10.366Z</time></trkpt><trkpt lat="45.7516958" lon="12.014927"><ele>87.33333333333333</ele><time>2026-04-25T08:49:11.366Z</time></trkpt><trkpt lat="45.7516367" lon="12.0148958"><ele>87.0</ele><time>2026-04-25T08:49:12.366Z</time></trkpt><trkpt lat="45.7515216" lon="12.0148284"><ele>86.66666666666667</ele><time>2026-04-25T08:49:14.366Z</time></trkpt><trkpt lat="45.7514055" lon="12.0147602"><ele>86.33333333333334</ele><time>2026-04-25T08:49:16.366Z</time></trkpt><trkpt lat="45.7513471" lon="12.0147264"><ele>86.0</ele><time>2026-04-25T08:49:17.366Z</time></trkpt><trkpt lat="45.7512876" lon="12.0146925"><ele>86.0</ele><time>2026-04-25T08:49:18.366Z</time></trkpt><trkpt lat="45.7511715" lon="12.0146259"><ele>86.0</ele><time>2026-04-25T08:49:20.366Z</time></trkpt><trkpt lat="45.7510591" lon="12.0145603"><ele>86.0</ele><time>2026-04-25T08:49:22.366Z</time></trkpt><trkpt lat="45.7509997" lon="12.0145272"><ele>86.0</ele><time>2026-04-25T08:49:23.366Z</time></trkpt><trkpt lat="45.7508842" lon="12.0144576"><ele>86.0</ele><time>2026-04-25T08:49:25.366Z</time></trkpt><trkpt lat="45.7508257" lon="12.0144225"><ele>86.33333333333334</ele><time>2026-04-25T08:49:26.366Z</time></trkpt><trkpt lat="45.7507656" lon="12.0143903"><ele>86.66666666666667</ele><time>2026-04-25T08:49:27.366Z</time></trkpt><trkpt lat="45.7506506" lon="12.0143243"><ele>87.0</ele><time>2026-04-25T08:49:29.366Z</time></trkpt><trkpt lat="45.7505926" lon="12.0142881"><ele>87.33333333333333</ele><time>2026-04-25T08:49:30.366Z</time></trkpt><trkpt lat="45.7504716" lon="12.0142264"><ele>87.66666666666666</ele><time>2026-04-25T08:49:32.366Z</time></trkpt><trkpt lat="45.7504118" lon="12.0141918"><ele>88.0</ele><time>2026-04-25T08:49:33.366Z</time></trkpt><trkpt lat="45.7503512" lon="12.0141579"><ele>87.83333333333333</ele><time>2026-04-25T08:49:34.367Z</time></trkpt><trkpt lat="45.7502921" lon="12.0141251"><ele>87.66666666666666</ele><time>2026-04-25T08:49:35.366Z</time></trkpt><trkpt lat="45.7502316" lon="12.0140921"><ele>87.5</ele><time>2026-04-25T08:49:36.367Z</time></trkpt><trkpt lat="45.7501145" lon="12.014023"><ele>87.33333333333333</ele><time>2026-04-25T08:49:38.366Z</time></trkpt><trkpt lat="45.7500538" lon="12.0139877"><ele>87.16666666666667</ele><time>2026-04-25T08:49:39.366Z</time></trkpt><trkpt lat="45.7499922" lon="12.0139522"><ele>87.0</ele><time>2026-04-25T08:49:40.366Z</time></trkpt><trkpt lat="45.7498774" lon="12.0138847"><ele>86.83333333333333</ele><time>2026-04-25T08:49:42.366Z</time></trkpt><trkpt lat="45.7498183" lon="12.0138514"><ele>86.66666666666667</ele><time>2026-04-25T08:49:43.366Z</time></trkpt><trkpt lat="45.7497029" lon="12.0137808"><ele>86.5</ele><time>2026-04-25T08:49:45.367Z</time></trkpt><trkpt lat="45.7496441" lon="12.0137454"><ele>86.33333333333334</ele><time>2026-04-25T08:49:46.367Z</time></trkpt><trkpt lat="45.7495855" lon="12.0137074"><ele>86.16666666666667</ele><time>2026-04-25T08:49:47.366Z</time></trkpt><trkpt lat="45.7494677" lon="12.0136354"><ele>86.0</ele><time>2026-04-25T08:49:49.366Z</time></trkpt><trkpt lat="45.749352" lon="12.0135667"><ele>86.00000000000001</ele><time>2026-04-25T08:49:51.366Z</time></trkpt><trkpt lat="45.7492919" lon="12.0135335"><ele>86.0</ele><time>2026-04-25T08:49:52.366Z</time></trkpt><trkpt lat="45.7492335" lon="12.0134998"><ele>86.0</ele><time>2026-04-25T08:49:53.367Z</time></trkpt><trkpt lat="45.749174" lon="12.013461"><ele>86.0</ele><time>2026-04-25T08:49:54.367Z</time></trkpt><trkpt lat="45.7491136" lon="12.0134273"><ele>86.0</ele><time>2026-04-25T08:49:55.366Z</time></trkpt><trkpt lat="45.7490551" lon="12.0133915"><ele>86.00000000000001</ele><time>2026-04-25T08:49:56.366Z</time></trkpt><trkpt lat="45.7489939" lon="12.0133597"><ele>86.0</ele><time>2026-04-25T08:49:57.366Z</time></trkpt><trkpt lat="45.7489343" lon="12.0133257"><ele>86.0</ele><time>2026-04-25T08:49:58.366Z</time></trkpt><trkpt lat="45.7488738" lon="12.0132982"><ele>86.0</ele><time>2026-04-25T08:49:59.366Z</time></trkpt><trkpt lat="45.7488153" lon="12.0132631"><ele>86.0</ele><time>2026-04-25T08:50:00.366Z</time></trkpt><trkpt lat="45.748704" lon="12.0131975"><ele>86.0</ele><time>2026-04-25T08:50:02.366Z</time></trkpt><trkpt lat="45.7486415" lon="12.0131608"><ele>86.0</ele><time>2026-04-25T08:50:03.366Z</time></trkpt><trkpt lat="45.7485256" lon="12.0130943"><ele>86.0</ele><time>2026-04-25T08:50:05.366Z</time></trkpt><trkpt lat="45.7484677" lon="12.0130509"><ele>86.00000000000001</ele><time>2026-04-25T08:50:06.367Z</time></trkpt><trkpt lat="45.7484096" lon="12.0130151"><ele>86.0</ele><time>2026-04-25T08:50:07.366Z</time></trkpt><trkpt lat="45.7483498" lon="12.0129844"><ele>86.0</ele><time>2026-04-25T08:50:08.366Z</time></trkpt><trkpt lat="45.7482876" lon="12.0129555"><ele>86.0</ele><time>2026-04-25T08:50:09.367Z</time></trkpt><trkpt lat="45.7482251" lon="12.012923"><ele>86.0</ele><time>2026-04-25T08:50:10.366Z</time></trkpt><trkpt lat="45.7481646" lon="12.0128871"><ele>86.00000000000001</ele><time>2026-04-25T08:50:11.367Z</time></trkpt><trkpt lat="45.7481007" lon="12.0128551"><ele>86.0</ele><time>2026-04-25T08:50:12.367Z</time></trkpt><trkpt lat="45.7479847" lon="12.0127929"><ele>86.00000000000001</ele><time>2026-04-25T08:50:14.366Z</time></trkpt><trkpt lat="45.7479264" lon="12.0127524"><ele>86.0</ele><time>2026-04-25T08:50:15.366Z</time></trkpt><trkpt lat="45.7478688" lon="12.0127155"><ele>86.0</ele><time>2026-04-25T08:50:16.366Z</time></trkpt><trkpt lat="45.7477518" lon="12.0126501"><ele>86.0</ele><time>2026-04-25T08:50:18.366Z</time></trkpt><trkpt lat="45.7476941" lon="12.0126137"><ele>86.0</ele><time>2026-04-25T08:50:19.366Z</time></trkpt><trkpt lat="45.7476341" lon="12.0125766"><ele>86.00000000000001</ele><time>2026-04-25T08:50:20.366Z</time></trkpt><trkpt lat="45.7475754" lon="12.0125404"><ele>86.0</ele><time>2026-04-25T08:50:21.366Z</time></trkpt><trkpt lat="45.7475122" lon="12.0125042"><ele>85.66666666666667</ele><time>2026-04-25T08:50:22.367Z</time></trkpt><trkpt lat="45.7474506" lon="12.0124679"><ele>85.33333333333334</ele><time>2026-04-25T08:50:23.366Z</time></trkpt><trkpt lat="45.7473895" lon="12.0124324"><ele>85.0</ele><time>2026-04-25T08:50:24.366Z</time></trkpt><trkpt lat="45.7472688" lon="12.0123628"><ele>84.66666666666667</ele><time>2026-04-25T08:50:26.366Z</time></trkpt><trkpt lat="45.7472088" lon="12.0123261"><ele>84.33333333333333</ele><time>2026-04-25T08:50:27.366Z</time></trkpt><trkpt lat="45.7471476" lon="12.0122931"><ele>84.0</ele><time>2026-04-25T08:50:28.366Z</time></trkpt><trkpt lat="45.7470318" lon="12.0122287"><ele>84.0</ele><time>2026-04-25T08:50:30.366Z</time></trkpt><trkpt lat="45.7469155" lon="12.0121594"><ele>84.0</ele><time>2026-04-25T08:50:32.366Z</time></trkpt><trkpt lat="45.7467994" lon="12.0120966"><ele>84.0</ele><time>2026-04-25T08:50:34.367Z</time></trkpt><trkpt lat="45.7466848" lon="12.0120315"><ele>84.0</ele><time>2026-04-25T08:50:36.366Z</time></trkpt><trkpt lat="45.7466238" lon="12.0119945"><ele>84.0</ele><time>2026-04-25T08:50:37.366Z</time></trkpt><trkpt lat="45.7465103" lon="12.0119339"><ele>84.0</ele><time>2026-04-25T08:50:39.366Z</time></trkpt><trkpt lat="45.7464511" lon="12.0119014"><ele>84.0</ele><time>2026-04-25T08:50:40.367Z</time></trkpt><trkpt lat="45.7463895" lon="12.0118651"><ele>84.0</ele><time>2026-04-25T08:50:41.367Z</time></trkpt><trkpt lat="45.7463323" lon="12.0118233"><ele>84.0</ele><time>2026-04-25T08:50:42.366Z</time></trkpt><trkpt lat="45.746273" lon="12.0117922"><ele>84.0</ele><time>2026-04-25T08:50:43.366Z</time></trkpt><trkpt lat="45.7461586" lon="12.0117288"><ele>84.0</ele><time>2026-04-25T08:50:45.366Z</time></trkpt><trkpt lat="45.7460457" lon="12.011669"><ele>84.0</ele><time>2026-04-25T08:50:47.366Z</time></trkpt><trkpt lat="45.7459352" lon="12.0115942"><ele>84.0</ele><time>2026-04-25T08:50:49.366Z</time></trkpt><trkpt lat="45.7458252" lon="12.0115225"><ele>84.0</ele><time>2026-04-25T08:50:51.366Z</time></trkpt><trkpt lat="45.7457106" lon="12.01146"><ele>84.0</ele><time>2026-04-25T08:50:53.366Z</time></trkpt><trkpt lat="45.7456507" lon="12.0114257"><ele>84.0</ele><time>2026-04-25T08:50:54.367Z</time></trkpt><trkpt lat="45.7455907" lon="12.0113915"><ele>84.0</ele><time>2026-04-25T08:50:55.366Z</time></trkpt><trkpt lat="45.7454755" lon="12.011322"><ele>84.0</ele><time>2026-04-25T08:50:57.367Z</time></trkpt><trkpt lat="45.7453635" lon="12.0112584"><ele>84.0</ele><time>2026-04-25T08:50:59.366Z</time></trkpt><trkpt lat="45.7452522" lon="12.0111918"><ele>84.0</ele><time>2026-04-25T08:51:01.366Z</time></trkpt><trkpt lat="45.745139" lon="12.0111253"><ele>83.80000000000001</ele><time>2026-04-25T08:51:03.366Z</time></trkpt><trkpt lat="45.7450219" lon="12.0110586"><ele>83.60000000000001</ele><time>2026-04-25T08:51:05.365Z</time></trkpt><trkpt lat="45.744905" lon="12.0110038"><ele>83.4</ele><time>2026-04-25T08:51:07.366Z</time></trkpt><trkpt lat="45.7447908" lon="12.0109364"><ele>83.2</ele><time>2026-04-25T08:51:09.365Z</time></trkpt><trkpt lat="45.7447299" lon="12.0109033"><ele>83.0</ele><time>2026-04-25T08:51:10.365Z</time></trkpt><trkpt lat="45.7446699" lon="12.0108663"><ele>83.0</ele><time>2026-04-25T08:51:11.366Z</time></trkpt><trkpt lat="45.7445505" lon="12.0107983"><ele>83.0</ele><time>2026-04-25T08:51:13.365Z</time></trkpt><trkpt lat="45.7444913" lon="12.0107655"><ele>83.0</ele><time>2026-04-25T08:51:14.365Z</time></trkpt><trkpt lat="45.7444316" lon="12.0107337"><ele>83.0</ele><time>2026-04-25T08:51:15.365Z</time></trkpt><trkpt lat="45.7443708" lon="12.0106961"><ele>83.0</ele><time>2026-04-25T08:51:16.365Z</time></trkpt><trkpt lat="45.7443054" lon="12.0106641"><ele>83.0</ele><time>2026-04-25T08:51:17.365Z</time></trkpt><trkpt lat="45.7442424" lon="12.0106318"><ele>83.0</ele><time>2026-04-25T08:51:18.366Z</time></trkpt><trkpt lat="45.7441787" lon="12.0106017"><ele>83.0</ele><time>2026-04-25T08:51:19.365Z</time></trkpt><trkpt lat="45.7441128" lon="12.0105741"><ele>83.0</ele><time>2026-04-25T08:51:20.365Z</time></trkpt><trkpt lat="45.7440501" lon="12.0105555"><ele>83.0</ele><time>2026-04-25T08:51:21.365Z</time></trkpt><trkpt lat="45.7439861" lon="12.0105409"><ele>83.0</ele><time>2026-04-25T08:51:22.365Z</time></trkpt><trkpt lat="45.7439229" lon="12.0105254"><ele>83.0</ele><time>2026-04-25T08:51:23.365Z</time></trkpt><trkpt lat="45.743795" lon="12.0105084"><ele>83.0</ele><time>2026-04-25T08:51:25.365Z</time></trkpt><trkpt lat="45.7436697" lon="12.0105189"><ele>83.0</ele><time>2026-04-25T08:51:27.366Z</time></trkpt><trkpt lat="45.7435447" lon="12.0105185"><ele>83.0</ele><time>2026-04-25T08:51:29.365Z</time></trkpt><trkpt lat="45.7434267" lon="12.0105249"><ele>83.0</ele><time>2026-04-25T08:51:31.365Z</time></trkpt><trkpt lat="45.7433053" lon="12.0105351"><ele>83.0</ele><time>2026-04-25T08:51:33.366Z</time></trkpt><trkpt lat="45.7431831" lon="12.0105012"><ele>83.0</ele><time>2026-04-25T08:51:35.365Z</time></trkpt><trkpt lat="45.7431267" lon="12.0104548"><ele>83.0</ele><time>2026-04-25T08:51:36.365Z</time></trkpt><trkpt lat="45.7430798" lon="12.0103909"><ele>83.0</ele><time>2026-04-25T08:51:37.365Z</time></trkpt><trkpt lat="45.7430285" lon="12.0102265"><ele>83.0</ele><time>2026-04-25T08:51:39.365Z</time></trkpt><trkpt lat="45.7430041" lon="12.0101381"><ele>83.0</ele><time>2026-04-25T08:51:40.366Z</time></trkpt><trkpt lat="45.7429767" lon="12.0100567"><ele>82.83333333333334</ele><time>2026-04-25T08:51:41.366Z</time></trkpt><trkpt lat="45.742943" lon="12.0099704"><ele>82.66666666666667</ele><time>2026-04-25T08:51:42.365Z</time></trkpt><trkpt lat="45.7428474" lon="12.0098582"><ele>82.5</ele><time>2026-04-25T08:51:44.365Z</time></trkpt><trkpt lat="45.7427871" lon="12.0098261"><ele>82.33333333333333</ele><time>2026-04-25T08:51:45.365Z</time></trkpt><trkpt lat="45.7427249" lon="12.009812"><ele>82.16666666666666</ele><time>2026-04-25T08:51:46.365Z</time></trkpt><trkpt lat="45.7426584" lon="12.0098238"><ele>82.0</ele><time>2026-04-25T08:51:47.366Z</time></trkpt><trkpt lat="45.7425964" lon="12.0098441"><ele>82.0</ele><time>2026-04-25T08:51:48.365Z</time></trkpt><trkpt lat="45.7424961" lon="12.0099427"><ele>82.0</ele><time>2026-04-25T08:51:50.365Z</time></trkpt><trkpt lat="45.7424311" lon="12.0100878"><ele>82.0</ele><time>2026-04-25T08:51:52.365Z</time></trkpt><trkpt lat="45.7423705" lon="12.010236"><ele>82.0</ele><time>2026-04-25T08:51:54.365Z</time></trkpt><trkpt lat="45.7422965" lon="12.0103707"><ele>82.0</ele><time>2026-04-25T08:51:56.365Z</time></trkpt><trkpt lat="45.7422076" lon="12.0104765"><ele>82.0</ele><time>2026-04-25T08:51:58.365Z</time></trkpt><trkpt lat="45.7421107" lon="12.0105533"><ele>82.0</ele><time>2026-04-25T08:52:00.366Z</time></trkpt><trkpt lat="45.7420102" lon="12.0106258"><ele>82.0</ele><time>2026-04-25T08:52:02.365Z</time></trkpt><trkpt lat="45.741906" lon="12.010689"><ele>82.0</ele><time>2026-04-25T08:52:04.365Z</time></trkpt><trkpt lat="45.7418008" lon="12.0107502"><ele>82.0</ele><time>2026-04-25T08:52:06.366Z</time></trkpt><trkpt lat="45.7416906" lon="12.0107978"><ele>82.0</ele><time>2026-04-25T08:52:08.365Z</time></trkpt><trkpt lat="45.7415821" lon="12.0108368"><ele>82.0</ele><time>2026-04-25T08:52:10.366Z</time></trkpt><trkpt lat="45.7414712" lon="12.010868"><ele>82.0</ele><time>2026-04-25T08:52:12.365Z</time></trkpt><trkpt lat="45.7413594" lon="12.0108871"><ele>82.0</ele><time>2026-04-25T08:52:14.365Z</time></trkpt><trkpt lat="45.7412546" lon="12.0109073"><ele>82.0</ele><time>2026-04-25T08:52:16.365Z</time></trkpt><trkpt lat="45.7411512" lon="12.0109203"><ele>82.0</ele><time>2026-04-25T08:52:18.365Z</time></trkpt><trkpt lat="45.7410452" lon="12.0109351"><ele>82.0</ele><time>2026-04-25T08:52:20.365Z</time></trkpt><trkpt lat="45.7409476" lon="12.0109513"><ele>81.8</ele><time>2026-04-25T08:52:22.365Z</time></trkpt><trkpt lat="45.740845" lon="12.0109684"><ele>81.6</ele><time>2026-04-25T08:52:24.366Z</time></trkpt><trkpt lat="45.7407441" lon="12.0109839"><ele>81.39999999999999</ele><time>2026-04-25T08:52:26.365Z</time></trkpt><trkpt lat="45.7406416" lon="12.0110061"><ele>81.19999999999999</ele><time>2026-04-25T08:52:28.365Z</time></trkpt><trkpt lat="45.7405423" lon="12.0110214"><ele>81.0</ele><time>2026-04-25T08:52:30.365Z</time></trkpt><trkpt lat="45.7404417" lon="12.0110327"><ele>81.0</ele><time>2026-04-25T08:52:32.365Z</time></trkpt><trkpt lat="45.740337" lon="12.0110542"><ele>81.0</ele><time>2026-04-25T08:52:34.365Z</time></trkpt><trkpt lat="45.7402289" lon="12.0110771"><ele>81.0</ele><time>2026-04-25T08:52:36.365Z</time></trkpt><trkpt lat="45.7401134" lon="12.0110935"><ele>81.0</ele><time>2026-04-25T08:52:38.365Z</time></trkpt><trkpt lat="45.7399969" lon="12.0111064"><ele>81.0</ele><time>2026-04-25T08:52:40.365Z</time></trkpt><trkpt lat="45.7398827" lon="12.0111224"><ele>80.0</ele><time>2026-04-25T08:52:42.365Z</time></trkpt><trkpt lat="45.7397629" lon="12.0111427"><ele>79.0</ele><time>2026-04-25T08:52:44.365Z</time></trkpt><trkpt lat="45.7396451" lon="12.0111604"><ele>78.0</ele><time>2026-04-25T08:52:46.365Z</time></trkpt><trkpt lat="45.7395257" lon="12.0111812"><ele>77.0</ele><time>2026-04-25T08:52:48.366Z</time></trkpt><trkpt lat="45.7394112" lon="12.0111963"><ele>77.0</ele><time>2026-04-25T08:52:50.365Z</time></trkpt><trkpt lat="45.7392932" lon="12.0112142"><ele>77.0</ele><time>2026-04-25T08:52:52.365Z</time></trkpt><trkpt lat="45.7391758" lon="12.0112299"><ele>77.0</ele><time>2026-04-25T08:52:54.366Z</time></trkpt><trkpt lat="45.7390536" lon="12.0112468"><ele>77.0</ele><time>2026-04-25T08:52:56.366Z</time></trkpt><trkpt lat="45.7389324" lon="12.0112679"><ele>77.0</ele><time>2026-04-25T08:52:58.365Z</time></trkpt><trkpt lat="45.7388684" lon="12.0112779"><ele>77.0</ele><time>2026-04-25T08:52:59.365Z</time></trkpt><trkpt lat="45.7387514" lon="12.0112947"><ele>77.0</ele><time>2026-04-25T08:53:01.365Z</time></trkpt><trkpt lat="45.7386317" lon="12.0113116"><ele>77.0</ele><time>2026-04-25T08:53:03.365Z</time></trkpt><trkpt lat="45.7385103" lon="12.0113283"><ele>77.0</ele><time>2026-04-25T08:53:05.366Z</time></trkpt><trkpt lat="45.7383911" lon="12.0113434"><ele>77.25</ele><time>2026-04-25T08:53:07.366Z</time></trkpt><trkpt lat="45.73827" lon="12.0113624"><ele>77.5</ele><time>2026-04-25T08:53:09.365Z</time></trkpt><trkpt lat="45.7381467" lon="12.0113806"><ele>77.75</ele><time>2026-04-25T08:53:11.365Z</time></trkpt><trkpt lat="45.7380256" lon="12.011401"><ele>78.0</ele><time>2026-04-25T08:53:13.365Z</time></trkpt><trkpt lat="45.7379074" lon="12.0114219"><ele>78.0</ele><time>2026-04-25T08:53:15.365Z</time></trkpt><trkpt lat="45.7378438" lon="12.011431"><ele>78.0</ele><time>2026-04-25T08:53:16.365Z</time></trkpt><trkpt lat="45.7377794" lon="12.0114361"><ele>78.0</ele><time>2026-04-25T08:53:17.365Z</time></trkpt><trkpt lat="45.737655" lon="12.0114577"><ele>78.0</ele><time>2026-04-25T08:53:19.365Z</time></trkpt><trkpt lat="45.7375266" lon="12.0114802"><ele>78.0</ele><time>2026-04-25T08:53:21.365Z</time></trkpt><trkpt lat="45.7374617" lon="12.0114928"><ele>78.0</ele><time>2026-04-25T08:53:22.365Z</time></trkpt><trkpt lat="45.7373362" lon="12.0115112"><ele>77.8</ele><time>2026-04-25T08:53:24.366Z</time></trkpt><trkpt lat="45.7372694" lon="12.0115243"><ele>77.6</ele><time>2026-04-25T08:53:25.366Z</time></trkpt><trkpt lat="45.7372066" lon="12.0115386"><ele>77.4</ele><time>2026-04-25T08:53:26.365Z</time></trkpt><trkpt lat="45.7370891" lon="12.011554"><ele>77.2</ele><time>2026-04-25T08:53:28.366Z</time></trkpt><trkpt lat="45.7369701" lon="12.0115673"><ele>77.0</ele><time>2026-04-25T08:53:30.365Z</time></trkpt><trkpt lat="45.7368441" lon="12.0115849"><ele>77.0</ele><time>2026-04-25T08:53:32.365Z</time></trkpt><trkpt lat="45.7367285" lon="12.0116044"><ele>77.0</ele><time>2026-04-25T08:53:34.365Z</time></trkpt><trkpt lat="45.7366079" lon="12.011636"><ele>77.0</ele><time>2026-04-25T08:53:36.365Z</time></trkpt><trkpt lat="45.7364901" lon="12.0116489"><ele>77.0</ele><time>2026-04-25T08:53:38.365Z</time></trkpt><trkpt lat="45.7363757" lon="12.011664"><ele>77.0</ele><time>2026-04-25T08:53:40.365Z</time></trkpt><trkpt lat="45.7362653" lon="12.0116777"><ele>77.0</ele><time>2026-04-25T08:53:42.366Z</time></trkpt><trkpt lat="45.7361538" lon="12.0116937"><ele>77.0</ele><time>2026-04-25T08:53:44.365Z</time></trkpt><trkpt lat="45.736049" lon="12.0117181"><ele>77.0</ele><time>2026-04-25T08:53:46.365Z</time></trkpt><trkpt lat="45.7359374" lon="12.0117316"><ele>77.0</ele><time>2026-04-25T08:53:48.365Z</time></trkpt><trkpt lat="45.7358191" lon="12.011744"><ele>76.75</ele><time>2026-04-25T08:53:50.365Z</time></trkpt><trkpt lat="45.7357061" lon="12.0117663"><ele>76.5</ele><time>2026-04-25T08:53:52.366Z</time></trkpt><trkpt lat="45.7355911" lon="12.0117874"><ele>76.25</ele><time>2026-04-25T08:53:54.365Z</time></trkpt><trkpt lat="45.7354775" lon="12.0118078"><ele>76.0</ele><time>2026-04-25T08:53:56.366Z</time></trkpt><trkpt lat="45.7353682" lon="12.0118286"><ele>76.0</ele><time>2026-04-25T08:53:58.365Z</time></trkpt><trkpt lat="45.7352553" lon="12.0118482"><ele>76.0</ele><time>2026-04-25T08:54:00.366Z</time></trkpt><trkpt lat="45.7351407" lon="12.011868"><ele>76.0</ele><time>2026-04-25T08:54:02.366Z</time></trkpt><trkpt lat="45.7350216" lon="12.0118802"><ele>76.0</ele><time>2026-04-25T08:54:04.366Z</time></trkpt><trkpt lat="45.7349034" lon="12.0118936"><ele>75.5</ele><time>2026-04-25T08:54:06.365Z</time></trkpt><trkpt lat="45.7347872" lon="12.0119109"><ele>75.0</ele><time>2026-04-25T08:54:08.365Z</time></trkpt><trkpt lat="45.7346729" lon="12.0119273"><ele>74.5</ele><time>2026-04-25T08:54:10.365Z</time></trkpt><trkpt lat="45.7345566" lon="12.0119462"><ele>74.0</ele><time>2026-04-25T08:54:12.365Z</time></trkpt><trkpt lat="45.7344406" lon="12.0119721"><ele>74.0</ele><time>2026-04-25T08:54:14.365Z</time></trkpt><trkpt lat="45.7343245" lon="12.0119964"><ele>74.0</ele><time>2026-04-25T08:54:16.365Z</time></trkpt><trkpt lat="45.7342087" lon="12.0120201"><ele>74.0</ele><time>2026-04-25T08:54:18.365Z</time></trkpt><trkpt lat="45.7340906" lon="12.0120444"><ele>74.0</ele><time>2026-04-25T08:54:20.365Z</time></trkpt><trkpt lat="45.7339783" lon="12.0120647"><ele>74.0</ele><time>2026-04-25T08:54:22.366Z</time></trkpt><trkpt lat="45.7338712" lon="12.0120888"><ele>74.0</ele><time>2026-04-25T08:54:24.366Z</time></trkpt><trkpt lat="45.7337551" lon="12.0121035"><ele>74.0</ele><time>2026-04-25T08:54:26.366Z</time></trkpt><trkpt lat="45.7336367" lon="12.0121155"><ele>74.0</ele><time>2026-04-25T08:54:28.365Z</time></trkpt><trkpt lat="45.7335213" lon="12.0121307"><ele>74.0</ele><time>2026-04-25T08:54:30.365Z</time></trkpt><trkpt lat="45.733403" lon="12.0121421"><ele>74.0</ele><time>2026-04-25T08:54:32.366Z</time></trkpt><trkpt lat="45.7332876" lon="12.0121616"><ele>74.0</ele><time>2026-04-25T08:54:34.365Z</time></trkpt><trkpt lat="45.7331737" lon="12.0121763"><ele>74.0</ele><time>2026-04-25T08:54:36.365Z</time></trkpt><trkpt lat="45.7330589" lon="12.0121979"><ele>74.0</ele><time>2026-04-25T08:54:38.365Z</time></trkpt><trkpt lat="45.7329378" lon="12.0122128"><ele>74.0</ele><time>2026-04-25T08:54:40.364Z</time></trkpt><trkpt lat="45.7328155" lon="12.0122197"><ele>74.0</ele><time>2026-04-25T08:54:42.364Z</time></trkpt><trkpt lat="45.732694" lon="12.0122431"><ele>74.0</ele><time>2026-04-25T08:54:44.364Z</time></trkpt><trkpt lat="45.7325731" lon="12.0122636"><ele>74.0</ele><time>2026-04-25T08:54:46.364Z</time></trkpt><trkpt lat="45.7324563" lon="12.0122851"><ele>74.0</ele><time>2026-04-25T08:54:48.364Z</time></trkpt><trkpt lat="45.732336" lon="12.0123069"><ele>74.0</ele><time>2026-04-25T08:54:50.364Z</time></trkpt><trkpt lat="45.7322179" lon="12.0123283"><ele>74.0</ele><time>2026-04-25T08:54:52.364Z</time></trkpt><trkpt lat="45.7320925" lon="12.0123423"><ele>74.0</ele><time>2026-04-25T08:54:54.364Z</time></trkpt><trkpt lat="45.7319713" lon="12.0123569"><ele>74.0</ele><time>2026-04-25T08:54:56.364Z</time></trkpt><trkpt lat="45.731852" lon="12.0123797"><ele>74.0</ele><time>2026-04-25T08:54:58.364Z</time></trkpt><trkpt lat="45.7317888" lon="12.0123901"><ele>74.0</ele><time>2026-04-25T08:54:59.364Z</time></trkpt><trkpt lat="45.7317259" lon="12.0123986"><ele>74.0</ele><time>2026-04-25T08:55:00.364Z</time></trkpt><trkpt lat="45.7316039" lon="12.0124232"><ele>73.60000000000001</ele><time>2026-04-25T08:55:02.364Z</time></trkpt><trkpt lat="45.7315398" lon="12.0124355"><ele>73.2</ele><time>2026-04-25T08:55:03.364Z</time></trkpt><trkpt lat="45.7314205" lon="12.0124485"><ele>72.80000000000001</ele><time>2026-04-25T08:55:05.364Z</time></trkpt><trkpt lat="45.7313031" lon="12.0124641"><ele>72.4</ele><time>2026-04-25T08:55:07.364Z</time></trkpt><trkpt lat="45.73119" lon="12.0124793"><ele>72.0</ele><time>2026-04-25T08:55:09.364Z</time></trkpt><trkpt lat="45.7310798" lon="12.0124965"><ele>72.5</ele><time>2026-04-25T08:55:11.364Z</time></trkpt><trkpt lat="45.7309692" lon="12.0125162"><ele>73.0</ele><time>2026-04-25T08:55:13.364Z</time></trkpt><trkpt lat="45.7308482" lon="12.0125356"><ele>73.5</ele><time>2026-04-25T08:55:15.364Z</time></trkpt><trkpt lat="45.7307328" lon="12.012551"><ele>74.0</ele><time>2026-04-25T08:55:17.364Z</time></trkpt><trkpt lat="45.730621" lon="12.012578"><ele>74.0</ele><time>2026-04-25T08:55:19.364Z</time></trkpt><trkpt lat="45.730502" lon="12.0125928"><ele>74.0</ele><time>2026-04-25T08:55:21.364Z</time></trkpt><trkpt lat="45.7303853" lon="12.0126078"><ele>74.0</ele><time>2026-04-25T08:55:23.364Z</time></trkpt><trkpt lat="45.7302716" lon="12.0126229"><ele>74.0</ele><time>2026-04-25T08:55:25.364Z</time></trkpt><trkpt lat="45.7301535" lon="12.0126409"><ele>73.4</ele><time>2026-04-25T08:55:27.364Z</time></trkpt><trkpt lat="45.7300379" lon="12.0126585"><ele>72.80000000000001</ele><time>2026-04-25T08:55:29.365Z</time></trkpt><trkpt lat="45.7299331" lon="12.0126729"><ele>72.19999999999999</ele><time>2026-04-25T08:55:31.365Z</time></trkpt><trkpt lat="45.7298199" lon="12.0126869"><ele>71.6</ele><time>2026-04-25T08:55:33.364Z</time></trkpt><trkpt lat="45.7297061" lon="12.0127013"><ele>71.0</ele><time>2026-04-25T08:55:35.364Z</time></trkpt><trkpt lat="45.7295891" lon="12.0127167"><ele>71.0</ele><time>2026-04-25T08:55:37.364Z</time></trkpt><trkpt lat="45.7294697" lon="12.0127324"><ele>71.0</ele><time>2026-04-25T08:55:39.364Z</time></trkpt><trkpt lat="45.7293457" lon="12.0127472"><ele>71.0</ele><time>2026-04-25T08:55:41.364Z</time></trkpt><trkpt lat="45.7292265" lon="12.0127762"><ele>71.0</ele><time>2026-04-25T08:55:43.364Z</time></trkpt><trkpt lat="45.7291635" lon="12.0127877"><ele>71.0</ele><time>2026-04-25T08:55:44.364Z</time></trkpt><trkpt lat="45.7290993" lon="12.0127989"><ele>71.16666666666667</ele><time>2026-04-25T08:55:45.364Z</time></trkpt><trkpt lat="45.7290325" lon="12.0128105"><ele>71.33333333333334</ele><time>2026-04-25T08:55:46.365Z</time></trkpt><trkpt lat="45.7289664" lon="12.0128158"><ele>71.5</ele><time>2026-04-25T08:55:47.364Z</time></trkpt><trkpt lat="45.7288927" lon="12.0128238"><ele>71.66666666666667</ele><time>2026-04-25T08:55:48.364Z</time></trkpt><trkpt lat="45.7288158" lon="12.0128383"><ele>71.83333333333333</ele><time>2026-04-25T08:55:49.364Z</time></trkpt><trkpt lat="45.7287354" lon="12.0128431"><ele>72.0</ele><time>2026-04-25T08:55:50.364Z</time></trkpt><trkpt lat="45.7286484" lon="12.0128584"><ele>71.8</ele><time>2026-04-25T08:55:51.364Z</time></trkpt><trkpt lat="45.7285584" lon="12.0128684"><ele>71.6</ele><time>2026-04-25T08:55:52.364Z</time></trkpt><trkpt lat="45.7284629" lon="12.0128816"><ele>71.39999999999999</ele><time>2026-04-25T08:55:53.364Z</time></trkpt><trkpt lat="45.7283651" lon="12.0128938"><ele>71.2</ele><time>2026-04-25T08:55:54.364Z</time></trkpt><trkpt lat="45.7282655" lon="12.0129059"><ele>71.0</ele><time>2026-04-25T08:55:55.364Z</time></trkpt><trkpt lat="45.7281648" lon="12.0129218"><ele>71.0</ele><time>2026-04-25T08:55:56.364Z</time></trkpt><trkpt lat="45.7280617" lon="12.0129443"><ele>71.0</ele><time>2026-04-25T08:55:57.364Z</time></trkpt><trkpt lat="45.7279567" lon="12.0129756"><ele>71.0</ele><time>2026-04-25T08:55:58.364Z</time></trkpt><trkpt lat="45.7278614" lon="12.0129965"><ele>71.0</ele><time>2026-04-25T08:55:59.364Z</time></trkpt><trkpt lat="45.7277787" lon="12.0130181"><ele>71.0</ele><time>2026-04-25T08:56:00.364Z</time></trkpt><trkpt lat="45.7276955" lon="12.013036"><ele>70.66666666666667</ele><time>2026-04-25T08:56:01.364Z</time></trkpt><trkpt lat="45.7276248" lon="12.0130426"><ele>70.33333333333334</ele><time>2026-04-25T08:56:02.364Z</time></trkpt><trkpt lat="45.7275588" lon="12.0130566"><ele>70.0</ele><time>2026-04-25T08:56:03.364Z</time></trkpt><trkpt lat="45.727497" lon="12.013074"><ele>69.66666666666667</ele><time>2026-04-25T08:56:04.365Z</time></trkpt><trkpt lat="45.7273906" lon="12.0130888"><ele>69.33333333333333</ele><time>2026-04-25T08:56:06.364Z</time></trkpt><trkpt lat="45.7273052" lon="12.0131081"><ele>69.0</ele><time>2026-04-25T08:56:08.364Z</time></trkpt><trkpt lat="45.7272215" lon="12.0131159"><ele>69.0</ele><time>2026-04-25T08:56:10.364Z</time></trkpt><trkpt lat="45.7271334" lon="12.0131308"><ele>69.0</ele><time>2026-04-25T08:56:12.364Z</time></trkpt><trkpt lat="45.7270402" lon="12.0131383"><ele>69.0</ele><time>2026-04-25T08:56:14.364Z</time></trkpt><trkpt lat="45.7269386" lon="12.0131433"><ele>69.0</ele><time>2026-04-25T08:56:16.365Z</time></trkpt><trkpt lat="45.7268294" lon="12.0131611"><ele>69.0</ele><time>2026-04-25T08:56:18.365Z</time></trkpt><trkpt lat="45.7267078" lon="12.0131732"><ele>69.25</ele><time>2026-04-25T08:56:20.364Z</time></trkpt><trkpt lat="45.7265864" lon="12.0131973"><ele>69.5</ele><time>2026-04-25T08:56:22.364Z</time></trkpt><trkpt lat="45.726465" lon="12.0132247"><ele>69.75</ele><time>2026-04-25T08:56:24.364Z</time></trkpt><trkpt lat="45.7263489" lon="12.0132452"><ele>70.0</ele><time>2026-04-25T08:56:26.364Z</time></trkpt><trkpt lat="45.7262392" lon="12.0132637"><ele>70.0</ele><time>2026-04-25T08:56:28.364Z</time></trkpt><trkpt lat="45.7261211" lon="12.0132889"><ele>70.0</ele><time>2026-04-25T08:56:30.364Z</time></trkpt><trkpt lat="45.7260106" lon="12.0133145"><ele>70.0</ele><time>2026-04-25T08:56:32.364Z</time></trkpt><trkpt lat="45.7258992" lon="12.0133311"><ele>70.0</ele><time>2026-04-25T08:56:34.365Z</time></trkpt><trkpt lat="45.7257863" lon="12.0133371"><ele>70.0</ele><time>2026-04-25T08:56:36.364Z</time></trkpt><trkpt lat="45.7256672" lon="12.0133465"><ele>70.0</ele><time>2026-04-25T08:56:38.364Z</time></trkpt><trkpt lat="45.7255521" lon="12.0133641"><ele>70.0</ele><time>2026-04-25T08:56:40.364Z</time></trkpt><trkpt lat="45.7254208" lon="12.0133932"><ele>70.0</ele><time>2026-04-25T08:56:42.364Z</time></trkpt><trkpt lat="45.7253535" lon="12.0134025"><ele>70.0</ele><time>2026-04-25T08:56:43.364Z</time></trkpt><trkpt lat="45.725244" lon="12.0134242"><ele>69.5</ele><time>2026-04-25T08:56:45.364Z</time></trkpt><trkpt lat="45.7251306" lon="12.0134411"><ele>69.0</ele><time>2026-04-25T08:56:47.364Z</time></trkpt><trkpt lat="45.7250184" lon="12.0134674"><ele>68.5</ele><time>2026-04-25T08:56:49.365Z</time></trkpt><trkpt lat="45.7249085" lon="12.0134929"><ele>68.0</ele><time>2026-04-25T08:56:51.364Z</time></trkpt><trkpt lat="45.7247979" lon="12.0135105"><ele>68.0</ele><time>2026-04-25T08:56:53.364Z</time></trkpt><trkpt lat="45.7246846" lon="12.0135279"><ele>68.0</ele><time>2026-04-25T08:56:55.364Z</time></trkpt><trkpt lat="45.7245778" lon="12.013543"><ele>68.0</ele><time>2026-04-25T08:56:57.364Z</time></trkpt><trkpt lat="45.7244702" lon="12.0135633"><ele>68.0</ele><time>2026-04-25T08:56:59.365Z</time></trkpt><trkpt lat="45.7243618" lon="12.0135713"><ele>68.0</ele><time>2026-04-25T08:57:01.364Z</time></trkpt><trkpt lat="45.7242562" lon="12.0135829"><ele>68.0</ele><time>2026-04-25T08:57:03.364Z</time></trkpt><trkpt lat="45.7241524" lon="12.0135984"><ele>68.0</ele><time>2026-04-25T08:57:05.364Z</time></trkpt><trkpt lat="45.7240431" lon="12.0136172"><ele>68.0</ele><time>2026-04-25T08:57:07.364Z</time></trkpt><trkpt lat="45.7239441" lon="12.0136287"><ele>68.0</ele><time>2026-04-25T08:57:09.364Z</time></trkpt><trkpt lat="45.7238382" lon="12.0136411"><ele>68.0</ele><time>2026-04-25T08:57:11.365Z</time></trkpt><trkpt lat="45.7237307" lon="12.0136555"><ele>68.0</ele><time>2026-04-25T08:57:13.364Z</time></trkpt><trkpt lat="45.7236109" lon="12.0136706"><ele>68.0</ele><time>2026-04-25T08:57:15.364Z</time></trkpt><trkpt lat="45.7235025" lon="12.0136929"><ele>68.0</ele><time>2026-04-25T08:57:17.365Z</time></trkpt><trkpt lat="45.7233952" lon="12.0137163"><ele>68.0</ele><time>2026-04-25T08:57:19.364Z</time></trkpt><trkpt lat="45.7232831" lon="12.0137325"><ele>67.6</ele><time>2026-04-25T08:57:21.364Z</time></trkpt><trkpt lat="45.7231768" lon="12.0137454"><ele>67.19999999999999</ele><time>2026-04-25T08:57:23.364Z</time></trkpt><trkpt lat="45.7230715" lon="12.0137583"><ele>66.8</ele><time>2026-04-25T08:57:25.364Z</time></trkpt><trkpt lat="45.7229695" lon="12.0137697"><ele>66.39999999999999</ele><time>2026-04-25T08:57:27.364Z</time></trkpt><trkpt lat="45.722862" lon="12.0137927"><ele>66.0</ele><time>2026-04-25T08:57:29.364Z</time></trkpt><trkpt lat="45.7227562" lon="12.0138039"><ele>66.0</ele><time>2026-04-25T08:57:31.365Z</time></trkpt><trkpt lat="45.7226552" lon="12.0137735"><ele>66.0</ele><time>2026-04-25T08:57:33.364Z</time></trkpt><trkpt lat="45.7225929" lon="12.0136998"><ele>66.0</ele><time>2026-04-25T08:57:35.364Z</time></trkpt><trkpt lat="45.7225487" lon="12.0136081"><ele>66.0</ele><time>2026-04-25T08:57:37.364Z</time></trkpt><trkpt lat="45.7225343" lon="12.013495"><ele>66.0</ele><time>2026-04-25T08:57:39.364Z</time></trkpt><trkpt lat="45.7225276" lon="12.0134003"><ele>66.0</ele><time>2026-04-25T08:57:41.364Z</time></trkpt><trkpt lat="45.7225208" lon="12.0132688"><ele>66.2</ele><time>2026-04-25T08:57:44.364Z</time></trkpt><trkpt lat="45.7225165" lon="12.0131645"><ele>66.39999999999999</ele><time>2026-04-25T08:57:46.364Z</time></trkpt><trkpt lat="45.7225048" lon="12.0130393"><ele>66.6</ele><time>2026-04-25T08:57:48.364Z</time></trkpt><trkpt lat="45.7224544" lon="12.012918"><ele>66.8</ele><time>2026-04-25T08:57:50.364Z</time></trkpt><trkpt lat="45.7223595" lon="12.0128803"><ele>67.0</ele><time>2026-04-25T08:57:52.364Z</time></trkpt><trkpt lat="45.7222645" lon="12.0129102"><ele>67.0</ele><time>2026-04-25T08:57:54.365Z</time></trkpt><trkpt lat="45.7221591" lon="12.0129259"><ele>67.0</ele><time>2026-04-25T08:57:56.364Z</time></trkpt><trkpt lat="45.722057" lon="12.0129562"><ele>67.0</ele><time>2026-04-25T08:57:58.364Z</time></trkpt><trkpt lat="45.7219542" lon="12.012971"><ele>67.0</ele><time>2026-04-25T08:58:00.364Z</time></trkpt><trkpt lat="45.7218519" lon="12.0129869"><ele>67.0</ele><time>2026-04-25T08:58:02.364Z</time></trkpt><trkpt lat="45.7217405" lon="12.0130089"><ele>66.75</ele><time>2026-04-25T08:58:04.364Z</time></trkpt><trkpt lat="45.7216214" lon="12.0130285"><ele>66.5</ele><time>2026-04-25T08:58:06.365Z</time></trkpt><trkpt lat="45.7215108" lon="12.0130355"><ele>66.25</ele><time>2026-04-25T08:58:08.365Z</time></trkpt><trkpt lat="45.7213941" lon="12.0130549"><ele>66.0</ele><time>2026-04-25T08:58:10.364Z</time></trkpt><trkpt lat="45.7212859" lon="12.0130594"><ele>66.0</ele><time>2026-04-25T08:58:12.364Z</time></trkpt><trkpt lat="45.7211742" lon="12.0130699"><ele>66.0</ele><time>2026-04-25T08:58:14.364Z</time></trkpt><trkpt lat="45.7210612" lon="12.0130856"><ele>66.0</ele><time>2026-04-25T08:58:16.363Z</time></trkpt><trkpt lat="45.720952" lon="12.0131157"><ele>66.0</ele><time>2026-04-25T08:58:18.363Z</time></trkpt><trkpt lat="45.720845" lon="12.0131402"><ele>66.0</ele><time>2026-04-25T08:58:20.363Z</time></trkpt><trkpt lat="45.7207306" lon="12.01316"><ele>65.75</ele><time>2026-04-25T08:58:22.363Z</time></trkpt><trkpt lat="45.7206202" lon="12.0131804"><ele>65.5</ele><time>2026-04-25T08:58:24.363Z</time></trkpt><trkpt lat="45.7205083" lon="12.0131924"><ele>65.25</ele><time>2026-04-25T08:58:26.363Z</time></trkpt><trkpt lat="45.7203926" lon="12.0132113"><ele>65.0</ele><time>2026-04-25T08:58:28.363Z</time></trkpt><trkpt lat="45.7202768" lon="12.0132315"><ele>65.0</ele><time>2026-04-25T08:58:30.363Z</time></trkpt><trkpt lat="45.7201608" lon="12.0132487"><ele>65.0</ele><time>2026-04-25T08:58:32.363Z</time></trkpt><trkpt lat="45.7200514" lon="12.0132755"><ele>65.0</ele><time>2026-04-25T08:58:34.363Z</time></trkpt><trkpt lat="45.7199401" lon="12.0132876"><ele>65.0</ele><time>2026-04-25T08:58:36.363Z</time></trkpt><trkpt lat="45.7198241" lon="12.0133036"><ele>65.0</ele><time>2026-04-25T08:58:38.363Z</time></trkpt><trkpt lat="45.7197116" lon="12.0133235"><ele>65.0</ele><time>2026-04-25T08:58:40.363Z</time></trkpt><trkpt lat="45.7195983" lon="12.0133271"><ele>65.0</ele><time>2026-04-25T08:58:42.363Z</time></trkpt><trkpt lat="45.7194855" lon="12.0133435"><ele>65.0</ele><time>2026-04-25T08:58:44.363Z</time></trkpt><trkpt lat="45.7193758" lon="12.0133707"><ele>64.8</ele><time>2026-04-25T08:58:46.363Z</time></trkpt><trkpt lat="45.7192642" lon="12.013387"><ele>64.6</ele><time>2026-04-25T08:58:48.363Z</time></trkpt><trkpt lat="45.7191522" lon="12.0134143"><ele>64.4</ele><time>2026-04-25T08:58:50.364Z</time></trkpt><trkpt lat="45.719043" lon="12.0134227"><ele>64.2</ele><time>2026-04-25T08:58:52.363Z</time></trkpt><trkpt lat="45.7189476" lon="12.0134611"><ele>64.0</ele><time>2026-04-25T08:58:54.363Z</time></trkpt><trkpt lat="45.7189039" lon="12.0135946"><ele>64.0</ele><time>2026-04-25T08:58:56.364Z</time></trkpt><trkpt lat="45.7188999" lon="12.0137617"><ele>64.0</ele><time>2026-04-25T08:58:58.363Z</time></trkpt><trkpt lat="45.7189092" lon="12.0139277"><ele>64.0</ele><time>2026-04-25T08:59:00.364Z</time></trkpt><trkpt lat="45.7189138" lon="12.0140944"><ele>64.0</ele><time>2026-04-25T08:59:02.363Z</time></trkpt><trkpt lat="45.7189181" lon="12.0142525"><ele>64.0</ele><time>2026-04-25T08:59:04.363Z</time></trkpt><trkpt lat="45.7188767" lon="12.0143919"><ele>64.0</ele><time>2026-04-25T08:59:06.363Z</time></trkpt><trkpt lat="45.7187757" lon="12.0144426"><ele>64.0</ele><time>2026-04-25T08:59:08.364Z</time></trkpt><trkpt lat="45.7186706" lon="12.014469"><ele>64.0</ele><time>2026-04-25T08:59:10.363Z</time></trkpt><trkpt lat="45.718557" lon="12.0144897"><ele>64.0</ele><time>2026-04-25T08:59:12.364Z</time></trkpt><trkpt lat="45.7184457" lon="12.0145111"><ele>63.800000000000004</ele><time>2026-04-25T08:59:14.363Z</time></trkpt><trkpt lat="45.7183371" lon="12.0145179"><ele>63.60000000000001</ele><time>2026-04-25T08:59:16.363Z</time></trkpt><trkpt lat="45.7182335" lon="12.0145375"><ele>63.4</ele><time>2026-04-25T08:59:18.364Z</time></trkpt><trkpt lat="45.7181185" lon="12.0145525"><ele>63.2</ele><time>2026-04-25T08:59:20.363Z</time></trkpt><trkpt lat="45.7180053" lon="12.0145664"><ele>63.0</ele><time>2026-04-25T08:59:22.363Z</time></trkpt><trkpt lat="45.7178977" lon="12.0145771"><ele>63.0</ele><time>2026-04-25T08:59:24.363Z</time></trkpt><trkpt lat="45.7177856" lon="12.0145908"><ele>63.0</ele><time>2026-04-25T08:59:26.363Z</time></trkpt><trkpt lat="45.7176719" lon="12.0146001"><ele>63.0</ele><time>2026-04-25T08:59:28.363Z</time></trkpt><trkpt lat="45.7175632" lon="12.0146104"><ele>63.0</ele><time>2026-04-25T08:59:30.363Z</time></trkpt><trkpt lat="45.7174523" lon="12.0146247"><ele>63.0</ele><time>2026-04-25T08:59:32.363Z</time></trkpt><trkpt lat="45.7173301" lon="12.0146519"><ele>63.0</ele><time>2026-04-25T08:59:34.363Z</time></trkpt><trkpt lat="45.7172093" lon="12.014678"><ele>63.0</ele><time>2026-04-25T08:59:36.364Z</time></trkpt><trkpt lat="45.717095" lon="12.0146918"><ele>63.0</ele><time>2026-04-25T08:59:38.363Z</time></trkpt><trkpt lat="45.7169781" lon="12.0147109"><ele>63.0</ele><time>2026-04-25T08:59:40.363Z</time></trkpt><trkpt lat="45.716865" lon="12.014726"><ele>63.0</ele><time>2026-04-25T08:59:42.363Z</time></trkpt><trkpt lat="45.7167488" lon="12.0147493"><ele>63.0</ele><time>2026-04-25T08:59:44.364Z</time></trkpt><trkpt lat="45.7166408" lon="12.0147602"><ele>63.0</ele><time>2026-04-25T08:59:46.363Z</time></trkpt><trkpt lat="45.7165291" lon="12.0147788"><ele>63.0</ele><time>2026-04-25T08:59:48.363Z</time></trkpt><trkpt lat="45.7164191" lon="12.0147863"><ele>63.0</ele><time>2026-04-25T08:59:50.363Z</time></trkpt><trkpt lat="45.7163032" lon="12.0148116"><ele>63.0</ele><time>2026-04-25T08:59:52.363Z</time></trkpt><trkpt lat="45.7161922" lon="12.0148318"><ele>63.0</ele><time>2026-04-25T08:59:54.363Z</time></trkpt><trkpt lat="45.7160817" lon="12.0148472"><ele>63.0</ele><time>2026-04-25T08:59:56.363Z</time></trkpt><trkpt lat="45.7159725" lon="12.014861"><ele>63.0</ele><time>2026-04-25T08:59:58.363Z</time></trkpt><trkpt lat="45.7158605" lon="12.0148826"><ele>63.0</ele><time>2026-04-25T09:00:00.363Z</time></trkpt><trkpt lat="45.7157433" lon="12.0148923"><ele>62.5</ele><time>2026-04-25T09:00:02.364Z</time></trkpt><trkpt lat="45.7156274" lon="12.0149162"><ele>62.0</ele><time>2026-04-25T09:00:04.363Z</time></trkpt><trkpt lat="45.7155148" lon="12.0149337"><ele>61.5</ele><time>2026-04-25T09:00:06.363Z</time></trkpt><trkpt lat="45.7153967" lon="12.0149573"><ele>61.0</ele><time>2026-04-25T09:00:08.363Z</time></trkpt><trkpt lat="45.7152769" lon="12.0149766"><ele>60.75</ele><time>2026-04-25T09:00:10.363Z</time></trkpt><trkpt lat="45.7151616" lon="12.0149953"><ele>60.5</ele><time>2026-04-25T09:00:12.364Z</time></trkpt><trkpt lat="45.7150485" lon="12.0150161"><ele>60.25</ele><time>2026-04-25T09:00:14.364Z</time></trkpt><trkpt lat="45.7149348" lon="12.0150363"><ele>60.0</ele><time>2026-04-25T09:00:16.364Z</time></trkpt><trkpt lat="45.7148231" lon="12.015053"><ele>60.0</ele><time>2026-04-25T09:00:18.363Z</time></trkpt><trkpt lat="45.7147107" lon="12.0150789"><ele>60.0</ele><time>2026-04-25T09:00:20.363Z</time></trkpt><trkpt lat="45.7146007" lon="12.0150951"><ele>60.0</ele><time>2026-04-25T09:00:22.363Z</time></trkpt><trkpt lat="45.7144875" lon="12.0151185"><ele>60.0</ele><time>2026-04-25T09:00:24.364Z</time></trkpt><trkpt lat="45.7143714" lon="12.0151327"><ele>59.75</ele><time>2026-04-25T09:00:26.363Z</time></trkpt><trkpt lat="45.7142607" lon="12.0151331"><ele>59.5</ele><time>2026-04-25T09:00:28.363Z</time></trkpt><trkpt lat="45.7141502" lon="12.0151474"><ele>59.25</ele><time>2026-04-25T09:00:30.363Z</time></trkpt><trkpt lat="45.714033" lon="12.0151735"><ele>59.0</ele><time>2026-04-25T09:00:32.363Z</time></trkpt><trkpt lat="45.7139227" lon="12.0151932"><ele>59.0</ele><time>2026-04-25T09:00:34.363Z</time></trkpt><trkpt lat="45.7138067" lon="12.0152088"><ele>59.0</ele><time>2026-04-25T09:00:36.364Z</time></trkpt><trkpt lat="45.713696" lon="12.0152286"><ele>59.0</ele><time>2026-04-25T09:00:38.363Z</time></trkpt><trkpt lat="45.7135794" lon="12.0152424"><ele>59.0</ele><time>2026-04-25T09:00:40.363Z</time></trkpt><trkpt lat="45.7134643" lon="12.0152626"><ele>58.5</ele><time>2026-04-25T09:00:42.363Z</time></trkpt><trkpt lat="45.7133523" lon="12.0152744"><ele>58.0</ele><time>2026-04-25T09:00:44.364Z</time></trkpt><trkpt lat="45.7132459" lon="12.0152909"><ele>57.5</ele><time>2026-04-25T09:00:46.363Z</time></trkpt><trkpt lat="45.7131297" lon="12.0153145"><ele>57.0</ele><time>2026-04-25T09:00:48.363Z</time></trkpt><trkpt lat="45.713012" lon="12.0153307"><ele>57.0</ele><time>2026-04-25T09:00:50.363Z</time></trkpt><trkpt lat="45.7129022" lon="12.0153493"><ele>57.0</ele><time>2026-04-25T09:00:52.363Z</time></trkpt><trkpt lat="45.7127893" lon="12.0153664"><ele>57.0</ele><time>2026-04-25T09:00:54.363Z</time></trkpt><trkpt lat="45.7126708" lon="12.0153797"><ele>57.0</ele><time>2026-04-25T09:00:56.363Z</time></trkpt><trkpt lat="45.712553" lon="12.0153937"><ele>57.5</ele><time>2026-04-25T09:00:58.363Z</time></trkpt><trkpt lat="45.712437" lon="12.015416"><ele>58.0</ele><time>2026-04-25T09:01:00.363Z</time></trkpt><trkpt lat="45.7123234" lon="12.0154343"><ele>58.5</ele><time>2026-04-25T09:01:02.363Z</time></trkpt><trkpt lat="45.7122072" lon="12.0154491"><ele>59.0</ele><time>2026-04-25T09:01:04.363Z</time></trkpt><trkpt lat="45.7120904" lon="12.0154692"><ele>59.0</ele><time>2026-04-25T09:01:06.364Z</time></trkpt><trkpt lat="45.7119734" lon="12.0154929"><ele>59.0</ele><time>2026-04-25T09:01:08.363Z</time></trkpt><trkpt lat="45.7118568" lon="12.0155018"><ele>59.0</ele><time>2026-04-25T09:01:10.363Z</time></trkpt><trkpt lat="45.7117426" lon="12.0155377"><ele>59.0</ele><time>2026-04-25T09:01:12.363Z</time></trkpt><trkpt lat="45.7116227" lon="12.0155596"><ele>58.800000000000004</ele><time>2026-04-25T09:01:14.364Z</time></trkpt><trkpt lat="45.7115059" lon="12.0155826"><ele>58.60000000000001</ele><time>2026-04-25T09:01:16.363Z</time></trkpt><trkpt lat="45.711396" lon="12.0156007"><ele>58.4</ele><time>2026-04-25T09:01:18.363Z</time></trkpt><trkpt lat="45.7112928" lon="12.015607"><ele>58.2</ele><time>2026-04-25T09:01:20.363Z</time></trkpt><trkpt lat="45.7111787" lon="12.015618"><ele>58.0</ele><time>2026-04-25T09:01:22.363Z</time></trkpt><trkpt lat="45.7110592" lon="12.0156429"><ele>57.8</ele><time>2026-04-25T09:01:24.364Z</time></trkpt><trkpt lat="45.710994" lon="12.0156501"><ele>57.599999999999994</ele><time>2026-04-25T09:01:25.363Z</time></trkpt><trkpt lat="45.7108801" lon="12.0156691"><ele>57.400000000000006</ele><time>2026-04-25T09:01:27.363Z</time></trkpt><trkpt lat="45.7107658" lon="12.0156909"><ele>57.2</ele><time>2026-04-25T09:01:29.363Z</time></trkpt><trkpt lat="45.7106532" lon="12.0157076"><ele>57.0</ele><time>2026-04-25T09:01:31.363Z</time></trkpt><trkpt lat="45.710538" lon="12.0157278"><ele>57.0</ele><time>2026-04-25T09:01:33.364Z</time></trkpt><trkpt lat="45.7104147" lon="12.0157355"><ele>57.0</ele><time>2026-04-25T09:01:35.363Z</time></trkpt><trkpt lat="45.7102966" lon="12.015757"><ele>57.0</ele><time>2026-04-25T09:01:37.363Z</time></trkpt><trkpt lat="45.7101921" lon="12.0157743"><ele>57.0</ele><time>2026-04-25T09:01:39.363Z</time></trkpt><trkpt lat="45.710085" lon="12.0157903"><ele>57.0</ele><time>2026-04-25T09:01:41.363Z</time></trkpt><trkpt lat="45.7099744" lon="12.0158105"><ele>57.0</ele><time>2026-04-25T09:01:43.363Z</time></trkpt><trkpt lat="45.7098554" lon="12.0158288"><ele>57.0</ele><time>2026-04-25T09:01:45.364Z</time></trkpt><trkpt lat="45.7097392" lon="12.0158464"><ele>57.0</ele><time>2026-04-25T09:01:47.362Z</time></trkpt><trkpt lat="45.7096282" lon="12.0158594"><ele>57.0</ele><time>2026-04-25T09:01:49.362Z</time></trkpt><trkpt lat="45.7095242" lon="12.0158774"><ele>57.0</ele><time>2026-04-25T09:01:51.362Z</time></trkpt><trkpt lat="45.7094142" lon="12.0158951"><ele>57.0</ele><time>2026-04-25T09:01:53.362Z</time></trkpt><trkpt lat="45.7092965" lon="12.0159129"><ele>57.0</ele><time>2026-04-25T09:01:55.362Z</time></trkpt><trkpt lat="45.7091842" lon="12.0159345"><ele>57.0</ele><time>2026-04-25T09:01:57.362Z</time></trkpt><trkpt lat="45.7090694" lon="12.0159528"><ele>57.0</ele><time>2026-04-25T09:01:59.362Z</time></trkpt><trkpt lat="45.7089557" lon="12.0159607"><ele>57.0</ele><time>2026-04-25T09:02:01.363Z</time></trkpt><trkpt lat="45.7088448" lon="12.0159775"><ele>57.0</ele><time>2026-04-25T09:02:03.362Z</time></trkpt><trkpt lat="45.7087345" lon="12.015997"><ele>57.0</ele><time>2026-04-25T09:02:05.362Z</time></trkpt><trkpt lat="45.7086251" lon="12.0160143"><ele>57.0</ele><time>2026-04-25T09:02:07.362Z</time></trkpt><trkpt lat="45.7085109" lon="12.0160297"><ele>56.75</ele><time>2026-04-25T09:02:09.363Z</time></trkpt><trkpt lat="45.7083973" lon="12.0160487"><ele>56.5</ele><time>2026-04-25T09:02:11.362Z</time></trkpt><trkpt lat="45.7082837" lon="12.0160641"><ele>56.25</ele><time>2026-04-25T09:02:13.362Z</time></trkpt><trkpt lat="45.7081647" lon="12.0160806"><ele>56.0</ele><time>2026-04-25T09:02:15.362Z</time></trkpt><trkpt lat="45.7080511" lon="12.016091"><ele>56.0</ele><time>2026-04-25T09:02:17.362Z</time></trkpt><trkpt lat="45.7079428" lon="12.0161085"><ele>55.99999999999999</ele><time>2026-04-25T09:02:19.362Z</time></trkpt><trkpt lat="45.7078338" lon="12.0161269"><ele>55.99999999999999</ele><time>2026-04-25T09:02:21.362Z</time></trkpt><trkpt lat="45.7077234" lon="12.0161498"><ele>56.0</ele><time>2026-04-25T09:02:23.363Z</time></trkpt><trkpt lat="45.7076101" lon="12.0161738"><ele>56.0</ele><time>2026-04-25T09:02:25.362Z</time></trkpt><trkpt lat="45.707495" lon="12.0161951"><ele>55.8</ele><time>2026-04-25T09:02:27.363Z</time></trkpt><trkpt lat="45.7073783" lon="12.0162165"><ele>55.599999999999994</ele><time>2026-04-25T09:02:29.362Z</time></trkpt><trkpt lat="45.7072758" lon="12.0162348"><ele>55.4</ele><time>2026-04-25T09:02:31.362Z</time></trkpt><trkpt lat="45.707174" lon="12.0162509"><ele>55.2</ele><time>2026-04-25T09:02:33.362Z</time></trkpt><trkpt lat="45.70707" lon="12.0162719"><ele>55.0</ele><time>2026-04-25T09:02:35.363Z</time></trkpt><trkpt lat="45.7069619" lon="12.0162904"><ele>55.0</ele><time>2026-04-25T09:02:37.362Z</time></trkpt><trkpt lat="45.7068579" lon="12.0163044"><ele>55.0</ele><time>2026-04-25T09:02:39.362Z</time></trkpt><trkpt lat="45.7067567" lon="12.0163178"><ele>55.0</ele><time>2026-04-25T09:02:41.362Z</time></trkpt><trkpt lat="45.7066496" lon="12.0163282"><ele>55.0</ele><time>2026-04-25T09:02:43.363Z</time></trkpt><trkpt lat="45.7065466" lon="12.0163422"><ele>55.0</ele><time>2026-04-25T09:02:45.362Z</time></trkpt><trkpt lat="45.7064381" lon="12.0163593"><ele>55.0</ele><time>2026-04-25T09:02:47.362Z</time></trkpt><trkpt lat="45.706324" lon="12.0163775"><ele>55.0</ele><time>2026-04-25T09:02:49.362Z</time></trkpt><trkpt lat="45.7062136" lon="12.0164012"><ele>55.0</ele><time>2026-04-25T09:02:51.362Z</time></trkpt><trkpt lat="45.706103" lon="12.0164271"><ele>55.0</ele><time>2026-04-25T09:02:53.362Z</time></trkpt><trkpt lat="45.7059988" lon="12.0164612"><ele>55.0</ele><time>2026-04-25T09:02:55.362Z</time></trkpt><trkpt lat="45.7059025" lon="12.0164908"><ele>54.75</ele><time>2026-04-25T09:02:57.362Z</time></trkpt><trkpt lat="45.7057972" lon="12.0165014"><ele>54.5</ele><time>2026-04-25T09:02:59.362Z</time></trkpt><trkpt lat="45.7056849" lon="12.0165175"><ele>54.25</ele><time>2026-04-25T09:03:01.362Z</time></trkpt><trkpt lat="45.705576" lon="12.0165641"><ele>54.0</ele><time>2026-04-25T09:03:03.362Z</time></trkpt><trkpt lat="45.705477" lon="12.01666"><ele>54.0</ele><time>2026-04-25T09:03:05.362Z</time></trkpt><trkpt lat="45.705419" lon="12.0167939"><ele>54.00000000000001</ele><time>2026-04-25T09:03:07.362Z</time></trkpt><trkpt lat="45.7053954" lon="12.0169428"><ele>54.00000000000001</ele><time>2026-04-25T09:03:09.362Z</time></trkpt><trkpt lat="45.7054067" lon="12.0170982"><ele>54.0</ele><time>2026-04-25T09:03:11.362Z</time></trkpt><trkpt lat="45.7054307" lon="12.0172646"><ele>54.0</ele><time>2026-04-25T09:03:13.362Z</time></trkpt><trkpt lat="45.70543" lon="12.0174285"><ele>54.0</ele><time>2026-04-25T09:03:15.362Z</time></trkpt><trkpt lat="45.705391" lon="12.0176021"><ele>54.0</ele><time>2026-04-25T09:03:17.362Z</time></trkpt><trkpt lat="45.7053158" lon="12.0177409"><ele>54.0</ele><time>2026-04-25T09:03:19.362Z</time></trkpt><trkpt lat="45.7052159" lon="12.0178314"><ele>54.0</ele><time>2026-04-25T09:03:21.362Z</time></trkpt><trkpt lat="45.705108" lon="12.0178749"><ele>54.25</ele><time>2026-04-25T09:03:23.362Z</time></trkpt><trkpt lat="45.7049974" lon="12.0178998"><ele>54.5</ele><time>2026-04-25T09:03:25.362Z</time></trkpt><trkpt lat="45.7048798" lon="12.0179109"><ele>54.75</ele><time>2026-04-25T09:03:27.362Z</time></trkpt><trkpt lat="45.7047641" lon="12.017919"><ele>55.0</ele><time>2026-04-25T09:03:29.362Z</time></trkpt><trkpt lat="45.7046532" lon="12.0179312"><ele>55.0</ele><time>2026-04-25T09:03:31.362Z</time></trkpt><trkpt lat="45.7045412" lon="12.0179369"><ele>55.0</ele><time>2026-04-25T09:03:33.362Z</time></trkpt><trkpt lat="45.7044303" lon="12.0179464"><ele>55.0</ele><time>2026-04-25T09:03:35.362Z</time></trkpt><trkpt lat="45.7043196" lon="12.0179528"><ele>55.0</ele><time>2026-04-25T09:03:37.362Z</time></trkpt><trkpt lat="45.7042073" lon="12.0179693"><ele>55.0</ele><time>2026-04-25T09:03:39.362Z</time></trkpt><trkpt lat="45.7040919" lon="12.0179746"><ele>54.4</ele><time>2026-04-25T09:03:41.362Z</time></trkpt><trkpt lat="45.7039803" lon="12.0179826"><ele>53.8</ele><time>2026-04-25T09:03:43.362Z</time></trkpt><trkpt lat="45.7038658" lon="12.017993"><ele>53.2</ele><time>2026-04-25T09:03:45.363Z</time></trkpt><trkpt lat="45.7037552" lon="12.0180052"><ele>52.6</ele><time>2026-04-25T09:03:47.362Z</time></trkpt><trkpt lat="45.7036482" lon="12.0180179"><ele>52.0</ele><time>2026-04-25T09:03:49.362Z</time></trkpt><trkpt lat="45.703539" lon="12.018028"><ele>52.0</ele><time>2026-04-25T09:03:51.362Z</time></trkpt><trkpt lat="45.7034256" lon="12.0180525"><ele>52.0</ele><time>2026-04-25T09:03:53.362Z</time></trkpt><trkpt lat="45.70331" lon="12.0180665"><ele>52.0</ele><time>2026-04-25T09:03:55.362Z</time></trkpt><trkpt lat="45.7032009" lon="12.0180904"><ele>52.0</ele><time>2026-04-25T09:03:57.362Z</time></trkpt><trkpt lat="45.7030921" lon="12.0181029"><ele>52.0</ele><time>2026-04-25T09:03:59.362Z</time></trkpt><trkpt lat="45.7029818" lon="12.0181289"><ele>52.0</ele><time>2026-04-25T09:04:01.363Z</time></trkpt><trkpt lat="45.702865" lon="12.0181593"><ele>52.0</ele><time>2026-04-25T09:04:03.362Z</time></trkpt><trkpt lat="45.7027463" lon="12.0181908"><ele>52.0</ele><time>2026-04-25T09:04:05.362Z</time></trkpt><trkpt lat="45.702683" lon="12.0182079"><ele>52.0</ele><time>2026-04-25T09:04:06.362Z</time></trkpt><trkpt lat="45.702618" lon="12.0182262"><ele>52.0</ele><time>2026-04-25T09:04:07.362Z</time></trkpt><trkpt lat="45.7025495" lon="12.0182459"><ele>52.0</ele><time>2026-04-25T09:04:08.363Z</time></trkpt><trkpt lat="45.7024803" lon="12.0182645"><ele>52.0</ele><time>2026-04-25T09:04:09.362Z</time></trkpt><trkpt lat="45.7024128" lon="12.0182894"><ele>52.0</ele><time>2026-04-25T09:04:10.362Z</time></trkpt><trkpt lat="45.7023412" lon="12.0183113"><ele>52.0</ele><time>2026-04-25T09:04:11.362Z</time></trkpt><trkpt lat="45.7022671" lon="12.0183332"><ele>52.0</ele><time>2026-04-25T09:04:12.363Z</time></trkpt><trkpt lat="45.7021959" lon="12.018355"><ele>52.0</ele><time>2026-04-25T09:04:13.362Z</time></trkpt><trkpt lat="45.7021227" lon="12.0183779"><ele>51.99999999999999</ele><time>2026-04-25T09:04:14.362Z</time></trkpt><trkpt lat="45.7020494" lon="12.0184005"><ele>52.0</ele><time>2026-04-25T09:04:15.362Z</time></trkpt><trkpt lat="45.7019761" lon="12.0184207"><ele>52.0</ele><time>2026-04-25T09:04:16.362Z</time></trkpt><trkpt lat="45.701902" lon="12.0184398"><ele>52.0</ele><time>2026-04-25T09:04:17.363Z</time></trkpt><trkpt lat="45.7018288" lon="12.0184556"><ele>51.99999999999999</ele><time>2026-04-25T09:04:18.362Z</time></trkpt><trkpt lat="45.7017539" lon="12.0184783"><ele>52.0</ele><time>2026-04-25T09:04:19.362Z</time></trkpt><trkpt lat="45.7016721" lon="12.0185023"><ele>51.99999999999999</ele><time>2026-04-25T09:04:20.362Z</time></trkpt><trkpt lat="45.7015967" lon="12.0185298"><ele>52.0</ele><time>2026-04-25T09:04:21.362Z</time></trkpt><trkpt lat="45.7015244" lon="12.0185519"><ele>52.0</ele><time>2026-04-25T09:04:22.362Z</time></trkpt><trkpt lat="45.7014521" lon="12.0185737"><ele>52.0</ele><time>2026-04-25T09:04:23.362Z</time></trkpt><trkpt lat="45.7013761" lon="12.0185962"><ele>51.99999999999999</ele><time>2026-04-25T09:04:24.362Z</time></trkpt><trkpt lat="45.7012989" lon="12.0186161"><ele>52.0</ele><time>2026-04-25T09:04:25.362Z</time></trkpt><trkpt lat="45.7012275" lon="12.0186398"><ele>52.0</ele><time>2026-04-25T09:04:26.362Z</time></trkpt><trkpt lat="45.701157" lon="12.018663"><ele>52.0</ele><time>2026-04-25T09:04:27.362Z</time></trkpt><trkpt lat="45.7010852" lon="12.0186824"><ele>52.0</ele><time>2026-04-25T09:04:28.362Z</time></trkpt><trkpt lat="45.7010228" lon="12.0187044"><ele>52.0</ele><time>2026-04-25T09:04:29.362Z</time></trkpt><trkpt lat="45.7009563" lon="12.0187261"><ele>52.0</ele><time>2026-04-25T09:04:30.362Z</time></trkpt><trkpt lat="45.7008875" lon="12.0187529"><ele>52.0</ele><time>2026-04-25T09:04:31.362Z</time></trkpt><trkpt lat="45.7008245" lon="12.0187739"><ele>52.0</ele><time>2026-04-25T09:04:32.362Z</time></trkpt><trkpt lat="45.7007066" lon="12.0188054"><ele>52.0</ele><time>2026-04-25T09:04:34.363Z</time></trkpt><trkpt lat="45.7005834" lon="12.018839"><ele>52.0</ele><time>2026-04-25T09:04:36.363Z</time></trkpt><trkpt lat="45.700471" lon="12.0188801"><ele>52.0</ele><time>2026-04-25T09:04:38.362Z</time></trkpt><trkpt lat="45.7003606" lon="12.0189229"><ele>52.0</ele><time>2026-04-25T09:04:40.362Z</time></trkpt><trkpt lat="45.7002564" lon="12.018954"><ele>51.8</ele><time>2026-04-25T09:04:42.362Z</time></trkpt><trkpt lat="45.700164" lon="12.0189809"><ele>51.6</ele><time>2026-04-25T09:04:44.362Z</time></trkpt><trkpt lat="45.7000697" lon="12.019016"><ele>51.4</ele><time>2026-04-25T09:04:46.362Z</time></trkpt><trkpt lat="45.6999601" lon="12.0190575"><ele>51.199999999999996</ele><time>2026-04-25T09:04:48.362Z</time></trkpt><trkpt lat="45.6998502" lon="12.0190926"><ele>51.0</ele><time>2026-04-25T09:04:50.362Z</time></trkpt><trkpt lat="45.6997402" lon="12.0191151"><ele>51.0</ele><time>2026-04-25T09:04:52.362Z</time></trkpt><trkpt lat="45.6996311" lon="12.0191449"><ele>51.0</ele><time>2026-04-25T09:04:54.362Z</time></trkpt><trkpt lat="45.6995279" lon="12.0191609"><ele>51.0</ele><time>2026-04-25T09:04:56.363Z</time></trkpt><trkpt lat="45.699427" lon="12.0191711"><ele>51.0</ele><time>2026-04-25T09:04:58.362Z</time></trkpt><trkpt lat="45.6993249" lon="12.019164"><ele>51.0</ele><time>2026-04-25T09:05:00.362Z</time></trkpt><trkpt lat="45.6992253" lon="12.0191371"><ele>50.8</ele><time>2026-04-25T09:05:02.362Z</time></trkpt><trkpt lat="45.6991242" lon="12.019112"><ele>50.599999999999994</ele><time>2026-04-25T09:05:04.362Z</time></trkpt><trkpt lat="45.6990273" lon="12.0190717"><ele>50.4</ele><time>2026-04-25T09:05:06.362Z</time></trkpt><trkpt lat="45.6989313" lon="12.0190342"><ele>50.2</ele><time>2026-04-25T09:05:08.362Z</time></trkpt><trkpt lat="45.6988281" lon="12.0190017"><ele>50.0</ele><time>2026-04-25T09:05:10.362Z</time></trkpt><trkpt lat="45.6987309" lon="12.0189547"><ele>50.0</ele><time>2026-04-25T09:05:12.362Z</time></trkpt><trkpt lat="45.6986386" lon="12.0189125"><ele>50.0</ele><time>2026-04-25T09:05:14.362Z</time></trkpt><trkpt lat="45.6985519" lon="12.0188467"><ele>50.0</ele><time>2026-04-25T09:05:16.363Z</time></trkpt><trkpt lat="45.6984813" lon="12.0187602"><ele>50.0</ele><time>2026-04-25T09:05:18.363Z</time></trkpt><trkpt lat="45.6984361" lon="12.0186354"><ele>50.0</ele><time>2026-04-25T09:05:20.361Z</time></trkpt><trkpt lat="45.698431" lon="12.0185032"><ele>49.8</ele><time>2026-04-25T09:05:22.362Z</time></trkpt><trkpt lat="45.6984349" lon="12.0183842"><ele>49.6</ele><time>2026-04-25T09:05:24.361Z</time></trkpt><trkpt lat="45.6984676" lon="12.0182731"><ele>49.400000000000006</ele><time>2026-04-25T09:05:26.361Z</time></trkpt><trkpt lat="45.6985038" lon="12.0181324"><ele>49.2</ele><time>2026-04-25T09:05:28.361Z</time></trkpt><trkpt lat="45.6985511" lon="12.0180083"><ele>49.0</ele><time>2026-04-25T09:05:30.361Z</time></trkpt><trkpt lat="45.6985758" lon="12.0178672"><ele>49.2</ele><time>2026-04-25T09:05:32.361Z</time></trkpt><trkpt lat="45.6985654" lon="12.0177169"><ele>49.400000000000006</ele><time>2026-04-25T09:05:34.361Z</time></trkpt><trkpt lat="45.6985213" lon="12.0175794"><ele>49.6</ele><time>2026-04-25T09:05:36.361Z</time></trkpt><trkpt lat="45.6984511" lon="12.0174662"><ele>49.8</ele><time>2026-04-25T09:05:38.361Z</time></trkpt><trkpt lat="45.6983609" lon="12.0174095"><ele>50.0</ele><time>2026-04-25T09:05:40.361Z</time></trkpt><trkpt lat="45.6982534" lon="12.0173847"><ele>50.0</ele><time>2026-04-25T09:05:42.361Z</time></trkpt><trkpt lat="45.6981392" lon="12.0173748"><ele>50.0</ele><time>2026-04-25T09:05:44.361Z</time></trkpt><trkpt lat="45.6980209" lon="12.0173719"><ele>50.0</ele><time>2026-04-25T09:05:46.361Z</time></trkpt><trkpt lat="45.69791" lon="12.0173688"><ele>50.0</ele><time>2026-04-25T09:05:48.361Z</time></trkpt><trkpt lat="45.6977975" lon="12.0173704"><ele>50.25</ele><time>2026-04-25T09:05:50.361Z</time></trkpt><trkpt lat="45.6976744" lon="12.0173773"><ele>50.5</ele><time>2026-04-25T09:05:52.362Z</time></trkpt><trkpt lat="45.6975502" lon="12.0173816"><ele>50.75</ele><time>2026-04-25T09:05:54.361Z</time></trkpt><trkpt lat="45.6974243" lon="12.0173813"><ele>51.0</ele><time>2026-04-25T09:05:56.361Z</time></trkpt><trkpt lat="45.6973047" lon="12.0173811"><ele>51.0</ele><time>2026-04-25T09:05:58.361Z</time></trkpt><trkpt lat="45.6971874" lon="12.0173831"><ele>51.0</ele><time>2026-04-25T09:06:00.361Z</time></trkpt><trkpt lat="45.697064" lon="12.0173848"><ele>51.0</ele><time>2026-04-25T09:06:02.361Z</time></trkpt><trkpt lat="45.6969379" lon="12.0173853"><ele>51.0</ele><time>2026-04-25T09:06:04.361Z</time></trkpt><trkpt lat="45.6968155" lon="12.0173897"><ele>51.0</ele><time>2026-04-25T09:06:06.361Z</time></trkpt><trkpt lat="45.6966944" lon="12.0173887"><ele>51.0</ele><time>2026-04-25T09:06:08.361Z</time></trkpt><trkpt lat="45.6965742" lon="12.0173938"><ele>51.0</ele><time>2026-04-25T09:06:10.361Z</time></trkpt><trkpt lat="45.6964479" lon="12.0173987"><ele>51.0</ele><time>2026-04-25T09:06:12.362Z</time></trkpt><trkpt lat="45.6963365" lon="12.0174093"><ele>51.0</ele><time>2026-04-25T09:06:14.361Z</time></trkpt><trkpt lat="45.6962156" lon="12.0174123"><ele>51.0</ele><time>2026-04-25T09:06:16.361Z</time></trkpt><trkpt lat="45.696152" lon="12.0174194"><ele>51.0</ele><time>2026-04-25T09:06:17.362Z</time></trkpt><trkpt lat="45.696033" lon="12.017419"><ele>51.0</ele><time>2026-04-25T09:06:19.361Z</time></trkpt><trkpt lat="45.6959157" lon="12.0174181"><ele>51.0</ele><time>2026-04-25T09:06:21.361Z</time></trkpt><trkpt lat="45.6957963" lon="12.0174122"><ele>50.8</ele><time>2026-04-25T09:06:23.362Z</time></trkpt><trkpt lat="45.695681" lon="12.0174155"><ele>50.599999999999994</ele><time>2026-04-25T09:06:25.361Z</time></trkpt><trkpt lat="45.6956152" lon="12.017417"><ele>50.4</ele><time>2026-04-25T09:06:26.361Z</time></trkpt><trkpt lat="45.6954932" lon="12.0174217"><ele>50.2</ele><time>2026-04-25T09:06:28.361Z</time></trkpt><trkpt lat="45.6953738" lon="12.0174278"><ele>50.0</ele><time>2026-04-25T09:06:30.361Z</time></trkpt><trkpt lat="45.6952648" lon="12.0174388"><ele>49.6</ele><time>2026-04-25T09:06:32.362Z</time></trkpt><trkpt lat="45.6951564" lon="12.0174347"><ele>49.2</ele><time>2026-04-25T09:06:34.361Z</time></trkpt><trkpt lat="45.6950504" lon="12.0174308"><ele>48.8</ele><time>2026-04-25T09:06:36.361Z</time></trkpt><trkpt lat="45.6949312" lon="12.0174253"><ele>48.4</ele><time>2026-04-25T09:06:38.361Z</time></trkpt><trkpt lat="45.6948176" lon="12.0174273"><ele>48.0</ele><time>2026-04-25T09:06:40.361Z</time></trkpt><trkpt lat="45.6947509" lon="12.0174345"><ele>48.0</ele><time>2026-04-25T09:06:41.362Z</time></trkpt><trkpt lat="45.6946263" lon="12.0174308"><ele>48.0</ele><time>2026-04-25T09:06:43.361Z</time></trkpt><trkpt lat="45.6945075" lon="12.0174263"><ele>48.0</ele><time>2026-04-25T09:06:45.361Z</time></trkpt><trkpt lat="45.6943939" lon="12.0174259"><ele>48.0</ele><time>2026-04-25T09:06:47.361Z</time></trkpt><trkpt lat="45.6942751" lon="12.0174349"><ele>48.0</ele><time>2026-04-25T09:06:49.361Z</time></trkpt><trkpt lat="45.6941633" lon="12.0174466"><ele>48.0</ele><time>2026-04-25T09:06:51.361Z</time></trkpt><trkpt lat="45.6940458" lon="12.0174462"><ele>48.0</ele><time>2026-04-25T09:06:53.361Z</time></trkpt><trkpt lat="45.6939347" lon="12.0174557"><ele>48.0</ele><time>2026-04-25T09:06:55.361Z</time></trkpt><trkpt lat="45.69383" lon="12.0174642"><ele>48.0</ele><time>2026-04-25T09:06:57.361Z</time></trkpt><trkpt lat="45.6937249" lon="12.017466"><ele>48.0</ele><time>2026-04-25T09:06:59.362Z</time></trkpt><trkpt lat="45.6936231" lon="12.0174573"><ele>48.0</ele><time>2026-04-25T09:07:01.362Z</time></trkpt><trkpt lat="45.6935279" lon="12.0174585"><ele>48.0</ele><time>2026-04-25T09:07:03.361Z</time></trkpt><trkpt lat="45.6934253" lon="12.0174512"><ele>48.0</ele><time>2026-04-25T09:07:05.362Z</time></trkpt><trkpt lat="45.6933163" lon="12.0174253"><ele>48.0</ele><time>2026-04-25T09:07:07.361Z</time></trkpt><trkpt lat="45.6932117" lon="12.0173713"><ele>48.0</ele><time>2026-04-25T09:07:09.362Z</time></trkpt><trkpt lat="45.6931181" lon="12.0173141"><ele>48.0</ele><time>2026-04-25T09:07:11.361Z</time></trkpt><trkpt lat="45.6930478" lon="12.0172245"><ele>48.0</ele><time>2026-04-25T09:07:13.362Z</time></trkpt><trkpt lat="45.692983" lon="12.0171355"><ele>48.0</ele><time>2026-04-25T09:07:15.361Z</time></trkpt><trkpt lat="45.6928984" lon="12.017068"><ele>48.0</ele><time>2026-04-25T09:07:17.361Z</time></trkpt><trkpt lat="45.6927899" lon="12.0170596"><ele>47.599999999999994</ele><time>2026-04-25T09:07:19.361Z</time></trkpt><trkpt lat="45.6926931" lon="12.0171173"><ele>47.199999999999996</ele><time>2026-04-25T09:07:21.361Z</time></trkpt><trkpt lat="45.6925896" lon="12.0171812"><ele>46.8</ele><time>2026-04-25T09:07:23.361Z</time></trkpt><trkpt lat="45.6924767" lon="12.0172003"><ele>46.4</ele><time>2026-04-25T09:07:25.361Z</time></trkpt><trkpt lat="45.6923691" lon="12.0172307"><ele>46.0</ele><time>2026-04-25T09:07:27.361Z</time></trkpt><trkpt lat="45.6922536" lon="12.0172461"><ele>46.0</ele><time>2026-04-25T09:07:29.361Z</time></trkpt><trkpt lat="45.6921359" lon="12.0172703"><ele>46.0</ele><time>2026-04-25T09:07:31.361Z</time></trkpt><trkpt lat="45.6920167" lon="12.0172751"><ele>46.0</ele><time>2026-04-25T09:07:33.362Z</time></trkpt><trkpt lat="45.691893" lon="12.0172585"><ele>46.0</ele><time>2026-04-25T09:07:35.361Z</time></trkpt><trkpt lat="45.6917803" lon="12.0172223"><ele>45.599999999999994</ele><time>2026-04-25T09:07:37.361Z</time></trkpt><trkpt lat="45.6916732" lon="12.0171943"><ele>45.2</ele><time>2026-04-25T09:07:39.361Z</time></trkpt><trkpt lat="45.6915677" lon="12.0171642"><ele>44.8</ele><time>2026-04-25T09:07:41.361Z</time></trkpt><trkpt lat="45.6914647" lon="12.0171303"><ele>44.400000000000006</ele><time>2026-04-25T09:07:43.361Z</time></trkpt><trkpt lat="45.6913568" lon="12.0170959"><ele>44.0</ele><time>2026-04-25T09:07:45.361Z</time></trkpt><trkpt lat="45.6912441" lon="12.0170656"><ele>44.0</ele><time>2026-04-25T09:07:47.361Z</time></trkpt><trkpt lat="45.6911273" lon="12.0170359"><ele>44.0</ele><time>2026-04-25T09:07:49.361Z</time></trkpt><trkpt lat="45.6910174" lon="12.0170203"><ele>44.0</ele><time>2026-04-25T09:07:51.361Z</time></trkpt><trkpt lat="45.6909089" lon="12.017016"><ele>44.0</ele><time>2026-04-25T09:07:53.361Z</time></trkpt><trkpt lat="45.6907892" lon="12.0170196"><ele>44.25</ele><time>2026-04-25T09:07:55.361Z</time></trkpt><trkpt lat="45.6906715" lon="12.0170358"><ele>44.5</ele><time>2026-04-25T09:07:57.361Z</time></trkpt><trkpt lat="45.690557" lon="12.017048"><ele>44.75</ele><time>2026-04-25T09:07:59.361Z</time></trkpt><trkpt lat="45.6904404" lon="12.0170589"><ele>45.0</ele><time>2026-04-25T09:08:01.361Z</time></trkpt><trkpt lat="45.690329" lon="12.0170785"><ele>45.0</ele><time>2026-04-25T09:08:03.361Z</time></trkpt><trkpt lat="45.6902223" lon="12.0171047"><ele>45.0</ele><time>2026-04-25T09:08:05.361Z</time></trkpt><trkpt lat="45.6901154" lon="12.0171297"><ele>45.0</ele><time>2026-04-25T09:08:07.361Z</time></trkpt><trkpt lat="45.6900048" lon="12.0171526"><ele>45.0</ele><time>2026-04-25T09:08:09.361Z</time></trkpt><trkpt lat="45.6898971" lon="12.0171787"><ele>45.0</ele><time>2026-04-25T09:08:11.361Z</time></trkpt><trkpt lat="45.6897909" lon="12.0172062"><ele>45.0</ele><time>2026-04-25T09:08:13.361Z</time></trkpt><trkpt lat="45.6896817" lon="12.0172266"><ele>45.0</ele><time>2026-04-25T09:08:15.361Z</time></trkpt><trkpt lat="45.6895774" lon="12.0172652"><ele>45.0</ele><time>2026-04-25T09:08:17.361Z</time></trkpt><trkpt lat="45.689468" lon="12.0172881"><ele>45.0</ele><time>2026-04-25T09:08:19.361Z</time></trkpt><trkpt lat="45.6893641" lon="12.0173144"><ele>45.0</ele><time>2026-04-25T09:08:21.361Z</time></trkpt><trkpt lat="45.6892548" lon="12.0173295"><ele>44.6</ele><time>2026-04-25T09:08:23.361Z</time></trkpt><trkpt lat="45.6891505" lon="12.0173528"><ele>44.2</ele><time>2026-04-25T09:08:25.361Z</time></trkpt><trkpt lat="45.6890498" lon="12.0173743"><ele>43.8</ele><time>2026-04-25T09:08:27.362Z</time></trkpt><trkpt lat="45.6889491" lon="12.0174061"><ele>43.4</ele><time>2026-04-25T09:08:29.361Z</time></trkpt><trkpt lat="45.6888479" lon="12.0174339"><ele>43.0</ele><time>2026-04-25T09:08:31.362Z</time></trkpt><trkpt lat="45.6887473" lon="12.0174598"><ele>43.0</ele><time>2026-04-25T09:08:33.362Z</time></trkpt><trkpt lat="45.688651" lon="12.0174806"><ele>43.0</ele><time>2026-04-25T09:08:35.361Z</time></trkpt><trkpt lat="45.6885476" lon="12.0175036"><ele>43.0</ele><time>2026-04-25T09:08:37.361Z</time></trkpt><trkpt lat="45.6884585" lon="12.0175283"><ele>43.0</ele><time>2026-04-25T09:08:39.361Z</time></trkpt><trkpt lat="45.6883617" lon="12.0175434"><ele>43.0</ele><time>2026-04-25T09:08:41.362Z</time></trkpt><trkpt lat="45.6882678" lon="12.0175585"><ele>43.16666666666667</ele><time>2026-04-25T09:08:43.361Z</time></trkpt><trkpt lat="45.6881833" lon="12.0175903"><ele>43.333333333333336</ele><time>2026-04-25T09:08:45.361Z</time></trkpt><trkpt lat="45.6881004" lon="12.0176202"><ele>43.5</ele><time>2026-04-25T09:08:47.361Z</time></trkpt><trkpt lat="45.6880154" lon="12.0176428"><ele>43.666666666666664</ele><time>2026-04-25T09:08:49.361Z</time></trkpt><trkpt lat="45.6879307" lon="12.0176618"><ele>43.83333333333333</ele><time>2026-04-25T09:08:51.361Z</time></trkpt><trkpt lat="45.6878409" lon="12.0176827"><ele>44.0</ele><time>2026-04-25T09:08:53.361Z</time></trkpt><trkpt lat="45.6877621" lon="12.0177204"><ele>44.0</ele><time>2026-04-25T09:08:55.36Z</time></trkpt><trkpt lat="45.6876889" lon="12.0177444"><ele>44.0</ele><time>2026-04-25T09:08:57.36Z</time></trkpt><trkpt lat="45.687624" lon="12.0177537"><ele>44.0</ele><time>2026-04-25T09:09:00.361Z</time></trkpt><trkpt lat="45.6875606" lon="12.0177524"><ele>44.0</ele><time>2026-04-25T09:09:03.36Z</time></trkpt><trkpt lat="45.6874886" lon="12.0177815"><ele>44.0</ele><time>2026-04-25T09:09:07.36Z</time></trkpt><trkpt lat="45.6874079" lon="12.0177871"><ele>44.0</ele><time>2026-04-25T09:09:11.361Z</time></trkpt><trkpt lat="45.6873335" lon="12.0178008"><ele>44.0</ele><time>2026-04-25T09:09:13.36Z</time></trkpt><trkpt lat="45.6872448" lon="12.0178215"><ele>44.0</ele><time>2026-04-25T09:09:15.36Z</time></trkpt><trkpt lat="45.6871495" lon="12.01785"><ele>44.0</ele><time>2026-04-25T09:09:17.361Z</time></trkpt><trkpt lat="45.6870476" lon="12.017862"><ele>44.0</ele><time>2026-04-25T09:09:19.36Z</time></trkpt><trkpt lat="45.6869384" lon="12.017866"><ele>44.0</ele><time>2026-04-25T09:09:21.36Z</time></trkpt><trkpt lat="45.6868333" lon="12.0178859"><ele>44.0</ele><time>2026-04-25T09:09:23.36Z</time></trkpt><trkpt lat="45.686733" lon="12.0178796"><ele>43.6</ele><time>2026-04-25T09:09:25.36Z</time></trkpt><trkpt lat="45.6866302" lon="12.0178564"><ele>43.2</ele><time>2026-04-25T09:09:27.361Z</time></trkpt><trkpt lat="45.6865241" lon="12.0178422"><ele>42.800000000000004</ele><time>2026-04-25T09:09:29.36Z</time></trkpt><trkpt lat="45.6864166" lon="12.0178315"><ele>42.400000000000006</ele><time>2026-04-25T09:09:31.36Z</time></trkpt><trkpt lat="45.6863043" lon="12.0178237"><ele>42.0</ele><time>2026-04-25T09:09:33.36Z</time></trkpt><trkpt lat="45.6862054" lon="12.0178223"><ele>42.0</ele><time>2026-04-25T09:09:35.36Z</time></trkpt><trkpt lat="45.6861042" lon="12.01783"><ele>42.0</ele><time>2026-04-25T09:09:37.36Z</time></trkpt><trkpt lat="45.6860019" lon="12.0178497"><ele>42.0</ele><time>2026-04-25T09:09:39.36Z</time></trkpt><trkpt lat="45.6859048" lon="12.0178844"><ele>42.0</ele><time>2026-04-25T09:09:41.361Z</time></trkpt><trkpt lat="45.6858004" lon="12.0179231"><ele>42.0</ele><time>2026-04-25T09:09:43.36Z</time></trkpt><trkpt lat="45.6856856" lon="12.0179582"><ele>42.0</ele><time>2026-04-25T09:09:45.36Z</time></trkpt><trkpt lat="45.6855771" lon="12.0179992"><ele>42.0</ele><time>2026-04-25T09:09:47.36Z</time></trkpt><trkpt lat="45.6854694" lon="12.0180378"><ele>42.0</ele><time>2026-04-25T09:09:49.36Z</time></trkpt><trkpt lat="45.6853557" lon="12.018078"><ele>42.0</ele><time>2026-04-25T09:09:51.36Z</time></trkpt><trkpt lat="45.6852358" lon="12.0180946"><ele>41.833333333333336</ele><time>2026-04-25T09:09:53.36Z</time></trkpt><trkpt lat="45.6851666" lon="12.0181015"><ele>41.666666666666664</ele><time>2026-04-25T09:09:54.36Z</time></trkpt><trkpt lat="45.6851007" lon="12.0181061"><ele>41.5</ele><time>2026-04-25T09:09:55.361Z</time></trkpt><trkpt lat="45.6849902" lon="12.0181192"><ele>41.33333333333333</ele><time>2026-04-25T09:09:57.36Z</time></trkpt><trkpt lat="45.6848806" lon="12.0181314"><ele>41.166666666666664</ele><time>2026-04-25T09:09:59.361Z</time></trkpt><trkpt lat="45.6847882" lon="12.0181479"><ele>41.0</ele><time>2026-04-25T09:10:01.36Z</time></trkpt><trkpt lat="45.6846968" lon="12.01817"><ele>41.0</ele><time>2026-04-25T09:10:03.36Z</time></trkpt><trkpt lat="45.6845979" lon="12.0181848"><ele>41.0</ele><time>2026-04-25T09:10:05.36Z</time></trkpt><trkpt lat="45.6845002" lon="12.01821"><ele>41.0</ele><time>2026-04-25T09:10:07.36Z</time></trkpt><trkpt lat="45.6844143" lon="12.0182272"><ele>41.0</ele><time>2026-04-25T09:10:09.36Z</time></trkpt><trkpt lat="45.6843218" lon="12.0182355"><ele>41.0</ele><time>2026-04-25T09:10:11.361Z</time></trkpt><trkpt lat="45.6842318" lon="12.018257"><ele>41.0</ele><time>2026-04-25T09:10:13.36Z</time></trkpt><trkpt lat="45.6841278" lon="12.0182728"><ele>41.0</ele><time>2026-04-25T09:10:15.361Z</time></trkpt><trkpt lat="45.684018" lon="12.0183011"><ele>41.0</ele><time>2026-04-25T09:10:17.361Z</time></trkpt><trkpt lat="45.6838974" lon="12.0183245"><ele>41.0</ele><time>2026-04-25T09:10:19.361Z</time></trkpt><trkpt lat="45.6837896" lon="12.01834"><ele>41.0</ele><time>2026-04-25T09:10:21.361Z</time></trkpt><trkpt lat="45.683687" lon="12.0183572"><ele>40.8</ele><time>2026-04-25T09:10:23.36Z</time></trkpt><trkpt lat="45.6835865" lon="12.0183681"><ele>40.599999999999994</ele><time>2026-04-25T09:10:25.36Z</time></trkpt><trkpt lat="45.6834758" lon="12.0183633"><ele>40.4</ele><time>2026-04-25T09:10:27.36Z</time></trkpt><trkpt lat="45.6833609" lon="12.0183578"><ele>40.2</ele><time>2026-04-25T09:10:29.36Z</time></trkpt><trkpt lat="45.6832512" lon="12.0183527"><ele>40.0</ele><time>2026-04-25T09:10:31.36Z</time></trkpt><trkpt lat="45.6831468" lon="12.018335"><ele>40.0</ele><time>2026-04-25T09:10:33.36Z</time></trkpt><trkpt lat="45.6830394" lon="12.0183227"><ele>40.0</ele><time>2026-04-25T09:10:35.36Z</time></trkpt><trkpt lat="45.6829274" lon="12.0182925"><ele>40.0</ele><time>2026-04-25T09:10:37.361Z</time></trkpt><trkpt lat="45.6828147" lon="12.0182616"><ele>40.0</ele><time>2026-04-25T09:10:39.36Z</time></trkpt><trkpt lat="45.6827084" lon="12.018216"><ele>40.0</ele><time>2026-04-25T09:10:41.36Z</time></trkpt><trkpt lat="45.682609" lon="12.018164"><ele>40.0</ele><time>2026-04-25T09:10:43.36Z</time></trkpt><trkpt lat="45.6825102" lon="12.0181125"><ele>40.0</ele><time>2026-04-25T09:10:45.36Z</time></trkpt><trkpt lat="45.6824165" lon="12.018034"><ele>40.0</ele><time>2026-04-25T09:10:47.36Z</time></trkpt><trkpt lat="45.6822997" lon="12.0179658"><ele>40.0</ele><time>2026-04-25T09:10:49.36Z</time></trkpt><trkpt lat="45.6822415" lon="12.0179313"><ele>40.0</ele><time>2026-04-25T09:10:50.361Z</time></trkpt><trkpt lat="45.6821284" lon="12.0178667"><ele>40.0</ele><time>2026-04-25T09:10:52.36Z</time></trkpt><trkpt lat="45.6820181" lon="12.0178071"><ele>40.0</ele><time>2026-04-25T09:10:54.361Z</time></trkpt><trkpt lat="45.6819164" lon="12.0177538"><ele>40.0</ele><time>2026-04-25T09:10:56.36Z</time></trkpt><trkpt lat="45.6818208" lon="12.0176978"><ele>40.0</ele><time>2026-04-25T09:10:58.36Z</time></trkpt><trkpt lat="45.6817295" lon="12.0176389"><ele>40.0</ele><time>2026-04-25T09:11:00.36Z</time></trkpt><trkpt lat="45.6816404" lon="12.0175856"><ele>39.8</ele><time>2026-04-25T09:11:02.36Z</time></trkpt><trkpt lat="45.6815491" lon="12.0175327"><ele>39.6</ele><time>2026-04-25T09:11:04.361Z</time></trkpt><trkpt lat="45.6814537" lon="12.0174766"><ele>39.4</ele><time>2026-04-25T09:11:06.36Z</time></trkpt><trkpt lat="45.6813538" lon="12.0174251"><ele>39.2</ele><time>2026-04-25T09:11:08.361Z</time></trkpt><trkpt lat="45.6812606" lon="12.0173731"><ele>39.0</ele><time>2026-04-25T09:11:10.36Z</time></trkpt><trkpt lat="45.6811679" lon="12.0173306"><ele>39.2</ele><time>2026-04-25T09:11:12.36Z</time></trkpt><trkpt lat="45.6810701" lon="12.0172779"><ele>39.4</ele><time>2026-04-25T09:11:14.36Z</time></trkpt><trkpt lat="45.680974" lon="12.0172152"><ele>39.6</ele><time>2026-04-25T09:11:16.361Z</time></trkpt><trkpt lat="45.6808758" lon="12.017157"><ele>39.8</ele><time>2026-04-25T09:11:18.361Z</time></trkpt><trkpt lat="45.6807817" lon="12.0171033"><ele>40.0</ele><time>2026-04-25T09:11:20.36Z</time></trkpt><trkpt lat="45.6806883" lon="12.0170436"><ele>40.0</ele><time>2026-04-25T09:11:22.36Z</time></trkpt><trkpt lat="45.6805932" lon="12.0169937"><ele>40.0</ele><time>2026-04-25T09:11:24.361Z</time></trkpt><trkpt lat="45.680488" lon="12.0169409"><ele>40.0</ele><time>2026-04-25T09:11:26.36Z</time></trkpt><trkpt lat="45.6803894" lon="12.0168824"><ele>40.0</ele><time>2026-04-25T09:11:28.36Z</time></trkpt><trkpt lat="45.6803041" lon="12.0168208"><ele>40.0</ele><time>2026-04-25T09:11:30.36Z</time></trkpt><trkpt lat="45.6802139" lon="12.016759"><ele>40.0</ele><time>2026-04-25T09:11:32.36Z</time></trkpt><trkpt lat="45.6801204" lon="12.0166978"><ele>40.0</ele><time>2026-04-25T09:11:34.36Z</time></trkpt><trkpt lat="45.6800249" lon="12.0166362"><ele>40.0</ele><time>2026-04-25T09:11:36.36Z</time></trkpt><trkpt lat="45.6799342" lon="12.0165877"><ele>40.0</ele><time>2026-04-25T09:11:38.36Z</time></trkpt><trkpt lat="45.6798427" lon="12.0165341"><ele>40.0</ele><time>2026-04-25T09:11:40.36Z</time></trkpt><trkpt lat="45.6797501" lon="12.0164849"><ele>39.6</ele><time>2026-04-25T09:11:42.36Z</time></trkpt><trkpt lat="45.6796536" lon="12.0164358"><ele>39.2</ele><time>2026-04-25T09:11:44.36Z</time></trkpt><trkpt lat="45.6795485" lon="12.0163788"><ele>38.8</ele><time>2026-04-25T09:11:46.36Z</time></trkpt><trkpt lat="45.6794474" lon="12.0163299"><ele>38.4</ele><time>2026-04-25T09:11:48.36Z</time></trkpt><trkpt lat="45.6793452" lon="12.0162788"><ele>38.0</ele><time>2026-04-25T09:11:50.36Z</time></trkpt><trkpt lat="45.6792539" lon="12.0162296"><ele>37.8</ele><time>2026-04-25T09:11:52.36Z</time></trkpt><trkpt lat="45.6791575" lon="12.016177"><ele>37.599999999999994</ele><time>2026-04-25T09:11:54.361Z</time></trkpt><trkpt lat="45.6790575" lon="12.0161207"><ele>37.400000000000006</ele><time>2026-04-25T09:11:56.36Z</time></trkpt><trkpt lat="45.6789601" lon="12.0160696"><ele>37.2</ele><time>2026-04-25T09:11:58.36Z</time></trkpt><trkpt lat="45.6788637" lon="12.0160106"><ele>37.0</ele><time>2026-04-25T09:12:00.36Z</time></trkpt><trkpt lat="45.6787629" lon="12.0159525"><ele>37.0</ele><time>2026-04-25T09:12:02.36Z</time></trkpt><trkpt lat="45.6786596" lon="12.0158881"><ele>37.0</ele><time>2026-04-25T09:12:04.36Z</time></trkpt><trkpt lat="45.6785612" lon="12.0158311"><ele>37.0</ele><time>2026-04-25T09:12:06.36Z</time></trkpt><trkpt lat="45.6784619" lon="12.0157752"><ele>37.0</ele><time>2026-04-25T09:12:08.36Z</time></trkpt><trkpt lat="45.678368" lon="12.0157149"><ele>37.0</ele><time>2026-04-25T09:12:10.361Z</time></trkpt><trkpt lat="45.6782654" lon="12.0156604"><ele>37.2</ele><time>2026-04-25T09:12:12.36Z</time></trkpt><trkpt lat="45.6781646" lon="12.0155978"><ele>37.400000000000006</ele><time>2026-04-25T09:12:14.361Z</time></trkpt><trkpt lat="45.6780651" lon="12.0155432"><ele>37.599999999999994</ele><time>2026-04-25T09:12:16.36Z</time></trkpt><trkpt lat="45.6779652" lon="12.0154931"><ele>37.8</ele><time>2026-04-25T09:12:18.36Z</time></trkpt><trkpt lat="45.6778694" lon="12.0154373"><ele>38.0</ele><time>2026-04-25T09:12:20.36Z</time></trkpt><trkpt lat="45.6777709" lon="12.0153885"><ele>38.0</ele><time>2026-04-25T09:12:22.36Z</time></trkpt><trkpt lat="45.6776737" lon="12.0153349"><ele>38.0</ele><time>2026-04-25T09:12:24.36Z</time></trkpt><trkpt lat="45.6775735" lon="12.0152755"><ele>38.0</ele><time>2026-04-25T09:12:26.359Z</time></trkpt><trkpt lat="45.6774649" lon="12.0152145"><ele>38.0</ele><time>2026-04-25T09:12:28.359Z</time></trkpt><trkpt lat="45.6773574" lon="12.0151521"><ele>38.0</ele><time>2026-04-25T09:12:30.359Z</time></trkpt><trkpt lat="45.6772429" lon="12.0150821"><ele>38.0</ele><time>2026-04-25T09:12:32.359Z</time></trkpt><trkpt lat="45.677133" lon="12.0150223"><ele>38.0</ele><time>2026-04-25T09:12:34.359Z</time></trkpt><trkpt lat="45.6770256" lon="12.0149624"><ele>38.0</ele><time>2026-04-25T09:12:36.359Z</time></trkpt><trkpt lat="45.6769155" lon="12.0149046"><ele>38.0</ele><time>2026-04-25T09:12:38.359Z</time></trkpt><trkpt lat="45.6768098" lon="12.0148473"><ele>37.6</ele><time>2026-04-25T09:12:40.359Z</time></trkpt><trkpt lat="45.6767077" lon="12.014787"><ele>37.199999999999996</ele><time>2026-04-25T09:12:42.359Z</time></trkpt><trkpt lat="45.676613" lon="12.0147462"><ele>36.8</ele><time>2026-04-25T09:12:44.36Z</time></trkpt><trkpt lat="45.6765168" lon="12.0147084"><ele>36.4</ele><time>2026-04-25T09:12:46.359Z</time></trkpt><trkpt lat="45.6764145" lon="12.0146512"><ele>36.0</ele><time>2026-04-25T09:12:48.36Z</time></trkpt><trkpt lat="45.676303" lon="12.0146078"><ele>36.0</ele><time>2026-04-25T09:12:50.36Z</time></trkpt><trkpt lat="45.6761929" lon="12.0145696"><ele>36.0</ele><time>2026-04-25T09:12:52.359Z</time></trkpt><trkpt lat="45.6760821" lon="12.014523"><ele>36.0</ele><time>2026-04-25T09:12:54.359Z</time></trkpt><trkpt lat="45.6759727" lon="12.0144877"><ele>36.0</ele><time>2026-04-25T09:12:56.359Z</time></trkpt><trkpt lat="45.6759117" lon="12.0144596"><ele>36.0</ele><time>2026-04-25T09:12:57.359Z</time></trkpt><trkpt lat="45.6757971" lon="12.0144173"><ele>36.5</ele><time>2026-04-25T09:12:59.359Z</time></trkpt><trkpt lat="45.675689" lon="12.0143711"><ele>37.0</ele><time>2026-04-25T09:13:01.359Z</time></trkpt><trkpt lat="45.6755784" lon="12.0143316"><ele>37.5</ele><time>2026-04-25T09:13:03.359Z</time></trkpt><trkpt lat="45.6754705" lon="12.0142783"><ele>38.0</ele><time>2026-04-25T09:13:05.359Z</time></trkpt><trkpt lat="45.6753571" lon="12.0142381"><ele>37.25</ele><time>2026-04-25T09:13:07.359Z</time></trkpt><trkpt lat="45.6752414" lon="12.0141853"><ele>36.5</ele><time>2026-04-25T09:13:09.36Z</time></trkpt><trkpt lat="45.6751287" lon="12.0141444"><ele>35.75</ele><time>2026-04-25T09:13:11.359Z</time></trkpt><trkpt lat="45.6750109" lon="12.0140991"><ele>35.0</ele><time>2026-04-25T09:13:13.359Z</time></trkpt><trkpt lat="45.6748937" lon="12.0140519"><ele>35.0</ele><time>2026-04-25T09:13:15.359Z</time></trkpt><trkpt lat="45.6747748" lon="12.0140081"><ele>35.0</ele><time>2026-04-25T09:13:17.359Z</time></trkpt><trkpt lat="45.6746544" lon="12.0139682"><ele>35.0</ele><time>2026-04-25T09:13:19.36Z</time></trkpt><trkpt lat="45.6745415" lon="12.0139365"><ele>35.0</ele><time>2026-04-25T09:13:21.359Z</time></trkpt><trkpt lat="45.6744383" lon="12.0138951"><ele>35.0</ele><time>2026-04-25T09:13:23.359Z</time></trkpt><trkpt lat="45.6743253" lon="12.013849"><ele>35.0</ele><time>2026-04-25T09:13:25.359Z</time></trkpt><trkpt lat="45.6742178" lon="12.0138038"><ele>35.0</ele><time>2026-04-25T09:13:27.359Z</time></trkpt><trkpt lat="45.6741084" lon="12.0137554"><ele>35.0</ele><time>2026-04-25T09:13:29.359Z</time></trkpt><trkpt lat="45.6739915" lon="12.0137157"><ele>35.0</ele><time>2026-04-25T09:13:31.359Z</time></trkpt><trkpt lat="45.673873" lon="12.0136834"><ele>35.0</ele><time>2026-04-25T09:13:33.359Z</time></trkpt><trkpt lat="45.6737529" lon="12.0136407"><ele>35.0</ele><time>2026-04-25T09:13:35.359Z</time></trkpt><trkpt lat="45.673636" lon="12.013593"><ele>35.0</ele><time>2026-04-25T09:13:37.359Z</time></trkpt><trkpt lat="45.6735243" lon="12.0135492"><ele>34.75</ele><time>2026-04-25T09:13:39.359Z</time></trkpt><trkpt lat="45.6734091" lon="12.0135107"><ele>34.5</ele><time>2026-04-25T09:13:41.359Z</time></trkpt><trkpt lat="45.6732917" lon="12.0134763"><ele>34.25</ele><time>2026-04-25T09:13:43.359Z</time></trkpt><trkpt lat="45.6731817" lon="12.0134501"><ele>34.0</ele><time>2026-04-25T09:13:45.359Z</time></trkpt><trkpt lat="45.6730728" lon="12.0134238"><ele>34.0</ele><time>2026-04-25T09:13:47.359Z</time></trkpt><trkpt lat="45.6729688" lon="12.0133942"><ele>34.0</ele><time>2026-04-25T09:13:49.359Z</time></trkpt><trkpt lat="45.6728701" lon="12.0133668"><ele>34.0</ele><time>2026-04-25T09:13:51.359Z</time></trkpt><trkpt lat="45.6727662" lon="12.0133413"><ele>34.0</ele><time>2026-04-25T09:13:53.359Z</time></trkpt><trkpt lat="45.6726715" lon="12.013331"><ele>34.0</ele><time>2026-04-25T09:13:55.359Z</time></trkpt><trkpt lat="45.6725554" lon="12.0133064"><ele>34.0</ele><time>2026-04-25T09:13:57.359Z</time></trkpt><trkpt lat="45.6724396" lon="12.0132727"><ele>34.0</ele><time>2026-04-25T09:13:59.359Z</time></trkpt><trkpt lat="45.6723288" lon="12.0132502"><ele>34.0</ele><time>2026-04-25T09:14:01.359Z</time></trkpt><trkpt lat="45.6722078" lon="12.0132214"><ele>34.0</ele><time>2026-04-25T09:14:03.36Z</time></trkpt><trkpt lat="45.6721444" lon="12.0132075"><ele>34.0</ele><time>2026-04-25T09:14:04.36Z</time></trkpt><trkpt lat="45.6720801" lon="12.0131909"><ele>34.0</ele><time>2026-04-25T09:14:05.359Z</time></trkpt><trkpt lat="45.6719626" lon="12.013163"><ele>34.0</ele><time>2026-04-25T09:14:07.359Z</time></trkpt><trkpt lat="45.6718472" lon="12.0131305"><ele>34.0</ele><time>2026-04-25T09:14:09.36Z</time></trkpt><trkpt lat="45.6717408" lon="12.0130942"><ele>34.0</ele><time>2026-04-25T09:14:11.359Z</time></trkpt><trkpt lat="45.6716299" lon="12.0130406"><ele>34.2</ele><time>2026-04-25T09:14:13.36Z</time></trkpt><trkpt lat="45.6715238" lon="12.0129744"><ele>34.4</ele><time>2026-04-25T09:14:15.359Z</time></trkpt><trkpt lat="45.671411" lon="12.0129093"><ele>34.6</ele><time>2026-04-25T09:14:17.359Z</time></trkpt><trkpt lat="45.6713062" lon="12.0128312"><ele>34.8</ele><time>2026-04-25T09:14:19.36Z</time></trkpt><trkpt lat="45.671248" lon="12.0127891"><ele>35.0</ele><time>2026-04-25T09:14:20.359Z</time></trkpt><trkpt lat="45.6711433" lon="12.0126997"><ele>34.5</ele><time>2026-04-25T09:14:22.359Z</time></trkpt><trkpt lat="45.6710377" lon="12.0126075"><ele>34.0</ele><time>2026-04-25T09:14:24.36Z</time></trkpt><trkpt lat="45.6709405" lon="12.0125171"><ele>33.5</ele><time>2026-04-25T09:14:26.359Z</time></trkpt><trkpt lat="45.6708497" lon="12.0124249"><ele>33.0</ele><time>2026-04-25T09:14:28.359Z</time></trkpt><trkpt lat="45.6707533" lon="12.0123416"><ele>33.0</ele><time>2026-04-25T09:14:30.36Z</time></trkpt><trkpt lat="45.6706503" lon="12.0122447"><ele>33.0</ele><time>2026-04-25T09:14:32.359Z</time></trkpt><trkpt lat="45.6705425" lon="12.0121502"><ele>33.0</ele><time>2026-04-25T09:14:34.359Z</time></trkpt><trkpt lat="45.6704402" lon="12.012067"><ele>33.0</ele><time>2026-04-25T09:14:36.359Z</time></trkpt><trkpt lat="45.6703472" lon="12.011967"><ele>33.0</ele><time>2026-04-25T09:14:38.359Z</time></trkpt><trkpt lat="45.670258" lon="12.011874"><ele>33.0</ele><time>2026-04-25T09:14:40.359Z</time></trkpt><trkpt lat="45.6701714" lon="12.0117923"><ele>33.0</ele><time>2026-04-25T09:14:42.359Z</time></trkpt><trkpt lat="45.670087" lon="12.01172"><ele>33.0</ele><time>2026-04-25T09:14:44.359Z</time></trkpt><trkpt lat="45.6700033" lon="12.0116381"><ele>33.0</ele><time>2026-04-25T09:14:46.359Z</time></trkpt><trkpt lat="45.6699244" lon="12.0115524"><ele>33.25</ele><time>2026-04-25T09:14:48.359Z</time></trkpt><trkpt lat="45.6698398" lon="12.011467"><ele>33.5</ele><time>2026-04-25T09:14:50.359Z</time></trkpt><trkpt lat="45.6697468" lon="12.0113792"><ele>33.75</ele><time>2026-04-25T09:14:52.359Z</time></trkpt><trkpt lat="45.6696483" lon="12.0112882"><ele>34.0</ele><time>2026-04-25T09:14:54.359Z</time></trkpt><trkpt lat="45.6695468" lon="12.011193"><ele>34.0</ele><time>2026-04-25T09:14:56.359Z</time></trkpt><trkpt lat="45.6694432" lon="12.0110955"><ele>34.0</ele><time>2026-04-25T09:14:58.359Z</time></trkpt><trkpt lat="45.6693863" lon="12.0110391"><ele>34.0</ele><time>2026-04-25T09:14:59.359Z</time></trkpt><trkpt lat="45.6692827" lon="12.0109367"><ele>34.0</ele><time>2026-04-25T09:15:01.359Z</time></trkpt><trkpt lat="45.6691801" lon="12.0108411"><ele>34.0</ele><time>2026-04-25T09:15:03.36Z</time></trkpt><trkpt lat="45.669076" lon="12.0107433"><ele>33.66666666666667</ele><time>2026-04-25T09:15:05.359Z</time></trkpt><trkpt lat="45.669023" lon="12.0106932"><ele>33.333333333333336</ele><time>2026-04-25T09:15:06.359Z</time></trkpt><trkpt lat="45.6689187" lon="12.0105953"><ele>33.0</ele><time>2026-04-25T09:15:08.359Z</time></trkpt><trkpt lat="45.6688656" lon="12.010543"><ele>32.666666666666664</ele><time>2026-04-25T09:15:09.359Z</time></trkpt><trkpt lat="45.6688136" lon="12.0104917"><ele>32.33333333333333</ele><time>2026-04-25T09:15:10.359Z</time></trkpt><trkpt lat="45.6687557" lon="12.0104405"><ele>32.0</ele><time>2026-04-25T09:15:11.359Z</time></trkpt><trkpt lat="45.668699" lon="12.0103866"><ele>31.999999999999996</ele><time>2026-04-25T09:15:12.359Z</time></trkpt><trkpt lat="45.6686444" lon="12.0103384"><ele>32.0</ele><time>2026-04-25T09:15:13.359Z</time></trkpt><trkpt lat="45.668591" lon="12.0102899"><ele>32.0</ele><time>2026-04-25T09:15:14.36Z</time></trkpt><trkpt lat="45.6685385" lon="12.0102375"><ele>32.0</ele><time>2026-04-25T09:15:15.359Z</time></trkpt><trkpt lat="45.6684335" lon="12.0101435"><ele>31.999999999999996</ele><time>2026-04-25T09:15:17.359Z</time></trkpt><trkpt lat="45.6683388" lon="12.0100477"><ele>32.0</ele><time>2026-04-25T09:15:19.359Z</time></trkpt><trkpt lat="45.6682461" lon="12.0099512"><ele>31.6</ele><time>2026-04-25T09:15:21.359Z</time></trkpt><trkpt lat="45.6681563" lon="12.0098672"><ele>31.200000000000003</ele><time>2026-04-25T09:15:23.359Z</time></trkpt><trkpt lat="45.6680701" lon="12.009786"><ele>30.8</ele><time>2026-04-25T09:15:25.359Z</time></trkpt><trkpt lat="45.6679767" lon="12.009704"><ele>30.4</ele><time>2026-04-25T09:15:27.359Z</time></trkpt><trkpt lat="45.667878" lon="12.0096095"><ele>30.0</ele><time>2026-04-25T09:15:29.359Z</time></trkpt><trkpt lat="45.6678242" lon="12.0095598"><ele>30.0</ele><time>2026-04-25T09:15:30.359Z</time></trkpt><trkpt lat="45.6677708" lon="12.0095067"><ele>30.0</ele><time>2026-04-25T09:15:31.359Z</time></trkpt><trkpt lat="45.667665" lon="12.0094037"><ele>30.0</ele><time>2026-04-25T09:15:33.359Z</time></trkpt><trkpt lat="45.6676096" lon="12.0093529"><ele>30.0</ele><time>2026-04-25T09:15:34.359Z</time></trkpt><trkpt lat="45.667508" lon="12.0092605"><ele>30.0</ele><time>2026-04-25T09:15:36.359Z</time></trkpt><trkpt lat="45.6674085" lon="12.0091627"><ele>30.2</ele><time>2026-04-25T09:15:38.359Z</time></trkpt><trkpt lat="45.667313" lon="12.009075"><ele>30.4</ele><time>2026-04-25T09:15:40.359Z</time></trkpt><trkpt lat="45.667215" lon="12.0089854"><ele>30.6</ele><time>2026-04-25T09:15:42.359Z</time></trkpt><trkpt lat="45.6671218" lon="12.0088968"><ele>30.8</ele><time>2026-04-25T09:15:44.359Z</time></trkpt><trkpt lat="45.6670372" lon="12.0088042"><ele>31.0</ele><time>2026-04-25T09:15:46.359Z</time></trkpt><trkpt lat="45.6669485" lon="12.0087242"><ele>31.0</ele><time>2026-04-25T09:15:48.36Z</time></trkpt><trkpt lat="45.6668683" lon="12.0086129"><ele>31.0</ele><time>2026-04-25T09:15:50.36Z</time></trkpt><trkpt lat="45.6668054" lon="12.0084798"><ele>31.0</ele><time>2026-04-25T09:15:52.359Z</time></trkpt><trkpt lat="45.6667389" lon="12.0083377"><ele>31.0</ele><time>2026-04-25T09:15:54.359Z</time></trkpt><trkpt lat="45.6666462" lon="12.0082379"><ele>31.4</ele><time>2026-04-25T09:15:56.359Z</time></trkpt><trkpt lat="45.666538" lon="12.0082092"><ele>31.8</ele><time>2026-04-25T09:15:58.36Z</time></trkpt><trkpt lat="45.666431" lon="12.0081783"><ele>32.199999999999996</ele><time>2026-04-25T09:16:00.359Z</time></trkpt><trkpt lat="45.6663337" lon="12.0081015"><ele>32.6</ele><time>2026-04-25T09:16:02.359Z</time></trkpt><trkpt lat="45.6662356" lon="12.0080156"><ele>33.0</ele><time>2026-04-25T09:16:04.359Z</time></trkpt><trkpt lat="45.666139" lon="12.0079246"><ele>32.6</ele><time>2026-04-25T09:16:06.358Z</time></trkpt><trkpt lat="45.6660356" lon="12.0078328"><ele>32.199999999999996</ele><time>2026-04-25T09:16:08.358Z</time></trkpt><trkpt lat="45.6659369" lon="12.0077473"><ele>31.8</ele><time>2026-04-25T09:16:10.358Z</time></trkpt><trkpt lat="45.665835" lon="12.0076515"><ele>31.4</ele><time>2026-04-25T09:16:12.359Z</time></trkpt><trkpt lat="45.6657804" lon="12.0076045"><ele>31.0</ele><time>2026-04-25T09:16:13.358Z</time></trkpt><trkpt lat="45.6656773" lon="12.0075023"><ele>30.8</ele><time>2026-04-25T09:16:15.358Z</time></trkpt><trkpt lat="45.6656241" lon="12.0074531"><ele>30.6</ele><time>2026-04-25T09:16:16.358Z</time></trkpt><trkpt lat="45.6655249" lon="12.0073456"><ele>30.4</ele><time>2026-04-25T09:16:18.358Z</time></trkpt><trkpt lat="45.6654776" lon="12.0072832"><ele>30.2</ele><time>2026-04-25T09:16:19.358Z</time></trkpt><trkpt lat="45.6653941" lon="12.0071592"><ele>30.0</ele><time>2026-04-25T09:16:21.358Z</time></trkpt><trkpt lat="45.6653069" lon="12.0070589"><ele>30.0</ele><time>2026-04-25T09:16:23.358Z</time></trkpt><trkpt lat="45.6652288" lon="12.0069449"><ele>30.0</ele><time>2026-04-25T09:16:25.358Z</time></trkpt><trkpt lat="45.6651578" lon="12.0068323"><ele>30.0</ele><time>2026-04-25T09:16:27.358Z</time></trkpt><trkpt lat="45.6650847" lon="12.0067124"><ele>30.0</ele><time>2026-04-25T09:16:29.358Z</time></trkpt><trkpt lat="45.6650128" lon="12.0065708"><ele>29.75</ele><time>2026-04-25T09:16:31.358Z</time></trkpt><trkpt lat="45.6649469" lon="12.0064397"><ele>29.5</ele><time>2026-04-25T09:16:33.359Z</time></trkpt><trkpt lat="45.6648842" lon="12.0062923"><ele>29.25</ele><time>2026-04-25T09:16:35.359Z</time></trkpt><trkpt lat="45.6648303" lon="12.0061403"><ele>29.0</ele><time>2026-04-25T09:16:37.358Z</time></trkpt><trkpt lat="45.6647868" lon="12.0060001"><ele>29.0</ele><time>2026-04-25T09:16:39.358Z</time></trkpt><trkpt lat="45.6647454" lon="12.0058563"><ele>29.0</ele><time>2026-04-25T09:16:41.359Z</time></trkpt><trkpt lat="45.6647026" lon="12.0057103"><ele>29.0</ele><time>2026-04-25T09:16:43.359Z</time></trkpt><trkpt lat="45.6646628" lon="12.0055675"><ele>29.0</ele><time>2026-04-25T09:16:45.358Z</time></trkpt><trkpt lat="45.6646217" lon="12.0054214"><ele>29.0</ele><time>2026-04-25T09:16:47.358Z</time></trkpt><trkpt lat="45.6645752" lon="12.0052764"><ele>29.2</ele><time>2026-04-25T09:16:49.358Z</time></trkpt><trkpt lat="45.6645325" lon="12.0051345"><ele>29.4</ele><time>2026-04-25T09:16:51.358Z</time></trkpt><trkpt lat="45.6644851" lon="12.0049924"><ele>29.6</ele><time>2026-04-25T09:16:53.358Z</time></trkpt><trkpt lat="45.6644452" lon="12.0048449"><ele>29.8</ele><time>2026-04-25T09:16:55.358Z</time></trkpt><trkpt lat="45.6644084" lon="12.0047066"><ele>30.0</ele><time>2026-04-25T09:16:57.359Z</time></trkpt><trkpt lat="45.6643683" lon="12.0045737"><ele>30.0</ele><time>2026-04-25T09:16:59.358Z</time></trkpt><trkpt lat="45.6643235" lon="12.0044441"><ele>30.0</ele><time>2026-04-25T09:17:01.358Z</time></trkpt><trkpt lat="45.6642927" lon="12.004316"><ele>30.0</ele><time>2026-04-25T09:17:03.358Z</time></trkpt><trkpt lat="45.6642566" lon="12.0041795"><ele>30.0</ele><time>2026-04-25T09:17:05.358Z</time></trkpt><trkpt lat="45.6642177" lon="12.0040425"><ele>30.0</ele><time>2026-04-25T09:17:07.359Z</time></trkpt><trkpt lat="45.6641794" lon="12.0039104"><ele>30.2</ele><time>2026-04-25T09:17:09.358Z</time></trkpt><trkpt lat="45.6641442" lon="12.0037725"><ele>30.4</ele><time>2026-04-25T09:17:11.358Z</time></trkpt><trkpt lat="45.6641087" lon="12.0036453"><ele>30.6</ele><time>2026-04-25T09:17:13.358Z</time></trkpt><trkpt lat="45.6640737" lon="12.0035007"><ele>30.8</ele><time>2026-04-25T09:17:15.358Z</time></trkpt><trkpt lat="45.6640407" lon="12.0033572"><ele>31.0</ele><time>2026-04-25T09:17:17.358Z</time></trkpt><trkpt lat="45.6639969" lon="12.0032285"><ele>31.0</ele><time>2026-04-25T09:17:19.358Z</time></trkpt><trkpt lat="45.6639413" lon="12.0030957"><ele>31.0</ele><time>2026-04-25T09:17:21.358Z</time></trkpt><trkpt lat="45.6638919" lon="12.0029518"><ele>31.0</ele><time>2026-04-25T09:17:23.358Z</time></trkpt><trkpt lat="45.663831" lon="12.0028133"><ele>31.0</ele><time>2026-04-25T09:17:25.358Z</time></trkpt><trkpt lat="45.6637795" lon="12.0026808"><ele>31.0</ele><time>2026-04-25T09:17:27.358Z</time></trkpt><trkpt lat="45.6637237" lon="12.0025617"><ele>30.8</ele><time>2026-04-25T09:17:29.358Z</time></trkpt><trkpt lat="45.6636653" lon="12.002451"><ele>30.6</ele><time>2026-04-25T09:17:31.358Z</time></trkpt><trkpt lat="45.6636113" lon="12.002349"><ele>30.4</ele><time>2026-04-25T09:17:33.358Z</time></trkpt><trkpt lat="45.6635594" lon="12.0022383"><ele>30.2</ele><time>2026-04-25T09:17:35.358Z</time></trkpt><trkpt lat="45.6635066" lon="12.0021269"><ele>30.0</ele><time>2026-04-25T09:17:37.358Z</time></trkpt><trkpt lat="45.6634487" lon="12.0020208"><ele>30.0</ele><time>2026-04-25T09:17:39.358Z</time></trkpt><trkpt lat="45.663389" lon="12.0018996"><ele>30.0</ele><time>2026-04-25T09:17:41.358Z</time></trkpt><trkpt lat="45.6633289" lon="12.0017872"><ele>30.0</ele><time>2026-04-25T09:17:43.358Z</time></trkpt><trkpt lat="45.6632721" lon="12.0016669"><ele>30.0</ele><time>2026-04-25T09:17:45.358Z</time></trkpt><trkpt lat="45.6632128" lon="12.0015554"><ele>30.0</ele><time>2026-04-25T09:17:47.358Z</time></trkpt><trkpt lat="45.6631497" lon="12.0014361"><ele>29.8</ele><time>2026-04-25T09:17:49.359Z</time></trkpt><trkpt lat="45.6630931" lon="12.0013178"><ele>29.6</ele><time>2026-04-25T09:17:51.358Z</time></trkpt><trkpt lat="45.6630259" lon="12.0011909"><ele>29.4</ele><time>2026-04-25T09:17:53.359Z</time></trkpt><trkpt lat="45.6629625" lon="12.0010588"><ele>29.2</ele><time>2026-04-25T09:17:55.358Z</time></trkpt><trkpt lat="45.662894" lon="12.0009308"><ele>29.0</ele><time>2026-04-25T09:17:57.358Z</time></trkpt><trkpt lat="45.6628203" lon="12.0008143"><ele>29.2</ele><time>2026-04-25T09:17:59.358Z</time></trkpt><trkpt lat="45.6627467" lon="12.000696"><ele>29.4</ele><time>2026-04-25T09:18:01.358Z</time></trkpt><trkpt lat="45.6627032" lon="12.000553"><ele>29.6</ele><time>2026-04-25T09:18:03.358Z</time></trkpt><trkpt lat="45.6626369" lon="12.0004218"><ele>29.8</ele><time>2026-04-25T09:18:05.359Z</time></trkpt><trkpt lat="45.6625739" lon="12.0003052"><ele>30.0</ele><time>2026-04-25T09:18:07.358Z</time></trkpt><trkpt lat="45.662514" lon="12.0001913"><ele>30.0</ele><time>2026-04-25T09:18:09.358Z</time></trkpt><trkpt lat="45.6624531" lon="12.000079"><ele>30.0</ele><time>2026-04-25T09:18:11.358Z</time></trkpt><trkpt lat="45.662395" lon="11.9999661"><ele>30.0</ele><time>2026-04-25T09:18:13.358Z</time></trkpt><trkpt lat="45.6623395" lon="11.9998518"><ele>30.0</ele><time>2026-04-25T09:18:15.358Z</time></trkpt><trkpt lat="45.6622731" lon="11.9997293"><ele>30.0</ele><time>2026-04-25T09:18:17.358Z</time></trkpt><trkpt lat="45.6622124" lon="11.9996067"><ele>30.0</ele><time>2026-04-25T09:18:19.358Z</time></trkpt><trkpt lat="45.6621474" lon="11.9994855"><ele>30.0</ele><time>2026-04-25T09:18:21.358Z</time></trkpt><trkpt lat="45.6620884" lon="11.999356"><ele>30.0</ele><time>2026-04-25T09:18:23.358Z</time></trkpt><trkpt lat="45.6620335" lon="11.9992323"><ele>30.0</ele><time>2026-04-25T09:18:25.359Z</time></trkpt><trkpt lat="45.6619707" lon="11.9991154"><ele>30.0</ele><time>2026-04-25T09:18:27.358Z</time></trkpt><trkpt lat="45.6619148" lon="11.9990113"><ele>30.2</ele><time>2026-04-25T09:18:29.358Z</time></trkpt><trkpt lat="45.6618573" lon="11.998897"><ele>30.4</ele><time>2026-04-25T09:18:31.358Z</time></trkpt><trkpt lat="45.6617914" lon="11.9987837"><ele>30.6</ele><time>2026-04-25T09:18:33.358Z</time></trkpt><trkpt lat="45.6617275" lon="11.9986782"><ele>30.8</ele><time>2026-04-25T09:18:35.358Z</time></trkpt><trkpt lat="45.6616709" lon="11.9985746"><ele>31.0</ele><time>2026-04-25T09:18:37.358Z</time></trkpt><trkpt lat="45.661622" lon="11.9984533"><ele>31.0</ele><time>2026-04-25T09:18:39.358Z</time></trkpt><trkpt lat="45.661539" lon="11.9983922"><ele>31.0</ele><time>2026-04-25T09:18:41.359Z</time></trkpt><trkpt lat="45.6614669" lon="11.9983523"><ele>31.0</ele><time>2026-04-25T09:18:43.358Z</time></trkpt><trkpt lat="45.6613784" lon="11.9982527"><ele>31.0</ele><time>2026-04-25T09:18:45.358Z</time></trkpt><trkpt lat="45.6613258" lon="11.9982011"><ele>31.0</ele><time>2026-04-25T09:18:46.358Z</time></trkpt><trkpt lat="45.6612222" lon="11.9981175"><ele>30.75</ele><time>2026-04-25T09:18:48.358Z</time></trkpt><trkpt lat="45.6611246" lon="11.9980401"><ele>30.5</ele><time>2026-04-25T09:18:50.359Z</time></trkpt><trkpt lat="45.6610181" lon="11.9979658"><ele>30.25</ele><time>2026-04-25T09:18:52.358Z</time></trkpt><trkpt lat="45.660913" lon="11.9978888"><ele>30.0</ele><time>2026-04-25T09:18:54.359Z</time></trkpt><trkpt lat="45.6608047" lon="11.9978118"><ele>30.0</ele><time>2026-04-25T09:18:56.358Z</time></trkpt><trkpt lat="45.6607024" lon="11.9977411"><ele>30.0</ele><time>2026-04-25T09:18:58.358Z</time></trkpt><trkpt lat="45.6606015" lon="11.9976731"><ele>30.0</ele><time>2026-04-25T09:19:00.358Z</time></trkpt><trkpt lat="45.6605042" lon="11.9976"><ele>30.0</ele><time>2026-04-25T09:19:02.359Z</time></trkpt><trkpt lat="45.6604009" lon="11.9975349"><ele>30.0</ele><time>2026-04-25T09:19:04.359Z</time></trkpt><trkpt lat="45.660305" lon="11.9974583"><ele>30.0</ele><time>2026-04-25T09:19:06.358Z</time></trkpt><trkpt lat="45.6602106" lon="11.9973959"><ele>30.0</ele><time>2026-04-25T09:19:08.358Z</time></trkpt><trkpt lat="45.6601193" lon="11.9973373"><ele>30.0</ele><time>2026-04-25T09:19:10.358Z</time></trkpt><trkpt lat="45.6600304" lon="11.9972727"><ele>30.0</ele><time>2026-04-25T09:19:12.358Z</time></trkpt><trkpt lat="45.6599265" lon="11.9972005"><ele>30.0</ele><time>2026-04-25T09:19:14.358Z</time></trkpt><trkpt lat="45.6598305" lon="11.9971281"><ele>30.0</ele><time>2026-04-25T09:19:16.358Z</time></trkpt><trkpt lat="45.6597375" lon="11.9970662"><ele>30.0</ele><time>2026-04-25T09:19:18.359Z</time></trkpt><trkpt lat="45.6596421" lon="11.9969943"><ele>30.0</ele><time>2026-04-25T09:19:20.358Z</time></trkpt><trkpt lat="45.6595498" lon="11.9969344"><ele>30.0</ele><time>2026-04-25T09:19:22.359Z</time></trkpt><trkpt lat="45.6594574" lon="11.996865"><ele>30.0</ele><time>2026-04-25T09:19:24.359Z</time></trkpt><trkpt lat="45.6593614" lon="11.9967951"><ele>30.0</ele><time>2026-04-25T09:19:26.358Z</time></trkpt><trkpt lat="45.6592626" lon="11.9967133"><ele>30.0</ele><time>2026-04-25T09:19:28.359Z</time></trkpt><trkpt lat="45.6591737" lon="11.9966292"><ele>30.0</ele><time>2026-04-25T09:19:30.359Z</time></trkpt><trkpt lat="45.6590926" lon="11.9965467"><ele>30.0</ele><time>2026-04-25T09:19:32.358Z</time></trkpt><trkpt lat="45.6590141" lon="11.9964672"><ele>30.0</ele><time>2026-04-25T09:19:34.358Z</time></trkpt><trkpt lat="45.6589359" lon="11.9963945"><ele>30.0</ele><time>2026-04-25T09:19:36.358Z</time></trkpt><trkpt lat="45.658854" lon="11.9963221"><ele>30.0</ele><time>2026-04-25T09:19:38.358Z</time></trkpt><trkpt lat="45.6587751" lon="11.9962394"><ele>30.0</ele><time>2026-04-25T09:19:40.358Z</time></trkpt><trkpt lat="45.6587081" lon="11.9961521"><ele>30.0</ele><time>2026-04-25T09:19:42.357Z</time></trkpt><trkpt lat="45.6586413" lon="11.9960519"><ele>30.0</ele><time>2026-04-25T09:19:44.357Z</time></trkpt><trkpt lat="45.6585487" lon="11.9959616"><ele>30.0</ele><time>2026-04-25T09:19:46.357Z</time></trkpt><trkpt lat="45.658458" lon="11.9958727"><ele>30.0</ele><time>2026-04-25T09:19:48.357Z</time></trkpt><trkpt lat="45.6583749" lon="11.9957801"><ele>30.0</ele><time>2026-04-25T09:19:50.358Z</time></trkpt><trkpt lat="45.6583048" lon="11.9956891"><ele>30.0</ele><time>2026-04-25T09:19:52.357Z</time></trkpt><trkpt lat="45.6582231" lon="11.9956052"><ele>30.0</ele><time>2026-04-25T09:19:54.357Z</time></trkpt><trkpt lat="45.6581309" lon="11.9955346"><ele>30.0</ele><time>2026-04-25T09:19:56.357Z</time></trkpt><trkpt lat="45.6580305" lon="11.9954673"><ele>30.0</ele><time>2026-04-25T09:19:58.358Z</time></trkpt><trkpt lat="45.6579415" lon="11.9953681"><ele>30.0</ele><time>2026-04-25T09:20:00.357Z</time></trkpt><trkpt lat="45.6578561" lon="11.9952751"><ele>30.0</ele><time>2026-04-25T09:20:02.357Z</time></trkpt><trkpt lat="45.6577686" lon="11.9951846"><ele>30.0</ele><time>2026-04-25T09:20:04.358Z</time></trkpt><trkpt lat="45.6576827" lon="11.9951021"><ele>30.0</ele><time>2026-04-25T09:20:06.358Z</time></trkpt><trkpt lat="45.6576119" lon="11.9950245"><ele>30.0</ele><time>2026-04-25T09:20:08.357Z</time></trkpt><trkpt lat="45.6575459" lon="11.994951"><ele>30.0</ele><time>2026-04-25T09:20:10.357Z</time></trkpt><trkpt lat="45.6574795" lon="11.9948815"><ele>30.0</ele><time>2026-04-25T09:20:12.357Z</time></trkpt><trkpt lat="45.6574054" lon="11.9948107"><ele>30.0</ele><time>2026-04-25T09:20:14.357Z</time></trkpt><trkpt lat="45.6573234" lon="11.9947381"><ele>30.0</ele><time>2026-04-25T09:20:16.357Z</time></trkpt><trkpt lat="45.6572366" lon="11.9946708"><ele>29.8</ele><time>2026-04-25T09:20:18.358Z</time></trkpt><trkpt lat="45.657144" lon="11.9946061"><ele>29.6</ele><time>2026-04-25T09:20:20.357Z</time></trkpt><trkpt lat="45.6570548" lon="11.9945479"><ele>29.4</ele><time>2026-04-25T09:20:22.358Z</time></trkpt><trkpt lat="45.6569644" lon="11.9944942"><ele>29.2</ele><time>2026-04-25T09:20:24.358Z</time></trkpt><trkpt lat="45.6568833" lon="11.9944569"><ele>29.0</ele><time>2026-04-25T09:20:26.357Z</time></trkpt><trkpt lat="45.6567951" lon="11.9944182"><ele>29.6</ele><time>2026-04-25T09:20:28.357Z</time></trkpt><trkpt lat="45.6567061" lon="11.9943745"><ele>30.2</ele><time>2026-04-25T09:20:30.357Z</time></trkpt><trkpt lat="45.6566164" lon="11.9943308"><ele>30.800000000000004</ele><time>2026-04-25T09:20:32.357Z</time></trkpt><trkpt lat="45.6565279" lon="11.9942923"><ele>31.400000000000002</ele><time>2026-04-25T09:20:34.357Z</time></trkpt><trkpt lat="45.6564388" lon="11.9942439"><ele>32.0</ele><time>2026-04-25T09:20:36.357Z</time></trkpt><trkpt lat="45.6563495" lon="11.9942045"><ele>32.0</ele><time>2026-04-25T09:20:38.357Z</time></trkpt><trkpt lat="45.6562606" lon="11.994166"><ele>32.0</ele><time>2026-04-25T09:20:40.357Z</time></trkpt><trkpt lat="45.6561718" lon="11.9941255"><ele>32.0</ele><time>2026-04-25T09:20:42.357Z</time></trkpt><trkpt lat="45.6560796" lon="11.9940815"><ele>32.0</ele><time>2026-04-25T09:20:44.357Z</time></trkpt><trkpt lat="45.6559994" lon="11.9940443"><ele>32.0</ele><time>2026-04-25T09:20:46.357Z</time></trkpt><trkpt lat="45.6559123" lon="11.994006"><ele>31.400000000000002</ele><time>2026-04-25T09:20:48.357Z</time></trkpt><trkpt lat="45.65582" lon="11.9939546"><ele>30.800000000000004</ele><time>2026-04-25T09:20:50.357Z</time></trkpt><trkpt lat="45.6557294" lon="11.9939129"><ele>30.2</ele><time>2026-04-25T09:20:52.357Z</time></trkpt><trkpt lat="45.6556344" lon="11.9938667"><ele>29.6</ele><time>2026-04-25T09:20:54.358Z</time></trkpt><trkpt lat="45.6555441" lon="11.9938277"><ele>29.0</ele><time>2026-04-25T09:20:56.357Z</time></trkpt><trkpt lat="45.6554497" lon="11.9937837"><ele>29.0</ele><time>2026-04-25T09:20:58.357Z</time></trkpt><trkpt lat="45.6553572" lon="11.99374"><ele>29.0</ele><time>2026-04-25T09:21:00.357Z</time></trkpt><trkpt lat="45.6552689" lon="11.993695"><ele>29.0</ele><time>2026-04-25T09:21:02.358Z</time></trkpt><trkpt lat="45.6551805" lon="11.9936524"><ele>29.0</ele><time>2026-04-25T09:21:04.357Z</time></trkpt><trkpt lat="45.6550877" lon="11.9936041"><ele>29.0</ele><time>2026-04-25T09:21:06.357Z</time></trkpt><trkpt lat="45.6549957" lon="11.9935481"><ele>29.0</ele><time>2026-04-25T09:21:08.357Z</time></trkpt><trkpt lat="45.6549058" lon="11.9935018"><ele>29.0</ele><time>2026-04-25T09:21:10.357Z</time></trkpt><trkpt lat="45.6548309" lon="11.9934359"><ele>29.0</ele><time>2026-04-25T09:21:12.357Z</time></trkpt><trkpt lat="45.6547838" lon="11.9933081"><ele>29.0</ele><time>2026-04-25T09:21:14.357Z</time></trkpt><trkpt lat="45.6547074" lon="11.9932099"><ele>29.0</ele><time>2026-04-25T09:21:16.357Z</time></trkpt><trkpt lat="45.654614" lon="11.9931612"><ele>29.0</ele><time>2026-04-25T09:21:18.358Z</time></trkpt><trkpt lat="45.6545095" lon="11.9931876"><ele>29.0</ele><time>2026-04-25T09:21:20.357Z</time></trkpt><trkpt lat="45.6544121" lon="11.99322"><ele>29.0</ele><time>2026-04-25T09:21:22.357Z</time></trkpt><trkpt lat="45.6543121" lon="11.9932086"><ele>29.0</ele><time>2026-04-25T09:21:24.357Z</time></trkpt><trkpt lat="45.6542284" lon="11.9931602"><ele>29.0</ele><time>2026-04-25T09:21:26.357Z</time></trkpt><trkpt lat="45.65415" lon="11.9930889"><ele>28.799999999999997</ele><time>2026-04-25T09:21:28.357Z</time></trkpt><trkpt lat="45.654065" lon="11.9930531"><ele>28.599999999999998</ele><time>2026-04-25T09:21:30.357Z</time></trkpt><trkpt lat="45.6539718" lon="11.9930266"><ele>28.4</ele><time>2026-04-25T09:21:32.357Z</time></trkpt><trkpt lat="45.6538742" lon="11.9929891"><ele>28.2</ele><time>2026-04-25T09:21:34.357Z</time></trkpt><trkpt lat="45.6537757" lon="11.9929446"><ele>28.0</ele><time>2026-04-25T09:21:36.357Z</time></trkpt><trkpt lat="45.6536748" lon="11.9928892"><ele>28.2</ele><time>2026-04-25T09:21:38.357Z</time></trkpt><trkpt lat="45.6535866" lon="11.9928292"><ele>28.4</ele><time>2026-04-25T09:21:40.357Z</time></trkpt><trkpt lat="45.6535035" lon="11.9927597"><ele>28.599999999999998</ele><time>2026-04-25T09:21:42.358Z</time></trkpt><trkpt lat="45.6534235" lon="11.992683"><ele>28.799999999999997</ele><time>2026-04-25T09:21:44.357Z</time></trkpt><trkpt lat="45.6533422" lon="11.9926102"><ele>29.0</ele><time>2026-04-25T09:21:46.357Z</time></trkpt><trkpt lat="45.6532539" lon="11.9925323"><ele>29.0</ele><time>2026-04-25T09:21:48.357Z</time></trkpt><trkpt lat="45.6531701" lon="11.9924453"><ele>29.0</ele><time>2026-04-25T09:21:50.358Z</time></trkpt><trkpt lat="45.6530861" lon="11.9923659"><ele>29.0</ele><time>2026-04-25T09:21:52.357Z</time></trkpt><trkpt lat="45.6530033" lon="11.9922881"><ele>29.0</ele><time>2026-04-25T09:21:54.357Z</time></trkpt><trkpt lat="45.6529241" lon="11.9922138"><ele>29.0</ele><time>2026-04-25T09:21:56.357Z</time></trkpt><trkpt lat="45.652856" lon="11.9921346"><ele>29.333333333333332</ele><time>2026-04-25T09:21:58.357Z</time></trkpt><trkpt lat="45.6527784" lon="11.9920627"><ele>29.666666666666664</ele><time>2026-04-25T09:22:00.357Z</time></trkpt><trkpt lat="45.6527095" lon="11.992004"><ele>30.0</ele><time>2026-04-25T09:22:02.357Z</time></trkpt><trkpt lat="45.6526488" lon="11.9919385"><ele>30.333333333333336</ele><time>2026-04-25T09:22:04.357Z</time></trkpt><trkpt lat="45.652575" lon="11.991851"><ele>30.666666666666668</ele><time>2026-04-25T09:22:06.357Z</time></trkpt><trkpt lat="45.6525023" lon="11.9917765"><ele>31.0</ele><time>2026-04-25T09:22:08.357Z</time></trkpt><trkpt lat="45.6524247" lon="11.9917094"><ele>30.666666666666668</ele><time>2026-04-25T09:22:10.357Z</time></trkpt><trkpt lat="45.6523522" lon="11.9916324"><ele>30.333333333333336</ele><time>2026-04-25T09:22:12.358Z</time></trkpt><trkpt lat="45.6522739" lon="11.9915607"><ele>30.0</ele><time>2026-04-25T09:22:14.357Z</time></trkpt><trkpt lat="45.6522003" lon="11.9914949"><ele>29.666666666666664</ele><time>2026-04-25T09:22:16.357Z</time></trkpt><trkpt lat="45.6521383" lon="11.9914397"><ele>29.333333333333332</ele><time>2026-04-25T09:22:18.357Z</time></trkpt><trkpt lat="45.6520725" lon="11.9913858"><ele>29.0</ele><time>2026-04-25T09:22:20.358Z</time></trkpt><trkpt lat="45.6520086" lon="11.9913496"><ele>28.999999999999996</ele><time>2026-04-25T09:22:22.357Z</time></trkpt><trkpt lat="45.6519477" lon="11.9913107"><ele>29.0</ele><time>2026-04-25T09:22:24.357Z</time></trkpt><trkpt lat="45.6518778" lon="11.9912804"><ele>29.0</ele><time>2026-04-25T09:22:26.358Z</time></trkpt><trkpt lat="45.6517929" lon="11.991249"><ele>29.0</ele><time>2026-04-25T09:22:28.357Z</time></trkpt><trkpt lat="45.6517027" lon="11.991206"><ele>28.999999999999996</ele><time>2026-04-25T09:22:30.357Z</time></trkpt><trkpt lat="45.6516102" lon="11.9911669"><ele>29.0</ele><time>2026-04-25T09:22:32.358Z</time></trkpt><trkpt lat="45.6515097" lon="11.9911324"><ele>29.0</ele><time>2026-04-25T09:22:34.357Z</time></trkpt><trkpt lat="45.6514128" lon="11.9911"><ele>29.0</ele><time>2026-04-25T09:22:36.357Z</time></trkpt><trkpt lat="45.6513188" lon="11.9910627"><ele>29.0</ele><time>2026-04-25T09:22:38.357Z</time></trkpt><trkpt lat="45.6512207" lon="11.9910297"><ele>29.0</ele><time>2026-04-25T09:22:40.357Z</time></trkpt><trkpt lat="45.6511325" lon="11.9909931"><ele>29.0</ele><time>2026-04-25T09:22:42.357Z</time></trkpt><trkpt lat="45.6510527" lon="11.9909555"><ele>29.166666666666664</ele><time>2026-04-25T09:22:44.357Z</time></trkpt><trkpt lat="45.6509779" lon="11.9909375"><ele>29.333333333333332</ele><time>2026-04-25T09:22:46.357Z</time></trkpt><trkpt lat="45.6509005" lon="11.990915"><ele>29.5</ele><time>2026-04-25T09:22:48.358Z</time></trkpt><trkpt lat="45.6508334" lon="11.9908886"><ele>29.666666666666664</ele><time>2026-04-25T09:22:50.357Z</time></trkpt><trkpt lat="45.650762" lon="11.9908581"><ele>29.833333333333332</ele><time>2026-04-25T09:22:52.357Z</time></trkpt><trkpt lat="45.6506818" lon="11.9908296"><ele>30.0</ele><time>2026-04-25T09:22:54.357Z</time></trkpt><trkpt lat="45.6506051" lon="11.9908068"><ele>30.0</ele><time>2026-04-25T09:22:56.357Z</time></trkpt><trkpt lat="45.6505235" lon="11.990775"><ele>30.0</ele><time>2026-04-25T09:22:58.357Z</time></trkpt><trkpt lat="45.650433" lon="11.9907448"><ele>30.0</ele><time>2026-04-25T09:23:00.358Z</time></trkpt><trkpt lat="45.6503443" lon="11.9907231"><ele>30.0</ele><time>2026-04-25T09:23:02.357Z</time></trkpt><trkpt lat="45.6502531" lon="11.9906997"><ele>30.0</ele><time>2026-04-25T09:23:04.358Z</time></trkpt><trkpt lat="45.6501545" lon="11.9906639"><ele>30.0</ele><time>2026-04-25T09:23:06.358Z</time></trkpt><trkpt lat="45.6500528" lon="11.9906313"><ele>30.0</ele><time>2026-04-25T09:23:08.357Z</time></trkpt><trkpt lat="45.6499505" lon="11.99061"><ele>30.0</ele><time>2026-04-25T09:23:10.357Z</time></trkpt><trkpt lat="45.6498489" lon="11.990582"><ele>30.0</ele><time>2026-04-25T09:23:12.356Z</time></trkpt><trkpt lat="45.6497526" lon="11.9905478"><ele>30.0</ele><time>2026-04-25T09:23:14.356Z</time></trkpt><trkpt lat="45.6496576" lon="11.9905184"><ele>30.0</ele><time>2026-04-25T09:23:16.356Z</time></trkpt><trkpt lat="45.6495651" lon="11.9904862"><ele>30.0</ele><time>2026-04-25T09:23:18.356Z</time></trkpt><trkpt lat="45.649468" lon="11.9904543"><ele>30.0</ele><time>2026-04-25T09:23:20.356Z</time></trkpt><trkpt lat="45.6493656" lon="11.9904101"><ele>30.0</ele><time>2026-04-25T09:23:22.356Z</time></trkpt><trkpt lat="45.6492669" lon="11.9903766"><ele>30.0</ele><time>2026-04-25T09:23:24.356Z</time></trkpt><trkpt lat="45.6491717" lon="11.990348"><ele>29.6</ele><time>2026-04-25T09:23:26.356Z</time></trkpt><trkpt lat="45.6490767" lon="11.9903061"><ele>29.2</ele><time>2026-04-25T09:23:28.357Z</time></trkpt><trkpt lat="45.648984" lon="11.9902568"><ele>28.799999999999997</ele><time>2026-04-25T09:23:30.356Z</time></trkpt><trkpt lat="45.6488857" lon="11.9901985"><ele>28.4</ele><time>2026-04-25T09:23:32.356Z</time></trkpt><trkpt lat="45.6487927" lon="11.9901425"><ele>28.0</ele><time>2026-04-25T09:23:34.356Z</time></trkpt><trkpt lat="45.6487034" lon="11.9900851"><ele>28.2</ele><time>2026-04-25T09:23:36.356Z</time></trkpt><trkpt lat="45.6486163" lon="11.9900231"><ele>28.4</ele><time>2026-04-25T09:23:38.356Z</time></trkpt><trkpt lat="45.6485426" lon="11.9899466"><ele>28.599999999999998</ele><time>2026-04-25T09:23:40.356Z</time></trkpt><trkpt lat="45.6484699" lon="11.9898699"><ele>28.799999999999997</ele><time>2026-04-25T09:23:42.356Z</time></trkpt><trkpt lat="45.6483997" lon="11.9897932"><ele>29.0</ele><time>2026-04-25T09:23:44.356Z</time></trkpt><trkpt lat="45.6483517" lon="11.9896936"><ele>29.0</ele><time>2026-04-25T09:23:46.356Z</time></trkpt><trkpt lat="45.6483203" lon="11.9895746"><ele>29.0</ele><time>2026-04-25T09:23:48.356Z</time></trkpt><trkpt lat="45.6482767" lon="11.989453"><ele>29.0</ele><time>2026-04-25T09:23:50.356Z</time></trkpt><trkpt lat="45.6482141" lon="11.989356"><ele>29.0</ele><time>2026-04-25T09:23:52.356Z</time></trkpt><trkpt lat="45.6481258" lon="11.9893155"><ele>29.0</ele><time>2026-04-25T09:23:54.356Z</time></trkpt><trkpt lat="45.6480367" lon="11.9893461"><ele>29.0</ele><time>2026-04-25T09:23:56.356Z</time></trkpt><trkpt lat="45.6479449" lon="11.9894122"><ele>29.0</ele><time>2026-04-25T09:23:58.356Z</time></trkpt><trkpt lat="45.6478655" lon="11.9894877"><ele>29.0</ele><time>2026-04-25T09:24:00.357Z</time></trkpt><trkpt lat="45.6477754" lon="11.9894971"><ele>29.0</ele><time>2026-04-25T09:24:02.356Z</time></trkpt><trkpt lat="45.6476875" lon="11.9895103"><ele>29.0</ele><time>2026-04-25T09:24:04.356Z</time></trkpt><trkpt lat="45.6475857" lon="11.9895082"><ele>29.25</ele><time>2026-04-25T09:24:06.356Z</time></trkpt><trkpt lat="45.6474706" lon="11.9894955"><ele>29.5</ele><time>2026-04-25T09:24:08.356Z</time></trkpt><trkpt lat="45.6473611" lon="11.9894652"><ele>29.75</ele><time>2026-04-25T09:24:10.356Z</time></trkpt><trkpt lat="45.6472519" lon="11.9894234"><ele>30.0</ele><time>2026-04-25T09:24:12.356Z</time></trkpt><trkpt lat="45.6471507" lon="11.9893631"><ele>30.0</ele><time>2026-04-25T09:24:14.356Z</time></trkpt><trkpt lat="45.6470465" lon="11.9893127"><ele>30.0</ele><time>2026-04-25T09:24:16.357Z</time></trkpt><trkpt lat="45.6469497" lon="11.9892546"><ele>30.0</ele><time>2026-04-25T09:24:18.357Z</time></trkpt><trkpt lat="45.6468529" lon="11.989204"><ele>30.0</ele><time>2026-04-25T09:24:20.356Z</time></trkpt><trkpt lat="45.6467533" lon="11.9891482"><ele>30.0</ele><time>2026-04-25T09:24:22.356Z</time></trkpt><trkpt lat="45.6466482" lon="11.9890965"><ele>30.25</ele><time>2026-04-25T09:24:24.357Z</time></trkpt><trkpt lat="45.6465427" lon="11.9890317"><ele>30.5</ele><time>2026-04-25T09:24:26.357Z</time></trkpt><trkpt lat="45.6464343" lon="11.9889681"><ele>30.75</ele><time>2026-04-25T09:24:28.356Z</time></trkpt><trkpt lat="45.6463241" lon="11.9889025"><ele>31.0</ele><time>2026-04-25T09:24:30.356Z</time></trkpt><trkpt lat="45.6462171" lon="11.9888367"><ele>30.5</ele><time>2026-04-25T09:24:32.356Z</time></trkpt><trkpt lat="45.6461051" lon="11.9887661"><ele>30.0</ele><time>2026-04-25T09:24:34.356Z</time></trkpt><trkpt lat="45.6459953" lon="11.9887077"><ele>29.5</ele><time>2026-04-25T09:24:36.356Z</time></trkpt><trkpt lat="45.6458851" lon="11.9886495"><ele>29.0</ele><time>2026-04-25T09:24:38.356Z</time></trkpt><trkpt lat="45.6457719" lon="11.9885823"><ele>29.0</ele><time>2026-04-25T09:24:40.357Z</time></trkpt><trkpt lat="45.6456595" lon="11.988516"><ele>29.0</ele><time>2026-04-25T09:24:42.357Z</time></trkpt><trkpt lat="45.6455461" lon="11.9884496"><ele>29.0</ele><time>2026-04-25T09:24:44.356Z</time></trkpt><trkpt lat="45.6454373" lon="11.9883846"><ele>29.0</ele><time>2026-04-25T09:24:46.356Z</time></trkpt><trkpt lat="45.6453249" lon="11.9883256"><ele>28.75</ele><time>2026-04-25T09:24:48.356Z</time></trkpt><trkpt lat="45.64522" lon="11.9882674"><ele>28.5</ele><time>2026-04-25T09:24:50.357Z</time></trkpt><trkpt lat="45.6451048" lon="11.9881982"><ele>28.25</ele><time>2026-04-25T09:24:52.356Z</time></trkpt><trkpt lat="45.6449952" lon="11.9881344"><ele>28.0</ele><time>2026-04-25T09:24:54.356Z</time></trkpt><trkpt lat="45.6448838" lon="11.9880763"><ele>28.0</ele><time>2026-04-25T09:24:56.356Z</time></trkpt><trkpt lat="45.6447797" lon="11.9880174"><ele>27.999999999999996</ele><time>2026-04-25T09:24:58.356Z</time></trkpt><trkpt lat="45.644676" lon="11.9879652"><ele>27.999999999999996</ele><time>2026-04-25T09:25:00.356Z</time></trkpt><trkpt lat="45.6445782" lon="11.9879015"><ele>28.0</ele><time>2026-04-25T09:25:02.356Z</time></trkpt><trkpt lat="45.6444788" lon="11.987847"><ele>28.0</ele><time>2026-04-25T09:25:04.357Z</time></trkpt><trkpt lat="45.644384" lon="11.9878432"><ele>28.599999999999998</ele><time>2026-04-25T09:25:06.356Z</time></trkpt><trkpt lat="45.6443279" lon="11.9879239"><ele>29.199999999999996</ele><time>2026-04-25T09:25:08.357Z</time></trkpt><trkpt lat="45.6442342" lon="11.9879349"><ele>29.8</ele><time>2026-04-25T09:25:10.356Z</time></trkpt><trkpt lat="45.6441457" lon="11.9879048"><ele>30.4</ele><time>2026-04-25T09:25:12.356Z</time></trkpt><trkpt lat="45.644056" lon="11.9878547"><ele>31.0</ele><time>2026-04-25T09:25:14.357Z</time></trkpt><trkpt lat="45.6439628" lon="11.987816"><ele>31.0</ele><time>2026-04-25T09:25:16.356Z</time></trkpt><trkpt lat="45.6438686" lon="11.987758"><ele>31.0</ele><time>2026-04-25T09:25:18.356Z</time></trkpt><trkpt lat="45.6437626" lon="11.9876984"><ele>31.0</ele><time>2026-04-25T09:25:20.356Z</time></trkpt><trkpt lat="45.6436579" lon="11.9876259"><ele>31.0</ele><time>2026-04-25T09:25:22.356Z</time></trkpt><trkpt lat="45.6435676" lon="11.9875652"><ele>31.0</ele><time>2026-04-25T09:25:24.356Z</time></trkpt><trkpt lat="45.643472" lon="11.9875121"><ele>31.0</ele><time>2026-04-25T09:25:26.356Z</time></trkpt><trkpt lat="45.6433817" lon="11.9874573"><ele>31.0</ele><time>2026-04-25T09:25:28.357Z</time></trkpt><trkpt lat="45.643295" lon="11.9874179"><ele>31.0</ele><time>2026-04-25T09:25:30.357Z</time></trkpt><trkpt lat="45.6432194" lon="11.9874773"><ele>31.0</ele><time>2026-04-25T09:25:32.357Z</time></trkpt><trkpt lat="45.6432095" lon="11.9876063"><ele>31.0</ele><time>2026-04-25T09:25:34.357Z</time></trkpt><trkpt lat="45.6432195" lon="11.9877462"><ele>30.8</ele><time>2026-04-25T09:25:36.356Z</time></trkpt><trkpt lat="45.6432053" lon="11.9878943"><ele>30.6</ele><time>2026-04-25T09:25:38.356Z</time></trkpt><trkpt lat="45.6431896" lon="11.9880396"><ele>30.4</ele><time>2026-04-25T09:25:40.356Z</time></trkpt><trkpt lat="45.6431775" lon="11.9881863"><ele>30.2</ele><time>2026-04-25T09:25:42.356Z</time></trkpt><trkpt lat="45.6431755" lon="11.9883353"><ele>30.0</ele><time>2026-04-25T09:25:44.356Z</time></trkpt><trkpt lat="45.643181" lon="11.988499"><ele>30.0</ele><time>2026-04-25T09:25:46.357Z</time></trkpt><trkpt lat="45.6431756" lon="11.9886517"><ele>30.0</ele><time>2026-04-25T09:25:48.357Z</time></trkpt><trkpt lat="45.6431653" lon="11.9887962"><ele>30.0</ele><time>2026-04-25T09:25:50.356Z</time></trkpt><trkpt lat="45.6431599" lon="11.9889381"><ele>30.0</ele><time>2026-04-25T09:25:52.356Z</time></trkpt><trkpt lat="45.6432012" lon="11.9890547"><ele>30.0</ele><time>2026-04-25T09:25:54.356Z</time></trkpt><trkpt lat="45.6432562" lon="11.9891607"><ele>30.0</ele><time>2026-04-25T09:25:56.356Z</time></trkpt><trkpt lat="45.6432662" lon="11.9892851"><ele>30.0</ele><time>2026-04-25T09:25:58.357Z</time></trkpt><trkpt lat="45.643257" lon="11.9893976"><ele>30.0</ele><time>2026-04-25T09:26:00.357Z</time></trkpt><trkpt lat="45.6432299" lon="11.9895065"><ele>30.0</ele><time>2026-04-25T09:26:03.356Z</time></trkpt><trkpt lat="45.643135" lon="11.989516"><ele>30.0</ele><time>2026-04-25T09:26:06.357Z</time></trkpt><trkpt lat="45.6430514" lon="11.9895197"><ele>30.0</ele><time>2026-04-25T09:26:08.356Z</time></trkpt><trkpt lat="45.6429616" lon="11.989496"><ele>30.0</ele><time>2026-04-25T09:26:10.357Z</time></trkpt><trkpt lat="45.6428689" lon="11.9894849"><ele>30.0</ele><time>2026-04-25T09:26:12.356Z</time></trkpt><trkpt lat="45.6427698" lon="11.9894896"><ele>30.0</ele><time>2026-04-25T09:26:14.356Z</time></trkpt><trkpt lat="45.6426641" lon="11.9894854"><ele>30.0</ele><time>2026-04-25T09:26:16.356Z</time></trkpt><trkpt lat="45.6425528" lon="11.9894742"><ele>30.0</ele><time>2026-04-25T09:26:18.356Z</time></trkpt><trkpt lat="45.6424418" lon="11.9894656"><ele>30.0</ele><time>2026-04-25T09:26:20.356Z</time></trkpt><trkpt lat="45.6423244" lon="11.9894658"><ele>30.0</ele><time>2026-04-25T09:26:22.356Z</time></trkpt><trkpt lat="45.6422091" lon="11.9894522"><ele>30.0</ele><time>2026-04-25T09:26:24.356Z</time></trkpt><trkpt lat="45.6421459" lon="11.9894519"><ele>30.0</ele><time>2026-04-25T09:26:25.356Z</time></trkpt><trkpt lat="45.6420259" lon="11.9894452"><ele>30.0</ele><time>2026-04-25T09:26:27.356Z</time></trkpt><trkpt lat="45.6419022" lon="11.9894475"><ele>29.5</ele><time>2026-04-25T09:26:29.356Z</time></trkpt><trkpt lat="45.6417769" lon="11.9894466"><ele>29.0</ele><time>2026-04-25T09:26:31.356Z</time></trkpt><trkpt lat="45.6416525" lon="11.9894332"><ele>28.5</ele><time>2026-04-25T09:26:33.356Z</time></trkpt><trkpt lat="45.6415333" lon="11.9894222"><ele>28.0</ele><time>2026-04-25T09:26:35.356Z</time></trkpt><trkpt lat="45.6414164" lon="11.9894176"><ele>28.0</ele><time>2026-04-25T09:26:37.356Z</time></trkpt><trkpt lat="45.6412976" lon="11.989409"><ele>27.999999999999996</ele><time>2026-04-25T09:26:39.356Z</time></trkpt><trkpt lat="45.6411744" lon="11.9893989"><ele>27.999999999999996</ele><time>2026-04-25T09:26:41.357Z</time></trkpt><trkpt lat="45.6411106" lon="11.9893981"><ele>28.0</ele><time>2026-04-25T09:26:42.356Z</time></trkpt><trkpt lat="45.6409871" lon="11.9893872"><ele>28.0</ele><time>2026-04-25T09:26:44.356Z</time></trkpt><trkpt lat="45.6408647" lon="11.989379"><ele>27.799999999999997</ele><time>2026-04-25T09:26:46.355Z</time></trkpt><trkpt lat="45.6407414" lon="11.9893641"><ele>27.599999999999998</ele><time>2026-04-25T09:26:48.355Z</time></trkpt><trkpt lat="45.640678" lon="11.9893618"><ele>27.400000000000002</ele><time>2026-04-25T09:26:49.355Z</time></trkpt><trkpt lat="45.6406136" lon="11.989358"><ele>27.200000000000003</ele><time>2026-04-25T09:26:50.356Z</time></trkpt><trkpt lat="45.6404929" lon="11.9893545"><ele>27.0</ele><time>2026-04-25T09:26:52.356Z</time></trkpt><trkpt lat="45.6403742" lon="11.989351"><ele>27.25</ele><time>2026-04-25T09:26:54.355Z</time></trkpt><trkpt lat="45.6402575" lon="11.9893502"><ele>27.5</ele><time>2026-04-25T09:26:56.355Z</time></trkpt><trkpt lat="45.6401408" lon="11.9893446"><ele>27.75</ele><time>2026-04-25T09:26:58.355Z</time></trkpt><trkpt lat="45.6400232" lon="11.9893409"><ele>28.0</ele><time>2026-04-25T09:27:00.355Z</time></trkpt><trkpt lat="45.6399104" lon="11.9893364"><ele>28.0</ele><time>2026-04-25T09:27:02.355Z</time></trkpt><trkpt lat="45.6397924" lon="11.9893394"><ele>28.0</ele><time>2026-04-25T09:27:04.355Z</time></trkpt><trkpt lat="45.639677" lon="11.9893363"><ele>28.0</ele><time>2026-04-25T09:27:06.355Z</time></trkpt><trkpt lat="45.6395681" lon="11.9893232"><ele>28.0</ele><time>2026-04-25T09:27:08.355Z</time></trkpt><trkpt lat="45.6394605" lon="11.9893018"><ele>28.2</ele><time>2026-04-25T09:27:10.355Z</time></trkpt><trkpt lat="45.6393608" lon="11.989296"><ele>28.4</ele><time>2026-04-25T09:27:12.355Z</time></trkpt><trkpt lat="45.6392603" lon="11.9892981"><ele>28.599999999999998</ele><time>2026-04-25T09:27:14.355Z</time></trkpt><trkpt lat="45.6391527" lon="11.9892912"><ele>28.799999999999997</ele><time>2026-04-25T09:27:16.355Z</time></trkpt><trkpt lat="45.639043" lon="11.9892881"><ele>29.0</ele><time>2026-04-25T09:27:18.356Z</time></trkpt><trkpt lat="45.638942" lon="11.9892818"><ele>29.0</ele><time>2026-04-25T09:27:20.355Z</time></trkpt><trkpt lat="45.6388429" lon="11.9892738"><ele>29.0</ele><time>2026-04-25T09:27:22.355Z</time></trkpt><trkpt lat="45.638735" lon="11.98926"><ele>29.0</ele><time>2026-04-25T09:27:24.356Z</time></trkpt><trkpt lat="45.6386271" lon="11.989259"><ele>29.0</ele><time>2026-04-25T09:27:26.356Z</time></trkpt><trkpt lat="45.6385235" lon="11.9892564"><ele>29.0</ele><time>2026-04-25T09:27:28.355Z</time></trkpt><trkpt lat="45.6384216" lon="11.9892589"><ele>28.999999999999996</ele><time>2026-04-25T09:27:30.356Z</time></trkpt><trkpt lat="45.6383315" lon="11.9892659"><ele>29.0</ele><time>2026-04-25T09:27:32.356Z</time></trkpt><trkpt lat="45.6382421" lon="11.9892681"><ele>29.0</ele><time>2026-04-25T09:27:34.356Z</time></trkpt><trkpt lat="45.638174" lon="11.989268"><ele>29.0</ele><time>2026-04-25T09:27:36.355Z</time></trkpt><trkpt lat="45.6381075" lon="11.989287"><ele>28.999999999999996</ele><time>2026-04-25T09:27:39.356Z</time></trkpt><trkpt lat="45.6380665" lon="11.9893679"><ele>29.0</ele><time>2026-04-25T09:27:41.355Z</time></trkpt><trkpt lat="45.6380567" lon="11.9894948"><ele>29.0</ele><time>2026-04-25T09:27:43.355Z</time></trkpt><trkpt lat="45.6380266" lon="11.9896092"><ele>29.0</ele><time>2026-04-25T09:27:45.355Z</time></trkpt><trkpt lat="45.6380146" lon="11.9897233"><ele>29.0</ele><time>2026-04-25T09:27:47.356Z</time></trkpt><trkpt lat="45.6380026" lon="11.989856"><ele>29.0</ele><time>2026-04-25T09:27:49.356Z</time></trkpt><trkpt lat="45.6379857" lon="11.9899894"><ele>29.0</ele><time>2026-04-25T09:27:51.355Z</time></trkpt><trkpt lat="45.6379646" lon="11.9901226"><ele>28.799999999999997</ele><time>2026-04-25T09:27:53.356Z</time></trkpt><trkpt lat="45.637954" lon="11.990261"><ele>28.599999999999998</ele><time>2026-04-25T09:27:55.355Z</time></trkpt><trkpt lat="45.6379443" lon="11.9904033"><ele>28.4</ele><time>2026-04-25T09:27:57.355Z</time></trkpt><trkpt lat="45.6379344" lon="11.9905563"><ele>28.2</ele><time>2026-04-25T09:27:59.356Z</time></trkpt><trkpt lat="45.6379183" lon="11.9906968"><ele>28.0</ele><time>2026-04-25T09:28:01.355Z</time></trkpt><trkpt lat="45.637901" lon="11.9908377"><ele>28.0</ele><time>2026-04-25T09:28:03.355Z</time></trkpt><trkpt lat="45.6378893" lon="11.9909814"><ele>27.999999999999996</ele><time>2026-04-25T09:28:05.355Z</time></trkpt><trkpt lat="45.6378792" lon="11.9911214"><ele>27.999999999999996</ele><time>2026-04-25T09:28:07.356Z</time></trkpt><trkpt lat="45.6378601" lon="11.9912574"><ele>28.0</ele><time>2026-04-25T09:28:09.355Z</time></trkpt><trkpt lat="45.6378478" lon="11.9913946"><ele>28.0</ele><time>2026-04-25T09:28:11.356Z</time></trkpt><trkpt lat="45.6378249" lon="11.9915343"><ele>28.0</ele><time>2026-04-25T09:28:13.356Z</time></trkpt><trkpt lat="45.6378081" lon="11.9916676"><ele>27.999999999999996</ele><time>2026-04-25T09:28:15.355Z</time></trkpt><trkpt lat="45.6377925" lon="11.9918102"><ele>27.999999999999996</ele><time>2026-04-25T09:28:17.355Z</time></trkpt><trkpt lat="45.637778" lon="11.9919567"><ele>28.0</ele><time>2026-04-25T09:28:19.355Z</time></trkpt><trkpt lat="45.6377677" lon="11.9921019"><ele>28.0</ele><time>2026-04-25T09:28:21.355Z</time></trkpt><trkpt lat="45.6377558" lon="11.9922513"><ele>28.0</ele><time>2026-04-25T09:28:23.355Z</time></trkpt><trkpt lat="45.6377375" lon="11.9923901"><ele>27.999999999999996</ele><time>2026-04-25T09:28:25.355Z</time></trkpt><trkpt lat="45.6377282" lon="11.9925322"><ele>27.999999999999996</ele><time>2026-04-25T09:28:27.355Z</time></trkpt><trkpt lat="45.6377046" lon="11.9926756"><ele>28.0</ele><time>2026-04-25T09:28:29.356Z</time></trkpt><trkpt lat="45.6376855" lon="11.9928211"><ele>28.0</ele><time>2026-04-25T09:28:31.355Z</time></trkpt><trkpt lat="45.6376748" lon="11.9929636"><ele>28.0</ele><time>2026-04-25T09:28:33.355Z</time></trkpt><trkpt lat="45.6376633" lon="11.9931053"><ele>27.999999999999996</ele><time>2026-04-25T09:28:35.355Z</time></trkpt><trkpt lat="45.6376413" lon="11.9932484"><ele>27.999999999999996</ele><time>2026-04-25T09:28:37.355Z</time></trkpt><trkpt lat="45.6376144" lon="11.9933896"><ele>28.0</ele><time>2026-04-25T09:28:39.355Z</time></trkpt><trkpt lat="45.637595" lon="11.9935266"><ele>28.0</ele><time>2026-04-25T09:28:41.356Z</time></trkpt><trkpt lat="45.6375806" lon="11.9936664"><ele>28.000000000000004</ele><time>2026-04-25T09:28:43.355Z</time></trkpt><trkpt lat="45.6375527" lon="11.9937958"><ele>28.0</ele><time>2026-04-25T09:28:45.355Z</time></trkpt><trkpt lat="45.6375201" lon="11.9938992"><ele>28.0</ele><time>2026-04-25T09:28:47.356Z</time></trkpt><trkpt lat="45.6374971" lon="11.9940185"><ele>28.0</ele><time>2026-04-25T09:28:49.355Z</time></trkpt><trkpt lat="45.6374608" lon="11.9941306"><ele>28.000000000000004</ele><time>2026-04-25T09:28:51.355Z</time></trkpt><trkpt lat="45.6374276" lon="11.9942169"><ele>28.0</ele><time>2026-04-25T09:28:53.355Z</time></trkpt><trkpt lat="45.637404" lon="11.9943109"><ele>27.833333333333336</ele><time>2026-04-25T09:28:56.355Z</time></trkpt><trkpt lat="45.637373" lon="11.9943909"><ele>27.666666666666668</ele><time>2026-04-25T09:28:58.355Z</time></trkpt><trkpt lat="45.6373283" lon="11.9944868"><ele>27.5</ele><time>2026-04-25T09:29:00.355Z</time></trkpt><trkpt lat="45.637289" lon="11.9945782"><ele>27.333333333333336</ele><time>2026-04-25T09:29:02.355Z</time></trkpt><trkpt lat="45.6372494" lon="11.9946633"><ele>27.166666666666668</ele><time>2026-04-25T09:29:04.355Z</time></trkpt><trkpt lat="45.6372111" lon="11.99475"><ele>27.0</ele><time>2026-04-25T09:29:06.355Z</time></trkpt><trkpt lat="45.6371472" lon="11.9948532"><ele>27.0</ele><time>2026-04-25T09:29:08.355Z</time></trkpt><trkpt lat="45.6370819" lon="11.9949598"><ele>27.000000000000004</ele><time>2026-04-25T09:29:10.355Z</time></trkpt><trkpt lat="45.6370182" lon="11.9950659"><ele>27.000000000000004</ele><time>2026-04-25T09:29:12.355Z</time></trkpt><trkpt lat="45.6369501" lon="11.9951506"><ele>27.0</ele><time>2026-04-25T09:29:14.355Z</time></trkpt><trkpt lat="45.6368905" lon="11.9952473"><ele>27.0</ele><time>2026-04-25T09:29:16.355Z</time></trkpt><trkpt lat="45.6368235" lon="11.9953358"><ele>27.400000000000002</ele><time>2026-04-25T09:29:18.355Z</time></trkpt><trkpt lat="45.6367566" lon="11.9954273"><ele>27.800000000000004</ele><time>2026-04-25T09:29:20.355Z</time></trkpt><trkpt lat="45.6366852" lon="11.9954954"><ele>28.2</ele><time>2026-04-25T09:29:22.355Z</time></trkpt><trkpt lat="45.6366111" lon="11.9955767"><ele>28.6</ele><time>2026-04-25T09:29:24.355Z</time></trkpt><trkpt lat="45.6365398" lon="11.99568"><ele>29.0</ele><time>2026-04-25T09:29:26.355Z</time></trkpt><trkpt lat="45.6364613" lon="11.9957653"><ele>29.0</ele><time>2026-04-25T09:29:28.355Z</time></trkpt><trkpt lat="45.6363853" lon="11.995841"><ele>29.0</ele><time>2026-04-25T09:29:30.356Z</time></trkpt><trkpt lat="45.636312" lon="11.9959281"><ele>29.0</ele><time>2026-04-25T09:29:32.356Z</time></trkpt><trkpt lat="45.636235" lon="11.9960136"><ele>29.0</ele><time>2026-04-25T09:29:34.355Z</time></trkpt><trkpt lat="45.6361607" lon="11.9961114"><ele>29.0</ele><time>2026-04-25T09:29:36.356Z</time></trkpt><trkpt lat="45.6360935" lon="11.9962061"><ele>28.999999999999996</ele><time>2026-04-25T09:29:38.355Z</time></trkpt><trkpt lat="45.6360303" lon="11.9962824"><ele>29.0</ele><time>2026-04-25T09:29:40.355Z</time></trkpt><trkpt lat="45.6359562" lon="11.9963631"><ele>29.0</ele><time>2026-04-25T09:29:42.355Z</time></trkpt><trkpt lat="45.6358883" lon="11.9964444"><ele>29.0</ele><time>2026-04-25T09:29:44.355Z</time></trkpt><trkpt lat="45.635818" lon="11.9965234"><ele>28.999999999999996</ele><time>2026-04-25T09:29:46.355Z</time></trkpt><trkpt lat="45.6357509" lon="11.9966163"><ele>29.0</ele><time>2026-04-25T09:29:48.356Z</time></trkpt><trkpt lat="45.6356742" lon="11.9966912"><ele>29.0</ele><time>2026-04-25T09:29:50.355Z</time></trkpt><trkpt lat="45.6356004" lon="11.9967783"><ele>29.0</ele><time>2026-04-25T09:29:52.355Z</time></trkpt><trkpt lat="45.6355308" lon="11.9968788"><ele>29.0</ele><time>2026-04-25T09:29:54.355Z</time></trkpt><trkpt lat="45.6354586" lon="11.9969479"><ele>29.0</ele><time>2026-04-25T09:29:56.355Z</time></trkpt><trkpt lat="45.6353843" lon="11.9970228"><ele>29.0</ele><time>2026-04-25T09:29:58.356Z</time></trkpt><trkpt lat="45.635313" lon="11.9971113"><ele>29.0</ele><time>2026-04-25T09:30:00.355Z</time></trkpt><trkpt lat="45.6352392" lon="11.9971939"><ele>29.0</ele><time>2026-04-25T09:30:02.356Z</time></trkpt><trkpt lat="45.6351634" lon="11.9972872"><ele>29.0</ele><time>2026-04-25T09:30:04.355Z</time></trkpt><trkpt lat="45.6350814" lon="11.9973915"><ele>29.0</ele><time>2026-04-25T09:30:06.355Z</time></trkpt><trkpt lat="45.6350022" lon="11.9974878"><ele>29.0</ele><time>2026-04-25T09:30:08.356Z</time></trkpt><trkpt lat="45.6349264" lon="11.997572"><ele>29.0</ele><time>2026-04-25T09:30:10.355Z</time></trkpt><trkpt lat="45.6348503" lon="11.9976602"><ele>29.0</ele><time>2026-04-25T09:30:12.356Z</time></trkpt><trkpt lat="45.6347707" lon="11.9977541"><ele>29.0</ele><time>2026-04-25T09:30:14.355Z</time></trkpt><trkpt lat="45.6346966" lon="11.9978404"><ele>29.0</ele><time>2026-04-25T09:30:16.355Z</time></trkpt><trkpt lat="45.6346153" lon="11.9979318"><ele>29.0</ele><time>2026-04-25T09:30:18.354Z</time></trkpt><trkpt lat="45.6345322" lon="11.9980311"><ele>28.799999999999997</ele><time>2026-04-25T09:30:20.354Z</time></trkpt><trkpt lat="45.6344537" lon="11.99813"><ele>28.599999999999998</ele><time>2026-04-25T09:30:22.355Z</time></trkpt><trkpt lat="45.6343711" lon="11.9982186"><ele>28.4</ele><time>2026-04-25T09:30:24.354Z</time></trkpt><trkpt lat="45.6342935" lon="11.9983159"><ele>28.2</ele><time>2026-04-25T09:30:26.355Z</time></trkpt><trkpt lat="45.6342179" lon="11.9984085"><ele>28.0</ele><time>2026-04-25T09:30:28.354Z</time></trkpt><trkpt lat="45.6341383" lon="11.9984956"><ele>27.599999999999998</ele><time>2026-04-25T09:30:30.354Z</time></trkpt><trkpt lat="45.6340587" lon="11.9985895"><ele>27.199999999999996</ele><time>2026-04-25T09:30:32.354Z</time></trkpt><trkpt lat="45.6339789" lon="11.9986834"><ele>26.8</ele><time>2026-04-25T09:30:34.354Z</time></trkpt><trkpt lat="45.6339012" lon="11.998775"><ele>26.4</ele><time>2026-04-25T09:30:36.354Z</time></trkpt><trkpt lat="45.6338231" lon="11.9988693"><ele>26.0</ele><time>2026-04-25T09:30:38.354Z</time></trkpt><trkpt lat="45.6337444" lon="11.9989562"><ele>26.0</ele><time>2026-04-25T09:30:40.354Z</time></trkpt><trkpt lat="45.6336747" lon="11.9990413"><ele>26.0</ele><time>2026-04-25T09:30:42.355Z</time></trkpt><trkpt lat="45.6335915" lon="11.9991116"><ele>26.0</ele><time>2026-04-25T09:30:44.354Z</time></trkpt><trkpt lat="45.633489" lon="11.9991277"><ele>26.0</ele><time>2026-04-25T09:30:46.354Z</time></trkpt><trkpt lat="45.6333908" lon="11.9991047"><ele>26.0</ele><time>2026-04-25T09:30:48.354Z</time></trkpt><trkpt lat="45.6332858" lon="11.9990917"><ele>25.8</ele><time>2026-04-25T09:30:50.354Z</time></trkpt><trkpt lat="45.6331798" lon="11.9990885"><ele>25.6</ele><time>2026-04-25T09:30:52.354Z</time></trkpt><trkpt lat="45.6330769" lon="11.9990817"><ele>25.4</ele><time>2026-04-25T09:30:54.354Z</time></trkpt><trkpt lat="45.6329715" lon="11.9990858"><ele>25.2</ele><time>2026-04-25T09:30:56.354Z</time></trkpt><trkpt lat="45.6328671" lon="11.9990835"><ele>25.0</ele><time>2026-04-25T09:30:58.355Z</time></trkpt><trkpt lat="45.6327606" lon="11.9990735"><ele>25.6</ele><time>2026-04-25T09:31:00.355Z</time></trkpt><trkpt lat="45.6326581" lon="11.9990661"><ele>26.2</ele><time>2026-04-25T09:31:02.355Z</time></trkpt><trkpt lat="45.6325529" lon="11.9990571"><ele>26.799999999999997</ele><time>2026-04-25T09:31:04.354Z</time></trkpt><trkpt lat="45.6324455" lon="11.9990541"><ele>27.4</ele><time>2026-04-25T09:31:06.354Z</time></trkpt><trkpt lat="45.6323393" lon="11.999052"><ele>28.0</ele><time>2026-04-25T09:31:08.354Z</time></trkpt><trkpt lat="45.6322333" lon="11.999048"><ele>28.0</ele><time>2026-04-25T09:31:10.354Z</time></trkpt><trkpt lat="45.6321289" lon="11.9990435"><ele>27.999999999999996</ele><time>2026-04-25T09:31:12.354Z</time></trkpt><trkpt lat="45.6320236" lon="11.9990453"><ele>27.999999999999996</ele><time>2026-04-25T09:31:14.355Z</time></trkpt><trkpt lat="45.6319118" lon="11.999048"><ele>28.0</ele><time>2026-04-25T09:31:16.354Z</time></trkpt><trkpt lat="45.6318086" lon="11.9990415"><ele>28.0</ele><time>2026-04-25T09:31:18.354Z</time></trkpt><trkpt lat="45.6317006" lon="11.9990327"><ele>29.0</ele><time>2026-04-25T09:31:20.354Z</time></trkpt><trkpt lat="45.6315863" lon="11.9990251"><ele>30.0</ele><time>2026-04-25T09:31:22.354Z</time></trkpt><trkpt lat="45.6314737" lon="11.9990145"><ele>31.0</ele><time>2026-04-25T09:31:24.354Z</time></trkpt><trkpt lat="45.6313646" lon="11.9989979"><ele>32.0</ele><time>2026-04-25T09:31:26.354Z</time></trkpt><trkpt lat="45.6312465" lon="11.9989912"><ele>31.8</ele><time>2026-04-25T09:31:28.354Z</time></trkpt><trkpt lat="45.6311343" lon="11.9989868"><ele>31.6</ele><time>2026-04-25T09:31:30.355Z</time></trkpt><trkpt lat="45.6310299" lon="11.9989852"><ele>31.400000000000002</ele><time>2026-04-25T09:31:32.354Z</time></trkpt><trkpt lat="45.6309195" lon="11.998985"><ele>31.200000000000003</ele><time>2026-04-25T09:31:34.355Z</time></trkpt><trkpt lat="45.6308152" lon="11.9989901"><ele>31.0</ele><time>2026-04-25T09:31:36.354Z</time></trkpt><trkpt lat="45.6307076" lon="11.9989868"><ele>31.0</ele><time>2026-04-25T09:31:38.354Z</time></trkpt><trkpt lat="45.6306033" lon="11.9989816"><ele>31.0</ele><time>2026-04-25T09:31:40.354Z</time></trkpt><trkpt lat="45.6304999" lon="11.9989654"><ele>31.0</ele><time>2026-04-25T09:31:42.354Z</time></trkpt><trkpt lat="45.6303908" lon="11.9989635"><ele>31.0</ele><time>2026-04-25T09:31:44.354Z</time></trkpt><trkpt lat="45.6302774" lon="11.9989616"><ele>31.0</ele><time>2026-04-25T09:31:46.354Z</time></trkpt><trkpt lat="45.6301605" lon="11.9989616"><ele>30.0</ele><time>2026-04-25T09:31:48.355Z</time></trkpt><trkpt lat="45.630043" lon="11.9989634"><ele>29.0</ele><time>2026-04-25T09:31:50.354Z</time></trkpt><trkpt lat="45.6299343" lon="11.9989642"><ele>28.0</ele><time>2026-04-25T09:31:52.354Z</time></trkpt><trkpt lat="45.629829" lon="11.9989554"><ele>27.0</ele><time>2026-04-25T09:31:54.354Z</time></trkpt><trkpt lat="45.6297465" lon="11.9989389"><ele>26.0</ele><time>2026-04-25T09:31:56.354Z</time></trkpt><trkpt lat="45.6296708" lon="11.9989536"><ele>25.999999999999996</ele><time>2026-04-25T09:33:12.354Z</time></trkpt><trkpt lat="45.629597" lon="11.9989539"><ele>26.0</ele><time>2026-04-25T09:33:15.354Z</time></trkpt><trkpt lat="45.6295306" lon="11.9989524"><ele>26.0</ele><time>2026-04-25T09:33:17.355Z</time></trkpt><trkpt lat="45.6294527" lon="11.9989406"><ele>26.0</ele><time>2026-04-25T09:33:19.355Z</time></trkpt><trkpt lat="45.6293583" lon="11.9989417"><ele>25.999999999999996</ele><time>2026-04-25T09:33:21.355Z</time></trkpt><trkpt lat="45.6292666" lon="11.9989364"><ele>26.0</ele><time>2026-04-25T09:33:23.355Z</time></trkpt><trkpt lat="45.6291596" lon="11.9989324"><ele>26.0</ele><time>2026-04-25T09:33:25.354Z</time></trkpt><trkpt lat="45.6290466" lon="11.9989264"><ele>26.0</ele><time>2026-04-25T09:33:27.354Z</time></trkpt><trkpt lat="45.6289307" lon="11.9989221"><ele>26.0</ele><time>2026-04-25T09:33:29.354Z</time></trkpt><trkpt lat="45.6288095" lon="11.9989231"><ele>26.0</ele><time>2026-04-25T09:33:31.354Z</time></trkpt><trkpt lat="45.6286876" lon="11.9989213"><ele>26.0</ele><time>2026-04-25T09:33:33.354Z</time></trkpt><trkpt lat="45.6286232" lon="11.9989173"><ele>26.0</ele><time>2026-04-25T09:33:34.355Z</time></trkpt><trkpt lat="45.6285583" lon="11.9989134"><ele>26.0</ele><time>2026-04-25T09:33:35.354Z</time></trkpt><trkpt lat="45.6284894" lon="11.9989116"><ele>26.0</ele><time>2026-04-25T09:33:36.354Z</time></trkpt><trkpt lat="45.6284236" lon="11.9989038"><ele>26.0</ele><time>2026-04-25T09:33:37.354Z</time></trkpt><trkpt lat="45.628356" lon="11.9988968"><ele>26.0</ele><time>2026-04-25T09:33:38.355Z</time></trkpt><trkpt lat="45.6282825" lon="11.9988925"><ele>26.0</ele><time>2026-04-25T09:33:39.354Z</time></trkpt><trkpt lat="45.62821" lon="11.9988886"><ele>26.0</ele><time>2026-04-25T09:33:40.355Z</time></trkpt><trkpt lat="45.6281377" lon="11.9988837"><ele>26.0</ele><time>2026-04-25T09:33:41.355Z</time></trkpt><trkpt lat="45.6280684" lon="11.9988837"><ele>26.0</ele><time>2026-04-25T09:33:42.354Z</time></trkpt><trkpt lat="45.6279991" lon="11.9988795"><ele>26.0</ele><time>2026-04-25T09:33:43.355Z</time></trkpt><trkpt lat="45.6279312" lon="11.9988773"><ele>26.0</ele><time>2026-04-25T09:33:44.355Z</time></trkpt><trkpt lat="45.6278615" lon="11.9988676"><ele>26.0</ele><time>2026-04-25T09:33:45.354Z</time></trkpt><trkpt lat="45.6277939" lon="11.998864"><ele>26.0</ele><time>2026-04-25T09:33:46.354Z</time></trkpt><trkpt lat="45.6276641" lon="11.9988553"><ele>25.857142857142858</ele><time>2026-04-25T09:33:48.353Z</time></trkpt><trkpt lat="45.6275947" lon="11.9988536"><ele>25.714285714285715</ele><time>2026-04-25T09:33:49.353Z</time></trkpt><trkpt lat="45.6275286" lon="11.9988509"><ele>25.571428571428573</ele><time>2026-04-25T09:33:50.353Z</time></trkpt><trkpt lat="45.6274604" lon="11.9988525"><ele>25.42857142857143</ele><time>2026-04-25T09:33:51.353Z</time></trkpt><trkpt lat="45.6273901" lon="11.9988514"><ele>25.285714285714285</ele><time>2026-04-25T09:33:52.354Z</time></trkpt><trkpt lat="45.6273204" lon="11.9988502"><ele>25.142857142857146</ele><time>2026-04-25T09:33:53.354Z</time></trkpt><trkpt lat="45.6272483" lon="11.9988544"><ele>25.0</ele><time>2026-04-25T09:33:54.353Z</time></trkpt><trkpt lat="45.6271774" lon="11.9988533"><ele>25.000000000000004</ele><time>2026-04-25T09:33:55.353Z</time></trkpt><trkpt lat="45.6271056" lon="11.998848"><ele>25.0</ele><time>2026-04-25T09:33:56.354Z</time></trkpt><trkpt lat="45.627033" lon="11.9988422"><ele>25.0</ele><time>2026-04-25T09:33:57.353Z</time></trkpt><trkpt lat="45.6269625" lon="11.9988395"><ele>25.0</ele><time>2026-04-25T09:33:58.353Z</time></trkpt><trkpt lat="45.6268926" lon="11.9988344"><ele>25.0</ele><time>2026-04-25T09:33:59.353Z</time></trkpt><trkpt lat="45.6268211" lon="11.9988305"><ele>25.000000000000004</ele><time>2026-04-25T09:34:00.353Z</time></trkpt><trkpt lat="45.6267517" lon="11.9988303"><ele>25.0</ele><time>2026-04-25T09:34:01.353Z</time></trkpt><trkpt lat="45.6266822" lon="11.9988298"><ele>24.857142857142858</ele><time>2026-04-25T09:34:02.353Z</time></trkpt><trkpt lat="45.6266136" lon="11.9988252"><ele>24.714285714285715</ele><time>2026-04-25T09:34:03.353Z</time></trkpt><trkpt lat="45.6265435" lon="11.9988246"><ele>24.57142857142857</ele><time>2026-04-25T09:34:04.353Z</time></trkpt><trkpt lat="45.6264742" lon="11.9988207"><ele>24.42857142857143</ele><time>2026-04-25T09:34:05.353Z</time></trkpt><trkpt lat="45.6264069" lon="11.9988178"><ele>24.285714285714285</ele><time>2026-04-25T09:34:06.353Z</time></trkpt><trkpt lat="45.6263396" lon="11.9988123"><ele>24.142857142857142</ele><time>2026-04-25T09:34:07.353Z</time></trkpt><trkpt lat="45.6262731" lon="11.9988079"><ele>24.0</ele><time>2026-04-25T09:34:08.353Z</time></trkpt><trkpt lat="45.6262075" lon="11.9988037"><ele>23.857142857142854</ele><time>2026-04-25T09:34:09.354Z</time></trkpt><trkpt lat="45.6261417" lon="11.9988013"><ele>23.714285714285715</ele><time>2026-04-25T09:34:10.353Z</time></trkpt><trkpt lat="45.6260788" lon="11.9987946"><ele>23.57142857142857</ele><time>2026-04-25T09:34:11.353Z</time></trkpt><trkpt lat="45.6260124" lon="11.9987952"><ele>23.428571428571427</ele><time>2026-04-25T09:34:12.353Z</time></trkpt><trkpt lat="45.6259439" lon="11.9987919"><ele>23.285714285714285</ele><time>2026-04-25T09:34:13.353Z</time></trkpt><trkpt lat="45.6258765" lon="11.9987879"><ele>23.142857142857142</ele><time>2026-04-25T09:34:14.354Z</time></trkpt><trkpt lat="45.6258052" lon="11.9987849"><ele>23.0</ele><time>2026-04-25T09:34:15.353Z</time></trkpt><trkpt lat="45.6257369" lon="11.9987835"><ele>23.0</ele><time>2026-04-25T09:34:16.353Z</time></trkpt><trkpt lat="45.6256689" lon="11.9987802"><ele>23.0</ele><time>2026-04-25T09:34:17.354Z</time></trkpt><trkpt lat="45.6256001" lon="11.9987775"><ele>23.0</ele><time>2026-04-25T09:34:18.353Z</time></trkpt><trkpt lat="45.6255324" lon="11.9987754"><ele>23.0</ele><time>2026-04-25T09:34:19.353Z</time></trkpt><trkpt lat="45.6254636" lon="11.9987693"><ele>23.0</ele><time>2026-04-25T09:34:20.353Z</time></trkpt><trkpt lat="45.6253981" lon="11.9987685"><ele>23.0</ele><time>2026-04-25T09:34:21.353Z</time></trkpt><trkpt lat="45.6253284" lon="11.9987652"><ele>23.0</ele><time>2026-04-25T09:34:22.353Z</time></trkpt><trkpt lat="45.6252589" lon="11.9987614"><ele>23.142857142857142</ele><time>2026-04-25T09:34:23.353Z</time></trkpt><trkpt lat="45.6251939" lon="11.9987581"><ele>23.285714285714285</ele><time>2026-04-25T09:34:24.353Z</time></trkpt><trkpt lat="45.6251294" lon="11.9987554"><ele>23.428571428571427</ele><time>2026-04-25T09:34:25.353Z</time></trkpt><trkpt lat="45.6250661" lon="11.9987559"><ele>23.57142857142857</ele><time>2026-04-25T09:34:26.354Z</time></trkpt><trkpt lat="45.6249998" lon="11.9987532"><ele>23.714285714285715</ele><time>2026-04-25T09:34:27.353Z</time></trkpt><trkpt lat="45.6249324" lon="11.9987497"><ele>23.857142857142854</ele><time>2026-04-25T09:34:28.353Z</time></trkpt><trkpt lat="45.624863" lon="11.9987463"><ele>24.0</ele><time>2026-04-25T09:34:29.353Z</time></trkpt><trkpt lat="45.624797" lon="11.9987428"><ele>23.999999999999996</ele><time>2026-04-25T09:34:30.354Z</time></trkpt><trkpt lat="45.6247277" lon="11.9987405"><ele>24.0</ele><time>2026-04-25T09:34:31.354Z</time></trkpt><trkpt lat="45.6246537" lon="11.9987431"><ele>24.0</ele><time>2026-04-25T09:34:32.353Z</time></trkpt><trkpt lat="45.6245842" lon="11.9987375"><ele>24.0</ele><time>2026-04-25T09:34:33.353Z</time></trkpt><trkpt lat="45.6245145" lon="11.9987337"><ele>24.0</ele><time>2026-04-25T09:34:34.353Z</time></trkpt><trkpt lat="45.6244455" lon="11.9987319"><ele>23.999999999999996</ele><time>2026-04-25T09:34:35.353Z</time></trkpt><trkpt lat="45.6243754" lon="11.9987322"><ele>24.0</ele><time>2026-04-25T09:34:36.353Z</time></trkpt><trkpt lat="45.6243056" lon="11.9987295"><ele>24.142857142857142</ele><time>2026-04-25T09:34:37.353Z</time></trkpt><trkpt lat="45.6242357" lon="11.9987254"><ele>24.285714285714285</ele><time>2026-04-25T09:34:38.353Z</time></trkpt><trkpt lat="45.6241668" lon="11.9987267"><ele>24.42857142857143</ele><time>2026-04-25T09:34:39.354Z</time></trkpt><trkpt lat="45.6240969" lon="11.9987215"><ele>24.57142857142857</ele><time>2026-04-25T09:34:40.353Z</time></trkpt><trkpt lat="45.624025" lon="11.99872"><ele>24.714285714285715</ele><time>2026-04-25T09:34:41.353Z</time></trkpt><trkpt lat="45.6239547" lon="11.9987164"><ele>24.857142857142858</ele><time>2026-04-25T09:34:42.353Z</time></trkpt><trkpt lat="45.6238829" lon="11.9987123"><ele>25.0</ele><time>2026-04-25T09:34:43.354Z</time></trkpt><trkpt lat="45.6238093" lon="11.9987132"><ele>25.000000000000004</ele><time>2026-04-25T09:34:44.354Z</time></trkpt><trkpt lat="45.6237378" lon="11.9987082"><ele>25.0</ele><time>2026-04-25T09:34:45.354Z</time></trkpt><trkpt lat="45.6236656" lon="11.9987026"><ele>25.0</ele><time>2026-04-25T09:34:46.353Z</time></trkpt><trkpt lat="45.6235953" lon="11.9986987"><ele>25.0</ele><time>2026-04-25T09:34:47.353Z</time></trkpt><trkpt lat="45.6235204" lon="11.9987004"><ele>25.0</ele><time>2026-04-25T09:34:48.353Z</time></trkpt><trkpt lat="45.6234466" lon="11.9986988"><ele>25.000000000000004</ele><time>2026-04-25T09:34:49.353Z</time></trkpt><trkpt lat="45.6233739" lon="11.9986939"><ele>25.0</ele><time>2026-04-25T09:34:50.353Z</time></trkpt><trkpt lat="45.6232999" lon="11.9986896"><ele>24.857142857142858</ele><time>2026-04-25T09:34:51.353Z</time></trkpt><trkpt lat="45.6232305" lon="11.9986868"><ele>24.714285714285715</ele><time>2026-04-25T09:34:52.354Z</time></trkpt><trkpt lat="45.6231633" lon="11.9986826"><ele>24.57142857142857</ele><time>2026-04-25T09:34:53.354Z</time></trkpt><trkpt lat="45.6230927" lon="11.9986776"><ele>24.42857142857143</ele><time>2026-04-25T09:34:54.353Z</time></trkpt><trkpt lat="45.6230239" lon="11.9986717"><ele>24.285714285714285</ele><time>2026-04-25T09:34:55.353Z</time></trkpt><trkpt lat="45.6229527" lon="11.9986671"><ele>24.142857142857142</ele><time>2026-04-25T09:34:56.353Z</time></trkpt><trkpt lat="45.6228788" lon="11.9986666"><ele>24.0</ele><time>2026-04-25T09:34:57.353Z</time></trkpt><trkpt lat="45.622807" lon="11.9986667"><ele>23.999999999999996</ele><time>2026-04-25T09:34:58.354Z</time></trkpt><trkpt lat="45.6227344" lon="11.9986684"><ele>24.0</ele><time>2026-04-25T09:34:59.353Z</time></trkpt><trkpt lat="45.6226635" lon="11.9986611"><ele>24.0</ele><time>2026-04-25T09:35:00.353Z</time></trkpt><trkpt lat="45.6225916" lon="11.9986551"><ele>24.0</ele><time>2026-04-25T09:35:01.353Z</time></trkpt><trkpt lat="45.6225184" lon="11.9986555"><ele>24.0</ele><time>2026-04-25T09:35:02.353Z</time></trkpt><trkpt lat="45.6224457" lon="11.9986544"><ele>23.999999999999996</ele><time>2026-04-25T09:35:03.354Z</time></trkpt><trkpt lat="45.6223726" lon="11.9986472"><ele>24.0</ele><time>2026-04-25T09:35:04.353Z</time></trkpt><trkpt lat="45.6223012" lon="11.9986504"><ele>23.999999999999996</ele><time>2026-04-25T09:35:05.353Z</time></trkpt><trkpt lat="45.6222299" lon="11.998649"><ele>24.0</ele><time>2026-04-25T09:35:06.353Z</time></trkpt><trkpt lat="45.6221536" lon="11.9986479"><ele>24.0</ele><time>2026-04-25T09:35:07.353Z</time></trkpt><trkpt lat="45.6220815" lon="11.9986464"><ele>24.0</ele><time>2026-04-25T09:35:08.353Z</time></trkpt><trkpt lat="45.6220094" lon="11.9986481"><ele>24.0</ele><time>2026-04-25T09:35:09.354Z</time></trkpt><trkpt lat="45.6219383" lon="11.9986453"><ele>23.999999999999996</ele><time>2026-04-25T09:35:10.353Z</time></trkpt><trkpt lat="45.6218662" lon="11.9986418"><ele>24.0</ele><time>2026-04-25T09:35:11.354Z</time></trkpt><trkpt lat="45.6217946" lon="11.9986403"><ele>24.142857142857142</ele><time>2026-04-25T09:35:12.354Z</time></trkpt><trkpt lat="45.6217209" lon="11.9986397"><ele>24.285714285714285</ele><time>2026-04-25T09:35:13.353Z</time></trkpt><trkpt lat="45.621652" lon="11.9986383"><ele>24.42857142857143</ele><time>2026-04-25T09:35:14.353Z</time></trkpt><trkpt lat="45.6215802" lon="11.9986382"><ele>24.57142857142857</ele><time>2026-04-25T09:35:15.353Z</time></trkpt><trkpt lat="45.6215093" lon="11.9986406"><ele>24.714285714285715</ele><time>2026-04-25T09:35:16.353Z</time></trkpt><trkpt lat="45.6214348" lon="11.9986404"><ele>24.857142857142858</ele><time>2026-04-25T09:35:17.354Z</time></trkpt><trkpt lat="45.6213636" lon="11.9986393"><ele>25.0</ele><time>2026-04-25T09:35:18.353Z</time></trkpt><trkpt lat="45.6212922" lon="11.998636"><ele>25.000000000000004</ele><time>2026-04-25T09:35:19.353Z</time></trkpt><trkpt lat="45.6212201" lon="11.9986335"><ele>25.0</ele><time>2026-04-25T09:35:20.353Z</time></trkpt><trkpt lat="45.621147" lon="11.9986297"><ele>25.0</ele><time>2026-04-25T09:35:21.353Z</time></trkpt><trkpt lat="45.6210758" lon="11.9986262"><ele>25.0</ele><time>2026-04-25T09:35:22.354Z</time></trkpt><trkpt lat="45.6210098" lon="11.9986197"><ele>25.0</ele><time>2026-04-25T09:35:23.353Z</time></trkpt><trkpt lat="45.6209384" lon="11.9986164"><ele>25.000000000000004</ele><time>2026-04-25T09:35:24.353Z</time></trkpt><trkpt lat="45.6208683" lon="11.9986169"><ele>25.0</ele><time>2026-04-25T09:35:25.353Z</time></trkpt><trkpt lat="45.6208004" lon="11.9986128"><ele>24.571428571428573</ele><time>2026-04-25T09:35:26.353Z</time></trkpt><trkpt lat="45.6207347" lon="11.9986076"><ele>24.142857142857142</ele><time>2026-04-25T09:35:27.353Z</time></trkpt><trkpt lat="45.6206663" lon="11.9986055"><ele>23.714285714285715</ele><time>2026-04-25T09:35:28.354Z</time></trkpt><trkpt lat="45.6205976" lon="11.9986039"><ele>23.285714285714285</ele><time>2026-04-25T09:35:29.353Z</time></trkpt><trkpt lat="45.620529" lon="11.9986034"><ele>22.857142857142858</ele><time>2026-04-25T09:35:30.353Z</time></trkpt><trkpt lat="45.6204581" lon="11.9986013"><ele>22.42857142857143</ele><time>2026-04-25T09:35:31.354Z</time></trkpt><trkpt lat="45.6203883" lon="11.9985934"><ele>22.0</ele><time>2026-04-25T09:35:32.354Z</time></trkpt><trkpt lat="45.6203227" lon="11.9985886"><ele>22.142857142857142</ele><time>2026-04-25T09:35:33.353Z</time></trkpt><trkpt lat="45.6202535" lon="11.9985807"><ele>22.285714285714285</ele><time>2026-04-25T09:35:34.354Z</time></trkpt><trkpt lat="45.6201802" lon="11.9985798"><ele>22.42857142857143</ele><time>2026-04-25T09:35:35.354Z</time></trkpt><trkpt lat="45.6201105" lon="11.9985807"><ele>22.57142857142857</ele><time>2026-04-25T09:35:36.353Z</time></trkpt><trkpt lat="45.6200422" lon="11.998579"><ele>22.71428571428571</ele><time>2026-04-25T09:35:37.353Z</time></trkpt><trkpt lat="45.6199704" lon="11.9985703"><ele>22.857142857142858</ele><time>2026-04-25T09:35:38.353Z</time></trkpt><trkpt lat="45.6199014" lon="11.9985584"><ele>23.0</ele><time>2026-04-25T09:35:39.353Z</time></trkpt><trkpt lat="45.6198326" lon="11.9985547"><ele>23.0</ele><time>2026-04-25T09:35:40.353Z</time></trkpt><trkpt lat="45.6197625" lon="11.9985519"><ele>23.0</ele><time>2026-04-25T09:35:41.353Z</time></trkpt><trkpt lat="45.6196886" lon="11.9985467"><ele>23.0</ele><time>2026-04-25T09:35:42.353Z</time></trkpt><trkpt lat="45.6196189" lon="11.9985449"><ele>23.0</ele><time>2026-04-25T09:35:43.353Z</time></trkpt><trkpt lat="45.6195499" lon="11.9985362"><ele>23.0</ele><time>2026-04-25T09:35:44.354Z</time></trkpt><trkpt lat="45.6194803" lon="11.998533"><ele>23.0</ele><time>2026-04-25T09:35:45.353Z</time></trkpt><trkpt lat="45.6194074" lon="11.9985268"><ele>23.0</ele><time>2026-04-25T09:35:46.353Z</time></trkpt><trkpt lat="45.6193356" lon="11.9985261"><ele>23.166666666666668</ele><time>2026-04-25T09:35:47.353Z</time></trkpt><trkpt lat="45.6192642" lon="11.9985188"><ele>23.333333333333336</ele><time>2026-04-25T09:35:48.353Z</time></trkpt><trkpt lat="45.6191974" lon="11.9985151"><ele>23.5</ele><time>2026-04-25T09:35:49.353Z</time></trkpt><trkpt lat="45.6191315" lon="11.9985148"><ele>23.666666666666668</ele><time>2026-04-25T09:35:50.353Z</time></trkpt><trkpt lat="45.619066" lon="11.9985107"><ele>23.833333333333332</ele><time>2026-04-25T09:35:51.353Z</time></trkpt><trkpt lat="45.6189378" lon="11.9985075"><ele>24.0</ele><time>2026-04-25T09:35:53.353Z</time></trkpt><trkpt lat="45.6188748" lon="11.9985028"><ele>24.0</ele><time>2026-04-25T09:35:54.354Z</time></trkpt><trkpt lat="45.6188108" lon="11.9984969"><ele>24.0</ele><time>2026-04-25T09:35:55.354Z</time></trkpt><trkpt lat="45.6186863" lon="11.9984846"><ele>24.0</ele><time>2026-04-25T09:35:57.353Z</time></trkpt><trkpt lat="45.618622" lon="11.9984774"><ele>24.0</ele><time>2026-04-25T09:35:58.354Z</time></trkpt><trkpt lat="45.6185542" lon="11.9984701"><ele>24.0</ele><time>2026-04-25T09:35:59.353Z</time></trkpt><trkpt lat="45.6184901" lon="11.9984625"><ele>24.0</ele><time>2026-04-25T09:36:00.353Z</time></trkpt><trkpt lat="45.618425" lon="11.9984507"><ele>24.0</ele><time>2026-04-25T09:36:01.353Z</time></trkpt><trkpt lat="45.6183011" lon="11.998443"><ele>24.0</ele><time>2026-04-25T09:36:03.353Z</time></trkpt><trkpt lat="45.6181746" lon="11.9984496"><ele>24.0</ele><time>2026-04-25T09:36:05.353Z</time></trkpt><trkpt lat="45.6181077" lon="11.9984462"><ele>24.0</ele><time>2026-04-25T09:36:06.353Z</time></trkpt><trkpt lat="45.6180429" lon="11.9984459"><ele>24.0</ele><time>2026-04-25T09:36:07.353Z</time></trkpt><trkpt lat="45.6179774" lon="11.9984423"><ele>24.0</ele><time>2026-04-25T09:36:08.353Z</time></trkpt><trkpt lat="45.6178549" lon="11.9984284"><ele>24.0</ele><time>2026-04-25T09:36:10.353Z</time></trkpt><trkpt lat="45.6177901" lon="11.9984283"><ele>24.0</ele><time>2026-04-25T09:36:11.353Z</time></trkpt><trkpt lat="45.6176726" lon="11.9984134"><ele>24.0</ele><time>2026-04-25T09:36:13.354Z</time></trkpt><trkpt lat="45.6175628" lon="11.9984026"><ele>24.0</ele><time>2026-04-25T09:36:15.353Z</time></trkpt><trkpt lat="45.617451" lon="11.9983873"><ele>24.0</ele><time>2026-04-25T09:36:17.354Z</time></trkpt><trkpt lat="45.6173537" lon="11.9983857"><ele>24.0</ele><time>2026-04-25T09:36:19.353Z</time></trkpt><trkpt lat="45.6172616" lon="11.9983863"><ele>24.0</ele><time>2026-04-25T09:36:21.353Z</time></trkpt><trkpt lat="45.6171786" lon="11.998388"><ele>24.0</ele><time>2026-04-25T09:36:23.353Z</time></trkpt><trkpt lat="45.617092" lon="11.9983798"><ele>24.0</ele><time>2026-04-25T09:36:25.353Z</time></trkpt><trkpt lat="45.6169969" lon="11.9983729"><ele>24.0</ele><time>2026-04-25T09:36:27.353Z</time></trkpt><trkpt lat="45.6168988" lon="11.9983579"><ele>24.0</ele><time>2026-04-25T09:36:29.353Z</time></trkpt><trkpt lat="45.6167937" lon="11.9983487"><ele>24.0</ele><time>2026-04-25T09:36:31.354Z</time></trkpt><trkpt lat="45.6167018" lon="11.9983361"><ele>24.0</ele><time>2026-04-25T09:36:33.353Z</time></trkpt><trkpt lat="45.6166098" lon="11.9983328"><ele>24.0</ele><time>2026-04-25T09:36:35.353Z</time></trkpt><trkpt lat="45.6165179" lon="11.9983325"><ele>24.0</ele><time>2026-04-25T09:36:37.353Z</time></trkpt><trkpt lat="45.6164279" lon="11.9983303"><ele>24.0</ele><time>2026-04-25T09:36:39.353Z</time></trkpt><trkpt lat="45.6163358" lon="11.9983335"><ele>24.0</ele><time>2026-04-25T09:36:41.353Z</time></trkpt><trkpt lat="45.6162509" lon="11.9983244"><ele>24.0</ele><time>2026-04-25T09:36:43.354Z</time></trkpt><trkpt lat="45.6161649" lon="11.9983237"><ele>24.0</ele><time>2026-04-25T09:36:45.353Z</time></trkpt><trkpt lat="45.6160763" lon="11.9983144"><ele>24.0</ele><time>2026-04-25T09:36:47.353Z</time></trkpt><trkpt lat="45.6159854" lon="11.9983151"><ele>24.0</ele><time>2026-04-25T09:36:49.354Z</time></trkpt><trkpt lat="45.6158962" lon="11.9983012"><ele>24.166666666666668</ele><time>2026-04-25T09:36:51.353Z</time></trkpt><trkpt lat="45.6158128" lon="11.9982887"><ele>24.333333333333336</ele><time>2026-04-25T09:36:53.354Z</time></trkpt><trkpt lat="45.6157293" lon="11.9982909"><ele>24.5</ele><time>2026-04-25T09:36:56.353Z</time></trkpt><trkpt lat="45.6156645" lon="11.9982853"><ele>24.666666666666668</ele><time>2026-04-25T09:36:59.353Z</time></trkpt><trkpt lat="45.615585" lon="11.998291"><ele>24.833333333333336</ele><time>2026-04-25T09:37:28.352Z</time></trkpt><trkpt lat="45.615509" lon="11.9982792"><ele>25.0</ele><time>2026-04-25T09:37:31.352Z</time></trkpt><trkpt lat="45.6154222" lon="11.9982196"><ele>25.000000000000004</ele><time>2026-04-25T09:37:34.352Z</time></trkpt><trkpt lat="45.6153633" lon="11.9981848"><ele>25.0</ele><time>2026-04-25T09:37:36.352Z</time></trkpt><trkpt lat="45.6152922" lon="11.9981875"><ele>25.0</ele><time>2026-04-25T09:37:38.352Z</time></trkpt><trkpt lat="45.6152129" lon="11.99821"><ele>25.0</ele><time>2026-04-25T09:37:40.352Z</time></trkpt><trkpt lat="45.6151409" lon="11.9982419"><ele>25.0</ele><time>2026-04-25T09:37:42.352Z</time></trkpt><trkpt lat="45.615061" lon="11.9982524"><ele>25.000000000000004</ele><time>2026-04-25T09:37:44.352Z</time></trkpt><trkpt lat="45.6149897" lon="11.9982429"><ele>25.0</ele><time>2026-04-25T09:37:46.352Z</time></trkpt><trkpt lat="45.6149113" lon="11.9982389"><ele>24.8</ele><time>2026-04-25T09:37:48.352Z</time></trkpt><trkpt lat="45.614829" lon="11.9982282"><ele>24.6</ele><time>2026-04-25T09:37:50.352Z</time></trkpt><trkpt lat="45.6147368" lon="11.998231"><ele>24.4</ele><time>2026-04-25T09:37:52.353Z</time></trkpt><trkpt lat="45.614643" lon="11.9982162"><ele>24.2</ele><time>2026-04-25T09:37:54.352Z</time></trkpt><trkpt lat="45.6145498" lon="11.9982205"><ele>24.0</ele><time>2026-04-25T09:37:56.353Z</time></trkpt><trkpt lat="45.6144562" lon="11.9982223"><ele>23.799999999999997</ele><time>2026-04-25T09:37:58.352Z</time></trkpt><trkpt lat="45.6143554" lon="11.9982148"><ele>23.599999999999998</ele><time>2026-04-25T09:38:00.352Z</time></trkpt><trkpt lat="45.6142621" lon="11.9982036"><ele>23.4</ele><time>2026-04-25T09:38:02.352Z</time></trkpt><trkpt lat="45.6141718" lon="11.9981973"><ele>23.2</ele><time>2026-04-25T09:38:04.352Z</time></trkpt><trkpt lat="45.6140876" lon="11.9981903"><ele>23.0</ele><time>2026-04-25T09:38:06.353Z</time></trkpt><trkpt lat="45.613997" lon="11.998199"><ele>23.0</ele><time>2026-04-25T09:38:08.352Z</time></trkpt><trkpt lat="45.6138999" lon="11.9981916"><ele>23.0</ele><time>2026-04-25T09:38:10.352Z</time></trkpt><trkpt lat="45.6137959" lon="11.9981796"><ele>23.0</ele><time>2026-04-25T09:38:12.352Z</time></trkpt><trkpt lat="45.6136977" lon="11.9981683"><ele>23.0</ele><time>2026-04-25T09:38:14.353Z</time></trkpt><trkpt lat="45.6136062" lon="11.9981626"><ele>23.0</ele><time>2026-04-25T09:38:16.352Z</time></trkpt><trkpt lat="45.6135134" lon="11.9981464"><ele>23.4</ele><time>2026-04-25T09:38:18.353Z</time></trkpt><trkpt lat="45.6134231" lon="11.9981307"><ele>23.799999999999997</ele><time>2026-04-25T09:38:20.352Z</time></trkpt><trkpt lat="45.6133365" lon="11.9981298"><ele>24.2</ele><time>2026-04-25T09:38:22.352Z</time></trkpt><trkpt lat="45.6132457" lon="11.9981227"><ele>24.6</ele><time>2026-04-25T09:38:24.352Z</time></trkpt><trkpt lat="45.6131483" lon="11.9981222"><ele>25.0</ele><time>2026-04-25T09:38:26.353Z</time></trkpt><trkpt lat="45.6130558" lon="11.9981124"><ele>25.0</ele><time>2026-04-25T09:38:28.352Z</time></trkpt><trkpt lat="45.6129574" lon="11.9981082"><ele>25.0</ele><time>2026-04-25T09:38:30.353Z</time></trkpt><trkpt lat="45.6128541" lon="11.998114"><ele>25.0</ele><time>2026-04-25T09:38:32.352Z</time></trkpt><trkpt lat="45.6127556" lon="11.9981111"><ele>25.0</ele><time>2026-04-25T09:38:34.352Z</time></trkpt><trkpt lat="45.6126607" lon="11.9981056"><ele>25.0</ele><time>2026-04-25T09:38:36.352Z</time></trkpt><trkpt lat="45.6125673" lon="11.9981033"><ele>25.166666666666668</ele><time>2026-04-25T09:38:38.352Z</time></trkpt><trkpt lat="45.6124819" lon="11.9981038"><ele>25.333333333333336</ele><time>2026-04-25T09:38:40.352Z</time></trkpt><trkpt lat="45.612402" lon="11.9981222"><ele>25.5</ele><time>2026-04-25T09:38:42.352Z</time></trkpt><trkpt lat="45.6123181" lon="11.998131"><ele>25.666666666666664</ele><time>2026-04-25T09:38:44.352Z</time></trkpt><trkpt lat="45.6122319" lon="11.9981269"><ele>25.833333333333332</ele><time>2026-04-25T09:38:46.353Z</time></trkpt><trkpt lat="45.6121469" lon="11.998159"><ele>26.0</ele><time>2026-04-25T09:38:48.352Z</time></trkpt><trkpt lat="45.6120747" lon="11.9981579"><ele>25.999999999999996</ele><time>2026-04-25T09:38:50.352Z</time></trkpt><trkpt lat="45.6119993" lon="11.998156"><ele>26.0</ele><time>2026-04-25T09:38:52.353Z</time></trkpt><trkpt lat="45.6119024" lon="11.9981408"><ele>26.0</ele><time>2026-04-25T09:38:54.352Z</time></trkpt><trkpt lat="45.6118016" lon="11.9981372"><ele>26.0</ele><time>2026-04-25T09:38:56.352Z</time></trkpt><trkpt lat="45.6116926" lon="11.9981246"><ele>25.999999999999996</ele><time>2026-04-25T09:38:58.352Z</time></trkpt><trkpt lat="45.6116294" lon="11.9981206"><ele>26.0</ele><time>2026-04-25T09:38:59.352Z</time></trkpt><trkpt lat="45.6115643" lon="11.9981135"><ele>26.0</ele><time>2026-04-25T09:39:00.352Z</time></trkpt><trkpt lat="45.611444" lon="11.9981085"><ele>26.0</ele><time>2026-04-25T09:39:02.352Z</time></trkpt><trkpt lat="45.6113758" lon="11.998102"><ele>26.0</ele><time>2026-04-25T09:39:03.352Z</time></trkpt><trkpt lat="45.6112984" lon="11.9981019"><ele>26.0</ele><time>2026-04-25T09:39:04.352Z</time></trkpt><trkpt lat="45.6112222" lon="11.9981111"><ele>26.0</ele><time>2026-04-25T09:39:05.353Z</time></trkpt><trkpt lat="45.6110868" lon="11.9982295"><ele>25.8</ele><time>2026-04-25T09:39:08.352Z</time></trkpt><trkpt lat="45.6110005" lon="11.9981614"><ele>25.6</ele><time>2026-04-25T09:39:09.352Z</time></trkpt><trkpt lat="45.6109257" lon="11.9981235"><ele>25.4</ele><time>2026-04-25T09:39:10.352Z</time></trkpt><trkpt lat="45.6108461" lon="11.9981216"><ele>25.2</ele><time>2026-04-25T09:39:11.352Z</time></trkpt><trkpt lat="45.610734" lon="11.9980696"><ele>25.0</ele><time>2026-04-25T09:39:13.352Z</time></trkpt><trkpt lat="45.610641" lon="11.9980723"><ele>25.000000000000004</ele><time>2026-04-25T09:39:15.352Z</time></trkpt><trkpt lat="45.6105501" lon="11.9980823"><ele>25.0</ele><time>2026-04-25T09:39:17.353Z</time></trkpt><trkpt lat="45.6104672" lon="11.99807"><ele>25.0</ele><time>2026-04-25T09:39:19.353Z</time></trkpt><trkpt lat="45.6104044" lon="11.9980603"><ele>25.0</ele><time>2026-04-25T09:39:21.353Z</time></trkpt><trkpt lat="45.6103171" lon="11.9980166"><ele>25.000000000000004</ele><time>2026-04-25T09:39:24.352Z</time></trkpt><trkpt lat="45.6102414" lon="11.9979637"><ele>25.0</ele><time>2026-04-25T09:39:26.352Z</time></trkpt><trkpt lat="45.6101498" lon="11.9979367"><ele>25.2</ele><time>2026-04-25T09:39:28.352Z</time></trkpt><trkpt lat="45.6100515" lon="11.9979338"><ele>25.4</ele><time>2026-04-25T09:39:30.352Z</time></trkpt><trkpt lat="45.609949" lon="11.9979293"><ele>25.6</ele><time>2026-04-25T09:39:32.352Z</time></trkpt><trkpt lat="45.6098447" lon="11.997929"><ele>25.8</ele><time>2026-04-25T09:39:34.352Z</time></trkpt><trkpt lat="45.6097745" lon="11.9978295"><ele>26.0</ele><time>2026-04-25T09:39:36.352Z</time></trkpt><trkpt lat="45.6097953" lon="11.9976924"><ele>26.0</ele><time>2026-04-25T09:39:38.352Z</time></trkpt><trkpt lat="45.609824" lon="11.9975773"><ele>26.0</ele><time>2026-04-25T09:39:40.353Z</time></trkpt><trkpt lat="45.6098444" lon="11.9974459"><ele>26.0</ele><time>2026-04-25T09:39:42.352Z</time></trkpt><trkpt lat="45.6098549" lon="11.9973225"><ele>26.0</ele><time>2026-04-25T09:39:44.352Z</time></trkpt><trkpt lat="45.609859" lon="11.997184"><ele>26.0</ele><time>2026-04-25T09:39:46.352Z</time></trkpt><trkpt lat="45.6098606" lon="11.9970358"><ele>25.8</ele><time>2026-04-25T09:39:48.352Z</time></trkpt><trkpt lat="45.6098609" lon="11.9968901"><ele>25.6</ele><time>2026-04-25T09:39:50.352Z</time></trkpt><trkpt lat="45.6098702" lon="11.9967624"><ele>25.4</ele><time>2026-04-25T09:39:52.352Z</time></trkpt><trkpt lat="45.6098801" lon="11.9966329"><ele>25.2</ele><time>2026-04-25T09:39:54.352Z</time></trkpt><trkpt lat="45.6098754" lon="11.9965123"><ele>25.0</ele><time>2026-04-25T09:39:56.352Z</time></trkpt><trkpt lat="45.6098705" lon="11.9963926"><ele>25.0</ele><time>2026-04-25T09:39:58.352Z</time></trkpt><trkpt lat="45.6098679" lon="11.9962577"><ele>25.0</ele><time>2026-04-25T09:40:00.352Z</time></trkpt><trkpt lat="45.6098707" lon="11.9961121"><ele>25.0</ele><time>2026-04-25T09:40:02.352Z</time></trkpt><trkpt lat="45.6098771" lon="11.9959647"><ele>25.0</ele><time>2026-04-25T09:40:04.352Z</time></trkpt><trkpt lat="45.6098781" lon="11.9958311"><ele>25.0</ele><time>2026-04-25T09:40:06.352Z</time></trkpt><trkpt lat="45.6098868" lon="11.9956982"><ele>25.2</ele><time>2026-04-25T09:40:08.353Z</time></trkpt><trkpt lat="45.6098919" lon="11.9955828"><ele>25.4</ele><time>2026-04-25T09:40:10.353Z</time></trkpt><trkpt lat="45.6098894" lon="11.9954518"><ele>25.6</ele><time>2026-04-25T09:40:12.352Z</time></trkpt><trkpt lat="45.6098894" lon="11.9953204"><ele>25.8</ele><time>2026-04-25T09:40:14.352Z</time></trkpt><trkpt lat="45.6098898" lon="11.99518"><ele>26.0</ele><time>2026-04-25T09:40:16.353Z</time></trkpt><trkpt lat="45.6098855" lon="11.9950469"><ele>26.0</ele><time>2026-04-25T09:40:18.352Z</time></trkpt><trkpt lat="45.609893" lon="11.994921"><ele>26.0</ele><time>2026-04-25T09:40:20.352Z</time></trkpt><trkpt lat="45.6098832" lon="11.9947687"><ele>26.0</ele><time>2026-04-25T09:40:22.352Z</time></trkpt><trkpt lat="45.6098782" lon="11.9946296"><ele>26.0</ele><time>2026-04-25T09:40:24.352Z</time></trkpt><trkpt lat="45.6098855" lon="11.9944958"><ele>26.0</ele><time>2026-04-25T09:40:26.352Z</time></trkpt><trkpt lat="45.6098803" lon="11.9943632"><ele>26.0</ele><time>2026-04-25T09:40:28.352Z</time></trkpt><trkpt lat="45.6098699" lon="11.994231"><ele>26.0</ele><time>2026-04-25T09:40:30.352Z</time></trkpt><trkpt lat="45.6098653" lon="11.9940831"><ele>26.0</ele><time>2026-04-25T09:40:32.352Z</time></trkpt><trkpt lat="45.6098596" lon="11.9939217"><ele>26.0</ele><time>2026-04-25T09:40:34.352Z</time></trkpt><trkpt lat="45.6098573" lon="11.9937503"><ele>26.0</ele><time>2026-04-25T09:40:36.352Z</time></trkpt><trkpt lat="45.6098582" lon="11.993572"><ele>25.6</ele><time>2026-04-25T09:40:38.352Z</time></trkpt><trkpt lat="45.6098646" lon="11.9934155"><ele>25.200000000000003</ele><time>2026-04-25T09:40:40.352Z</time></trkpt><trkpt lat="45.6098691" lon="11.9932554"><ele>24.799999999999997</ele><time>2026-04-25T09:40:42.352Z</time></trkpt><trkpt lat="45.6098737" lon="11.993103"><ele>24.4</ele><time>2026-04-25T09:40:44.352Z</time></trkpt><trkpt lat="45.6098697" lon="11.99296"><ele>24.0</ele><time>2026-04-25T09:40:46.353Z</time></trkpt><trkpt lat="45.6098765" lon="11.9928287"><ele>24.0</ele><time>2026-04-25T09:40:48.353Z</time></trkpt><trkpt lat="45.6098822" lon="11.9927002"><ele>24.0</ele><time>2026-04-25T09:40:50.352Z</time></trkpt><trkpt lat="45.6098926" lon="11.9925703"><ele>24.0</ele><time>2026-04-25T09:40:52.352Z</time></trkpt><trkpt lat="45.6099019" lon="11.9924275"><ele>24.0</ele><time>2026-04-25T09:40:54.352Z</time></trkpt><trkpt lat="45.6098922" lon="11.992296"><ele>24.0</ele><time>2026-04-25T09:40:56.352Z</time></trkpt><trkpt lat="45.6098577" lon="11.9921699"><ele>24.2</ele><time>2026-04-25T09:40:58.351Z</time></trkpt><trkpt lat="45.6097628" lon="11.9921718"><ele>24.4</ele><time>2026-04-25T09:41:00.351Z</time></trkpt><trkpt lat="45.6096684" lon="11.9922095"><ele>24.6</ele><time>2026-04-25T09:41:02.351Z</time></trkpt><trkpt lat="45.6095702" lon="11.9922608"><ele>24.8</ele><time>2026-04-25T09:41:04.352Z</time></trkpt><trkpt lat="45.6094726" lon="11.9922955"><ele>25.0</ele><time>2026-04-25T09:41:06.351Z</time></trkpt><trkpt lat="45.6093771" lon="11.9922879"><ele>25.0</ele><time>2026-04-25T09:41:08.351Z</time></trkpt><trkpt lat="45.6092796" lon="11.992281"><ele>25.0</ele><time>2026-04-25T09:41:10.351Z</time></trkpt><trkpt lat="45.6091768" lon="11.992279"><ele>25.0</ele><time>2026-04-25T09:41:12.351Z</time></trkpt><trkpt lat="45.6090777" lon="11.9922725"><ele>25.0</ele><time>2026-04-25T09:41:14.351Z</time></trkpt><trkpt lat="45.6089809" lon="11.992277"><ele>25.0</ele><time>2026-04-25T09:41:16.351Z</time></trkpt><trkpt lat="45.6088897" lon="11.9922677"><ele>25.000000000000004</ele><time>2026-04-25T09:41:18.351Z</time></trkpt><trkpt lat="45.6088032" lon="11.9922613"><ele>25.0</ele><time>2026-04-25T09:41:20.351Z</time></trkpt><trkpt lat="45.6087113" lon="11.992267"><ele>25.0</ele><time>2026-04-25T09:41:22.351Z</time></trkpt><trkpt lat="45.608623" lon="11.9922519"><ele>25.0</ele><time>2026-04-25T09:41:24.351Z</time></trkpt><trkpt lat="45.6085446" lon="11.9922164"><ele>25.000000000000004</ele><time>2026-04-25T09:41:26.351Z</time></trkpt><trkpt lat="45.6084711" lon="11.9921555"><ele>25.0</ele><time>2026-04-25T09:41:28.351Z</time></trkpt><trkpt lat="45.6084046" lon="11.9920878"><ele>24.833333333333336</ele><time>2026-04-25T09:41:30.351Z</time></trkpt><trkpt lat="45.6083305" lon="11.9920818"><ele>24.666666666666668</ele><time>2026-04-25T09:41:32.351Z</time></trkpt><trkpt lat="45.6082397" lon="11.9921173"><ele>24.5</ele><time>2026-04-25T09:41:34.352Z</time></trkpt><trkpt lat="45.6081447" lon="11.9921073"><ele>24.333333333333336</ele><time>2026-04-25T09:41:36.351Z</time></trkpt><trkpt lat="45.6080527" lon="11.9920997"><ele>24.166666666666668</ele><time>2026-04-25T09:41:38.351Z</time></trkpt><trkpt lat="45.6079618" lon="11.9920916"><ele>24.0</ele><time>2026-04-25T09:41:40.351Z</time></trkpt><trkpt lat="45.6078633" lon="11.9920869"><ele>23.6</ele><time>2026-04-25T09:41:42.352Z</time></trkpt><trkpt lat="45.6077662" lon="11.9920667"><ele>23.2</ele><time>2026-04-25T09:41:44.351Z</time></trkpt><trkpt lat="45.6076673" lon="11.9920583"><ele>22.8</ele><time>2026-04-25T09:41:46.351Z</time></trkpt><trkpt lat="45.6075544" lon="11.9920432"><ele>22.400000000000002</ele><time>2026-04-25T09:41:48.351Z</time></trkpt><trkpt lat="45.6074565" lon="11.9920341"><ele>22.0</ele><time>2026-04-25T09:41:50.351Z</time></trkpt><trkpt lat="45.6073496" lon="11.9920233"><ele>22.0</ele><time>2026-04-25T09:41:52.351Z</time></trkpt><trkpt lat="45.6072518" lon="11.9920144"><ele>22.0</ele><time>2026-04-25T09:41:54.351Z</time></trkpt><trkpt lat="45.6071492" lon="11.9919983"><ele>22.0</ele><time>2026-04-25T09:41:56.351Z</time></trkpt><trkpt lat="45.6070588" lon="11.9920029"><ele>22.0</ele><time>2026-04-25T09:41:58.351Z</time></trkpt><trkpt lat="45.6069686" lon="11.9919941"><ele>22.0</ele><time>2026-04-25T09:42:00.351Z</time></trkpt><trkpt lat="45.6068904" lon="11.9919841"><ele>22.0</ele><time>2026-04-25T09:42:02.351Z</time></trkpt><trkpt lat="45.606811" lon="11.9919653"><ele>22.0</ele><time>2026-04-25T09:42:04.351Z</time></trkpt><trkpt lat="45.6067249" lon="11.9919719"><ele>22.0</ele><time>2026-04-25T09:42:06.351Z</time></trkpt><trkpt lat="45.6066342" lon="11.9919662"><ele>22.0</ele><time>2026-04-25T09:42:08.351Z</time></trkpt><trkpt lat="45.6065394" lon="11.9919474"><ele>22.0</ele><time>2026-04-25T09:42:10.351Z</time></trkpt><trkpt lat="45.6064457" lon="11.9919382"><ele>22.0</ele><time>2026-04-25T09:42:12.351Z</time></trkpt><trkpt lat="45.606348" lon="11.9919357"><ele>22.0</ele><time>2026-04-25T09:42:14.352Z</time></trkpt><trkpt lat="45.606257" lon="11.9919246"><ele>22.0</ele><time>2026-04-25T09:42:16.351Z</time></trkpt><trkpt lat="45.6061698" lon="11.9919178"><ele>22.0</ele><time>2026-04-25T09:42:18.351Z</time></trkpt><trkpt lat="45.6060824" lon="11.9919037"><ele>22.0</ele><time>2026-04-25T09:42:20.352Z</time></trkpt><trkpt lat="45.6059891" lon="11.9918921"><ele>22.0</ele><time>2026-04-25T09:42:22.351Z</time></trkpt><trkpt lat="45.6058984" lon="11.9918881"><ele>22.0</ele><time>2026-04-25T09:42:24.351Z</time></trkpt><trkpt lat="45.6058107" lon="11.9918734"><ele>22.0</ele><time>2026-04-25T09:42:26.351Z</time></trkpt><trkpt lat="45.6057154" lon="11.9918655"><ele>22.0</ele><time>2026-04-25T09:42:28.351Z</time></trkpt><trkpt lat="45.6056206" lon="11.991868"><ele>22.0</ele><time>2026-04-25T09:42:30.351Z</time></trkpt><trkpt lat="45.6055215" lon="11.9918829"><ele>22.0</ele><time>2026-04-25T09:42:32.352Z</time></trkpt><trkpt lat="45.6054177" lon="11.9918912"><ele>22.0</ele><time>2026-04-25T09:42:34.351Z</time></trkpt><trkpt lat="45.6053173" lon="11.9919268"><ele>22.0</ele><time>2026-04-25T09:42:36.351Z</time></trkpt><trkpt lat="45.6052248" lon="11.9919522"><ele>22.0</ele><time>2026-04-25T09:42:38.351Z</time></trkpt><trkpt lat="45.6051311" lon="11.9919659"><ele>22.0</ele><time>2026-04-25T09:42:40.351Z</time></trkpt><trkpt lat="45.6050301" lon="11.991988"><ele>22.0</ele><time>2026-04-25T09:42:42.351Z</time></trkpt><trkpt lat="45.6049287" lon="11.9920124"><ele>22.0</ele><time>2026-04-25T09:42:44.351Z</time></trkpt><trkpt lat="45.6048545" lon="11.9920137"><ele>22.0</ele><time>2026-04-25T09:42:46.351Z</time></trkpt><trkpt lat="45.6047986" lon="11.9919514"><ele>22.0</ele><time>2026-04-25T09:42:48.351Z</time></trkpt><trkpt lat="45.6047697" lon="11.9918589"><ele>22.0</ele><time>2026-04-25T09:42:50.351Z</time></trkpt><trkpt lat="45.604751" lon="11.9917129"><ele>22.0</ele><time>2026-04-25T09:42:52.351Z</time></trkpt><trkpt lat="45.6047463" lon="11.9915657"><ele>22.0</ele><time>2026-04-25T09:42:54.351Z</time></trkpt><trkpt lat="45.6047246" lon="11.9914049"><ele>22.0</ele><time>2026-04-25T09:42:56.352Z</time></trkpt><trkpt lat="45.6047165" lon="11.9912627"><ele>22.0</ele><time>2026-04-25T09:42:58.351Z</time></trkpt><trkpt lat="45.6046994" lon="11.9911262"><ele>22.0</ele><time>2026-04-25T09:43:00.351Z</time></trkpt><trkpt lat="45.6046676" lon="11.9909895"><ele>22.0</ele><time>2026-04-25T09:43:02.351Z</time></trkpt><trkpt lat="45.6046146" lon="11.9908671"><ele>22.0</ele><time>2026-04-25T09:43:04.351Z</time></trkpt><trkpt lat="45.6045345" lon="11.9907776"><ele>22.0</ele><time>2026-04-25T09:43:06.35Z</time></trkpt><trkpt lat="45.6044446" lon="11.9907373"><ele>22.0</ele><time>2026-04-25T09:43:08.351Z</time></trkpt><trkpt lat="45.6043502" lon="11.9907258"><ele>22.0</ele><time>2026-04-25T09:43:10.351Z</time></trkpt><trkpt lat="45.6042551" lon="11.9907172"><ele>22.0</ele><time>2026-04-25T09:43:12.351Z</time></trkpt><trkpt lat="45.6041541" lon="11.9907053"><ele>22.0</ele><time>2026-04-25T09:43:14.351Z</time></trkpt><trkpt lat="45.6040499" lon="11.9906862"><ele>22.0</ele><time>2026-04-25T09:43:16.351Z</time></trkpt><trkpt lat="45.6039542" lon="11.9906789"><ele>22.0</ele><time>2026-04-25T09:43:18.351Z</time></trkpt><trkpt lat="45.6038676" lon="11.9906569"><ele>22.0</ele><time>2026-04-25T09:43:20.351Z</time></trkpt><trkpt lat="45.6037918" lon="11.9906159"><ele>22.0</ele><time>2026-04-25T09:43:22.352Z</time></trkpt><trkpt lat="45.6037476" lon="11.9905353"><ele>22.0</ele><time>2026-04-25T09:43:24.351Z</time></trkpt><trkpt lat="45.6037227" lon="11.9904243"><ele>22.0</ele><time>2026-04-25T09:43:26.351Z</time></trkpt><trkpt lat="45.6036953" lon="11.9903016"><ele>22.0</ele><time>2026-04-25T09:43:28.351Z</time></trkpt><trkpt lat="45.6036754" lon="11.9901845"><ele>22.0</ele><time>2026-04-25T09:43:30.351Z</time></trkpt><trkpt lat="45.6036602" lon="11.990052"><ele>22.0</ele><time>2026-04-25T09:43:32.351Z</time></trkpt><trkpt lat="45.6036362" lon="11.9899209"><ele>22.0</ele><time>2026-04-25T09:43:34.351Z</time></trkpt><trkpt lat="45.603615" lon="11.98978"><ele>22.0</ele><time>2026-04-25T09:43:36.351Z</time></trkpt><trkpt lat="45.6036004" lon="11.9896413"><ele>22.200000000000003</ele><time>2026-04-25T09:43:38.351Z</time></trkpt><trkpt lat="45.6035919" lon="11.9895152"><ele>22.4</ele><time>2026-04-25T09:43:40.351Z</time></trkpt><trkpt lat="45.6035728" lon="11.9893808"><ele>22.6</ele><time>2026-04-25T09:43:42.351Z</time></trkpt><trkpt lat="45.6035554" lon="11.989241"><ele>22.799999999999997</ele><time>2026-04-25T09:43:44.351Z</time></trkpt><trkpt lat="45.6035391" lon="11.9890988"><ele>23.0</ele><time>2026-04-25T09:43:46.351Z</time></trkpt><trkpt lat="45.6035231" lon="11.9889515"><ele>23.0</ele><time>2026-04-25T09:43:48.351Z</time></trkpt><trkpt lat="45.603502" lon="11.9888085"><ele>23.0</ele><time>2026-04-25T09:43:50.351Z</time></trkpt><trkpt lat="45.60348" lon="11.9886661"><ele>23.0</ele><time>2026-04-25T09:43:52.351Z</time></trkpt><trkpt lat="45.6034595" lon="11.9885155"><ele>23.0</ele><time>2026-04-25T09:43:54.351Z</time></trkpt><trkpt lat="45.6034387" lon="11.9883645"><ele>23.0</ele><time>2026-04-25T09:43:56.352Z</time></trkpt><trkpt lat="45.6034183" lon="11.9882143"><ele>23.0</ele><time>2026-04-25T09:43:58.351Z</time></trkpt><trkpt lat="45.6033997" lon="11.9880689"><ele>23.0</ele><time>2026-04-25T09:44:00.351Z</time></trkpt><trkpt lat="45.6033767" lon="11.9879205"><ele>23.0</ele><time>2026-04-25T09:44:02.351Z</time></trkpt><trkpt lat="45.6033558" lon="11.9877748"><ele>23.0</ele><time>2026-04-25T09:44:04.352Z</time></trkpt><trkpt lat="45.6033359" lon="11.98763"><ele>23.0</ele><time>2026-04-25T09:44:06.351Z</time></trkpt><trkpt lat="45.6033179" lon="11.9874862"><ele>23.0</ele><time>2026-04-25T09:44:08.351Z</time></trkpt><trkpt lat="45.6033004" lon="11.9873394"><ele>23.0</ele><time>2026-04-25T09:44:10.351Z</time></trkpt><trkpt lat="45.6032838" lon="11.9871901"><ele>23.0</ele><time>2026-04-25T09:44:12.351Z</time></trkpt><trkpt lat="45.6032634" lon="11.9870417"><ele>23.0</ele><time>2026-04-25T09:44:14.351Z</time></trkpt><trkpt lat="45.6032464" lon="11.9868952"><ele>23.0</ele><time>2026-04-25T09:44:16.352Z</time></trkpt><trkpt lat="45.6032255" lon="11.9867477"><ele>23.0</ele><time>2026-04-25T09:44:18.352Z</time></trkpt><trkpt lat="45.6032004" lon="11.986596"><ele>23.0</ele><time>2026-04-25T09:44:20.351Z</time></trkpt><trkpt lat="45.6031852" lon="11.9864498"><ele>23.0</ele><time>2026-04-25T09:44:22.351Z</time></trkpt><trkpt lat="45.6031612" lon="11.9863014"><ele>23.0</ele><time>2026-04-25T09:44:24.352Z</time></trkpt><trkpt lat="45.6031454" lon="11.9861612"><ele>23.0</ele><time>2026-04-25T09:44:26.351Z</time></trkpt><trkpt lat="45.6031233" lon="11.9860066"><ele>23.0</ele><time>2026-04-25T09:44:28.351Z</time></trkpt><trkpt lat="45.6031002" lon="11.985861"><ele>23.0</ele><time>2026-04-25T09:44:30.351Z</time></trkpt><trkpt lat="45.6030794" lon="11.9857155"><ele>23.0</ele><time>2026-04-25T09:44:32.351Z</time></trkpt><trkpt lat="45.6030589" lon="11.98557"><ele>23.0</ele><time>2026-04-25T09:44:34.352Z</time></trkpt><trkpt lat="45.6030382" lon="11.9854138"><ele>23.0</ele><time>2026-04-25T09:44:36.351Z</time></trkpt><trkpt lat="45.6030213" lon="11.9852689"><ele>23.0</ele><time>2026-04-25T09:44:38.351Z</time></trkpt><trkpt lat="45.603" lon="11.9851261"><ele>23.0</ele><time>2026-04-25T09:44:40.35Z</time></trkpt><trkpt lat="45.6029841" lon="11.9849826"><ele>23.0</ele><time>2026-04-25T09:44:42.351Z</time></trkpt><trkpt lat="45.6029582" lon="11.9848378"><ele>23.0</ele><time>2026-04-25T09:44:44.35Z</time></trkpt><trkpt lat="45.6029405" lon="11.9846944"><ele>23.0</ele><time>2026-04-25T09:44:46.35Z</time></trkpt><trkpt lat="45.6029194" lon="11.9845447"><ele>23.0</ele><time>2026-04-25T09:44:48.35Z</time></trkpt><trkpt lat="45.6028968" lon="11.9844006"><ele>23.0</ele><time>2026-04-25T09:44:50.35Z</time></trkpt><trkpt lat="45.602881" lon="11.9842535"><ele>23.0</ele><time>2026-04-25T09:44:52.351Z</time></trkpt><trkpt lat="45.6028576" lon="11.9841063"><ele>23.0</ele><time>2026-04-25T09:44:54.35Z</time></trkpt><trkpt lat="45.6028379" lon="11.9839544"><ele>23.0</ele><time>2026-04-25T09:44:56.35Z</time></trkpt><trkpt lat="45.6028263" lon="11.9838127"><ele>22.799999999999997</ele><time>2026-04-25T09:44:58.35Z</time></trkpt><trkpt lat="45.6028099" lon="11.9836609"><ele>22.6</ele><time>2026-04-25T09:45:00.35Z</time></trkpt><trkpt lat="45.6027869" lon="11.9835094"><ele>22.4</ele><time>2026-04-25T09:45:02.35Z</time></trkpt><trkpt lat="45.6027649" lon="11.9833559"><ele>22.200000000000003</ele><time>2026-04-25T09:45:04.351Z</time></trkpt><trkpt lat="45.6027442" lon="11.9832123"><ele>22.0</ele><time>2026-04-25T09:45:06.35Z</time></trkpt><trkpt lat="45.6027225" lon="11.9830631"><ele>22.0</ele><time>2026-04-25T09:45:08.35Z</time></trkpt><trkpt lat="45.6027007" lon="11.9829169"><ele>22.0</ele><time>2026-04-25T09:45:10.35Z</time></trkpt><trkpt lat="45.6026798" lon="11.9827667"><ele>22.0</ele><time>2026-04-25T09:45:12.35Z</time></trkpt><trkpt lat="45.6026586" lon="11.9826258"><ele>22.0</ele><time>2026-04-25T09:45:14.351Z</time></trkpt><trkpt lat="45.6026318" lon="11.9824804"><ele>22.0</ele><time>2026-04-25T09:45:16.351Z</time></trkpt><trkpt lat="45.6025991" lon="11.982336"><ele>22.200000000000003</ele><time>2026-04-25T09:45:18.35Z</time></trkpt><trkpt lat="45.6025602" lon="11.9821835"><ele>22.4</ele><time>2026-04-25T09:45:20.35Z</time></trkpt><trkpt lat="45.6025226" lon="11.982039"><ele>22.6</ele><time>2026-04-25T09:45:22.351Z</time></trkpt><trkpt lat="45.602477" lon="11.9818982"><ele>22.799999999999997</ele><time>2026-04-25T09:45:24.35Z</time></trkpt><trkpt lat="45.6024334" lon="11.9817573"><ele>23.0</ele><time>2026-04-25T09:45:26.351Z</time></trkpt><trkpt lat="45.6023774" lon="11.9816292"><ele>23.0</ele><time>2026-04-25T09:45:28.35Z</time></trkpt><trkpt lat="45.6023232" lon="11.9814975"><ele>23.0</ele><time>2026-04-25T09:45:30.351Z</time></trkpt><trkpt lat="45.6022684" lon="11.9813729"><ele>23.0</ele><time>2026-04-25T09:45:32.35Z</time></trkpt><trkpt lat="45.6022033" lon="11.9812465"><ele>23.0</ele><time>2026-04-25T09:45:34.35Z</time></trkpt><trkpt lat="45.6021388" lon="11.9811245"><ele>23.0</ele><time>2026-04-25T09:45:36.35Z</time></trkpt><trkpt lat="45.6020718" lon="11.9810055"><ele>23.0</ele><time>2026-04-25T09:45:38.35Z</time></trkpt><trkpt lat="45.6020075" lon="11.9808929"><ele>23.0</ele><time>2026-04-25T09:45:40.35Z</time></trkpt><trkpt lat="45.601937" lon="11.9807846"><ele>23.0</ele><time>2026-04-25T09:45:42.35Z</time></trkpt><trkpt lat="45.6018646" lon="11.9806798"><ele>23.0</ele><time>2026-04-25T09:45:44.35Z</time></trkpt><trkpt lat="45.6017906" lon="11.9805831"><ele>23.0</ele><time>2026-04-25T09:45:46.35Z</time></trkpt><trkpt lat="45.6017144" lon="11.9804806"><ele>22.799999999999997</ele><time>2026-04-25T09:45:48.35Z</time></trkpt><trkpt lat="45.601645" lon="11.9803741"><ele>22.6</ele><time>2026-04-25T09:45:50.35Z</time></trkpt><trkpt lat="45.6015681" lon="11.980264"><ele>22.4</ele><time>2026-04-25T09:45:52.35Z</time></trkpt><trkpt lat="45.6014954" lon="11.9801586"><ele>22.200000000000003</ele><time>2026-04-25T09:45:54.35Z</time></trkpt><trkpt lat="45.6014208" lon="11.980053"><ele>22.0</ele><time>2026-04-25T09:45:56.351Z</time></trkpt><trkpt lat="45.6013457" lon="11.9799476"><ele>22.0</ele><time>2026-04-25T09:45:58.35Z</time></trkpt><trkpt lat="45.6012717" lon="11.9798339"><ele>22.0</ele><time>2026-04-25T09:46:00.35Z</time></trkpt><trkpt lat="45.6011968" lon="11.9797277"><ele>22.0</ele><time>2026-04-25T09:46:02.35Z</time></trkpt><trkpt lat="45.6011268" lon="11.97963"><ele>22.0</ele><time>2026-04-25T09:46:04.35Z</time></trkpt><trkpt lat="45.6010533" lon="11.9795227"><ele>22.0</ele><time>2026-04-25T09:46:06.35Z</time></trkpt><trkpt lat="45.6009758" lon="11.9794167"><ele>22.400000000000002</ele><time>2026-04-25T09:46:08.35Z</time></trkpt><trkpt lat="45.6009021" lon="11.9793199"><ele>22.8</ele><time>2026-04-25T09:46:10.35Z</time></trkpt><trkpt lat="45.6008344" lon="11.9792125"><ele>23.2</ele><time>2026-04-25T09:46:12.35Z</time></trkpt><trkpt lat="45.6007683" lon="11.9791086"><ele>23.6</ele><time>2026-04-25T09:46:14.35Z</time></trkpt><trkpt lat="45.6006989" lon="11.9790227"><ele>24.0</ele><time>2026-04-25T09:46:16.35Z</time></trkpt><trkpt lat="45.600629" lon="11.9789161"><ele>24.0</ele><time>2026-04-25T09:46:18.35Z</time></trkpt><trkpt lat="45.6005545" lon="11.9788052"><ele>24.0</ele><time>2026-04-25T09:46:20.35Z</time></trkpt><trkpt lat="45.6004883" lon="11.9786995"><ele>24.0</ele><time>2026-04-25T09:46:22.351Z</time></trkpt><trkpt lat="45.6004217" lon="11.9786025"><ele>24.0</ele><time>2026-04-25T09:46:24.35Z</time></trkpt><trkpt lat="45.6003483" lon="11.9784971"><ele>24.0</ele><time>2026-04-25T09:46:26.35Z</time></trkpt><trkpt lat="45.6002764" lon="11.9784092"><ele>23.799999999999997</ele><time>2026-04-25T09:46:28.35Z</time></trkpt><trkpt lat="45.6002091" lon="11.9783099"><ele>23.599999999999998</ele><time>2026-04-25T09:46:30.351Z</time></trkpt><trkpt lat="45.6001393" lon="11.9782052"><ele>23.4</ele><time>2026-04-25T09:46:32.35Z</time></trkpt><trkpt lat="45.6000665" lon="11.9780936"><ele>23.2</ele><time>2026-04-25T09:46:34.351Z</time></trkpt><trkpt lat="45.5999913" lon="11.9779852"><ele>23.0</ele><time>2026-04-25T09:46:36.35Z</time></trkpt><trkpt lat="45.5999157" lon="11.9778844"><ele>23.0</ele><time>2026-04-25T09:46:38.35Z</time></trkpt><trkpt lat="45.5998451" lon="11.9777766"><ele>23.0</ele><time>2026-04-25T09:46:40.351Z</time></trkpt><trkpt lat="45.5997775" lon="11.9776738"><ele>23.0</ele><time>2026-04-25T09:46:42.35Z</time></trkpt><trkpt lat="45.599701" lon="11.9775644"><ele>23.0</ele><time>2026-04-25T09:46:44.35Z</time></trkpt><trkpt lat="45.59963" lon="11.9774576"><ele>23.0</ele><time>2026-04-25T09:46:46.35Z</time></trkpt><trkpt lat="45.5995615" lon="11.9773561"><ele>23.4</ele><time>2026-04-25T09:46:48.35Z</time></trkpt><trkpt lat="45.5994875" lon="11.9772671"><ele>23.799999999999997</ele><time>2026-04-25T09:46:50.35Z</time></trkpt><trkpt lat="45.5994172" lon="11.977174"><ele>24.2</ele><time>2026-04-25T09:46:52.35Z</time></trkpt><trkpt lat="45.5993407" lon="11.9770871"><ele>24.6</ele><time>2026-04-25T09:46:54.35Z</time></trkpt><trkpt lat="45.599269" lon="11.9769858"><ele>25.0</ele><time>2026-04-25T09:46:56.35Z</time></trkpt><trkpt lat="45.5991908" lon="11.9768941"><ele>25.0</ele><time>2026-04-25T09:46:58.35Z</time></trkpt><trkpt lat="45.5991165" lon="11.9768035"><ele>25.0</ele><time>2026-04-25T09:47:00.351Z</time></trkpt><trkpt lat="45.5990444" lon="11.9767131"><ele>25.0</ele><time>2026-04-25T09:47:02.35Z</time></trkpt><trkpt lat="45.59897" lon="11.9766166"><ele>25.0</ele><time>2026-04-25T09:47:04.351Z</time></trkpt><trkpt lat="45.5988899" lon="11.9765193"><ele>25.0</ele><time>2026-04-25T09:47:06.35Z</time></trkpt><trkpt lat="45.5988135" lon="11.9764283"><ele>25.0</ele><time>2026-04-25T09:47:08.35Z</time></trkpt><trkpt lat="45.5987336" lon="11.9763283"><ele>25.0</ele><time>2026-04-25T09:47:10.35Z</time></trkpt><trkpt lat="45.5986568" lon="11.9762259"><ele>25.0</ele><time>2026-04-25T09:47:12.35Z</time></trkpt><trkpt lat="45.5985804" lon="11.9761288"><ele>25.0</ele><time>2026-04-25T09:47:14.351Z</time></trkpt><trkpt lat="45.5985026" lon="11.9760337"><ele>25.0</ele><time>2026-04-25T09:47:16.35Z</time></trkpt><trkpt lat="45.5984247" lon="11.9759374"><ele>24.8</ele><time>2026-04-25T09:47:18.35Z</time></trkpt><trkpt lat="45.5983502" lon="11.9758472"><ele>24.6</ele><time>2026-04-25T09:47:20.35Z</time></trkpt><trkpt lat="45.5982724" lon="11.975753"><ele>24.4</ele><time>2026-04-25T09:47:22.35Z</time></trkpt><trkpt lat="45.5981974" lon="11.9756623"><ele>24.2</ele><time>2026-04-25T09:47:24.35Z</time></trkpt><trkpt lat="45.5981243" lon="11.9755701"><ele>24.0</ele><time>2026-04-25T09:47:26.35Z</time></trkpt><trkpt lat="45.598052" lon="11.9754741"><ele>24.0</ele><time>2026-04-25T09:47:28.35Z</time></trkpt><trkpt lat="45.597977" lon="11.9753815"><ele>24.0</ele><time>2026-04-25T09:47:30.35Z</time></trkpt><trkpt lat="45.5979021" lon="11.9752895"><ele>24.0</ele><time>2026-04-25T09:47:32.351Z</time></trkpt><trkpt lat="45.5978287" lon="11.9752036"><ele>24.0</ele><time>2026-04-25T09:47:34.35Z</time></trkpt><trkpt lat="45.5977553" lon="11.9751118"><ele>24.0</ele><time>2026-04-25T09:47:36.35Z</time></trkpt><trkpt lat="45.5976846" lon="11.9750231"><ele>23.4</ele><time>2026-04-25T09:47:38.35Z</time></trkpt><trkpt lat="45.5976204" lon="11.9749434"><ele>22.799999999999997</ele><time>2026-04-25T09:47:40.35Z</time></trkpt><trkpt lat="45.5975553" lon="11.9748586"><ele>22.200000000000003</ele><time>2026-04-25T09:47:42.35Z</time></trkpt><trkpt lat="45.5974859" lon="11.9747621"><ele>21.6</ele><time>2026-04-25T09:47:44.351Z</time></trkpt><trkpt lat="45.5974093" lon="11.9746708"><ele>21.0</ele><time>2026-04-25T09:47:46.351Z</time></trkpt><trkpt lat="45.5973314" lon="11.9745805"><ele>21.0</ele><time>2026-04-25T09:47:48.35Z</time></trkpt><trkpt lat="45.5972513" lon="11.9744799"><ele>21.0</ele><time>2026-04-25T09:47:50.351Z</time></trkpt><trkpt lat="45.5971681" lon="11.9743779"><ele>21.0</ele><time>2026-04-25T09:47:52.35Z</time></trkpt><trkpt lat="45.5970881" lon="11.9742854"><ele>21.0</ele><time>2026-04-25T09:47:54.35Z</time></trkpt><trkpt lat="45.5970083" lon="11.9741868"><ele>21.0</ele><time>2026-04-25T09:47:56.35Z</time></trkpt><trkpt lat="45.5969301" lon="11.9740886"><ele>21.0</ele><time>2026-04-25T09:47:58.351Z</time></trkpt><trkpt lat="45.5968502" lon="11.9739883"><ele>21.0</ele><time>2026-04-25T09:48:00.35Z</time></trkpt><trkpt lat="45.5967703" lon="11.9738889"><ele>21.0</ele><time>2026-04-25T09:48:02.35Z</time></trkpt><trkpt lat="45.5966955" lon="11.9738015"><ele>21.0</ele><time>2026-04-25T09:48:04.35Z</time></trkpt><trkpt lat="45.5966214" lon="11.9737108"><ele>21.0</ele><time>2026-04-25T09:48:06.35Z</time></trkpt><trkpt lat="45.5965453" lon="11.9736103"><ele>21.0</ele><time>2026-04-25T09:48:08.35Z</time></trkpt><trkpt lat="45.5964717" lon="11.9735129"><ele>21.0</ele><time>2026-04-25T09:48:10.349Z</time></trkpt><trkpt lat="45.5963932" lon="11.9734206"><ele>21.0</ele><time>2026-04-25T09:48:12.349Z</time></trkpt><trkpt lat="45.5963214" lon="11.9733362"><ele>21.0</ele><time>2026-04-25T09:48:14.349Z</time></trkpt><trkpt lat="45.5962445" lon="11.9732445"><ele>21.0</ele><time>2026-04-25T09:48:16.349Z</time></trkpt><trkpt lat="45.596171" lon="11.9731527"><ele>21.4</ele><time>2026-04-25T09:48:18.349Z</time></trkpt><trkpt lat="45.5960955" lon="11.9730493"><ele>21.8</ele><time>2026-04-25T09:48:20.349Z</time></trkpt><trkpt lat="45.5960186" lon="11.9729588"><ele>22.2</ele><time>2026-04-25T09:48:22.35Z</time></trkpt><trkpt lat="45.5959473" lon="11.972867"><ele>22.599999999999998</ele><time>2026-04-25T09:48:24.35Z</time></trkpt><trkpt lat="45.5958695" lon="11.9727719"><ele>23.0</ele><time>2026-04-25T09:48:26.349Z</time></trkpt><trkpt lat="45.59579" lon="11.9726687"><ele>23.0</ele><time>2026-04-25T09:48:28.349Z</time></trkpt><trkpt lat="45.595715" lon="11.9725657"><ele>23.0</ele><time>2026-04-25T09:48:30.349Z</time></trkpt><trkpt lat="45.5956463" lon="11.9724622"><ele>23.0</ele><time>2026-04-25T09:48:32.349Z</time></trkpt><trkpt lat="45.595574" lon="11.9723562"><ele>23.0</ele><time>2026-04-25T09:48:34.349Z</time></trkpt><trkpt lat="45.5955148" lon="11.9722423"><ele>23.0</ele><time>2026-04-25T09:48:36.349Z</time></trkpt><trkpt lat="45.5954514" lon="11.9721307"><ele>22.799999999999997</ele><time>2026-04-25T09:48:38.349Z</time></trkpt><trkpt lat="45.5953922" lon="11.9720141"><ele>22.6</ele><time>2026-04-25T09:48:40.349Z</time></trkpt><trkpt lat="45.5953349" lon="11.9718982"><ele>22.4</ele><time>2026-04-25T09:48:42.349Z</time></trkpt><trkpt lat="45.5952737" lon="11.9717677"><ele>22.200000000000003</ele><time>2026-04-25T09:48:44.349Z</time></trkpt><trkpt lat="45.5952214" lon="11.9716429"><ele>22.0</ele><time>2026-04-25T09:48:46.349Z</time></trkpt><trkpt lat="45.5951714" lon="11.9715157"><ele>22.0</ele><time>2026-04-25T09:48:48.349Z</time></trkpt><trkpt lat="45.5951299" lon="11.9713882"><ele>22.0</ele><time>2026-04-25T09:48:50.349Z</time></trkpt><trkpt lat="45.595093" lon="11.9712559"><ele>22.0</ele><time>2026-04-25T09:48:52.349Z</time></trkpt><trkpt lat="45.5950552" lon="11.9711176"><ele>22.0</ele><time>2026-04-25T09:48:54.349Z</time></trkpt><trkpt lat="45.5950201" lon="11.9709752"><ele>22.0</ele><time>2026-04-25T09:48:56.349Z</time></trkpt><trkpt lat="45.5949915" lon="11.970835"><ele>22.200000000000003</ele><time>2026-04-25T09:48:58.349Z</time></trkpt><trkpt lat="45.5949684" lon="11.9706948"><ele>22.4</ele><time>2026-04-25T09:49:00.349Z</time></trkpt><trkpt lat="45.5949461" lon="11.9705511"><ele>22.6</ele><time>2026-04-25T09:49:02.349Z</time></trkpt><trkpt lat="45.594924" lon="11.9704066"><ele>22.799999999999997</ele><time>2026-04-25T09:49:04.349Z</time></trkpt><trkpt lat="45.594913" lon="11.9702562"><ele>23.0</ele><time>2026-04-25T09:49:06.35Z</time></trkpt><trkpt lat="45.5949033" lon="11.9701068"><ele>22.799999999999997</ele><time>2026-04-25T09:49:08.35Z</time></trkpt><trkpt lat="45.5948958" lon="11.9699586"><ele>22.6</ele><time>2026-04-25T09:49:10.349Z</time></trkpt><trkpt lat="45.5948912" lon="11.9698086"><ele>22.4</ele><time>2026-04-25T09:49:12.35Z</time></trkpt><trkpt lat="45.5948987" lon="11.9696783"><ele>22.200000000000003</ele><time>2026-04-25T09:49:14.349Z</time></trkpt><trkpt lat="45.5949041" lon="11.9695358"><ele>22.0</ele><time>2026-04-25T09:49:16.35Z</time></trkpt><trkpt lat="45.5949119" lon="11.9693814"><ele>22.0</ele><time>2026-04-25T09:49:18.35Z</time></trkpt><trkpt lat="45.5949196" lon="11.9692376"><ele>22.0</ele><time>2026-04-25T09:49:20.349Z</time></trkpt><trkpt lat="45.5949215" lon="11.9690857"><ele>22.0</ele><time>2026-04-25T09:49:22.349Z</time></trkpt><trkpt lat="45.5949255" lon="11.9689324"><ele>22.0</ele><time>2026-04-25T09:49:24.349Z</time></trkpt><trkpt lat="45.5949362" lon="11.9687803"><ele>22.0</ele><time>2026-04-25T09:49:26.349Z</time></trkpt><trkpt lat="45.5949457" lon="11.9686222"><ele>22.200000000000003</ele><time>2026-04-25T09:49:28.349Z</time></trkpt><trkpt lat="45.5949504" lon="11.9684658"><ele>22.4</ele><time>2026-04-25T09:49:30.349Z</time></trkpt><trkpt lat="45.5949544" lon="11.9683053"><ele>22.6</ele><time>2026-04-25T09:49:32.349Z</time></trkpt><trkpt lat="45.5949648" lon="11.9681457"><ele>22.799999999999997</ele><time>2026-04-25T09:49:34.349Z</time></trkpt><trkpt lat="45.5949691" lon="11.9679914"><ele>23.0</ele><time>2026-04-25T09:49:36.349Z</time></trkpt><trkpt lat="45.5949736" lon="11.9678305"><ele>23.0</ele><time>2026-04-25T09:49:38.349Z</time></trkpt><trkpt lat="45.5949793" lon="11.9676633"><ele>23.0</ele><time>2026-04-25T09:49:40.349Z</time></trkpt><trkpt lat="45.594983" lon="11.9675044"><ele>23.0</ele><time>2026-04-25T09:49:42.349Z</time></trkpt><trkpt lat="45.5949889" lon="11.967349"><ele>23.0</ele><time>2026-04-25T09:49:44.349Z</time></trkpt><trkpt lat="45.5949951" lon="11.9672006"><ele>23.0</ele><time>2026-04-25T09:49:46.349Z</time></trkpt><trkpt lat="45.5950036" lon="11.9670404"><ele>22.799999999999997</ele><time>2026-04-25T09:49:48.349Z</time></trkpt><trkpt lat="45.5950101" lon="11.9668833"><ele>22.6</ele><time>2026-04-25T09:49:50.349Z</time></trkpt><trkpt lat="45.5950153" lon="11.9667275"><ele>22.4</ele><time>2026-04-25T09:49:52.349Z</time></trkpt><trkpt lat="45.5950252" lon="11.9665857"><ele>22.200000000000003</ele><time>2026-04-25T09:49:54.35Z</time></trkpt><trkpt lat="45.5950292" lon="11.9664485"><ele>22.0</ele><time>2026-04-25T09:49:56.349Z</time></trkpt><trkpt lat="45.5950364" lon="11.9663005"><ele>22.0</ele><time>2026-04-25T09:49:58.349Z</time></trkpt><trkpt lat="45.5950454" lon="11.9661267"><ele>22.0</ele><time>2026-04-25T09:50:00.349Z</time></trkpt><trkpt lat="45.5950539" lon="11.9659564"><ele>22.0</ele><time>2026-04-25T09:50:02.349Z</time></trkpt><trkpt lat="45.5950639" lon="11.9657907"><ele>22.0</ele><time>2026-04-25T09:50:04.349Z</time></trkpt><trkpt lat="45.5950666" lon="11.9656158"><ele>22.0</ele><time>2026-04-25T09:50:06.349Z</time></trkpt><trkpt lat="45.5950741" lon="11.9654426"><ele>22.0</ele><time>2026-04-25T09:50:08.349Z</time></trkpt><trkpt lat="45.5950801" lon="11.9652704"><ele>22.0</ele><time>2026-04-25T09:50:10.35Z</time></trkpt><trkpt lat="45.5950822" lon="11.9650934"><ele>22.0</ele><time>2026-04-25T09:50:12.349Z</time></trkpt><trkpt lat="45.5950891" lon="11.9649179"><ele>22.0</ele><time>2026-04-25T09:50:14.349Z</time></trkpt><trkpt lat="45.5950917" lon="11.9648228"><ele>22.0</ele><time>2026-04-25T09:50:15.349Z</time></trkpt><trkpt lat="45.5950975" lon="11.9647288"><ele>22.0</ele><time>2026-04-25T09:50:16.349Z</time></trkpt><trkpt lat="45.5951111" lon="11.964551"><ele>22.0</ele><time>2026-04-25T09:50:18.35Z</time></trkpt><trkpt lat="45.5951168" lon="11.9644581"><ele>22.0</ele><time>2026-04-25T09:50:19.349Z</time></trkpt><trkpt lat="45.5951173" lon="11.9643609"><ele>22.0</ele><time>2026-04-25T09:50:20.349Z</time></trkpt><trkpt lat="45.5951222" lon="11.9642667"><ele>22.0</ele><time>2026-04-25T09:50:21.35Z</time></trkpt><trkpt lat="45.5951254" lon="11.9641764"><ele>22.0</ele><time>2026-04-25T09:50:22.349Z</time></trkpt><trkpt lat="45.5951287" lon="11.9640785"><ele>22.0</ele><time>2026-04-25T09:50:23.349Z</time></trkpt><trkpt lat="45.5951348" lon="11.9639839"><ele>22.0</ele><time>2026-04-25T09:50:24.35Z</time></trkpt><trkpt lat="45.5951379" lon="11.9638927"><ele>22.0</ele><time>2026-04-25T09:50:25.349Z</time></trkpt><trkpt lat="45.5951445" lon="11.9637987"><ele>22.0</ele><time>2026-04-25T09:50:26.349Z</time></trkpt><trkpt lat="45.5951481" lon="11.9637037"><ele>22.0</ele><time>2026-04-25T09:50:27.35Z</time></trkpt><trkpt lat="45.5951502" lon="11.9636071"><ele>22.0</ele><time>2026-04-25T09:50:28.35Z</time></trkpt><trkpt lat="45.5951558" lon="11.9635114"><ele>22.0</ele><time>2026-04-25T09:50:29.349Z</time></trkpt><trkpt lat="45.5951591" lon="11.9634164"><ele>22.0</ele><time>2026-04-25T09:50:30.35Z</time></trkpt><trkpt lat="45.5951632" lon="11.9633243"><ele>22.0</ele><time>2026-04-25T09:50:31.35Z</time></trkpt><trkpt lat="45.5951656" lon="11.9632294"><ele>22.0</ele><time>2026-04-25T09:50:32.35Z</time></trkpt><trkpt lat="45.5951696" lon="11.9631349"><ele>22.0</ele><time>2026-04-25T09:50:33.349Z</time></trkpt><trkpt lat="45.5951747" lon="11.9630324"><ele>22.0</ele><time>2026-04-25T09:50:34.349Z</time></trkpt><trkpt lat="45.5951735" lon="11.9629343"><ele>21.857142857142858</ele><time>2026-04-25T09:50:35.349Z</time></trkpt><trkpt lat="45.5951782" lon="11.9628421"><ele>21.714285714285715</ele><time>2026-04-25T09:50:36.349Z</time></trkpt><trkpt lat="45.5951831" lon="11.9627505"><ele>21.57142857142857</ele><time>2026-04-25T09:50:37.349Z</time></trkpt><trkpt lat="45.5951851" lon="11.9626535"><ele>21.42857142857143</ele><time>2026-04-25T09:50:38.349Z</time></trkpt><trkpt lat="45.5951894" lon="11.9625582"><ele>21.285714285714285</ele><time>2026-04-25T09:50:39.35Z</time></trkpt><trkpt lat="45.5951933" lon="11.9624587"><ele>21.142857142857142</ele><time>2026-04-25T09:50:40.349Z</time></trkpt><trkpt lat="45.5952023" lon="11.9623591"><ele>21.0</ele><time>2026-04-25T09:50:41.349Z</time></trkpt><trkpt lat="45.595208" lon="11.9622645"><ele>21.166666666666668</ele><time>2026-04-25T09:50:42.349Z</time></trkpt><trkpt lat="45.595209" lon="11.9621654"><ele>21.333333333333332</ele><time>2026-04-25T09:50:43.349Z</time></trkpt><trkpt lat="45.59521" lon="11.962062"><ele>21.5</ele><time>2026-04-25T09:50:44.349Z</time></trkpt><trkpt lat="45.5952088" lon="11.9619604"><ele>21.666666666666664</ele><time>2026-04-25T09:50:45.349Z</time></trkpt><trkpt lat="45.5952192" lon="11.9617718"><ele>21.833333333333332</ele><time>2026-04-25T09:50:47.349Z</time></trkpt><trkpt lat="45.5952242" lon="11.9616745"><ele>22.0</ele><time>2026-04-25T09:50:48.349Z</time></trkpt><trkpt lat="45.5952297" lon="11.9615799"><ele>22.0</ele><time>2026-04-25T09:50:49.349Z</time></trkpt><trkpt lat="45.5952303" lon="11.9614799"><ele>22.0</ele><time>2026-04-25T09:50:50.349Z</time></trkpt><trkpt lat="45.5952329" lon="11.9613802"><ele>22.0</ele><time>2026-04-25T09:50:51.349Z</time></trkpt><trkpt lat="45.5952363" lon="11.9612844"><ele>22.0</ele><time>2026-04-25T09:50:52.349Z</time></trkpt><trkpt lat="45.5952397" lon="11.9611896"><ele>22.0</ele><time>2026-04-25T09:50:53.349Z</time></trkpt><trkpt lat="45.5952451" lon="11.9610924"><ele>22.0</ele><time>2026-04-25T09:50:54.349Z</time></trkpt><trkpt lat="45.59525" lon="11.9609933"><ele>22.0</ele><time>2026-04-25T09:50:55.349Z</time></trkpt><trkpt lat="45.5952584" lon="11.9608994"><ele>22.142857142857142</ele><time>2026-04-25T09:50:56.349Z</time></trkpt><trkpt lat="45.5952637" lon="11.9608023"><ele>22.285714285714285</ele><time>2026-04-25T09:50:57.349Z</time></trkpt><trkpt lat="45.5952702" lon="11.9607028"><ele>22.42857142857143</ele><time>2026-04-25T09:50:58.35Z</time></trkpt><trkpt lat="45.5952734" lon="11.9606055"><ele>22.57142857142857</ele><time>2026-04-25T09:50:59.349Z</time></trkpt><trkpt lat="45.5952774" lon="11.96051"><ele>22.71428571428571</ele><time>2026-04-25T09:51:00.349Z</time></trkpt><trkpt lat="45.5952804" lon="11.9604149"><ele>22.857142857142858</ele><time>2026-04-25T09:51:01.349Z</time></trkpt><trkpt lat="45.5952812" lon="11.9603144"><ele>23.0</ele><time>2026-04-25T09:51:02.349Z</time></trkpt><trkpt lat="45.5952876" lon="11.9602177"><ele>23.0</ele><time>2026-04-25T09:51:03.349Z</time></trkpt><trkpt lat="45.5952895" lon="11.9601263"><ele>23.0</ele><time>2026-04-25T09:51:04.349Z</time></trkpt><trkpt lat="45.5952894" lon="11.9600345"><ele>23.0</ele><time>2026-04-25T09:51:05.35Z</time></trkpt><trkpt lat="45.5952949" lon="11.9599399"><ele>23.0</ele><time>2026-04-25T09:51:06.349Z</time></trkpt><trkpt lat="45.5952977" lon="11.9598402"><ele>23.0</ele><time>2026-04-25T09:51:07.349Z</time></trkpt><trkpt lat="45.5952992" lon="11.9597438"><ele>23.0</ele><time>2026-04-25T09:51:08.35Z</time></trkpt><trkpt lat="45.5953043" lon="11.959646"><ele>23.0</ele><time>2026-04-25T09:51:09.349Z</time></trkpt><trkpt lat="45.5953069" lon="11.9595469"><ele>23.0</ele><time>2026-04-25T09:51:10.35Z</time></trkpt><trkpt lat="45.5953141" lon="11.9594557"><ele>23.0</ele><time>2026-04-25T09:51:11.35Z</time></trkpt><trkpt lat="45.5953149" lon="11.9593649"><ele>23.0</ele><time>2026-04-25T09:51:12.349Z</time></trkpt><trkpt lat="45.5953162" lon="11.9592732"><ele>23.0</ele><time>2026-04-25T09:51:13.349Z</time></trkpt><trkpt lat="45.5953192" lon="11.9591766"><ele>23.0</ele><time>2026-04-25T09:51:14.349Z</time></trkpt><trkpt lat="45.5953221" lon="11.9590828"><ele>23.0</ele><time>2026-04-25T09:51:15.349Z</time></trkpt><trkpt lat="45.5953322" lon="11.9589019"><ele>23.0</ele><time>2026-04-25T09:51:17.349Z</time></trkpt><trkpt lat="45.5953375" lon="11.9588064"><ele>23.0</ele><time>2026-04-25T09:51:18.349Z</time></trkpt><trkpt lat="45.5953414" lon="11.9587142"><ele>23.0</ele><time>2026-04-25T09:51:19.35Z</time></trkpt><trkpt lat="45.5953465" lon="11.9586155"><ele>23.0</ele><time>2026-04-25T09:51:20.349Z</time></trkpt><trkpt lat="45.5953521" lon="11.9585256"><ele>23.0</ele><time>2026-04-25T09:51:21.349Z</time></trkpt><trkpt lat="45.5953555" lon="11.9584279"><ele>23.0</ele><time>2026-04-25T09:51:22.35Z</time></trkpt><trkpt lat="45.5953603" lon="11.9583333"><ele>23.0</ele><time>2026-04-25T09:51:23.349Z</time></trkpt><trkpt lat="45.5953669" lon="11.9582401"><ele>23.0</ele><time>2026-04-25T09:51:24.349Z</time></trkpt><trkpt lat="45.5953717" lon="11.9580561"><ele>23.0</ele><time>2026-04-25T09:51:26.349Z</time></trkpt><trkpt lat="45.5953753" lon="11.9579592"><ele>23.0</ele><time>2026-04-25T09:51:27.35Z</time></trkpt><trkpt lat="45.5953794" lon="11.9578674"><ele>23.0</ele><time>2026-04-25T09:51:28.349Z</time></trkpt><trkpt lat="45.595384" lon="11.9577723"><ele>23.0</ele><time>2026-04-25T09:51:29.349Z</time></trkpt><trkpt lat="45.595389" lon="11.9576819"><ele>23.0</ele><time>2026-04-25T09:51:30.349Z</time></trkpt><trkpt lat="45.5953935" lon="11.957585"><ele>23.0</ele><time>2026-04-25T09:51:31.349Z</time></trkpt><trkpt lat="45.5953961" lon="11.9574853"><ele>23.0</ele><time>2026-04-25T09:51:32.349Z</time></trkpt><trkpt lat="45.5954006" lon="11.9573821"><ele>23.0</ele><time>2026-04-25T09:51:33.349Z</time></trkpt><trkpt lat="45.5954055" lon="11.9572892"><ele>23.0</ele><time>2026-04-25T09:51:34.35Z</time></trkpt><trkpt lat="45.5954073" lon="11.9571895"><ele>23.0</ele><time>2026-04-25T09:51:35.349Z</time></trkpt><trkpt lat="45.5954115" lon="11.9570872"><ele>23.0</ele><time>2026-04-25T09:51:36.349Z</time></trkpt><trkpt lat="45.5954162" lon="11.9569851"><ele>23.0</ele><time>2026-04-25T09:51:37.35Z</time></trkpt><trkpt lat="45.5954189" lon="11.9568828"><ele>23.0</ele><time>2026-04-25T09:51:38.349Z</time></trkpt><trkpt lat="45.5954229" lon="11.9567886"><ele>23.0</ele><time>2026-04-25T09:51:39.349Z</time></trkpt><trkpt lat="45.5954258" lon="11.9566941"><ele>23.0</ele><time>2026-04-25T09:51:40.349Z</time></trkpt><trkpt lat="45.5954258" lon="11.9565981"><ele>23.0</ele><time>2026-04-25T09:51:41.349Z</time></trkpt><trkpt lat="45.5954271" lon="11.9565002"><ele>23.0</ele><time>2026-04-25T09:51:42.348Z</time></trkpt><trkpt lat="45.5954298" lon="11.9564027"><ele>23.0</ele><time>2026-04-25T09:51:43.348Z</time></trkpt><trkpt lat="45.5954367" lon="11.9563023"><ele>23.0</ele><time>2026-04-25T09:51:44.348Z</time></trkpt><trkpt lat="45.5954403" lon="11.9562"><ele>22.714285714285715</ele><time>2026-04-25T09:51:45.348Z</time></trkpt><trkpt lat="45.5954497" lon="11.9561018"><ele>22.428571428571427</ele><time>2026-04-25T09:51:46.348Z</time></trkpt><trkpt lat="45.5954537" lon="11.9560009"><ele>22.142857142857142</ele><time>2026-04-25T09:51:47.348Z</time></trkpt><trkpt lat="45.5954582" lon="11.9558966"><ele>21.857142857142858</ele><time>2026-04-25T09:51:48.348Z</time></trkpt><trkpt lat="45.5954643" lon="11.9557942"><ele>21.57142857142857</ele><time>2026-04-25T09:51:49.348Z</time></trkpt><trkpt lat="45.5954685" lon="11.9556996"><ele>21.285714285714285</ele><time>2026-04-25T09:51:50.348Z</time></trkpt><trkpt lat="45.5954741" lon="11.9556045"><ele>21.0</ele><time>2026-04-25T09:51:51.348Z</time></trkpt><trkpt lat="45.5954755" lon="11.955505"><ele>21.0</ele><time>2026-04-25T09:51:52.348Z</time></trkpt><trkpt lat="45.5954774" lon="11.9554096"><ele>21.0</ele><time>2026-04-25T09:51:53.348Z</time></trkpt><trkpt lat="45.5954822" lon="11.9553113"><ele>21.0</ele><time>2026-04-25T09:51:54.348Z</time></trkpt><trkpt lat="45.5954869" lon="11.9552141"><ele>21.0</ele><time>2026-04-25T09:51:55.348Z</time></trkpt><trkpt lat="45.5954931" lon="11.9551187"><ele>21.0</ele><time>2026-04-25T09:51:56.348Z</time></trkpt><trkpt lat="45.5954967" lon="11.955023"><ele>21.0</ele><time>2026-04-25T09:51:57.348Z</time></trkpt><trkpt lat="45.5955014" lon="11.9549238"><ele>21.0</ele><time>2026-04-25T09:51:58.348Z</time></trkpt><trkpt lat="45.5955048" lon="11.9548314"><ele>21.166666666666668</ele><time>2026-04-25T09:51:59.349Z</time></trkpt><trkpt lat="45.5955071" lon="11.9547359"><ele>21.333333333333332</ele><time>2026-04-25T09:52:00.348Z</time></trkpt><trkpt lat="45.59551" lon="11.9546392"><ele>21.5</ele><time>2026-04-25T09:52:01.348Z</time></trkpt><trkpt lat="45.5955138" lon="11.9545467"><ele>21.666666666666664</ele><time>2026-04-25T09:52:02.348Z</time></trkpt><trkpt lat="45.595519" lon="11.9544535"><ele>21.833333333333332</ele><time>2026-04-25T09:52:03.348Z</time></trkpt><trkpt lat="45.5955285" lon="11.9542723"><ele>22.0</ele><time>2026-04-25T09:52:05.348Z</time></trkpt><trkpt lat="45.5955308" lon="11.9541801"><ele>22.333333333333332</ele><time>2026-04-25T09:52:06.349Z</time></trkpt><trkpt lat="45.595536" lon="11.9540882"><ele>22.666666666666664</ele><time>2026-04-25T09:52:07.348Z</time></trkpt><trkpt lat="45.5955401" lon="11.9539922"><ele>23.0</ele><time>2026-04-25T09:52:08.349Z</time></trkpt><trkpt lat="45.5955424" lon="11.9539019"><ele>23.333333333333332</ele><time>2026-04-25T09:52:09.348Z</time></trkpt><trkpt lat="45.5955442" lon="11.9538048"><ele>23.666666666666668</ele><time>2026-04-25T09:52:10.348Z</time></trkpt><trkpt lat="45.5955476" lon="11.9537127"><ele>24.0</ele><time>2026-04-25T09:52:11.348Z</time></trkpt><trkpt lat="45.5955534" lon="11.953537"><ele>23.799999999999997</ele><time>2026-04-25T09:52:13.348Z</time></trkpt><trkpt lat="45.595553" lon="11.9533594"><ele>23.599999999999998</ele><time>2026-04-25T09:52:15.349Z</time></trkpt><trkpt lat="45.5955455" lon="11.9531817"><ele>23.4</ele><time>2026-04-25T09:52:17.349Z</time></trkpt><trkpt lat="45.5955346" lon="11.9530019"><ele>23.2</ele><time>2026-04-25T09:52:19.348Z</time></trkpt><trkpt lat="45.5955289" lon="11.9529113"><ele>23.0</ele><time>2026-04-25T09:52:20.348Z</time></trkpt><trkpt lat="45.5955219" lon="11.952818"><ele>23.0</ele><time>2026-04-25T09:52:21.348Z</time></trkpt><trkpt lat="45.5955152" lon="11.9527254"><ele>23.0</ele><time>2026-04-25T09:52:22.348Z</time></trkpt><trkpt lat="45.5954983" lon="11.9525527"><ele>23.0</ele><time>2026-04-25T09:52:24.348Z</time></trkpt><trkpt lat="45.5954947" lon="11.9523867"><ele>23.0</ele><time>2026-04-25T09:52:26.348Z</time></trkpt><trkpt lat="45.5955312" lon="11.9522432"><ele>23.0</ele><time>2026-04-25T09:52:28.348Z</time></trkpt><trkpt lat="45.5955644" lon="11.9520965"><ele>23.0</ele><time>2026-04-25T09:52:30.348Z</time></trkpt><trkpt lat="45.5955239" lon="11.951983"><ele>23.0</ele><time>2026-04-25T09:52:32.348Z</time></trkpt><trkpt lat="45.5954468" lon="11.9518513"><ele>23.0</ele><time>2026-04-25T09:52:34.349Z</time></trkpt><trkpt lat="45.5954134" lon="11.951699"><ele>23.0</ele><time>2026-04-25T09:52:36.349Z</time></trkpt><trkpt lat="45.5954004" lon="11.9515514"><ele>23.0</ele><time>2026-04-25T09:52:38.348Z</time></trkpt><trkpt lat="45.5953784" lon="11.9513935"><ele>23.0</ele><time>2026-04-25T09:52:40.349Z</time></trkpt><trkpt lat="45.595358" lon="11.9512206"><ele>23.0</ele><time>2026-04-25T09:52:42.348Z</time></trkpt><trkpt lat="45.5953332" lon="11.9510462"><ele>23.0</ele><time>2026-04-25T09:52:44.348Z</time></trkpt><trkpt lat="45.5953103" lon="11.9508804"><ele>23.0</ele><time>2026-04-25T09:52:46.348Z</time></trkpt><trkpt lat="45.5952932" lon="11.9507025"><ele>23.0</ele><time>2026-04-25T09:52:48.348Z</time></trkpt><trkpt lat="45.5952737" lon="11.9505288"><ele>23.0</ele><time>2026-04-25T09:52:50.349Z</time></trkpt><trkpt lat="45.5952619" lon="11.9504376"><ele>23.0</ele><time>2026-04-25T09:52:51.349Z</time></trkpt><trkpt lat="45.5952505" lon="11.9503413"><ele>23.0</ele><time>2026-04-25T09:52:52.348Z</time></trkpt><trkpt lat="45.5952302" lon="11.9501709"><ele>23.0</ele><time>2026-04-25T09:52:54.348Z</time></trkpt><trkpt lat="45.5952132" lon="11.9499939"><ele>23.0</ele><time>2026-04-25T09:52:56.349Z</time></trkpt><trkpt lat="45.5951966" lon="11.9498198"><ele>23.0</ele><time>2026-04-25T09:52:58.348Z</time></trkpt><trkpt lat="45.5951758" lon="11.9496484"><ele>23.0</ele><time>2026-04-25T09:53:00.349Z</time></trkpt><trkpt lat="45.5951605" lon="11.9494796"><ele>23.0</ele><time>2026-04-25T09:53:02.349Z</time></trkpt><trkpt lat="45.595137" lon="11.9493098"><ele>23.0</ele><time>2026-04-25T09:53:04.348Z</time></trkpt><trkpt lat="45.5951222" lon="11.9491445"><ele>23.0</ele><time>2026-04-25T09:53:06.349Z</time></trkpt><trkpt lat="45.59511" lon="11.9489737"><ele>23.0</ele><time>2026-04-25T09:53:08.348Z</time></trkpt><trkpt lat="45.5951" lon="11.9488817"><ele>23.0</ele><time>2026-04-25T09:53:09.348Z</time></trkpt><trkpt lat="45.5950875" lon="11.9487877"><ele>23.0</ele><time>2026-04-25T09:53:10.348Z</time></trkpt><trkpt lat="45.5950778" lon="11.948697"><ele>23.0</ele><time>2026-04-25T09:53:11.348Z</time></trkpt><trkpt lat="45.5950558" lon="11.9485181"><ele>23.0</ele><time>2026-04-25T09:53:13.348Z</time></trkpt><trkpt lat="45.595046" lon="11.9484194"><ele>23.0</ele><time>2026-04-25T09:53:14.349Z</time></trkpt><trkpt lat="45.5950319" lon="11.9483312"><ele>23.0</ele><time>2026-04-25T09:53:15.348Z</time></trkpt><trkpt lat="45.5950235" lon="11.9482387"><ele>23.0</ele><time>2026-04-25T09:53:16.348Z</time></trkpt><trkpt lat="45.5950118" lon="11.948143"><ele>23.0</ele><time>2026-04-25T09:53:17.348Z</time></trkpt><trkpt lat="45.5950001" lon="11.948045"><ele>23.0</ele><time>2026-04-25T09:53:18.348Z</time></trkpt><trkpt lat="45.5949907" lon="11.9479457"><ele>23.0</ele><time>2026-04-25T09:53:19.348Z</time></trkpt><trkpt lat="45.5949777" lon="11.9478491"><ele>23.142857142857142</ele><time>2026-04-25T09:53:20.349Z</time></trkpt><trkpt lat="45.5949658" lon="11.9477602"><ele>23.285714285714285</ele><time>2026-04-25T09:53:21.348Z</time></trkpt><trkpt lat="45.5949483" lon="11.9476658"><ele>23.428571428571427</ele><time>2026-04-25T09:53:22.348Z</time></trkpt><trkpt lat="45.5949356" lon="11.9475623"><ele>23.57142857142857</ele><time>2026-04-25T09:53:23.348Z</time></trkpt><trkpt lat="45.5949263" lon="11.9474612"><ele>23.714285714285715</ele><time>2026-04-25T09:53:24.348Z</time></trkpt><trkpt lat="45.5949105" lon="11.9473603"><ele>23.857142857142854</ele><time>2026-04-25T09:53:25.348Z</time></trkpt><trkpt lat="45.594899" lon="11.9472603"><ele>24.0</ele><time>2026-04-25T09:53:26.348Z</time></trkpt><trkpt lat="45.5948877" lon="11.9471643"><ele>24.166666666666668</ele><time>2026-04-25T09:53:27.348Z</time></trkpt><trkpt lat="45.5948762" lon="11.9470687"><ele>24.333333333333336</ele><time>2026-04-25T09:53:28.348Z</time></trkpt><trkpt lat="45.5948745" lon="11.9469711"><ele>24.5</ele><time>2026-04-25T09:53:29.349Z</time></trkpt><trkpt lat="45.5948654" lon="11.9468754"><ele>24.666666666666668</ele><time>2026-04-25T09:53:30.348Z</time></trkpt><trkpt lat="45.5948395" lon="11.9466943"><ele>24.833333333333336</ele><time>2026-04-25T09:53:32.348Z</time></trkpt><trkpt lat="45.5948307" lon="11.946597"><ele>25.0</ele><time>2026-04-25T09:53:33.348Z</time></trkpt><trkpt lat="45.5948238" lon="11.9465023"><ele>25.0</ele><time>2026-04-25T09:53:34.348Z</time></trkpt><trkpt lat="45.5948122" lon="11.9464056"><ele>25.0</ele><time>2026-04-25T09:53:35.349Z</time></trkpt><trkpt lat="45.594802" lon="11.9463164"><ele>25.0</ele><time>2026-04-25T09:53:36.349Z</time></trkpt><trkpt lat="45.5947821" lon="11.9461434"><ele>25.0</ele><time>2026-04-25T09:53:38.348Z</time></trkpt><trkpt lat="45.5947701" lon="11.9459713"><ele>25.0</ele><time>2026-04-25T09:53:40.348Z</time></trkpt><trkpt lat="45.5947555" lon="11.9458225"><ele>25.0</ele><time>2026-04-25T09:53:42.349Z</time></trkpt><trkpt lat="45.5947622" lon="11.9457093"><ele>25.0</ele><time>2026-04-25T09:53:44.348Z</time></trkpt><trkpt lat="45.5948381" lon="11.9456958"><ele>25.0</ele><time>2026-04-25T09:57:11.347Z</time></trkpt><trkpt lat="45.5948381" lon="11.9456958"><ele>25.0</ele><time>2026-04-25T09:57:11.347Z</time></trkpt><trkpt lat="45.5948381" lon="11.9456958"><ele>25.0</ele><time>2026-04-25T09:57:11.347Z</time></trkpt><trkpt lat="45.5948381" lon="11.9456958"><ele>25.0</ele><time>2026-04-25T09:57:11.347Z</time></trkpt><trkpt lat="45.5948381" lon="11.9456958"><ele>25.0</ele><time>2026-04-25T09:57:11.347Z</time></trkpt><trkpt lat="45.5948381" lon="11.9456958"><ele>25.0</ele><time>2026-04-25T09:57:11.347Z</time></trkpt><trkpt lat="45.5948381" lon="11.9456958"><ele>25.0</ele><time>2026-04-25T09:57:11.347Z</time></trkpt></trkseg><trkseg><trkpt lat="45.5947606" lon="11.9455974"><ele>25.000000000000004</ele><time>2026-04-25T10:09:15.344Z</time></trkpt><trkpt lat="45.5947364" lon="11.9455109"><ele>25.0</ele><time>2026-04-25T10:09:18.344Z</time></trkpt><trkpt lat="45.5947069" lon="11.9454001"><ele>25.0</ele><time>2026-04-25T10:09:22.344Z</time></trkpt><trkpt lat="45.5946941" lon="11.9452984"><ele>25.0</ele><time>2026-04-25T10:09:25.344Z</time></trkpt><trkpt lat="45.5946856" lon="11.9451728"><ele>25.000000000000004</ele><time>2026-04-25T10:09:28.344Z</time></trkpt><trkpt lat="45.5946723" lon="11.9450369"><ele>25.0</ele><time>2026-04-25T10:09:31.344Z</time></trkpt><trkpt lat="45.5946659" lon="11.9449454"><ele>25.000000000000004</ele><time>2026-04-25T10:09:33.344Z</time></trkpt><trkpt lat="45.59465" lon="11.9448128"><ele>25.0</ele><time>2026-04-25T10:09:36.344Z</time></trkpt><trkpt lat="45.5946291" lon="11.944688"><ele>25.0</ele><time>2026-04-25T10:09:39.344Z</time></trkpt><trkpt lat="45.5945763" lon="11.9446247"><ele>25.0</ele><time>2026-04-25T10:09:41.344Z</time></trkpt><trkpt lat="45.594503" lon="11.9446037"><ele>25.000000000000004</ele><time>2026-04-25T10:09:43.344Z</time></trkpt><trkpt lat="45.5944238" lon="11.9446322"><ele>25.0</ele><time>2026-04-25T10:09:45.344Z</time></trkpt><trkpt lat="45.5943416" lon="11.9446609"><ele>25.2</ele><time>2026-04-25T10:09:47.344Z</time></trkpt><trkpt lat="45.5942554" lon="11.9447215"><ele>25.4</ele><time>2026-04-25T10:09:49.345Z</time></trkpt><trkpt lat="45.5941642" lon="11.9447711"><ele>25.6</ele><time>2026-04-25T10:09:51.344Z</time></trkpt><trkpt lat="45.5940607" lon="11.9448093"><ele>25.8</ele><time>2026-04-25T10:09:53.345Z</time></trkpt><trkpt lat="45.5939539" lon="11.944829"><ele>26.0</ele><time>2026-04-25T10:09:55.344Z</time></trkpt><trkpt lat="45.5938356" lon="11.9448383"><ele>26.0</ele><time>2026-04-25T10:09:57.344Z</time></trkpt><trkpt lat="45.5937182" lon="11.9448277"><ele>26.0</ele><time>2026-04-25T10:09:59.344Z</time></trkpt><trkpt lat="45.5936073" lon="11.9448087"><ele>26.0</ele><time>2026-04-25T10:10:01.344Z</time></trkpt><trkpt lat="45.5935037" lon="11.9447917"><ele>26.0</ele><time>2026-04-25T10:10:03.344Z</time></trkpt><trkpt lat="45.5934031" lon="11.9447788"><ele>26.0</ele><time>2026-04-25T10:10:05.344Z</time></trkpt><trkpt lat="45.5932876" lon="11.9447713"><ele>26.0</ele><time>2026-04-25T10:10:07.345Z</time></trkpt><trkpt lat="45.5931766" lon="11.9447925"><ele>26.0</ele><time>2026-04-25T10:10:09.344Z</time></trkpt><trkpt lat="45.5930675" lon="11.9448121"><ele>26.0</ele><time>2026-04-25T10:10:11.344Z</time></trkpt><trkpt lat="45.5929557" lon="11.9448302"><ele>26.0</ele><time>2026-04-25T10:10:13.344Z</time></trkpt><trkpt lat="45.5928473" lon="11.9448736"><ele>26.0</ele><time>2026-04-25T10:10:15.344Z</time></trkpt><trkpt lat="45.592763" lon="11.9448791"><ele>26.0</ele><time>2026-04-25T10:10:17.345Z</time></trkpt><trkpt lat="45.592691" lon="11.9448178"><ele>26.0</ele><time>2026-04-25T10:10:19.344Z</time></trkpt><trkpt lat="45.5926788" lon="11.9446909"><ele>26.0</ele><time>2026-04-25T10:10:21.344Z</time></trkpt><trkpt lat="45.5926742" lon="11.9445588"><ele>26.0</ele><time>2026-04-25T10:10:23.344Z</time></trkpt><trkpt lat="45.5926635" lon="11.9443979"><ele>26.0</ele><time>2026-04-25T10:10:25.344Z</time></trkpt><trkpt lat="45.592648" lon="11.9442372"><ele>25.6</ele><time>2026-04-25T10:10:27.344Z</time></trkpt><trkpt lat="45.5926349" lon="11.9440688"><ele>25.200000000000003</ele><time>2026-04-25T10:10:29.344Z</time></trkpt><trkpt lat="45.5926453" lon="11.9439059"><ele>24.799999999999997</ele><time>2026-04-25T10:10:31.344Z</time></trkpt><trkpt lat="45.5926479" lon="11.9438155"><ele>24.4</ele><time>2026-04-25T10:10:32.345Z</time></trkpt><trkpt lat="45.5926612" lon="11.9436378"><ele>24.0</ele><time>2026-04-25T10:10:34.344Z</time></trkpt><trkpt lat="45.5926872" lon="11.9434689"><ele>23.75</ele><time>2026-04-25T10:10:36.344Z</time></trkpt><trkpt lat="45.5927121" lon="11.9433113"><ele>23.5</ele><time>2026-04-25T10:10:38.344Z</time></trkpt><trkpt lat="45.5927368" lon="11.9431437"><ele>23.25</ele><time>2026-04-25T10:10:40.344Z</time></trkpt><trkpt lat="45.5927708" lon="11.9429817"><ele>23.0</ele><time>2026-04-25T10:10:42.344Z</time></trkpt><trkpt lat="45.5928015" lon="11.9428202"><ele>23.0</ele><time>2026-04-25T10:10:44.344Z</time></trkpt><trkpt lat="45.5928259" lon="11.9426589"><ele>23.0</ele><time>2026-04-25T10:10:46.344Z</time></trkpt><trkpt lat="45.5928558" lon="11.9424919"><ele>23.0</ele><time>2026-04-25T10:10:48.344Z</time></trkpt><trkpt lat="45.5928856" lon="11.9423243"><ele>23.0</ele><time>2026-04-25T10:10:50.344Z</time></trkpt><trkpt lat="45.5929192" lon="11.9421677"><ele>22.75</ele><time>2026-04-25T10:10:52.344Z</time></trkpt><trkpt lat="45.5929484" lon="11.941997"><ele>22.5</ele><time>2026-04-25T10:10:54.344Z</time></trkpt><trkpt lat="45.5929795" lon="11.9418295"><ele>22.25</ele><time>2026-04-25T10:10:56.344Z</time></trkpt><trkpt lat="45.592992" lon="11.9416608"><ele>22.0</ele><time>2026-04-25T10:10:58.344Z</time></trkpt><trkpt lat="45.5930089" lon="11.9414924"><ele>22.0</ele><time>2026-04-25T10:11:00.344Z</time></trkpt><trkpt lat="45.5930419" lon="11.9413274"><ele>22.0</ele><time>2026-04-25T10:11:02.344Z</time></trkpt><trkpt lat="45.5930703" lon="11.9411651"><ele>22.0</ele><time>2026-04-25T10:11:04.344Z</time></trkpt><trkpt lat="45.5930936" lon="11.9410092"><ele>22.0</ele><time>2026-04-25T10:11:06.344Z</time></trkpt><trkpt lat="45.5931228" lon="11.940842"><ele>22.0</ele><time>2026-04-25T10:11:08.344Z</time></trkpt><trkpt lat="45.5931567" lon="11.9406738"><ele>22.0</ele><time>2026-04-25T10:11:10.344Z</time></trkpt><trkpt lat="45.5931942" lon="11.940511"><ele>22.0</ele><time>2026-04-25T10:11:12.344Z</time></trkpt><trkpt lat="45.5932225" lon="11.9403421"><ele>22.0</ele><time>2026-04-25T10:11:14.344Z</time></trkpt><trkpt lat="45.5932384" lon="11.9402535"><ele>22.0</ele><time>2026-04-25T10:11:15.344Z</time></trkpt><trkpt lat="45.5932582" lon="11.9401665"><ele>22.0</ele><time>2026-04-25T10:11:16.344Z</time></trkpt><trkpt lat="45.5932815" lon="11.940081"><ele>22.0</ele><time>2026-04-25T10:11:17.345Z</time></trkpt><trkpt lat="45.5933" lon="11.9399901"><ele>22.0</ele><time>2026-04-25T10:11:18.344Z</time></trkpt><trkpt lat="45.5933168" lon="11.9398963"><ele>22.0</ele><time>2026-04-25T10:11:19.344Z</time></trkpt><trkpt lat="45.5933301" lon="11.9398045"><ele>22.0</ele><time>2026-04-25T10:11:20.344Z</time></trkpt><trkpt lat="45.5933525" lon="11.9397139"><ele>22.0</ele><time>2026-04-25T10:11:21.344Z</time></trkpt><trkpt lat="45.5933716" lon="11.9396256"><ele>22.0</ele><time>2026-04-25T10:11:22.344Z</time></trkpt><trkpt lat="45.5934147" lon="11.9394627"><ele>22.0</ele><time>2026-04-25T10:11:24.345Z</time></trkpt><trkpt lat="45.5934421" lon="11.9392947"><ele>22.0</ele><time>2026-04-25T10:11:26.344Z</time></trkpt><trkpt lat="45.5934786" lon="11.9391443"><ele>22.0</ele><time>2026-04-25T10:11:28.344Z</time></trkpt><trkpt lat="45.5935286" lon="11.9390436"><ele>22.0</ele><time>2026-04-25T10:11:30.345Z</time></trkpt><trkpt lat="45.5935237" lon="11.9389173"><ele>22.0</ele><time>2026-04-25T10:11:32.344Z</time></trkpt><trkpt lat="45.5935307" lon="11.9387757"><ele>21.75</ele><time>2026-04-25T10:11:34.344Z</time></trkpt><trkpt lat="45.5935678" lon="11.9386158"><ele>21.5</ele><time>2026-04-25T10:11:36.344Z</time></trkpt><trkpt lat="45.5935919" lon="11.9384675"><ele>21.25</ele><time>2026-04-25T10:11:38.344Z</time></trkpt><trkpt lat="45.5936211" lon="11.9383072"><ele>21.0</ele><time>2026-04-25T10:11:40.343Z</time></trkpt><trkpt lat="45.593649" lon="11.9381481"><ele>21.0</ele><time>2026-04-25T10:11:42.343Z</time></trkpt><trkpt lat="45.5936843" lon="11.9380044"><ele>21.0</ele><time>2026-04-25T10:11:44.343Z</time></trkpt><trkpt lat="45.5937219" lon="11.9378621"><ele>21.0</ele><time>2026-04-25T10:11:46.343Z</time></trkpt><trkpt lat="45.5937444" lon="11.9377336"><ele>21.0</ele><time>2026-04-25T10:11:48.344Z</time></trkpt><trkpt lat="45.5937604" lon="11.9376053"><ele>21.0</ele><time>2026-04-25T10:11:50.343Z</time></trkpt><trkpt lat="45.5937777" lon="11.9374798"><ele>21.0</ele><time>2026-04-25T10:11:52.343Z</time></trkpt><trkpt lat="45.5937934" lon="11.9373756"><ele>21.0</ele><time>2026-04-25T10:11:54.343Z</time></trkpt><trkpt lat="45.5938059" lon="11.9372735"><ele>21.0</ele><time>2026-04-25T10:11:56.343Z</time></trkpt><trkpt lat="45.5938086" lon="11.9371677"><ele>21.0</ele><time>2026-04-25T10:11:58.343Z</time></trkpt><trkpt lat="45.5938119" lon="11.9370545"><ele>21.0</ele><time>2026-04-25T10:12:00.343Z</time></trkpt><trkpt lat="45.593806" lon="11.9369418"><ele>21.0</ele><time>2026-04-25T10:12:02.344Z</time></trkpt><trkpt lat="45.5938055" lon="11.9368248"><ele>21.166666666666668</ele><time>2026-04-25T10:12:04.343Z</time></trkpt><trkpt lat="45.5937852" lon="11.9367077"><ele>21.333333333333332</ele><time>2026-04-25T10:12:06.343Z</time></trkpt><trkpt lat="45.5937695" lon="11.9365912"><ele>21.5</ele><time>2026-04-25T10:12:09.343Z</time></trkpt><trkpt lat="45.5937451" lon="11.9364691"><ele>21.666666666666664</ele><time>2026-04-25T10:12:12.344Z</time></trkpt><trkpt lat="45.5937156" lon="11.9363742"><ele>21.833333333333332</ele><time>2026-04-25T10:12:14.343Z</time></trkpt><trkpt lat="45.593648" lon="11.9363125"><ele>22.0</ele><time>2026-04-25T10:12:16.343Z</time></trkpt><trkpt lat="45.5935679" lon="11.9363056"><ele>22.0</ele><time>2026-04-25T10:12:18.344Z</time></trkpt><trkpt lat="45.5934704" lon="11.9363248"><ele>22.0</ele><time>2026-04-25T10:12:20.343Z</time></trkpt><trkpt lat="45.5933613" lon="11.9363661"><ele>22.0</ele><time>2026-04-25T10:12:22.343Z</time></trkpt><trkpt lat="45.593238" lon="11.9364029"><ele>22.0</ele><time>2026-04-25T10:12:24.343Z</time></trkpt><trkpt lat="45.5931719" lon="11.936426"><ele>22.0</ele><time>2026-04-25T10:12:25.343Z</time></trkpt><trkpt lat="45.5931028" lon="11.9364458"><ele>22.0</ele><time>2026-04-25T10:12:26.344Z</time></trkpt><trkpt lat="45.5930309" lon="11.9364679"><ele>22.0</ele><time>2026-04-25T10:12:27.343Z</time></trkpt><trkpt lat="45.5929588" lon="11.9364878"><ele>22.0</ele><time>2026-04-25T10:12:28.343Z</time></trkpt><trkpt lat="45.5928839" lon="11.9365063"><ele>22.0</ele><time>2026-04-25T10:12:29.343Z</time></trkpt><trkpt lat="45.5928095" lon="11.9365234"><ele>22.0</ele><time>2026-04-25T10:12:30.343Z</time></trkpt><trkpt lat="45.5927424" lon="11.9365507"><ele>22.0</ele><time>2026-04-25T10:12:31.343Z</time></trkpt><trkpt lat="45.5926745" lon="11.9365779"><ele>22.0</ele><time>2026-04-25T10:12:32.343Z</time></trkpt><trkpt lat="45.5926052" lon="11.9366069"><ele>22.0</ele><time>2026-04-25T10:12:33.343Z</time></trkpt><trkpt lat="45.5925394" lon="11.9366375"><ele>22.0</ele><time>2026-04-25T10:12:34.343Z</time></trkpt><trkpt lat="45.592475" lon="11.9366668"><ele>22.0</ele><time>2026-04-25T10:12:35.343Z</time></trkpt><trkpt lat="45.5924147" lon="11.9366958"><ele>22.0</ele><time>2026-04-25T10:12:36.343Z</time></trkpt><trkpt lat="45.5923502" lon="11.9367233"><ele>22.0</ele><time>2026-04-25T10:12:37.343Z</time></trkpt><trkpt lat="45.5922307" lon="11.9367681"><ele>22.0</ele><time>2026-04-25T10:12:39.343Z</time></trkpt><trkpt lat="45.5921151" lon="11.9368132"><ele>22.0</ele><time>2026-04-25T10:12:41.343Z</time></trkpt><trkpt lat="45.5919924" lon="11.9368484"><ele>22.0</ele><time>2026-04-25T10:12:43.343Z</time></trkpt><trkpt lat="45.5918699" lon="11.936895"><ele>22.0</ele><time>2026-04-25T10:12:45.343Z</time></trkpt><trkpt lat="45.5918088" lon="11.936921"><ele>22.0</ele><time>2026-04-25T10:12:46.343Z</time></trkpt><trkpt lat="45.591748" lon="11.9369478"><ele>22.0</ele><time>2026-04-25T10:12:47.343Z</time></trkpt><trkpt lat="45.5916853" lon="11.9369742"><ele>22.0</ele><time>2026-04-25T10:12:48.343Z</time></trkpt><trkpt lat="45.5916187" lon="11.937"><ele>22.0</ele><time>2026-04-25T10:12:49.344Z</time></trkpt><trkpt lat="45.5915021" lon="11.9370461"><ele>22.0</ele><time>2026-04-25T10:12:51.344Z</time></trkpt><trkpt lat="45.5913934" lon="11.9370864"><ele>22.0</ele><time>2026-04-25T10:12:53.344Z</time></trkpt><trkpt lat="45.5912847" lon="11.9371168"><ele>22.0</ele><time>2026-04-25T10:12:55.343Z</time></trkpt><trkpt lat="45.5911781" lon="11.9371573"><ele>22.25</ele><time>2026-04-25T10:12:57.343Z</time></trkpt><trkpt lat="45.5910719" lon="11.9372006"><ele>22.5</ele><time>2026-04-25T10:12:59.343Z</time></trkpt><trkpt lat="45.5909643" lon="11.9372408"><ele>22.75</ele><time>2026-04-25T10:13:01.343Z</time></trkpt><trkpt lat="45.5908542" lon="11.937285"><ele>23.0</ele><time>2026-04-25T10:13:03.343Z</time></trkpt><trkpt lat="45.5907356" lon="11.9373137"><ele>23.0</ele><time>2026-04-25T10:13:05.344Z</time></trkpt><trkpt lat="45.5906262" lon="11.9373387"><ele>23.0</ele><time>2026-04-25T10:13:07.344Z</time></trkpt><trkpt lat="45.590521" lon="11.9373498"><ele>23.0</ele><time>2026-04-25T10:13:09.344Z</time></trkpt><trkpt lat="45.590405" lon="11.9373587"><ele>23.0</ele><time>2026-04-25T10:13:11.343Z</time></trkpt><trkpt lat="45.5902848" lon="11.937382"><ele>22.833333333333336</ele><time>2026-04-25T10:13:13.343Z</time></trkpt><trkpt lat="45.5902216" lon="11.9373964"><ele>22.666666666666668</ele><time>2026-04-25T10:13:14.344Z</time></trkpt><trkpt lat="45.5901549" lon="11.9374122"><ele>22.5</ele><time>2026-04-25T10:13:15.344Z</time></trkpt><trkpt lat="45.5900919" lon="11.9374307"><ele>22.333333333333332</ele><time>2026-04-25T10:13:16.343Z</time></trkpt><trkpt lat="45.5900256" lon="11.9374367"><ele>22.166666666666664</ele><time>2026-04-25T10:13:17.344Z</time></trkpt><trkpt lat="45.5899099" lon="11.9374384"><ele>22.0</ele><time>2026-04-25T10:13:19.344Z</time></trkpt><trkpt lat="45.589796" lon="11.9374538"><ele>22.0</ele><time>2026-04-25T10:13:21.344Z</time></trkpt><trkpt lat="45.5896835" lon="11.9374674"><ele>22.0</ele><time>2026-04-25T10:13:23.343Z</time></trkpt><trkpt lat="45.5895673" lon="11.9374787"><ele>22.0</ele><time>2026-04-25T10:13:25.343Z</time></trkpt><trkpt lat="45.5894524" lon="11.9374895"><ele>22.0</ele><time>2026-04-25T10:13:27.343Z</time></trkpt><trkpt lat="45.5893409" lon="11.9375023"><ele>21.5</ele><time>2026-04-25T10:13:29.344Z</time></trkpt><trkpt lat="45.5892223" lon="11.9375171"><ele>21.0</ele><time>2026-04-25T10:13:31.344Z</time></trkpt><trkpt lat="45.5891074" lon="11.9375303"><ele>20.5</ele><time>2026-04-25T10:13:33.343Z</time></trkpt><trkpt lat="45.58899" lon="11.9375639"><ele>20.0</ele><time>2026-04-25T10:13:35.343Z</time></trkpt><trkpt lat="45.5888762" lon="11.93759"><ele>20.0</ele><time>2026-04-25T10:13:37.344Z</time></trkpt><trkpt lat="45.5887582" lon="11.9376212"><ele>20.0</ele><time>2026-04-25T10:13:39.343Z</time></trkpt><trkpt lat="45.5886431" lon="11.9376506"><ele>20.0</ele><time>2026-04-25T10:13:41.343Z</time></trkpt><trkpt lat="45.5885319" lon="11.9376746"><ele>20.0</ele><time>2026-04-25T10:13:43.343Z</time></trkpt><trkpt lat="45.5884084" lon="11.937698"><ele>20.25</ele><time>2026-04-25T10:13:45.343Z</time></trkpt><trkpt lat="45.588287" lon="11.937715"><ele>20.5</ele><time>2026-04-25T10:13:47.343Z</time></trkpt><trkpt lat="45.5881775" lon="11.9377353"><ele>20.75</ele><time>2026-04-25T10:13:49.343Z</time></trkpt><trkpt lat="45.5880604" lon="11.937747"><ele>21.0</ele><time>2026-04-25T10:13:51.343Z</time></trkpt><trkpt lat="45.5879416" lon="11.9377623"><ele>21.0</ele><time>2026-04-25T10:13:53.344Z</time></trkpt><trkpt lat="45.5878208" lon="11.9377881"><ele>21.0</ele><time>2026-04-25T10:13:55.343Z</time></trkpt><trkpt lat="45.5876993" lon="11.9378036"><ele>21.0</ele><time>2026-04-25T10:13:57.343Z</time></trkpt><trkpt lat="45.5875782" lon="11.9378264"><ele>21.0</ele><time>2026-04-25T10:13:59.343Z</time></trkpt><trkpt lat="45.5874575" lon="11.9378517"><ele>21.0</ele><time>2026-04-25T10:14:01.344Z</time></trkpt><trkpt lat="45.5873413" lon="11.9378671"><ele>21.0</ele><time>2026-04-25T10:14:03.344Z</time></trkpt><trkpt lat="45.5872233" lon="11.9378824"><ele>21.0</ele><time>2026-04-25T10:14:05.343Z</time></trkpt><trkpt lat="45.5871033" lon="11.9379061"><ele>21.0</ele><time>2026-04-25T10:14:07.343Z</time></trkpt><trkpt lat="45.586981" lon="11.9379253"><ele>21.0</ele><time>2026-04-25T10:14:09.343Z</time></trkpt><trkpt lat="45.586917" lon="11.9379325"><ele>21.0</ele><time>2026-04-25T10:14:10.343Z</time></trkpt><trkpt lat="45.5867916" lon="11.9379503"><ele>21.0</ele><time>2026-04-25T10:14:12.343Z</time></trkpt><trkpt lat="45.586725" lon="11.937957"><ele>21.0</ele><time>2026-04-25T10:14:13.343Z</time></trkpt><trkpt lat="45.5866587" lon="11.937968"><ele>21.0</ele><time>2026-04-25T10:14:14.343Z</time></trkpt><trkpt lat="45.5865948" lon="11.9379782"><ele>21.0</ele><time>2026-04-25T10:14:15.344Z</time></trkpt><trkpt lat="45.5865318" lon="11.9379827"><ele>21.0</ele><time>2026-04-25T10:14:16.343Z</time></trkpt><trkpt lat="45.5864083" lon="11.9379964"><ele>21.0</ele><time>2026-04-25T10:14:18.343Z</time></trkpt><trkpt lat="45.5863404" lon="11.9380049"><ele>21.0</ele><time>2026-04-25T10:14:19.344Z</time></trkpt><trkpt lat="45.5862739" lon="11.9380206"><ele>21.0</ele><time>2026-04-25T10:14:20.343Z</time></trkpt><trkpt lat="45.586209" lon="11.9380352"><ele>21.0</ele><time>2026-04-25T10:14:21.343Z</time></trkpt><trkpt lat="45.5861419" lon="11.9380465"><ele>21.0</ele><time>2026-04-25T10:14:22.343Z</time></trkpt><trkpt lat="45.5860706" lon="11.9380561"><ele>21.0</ele><time>2026-04-25T10:14:23.344Z</time></trkpt><trkpt lat="45.5860027" lon="11.9380679"><ele>21.0</ele><time>2026-04-25T10:14:24.343Z</time></trkpt><trkpt lat="45.5859357" lon="11.9380786"><ele>21.0</ele><time>2026-04-25T10:14:25.343Z</time></trkpt><trkpt lat="45.5858677" lon="11.9380949"><ele>21.0</ele><time>2026-04-25T10:14:26.343Z</time></trkpt><trkpt lat="45.5857988" lon="11.9381037"><ele>21.0</ele><time>2026-04-25T10:14:27.343Z</time></trkpt><trkpt lat="45.585733" lon="11.9381133"><ele>21.0</ele><time>2026-04-25T10:14:28.343Z</time></trkpt><trkpt lat="45.5856675" lon="11.9381242"><ele>21.0</ele><time>2026-04-25T10:14:29.343Z</time></trkpt><trkpt lat="45.5855999" lon="11.9381395"><ele>21.0</ele><time>2026-04-25T10:14:30.343Z</time></trkpt><trkpt lat="45.5855355" lon="11.9381526"><ele>21.0</ele><time>2026-04-25T10:14:31.344Z</time></trkpt><trkpt lat="45.5854715" lon="11.9381613"><ele>21.0</ele><time>2026-04-25T10:14:32.343Z</time></trkpt><trkpt lat="45.5853519" lon="11.9381877"><ele>21.0</ele><time>2026-04-25T10:14:34.343Z</time></trkpt><trkpt lat="45.5852257" lon="11.9382133"><ele>21.0</ele><time>2026-04-25T10:14:36.344Z</time></trkpt><trkpt lat="45.5851013" lon="11.9382397"><ele>21.166666666666668</ele><time>2026-04-25T10:14:38.343Z</time></trkpt><trkpt lat="45.5850373" lon="11.9382491"><ele>21.333333333333332</ele><time>2026-04-25T10:14:39.343Z</time></trkpt><trkpt lat="45.5849742" lon="11.9382608"><ele>21.5</ele><time>2026-04-25T10:14:40.343Z</time></trkpt><trkpt lat="45.584911" lon="11.9382731"><ele>21.666666666666664</ele><time>2026-04-25T10:14:41.344Z</time></trkpt><trkpt lat="45.5848478" lon="11.9382922"><ele>21.833333333333332</ele><time>2026-04-25T10:14:42.344Z</time></trkpt><trkpt lat="45.584728" lon="11.9383251"><ele>22.0</ele><time>2026-04-25T10:14:44.344Z</time></trkpt><trkpt lat="45.5846093" lon="11.9383447"><ele>21.5</ele><time>2026-04-25T10:14:46.343Z</time></trkpt><trkpt lat="45.584496" lon="11.9383763"><ele>21.0</ele><time>2026-04-25T10:14:48.343Z</time></trkpt><trkpt lat="45.5843763" lon="11.9383955"><ele>20.5</ele><time>2026-04-25T10:14:50.343Z</time></trkpt><trkpt lat="45.5842558" lon="11.9384149"><ele>20.0</ele><time>2026-04-25T10:14:52.343Z</time></trkpt><trkpt lat="45.5841351" lon="11.9384367"><ele>20.0</ele><time>2026-04-25T10:14:54.344Z</time></trkpt><trkpt lat="45.5840161" lon="11.9384594"><ele>20.0</ele><time>2026-04-25T10:14:56.343Z</time></trkpt><trkpt lat="45.5838934" lon="11.9384847"><ele>20.0</ele><time>2026-04-25T10:14:58.343Z</time></trkpt><trkpt lat="45.5837651" lon="11.9385117"><ele>20.0</ele><time>2026-04-25T10:15:00.343Z</time></trkpt><trkpt lat="45.5837014" lon="11.9385199"><ele>20.0</ele><time>2026-04-25T10:15:01.343Z</time></trkpt><trkpt lat="45.5836364" lon="11.9385376"><ele>20.6</ele><time>2026-04-25T10:15:02.343Z</time></trkpt><trkpt lat="45.5835718" lon="11.9385477"><ele>21.2</ele><time>2026-04-25T10:15:03.343Z</time></trkpt><trkpt lat="45.5834495" lon="11.9385798"><ele>21.799999999999997</ele><time>2026-04-25T10:15:05.343Z</time></trkpt><trkpt lat="45.5833305" lon="11.938607"><ele>22.4</ele><time>2026-04-25T10:15:07.343Z</time></trkpt><trkpt lat="45.5832093" lon="11.9386344"><ele>23.0</ele><time>2026-04-25T10:15:09.342Z</time></trkpt><trkpt lat="45.5831468" lon="11.9386452"><ele>23.0</ele><time>2026-04-25T10:15:10.342Z</time></trkpt><trkpt lat="45.5830322" lon="11.9386484"><ele>23.0</ele><time>2026-04-25T10:15:12.343Z</time></trkpt><trkpt lat="45.5829212" lon="11.9386471"><ele>23.0</ele><time>2026-04-25T10:15:14.342Z</time></trkpt><trkpt lat="45.5828094" lon="11.9386489"><ele>23.0</ele><time>2026-04-25T10:15:16.343Z</time></trkpt><trkpt lat="45.5826937" lon="11.9386452"><ele>22.833333333333336</ele><time>2026-04-25T10:15:18.342Z</time></trkpt><trkpt lat="45.5825772" lon="11.9386287"><ele>22.666666666666668</ele><time>2026-04-25T10:15:20.342Z</time></trkpt><trkpt lat="45.5824553" lon="11.9386"><ele>22.5</ele><time>2026-04-25T10:15:22.343Z</time></trkpt><trkpt lat="45.5823906" lon="11.9385735"><ele>22.333333333333332</ele><time>2026-04-25T10:15:23.342Z</time></trkpt><trkpt lat="45.5823279" lon="11.9385457"><ele>22.166666666666664</ele><time>2026-04-25T10:15:24.342Z</time></trkpt><trkpt lat="45.5822626" lon="11.9385224"><ele>22.0</ele><time>2026-04-25T10:15:25.342Z</time></trkpt><trkpt lat="45.5821947" lon="11.9385016"><ele>22.0</ele><time>2026-04-25T10:15:26.342Z</time></trkpt><trkpt lat="45.582126" lon="11.9384774"><ele>22.0</ele><time>2026-04-25T10:15:27.343Z</time></trkpt><trkpt lat="45.5820605" lon="11.9384608"><ele>22.0</ele><time>2026-04-25T10:15:28.342Z</time></trkpt><trkpt lat="45.5819604" lon="11.9384532"><ele>22.0</ele><time>2026-04-25T10:15:30.342Z</time></trkpt><trkpt lat="45.5818782" lon="11.9384274"><ele>22.0</ele><time>2026-04-25T10:15:32.343Z</time></trkpt><trkpt lat="45.5818259" lon="11.9383028"><ele>22.0</ele><time>2026-04-25T10:15:34.343Z</time></trkpt><trkpt lat="45.5817772" lon="11.9381605"><ele>22.200000000000003</ele><time>2026-04-25T10:15:36.342Z</time></trkpt><trkpt lat="45.581727" lon="11.9380371"><ele>22.4</ele><time>2026-04-25T10:15:38.343Z</time></trkpt><trkpt lat="45.5816837" lon="11.937912"><ele>22.6</ele><time>2026-04-25T10:15:40.342Z</time></trkpt><trkpt lat="45.5816349" lon="11.9377862"><ele>22.799999999999997</ele><time>2026-04-25T10:15:42.342Z</time></trkpt><trkpt lat="45.5815776" lon="11.9376601"><ele>23.0</ele><time>2026-04-25T10:15:44.343Z</time></trkpt><trkpt lat="45.581519" lon="11.9375292"><ele>22.599999999999998</ele><time>2026-04-25T10:15:46.343Z</time></trkpt><trkpt lat="45.5814553" lon="11.937392"><ele>22.2</ele><time>2026-04-25T10:15:48.342Z</time></trkpt><trkpt lat="45.5813927" lon="11.9372591"><ele>21.8</ele><time>2026-04-25T10:15:50.342Z</time></trkpt><trkpt lat="45.5813341" lon="11.9371307"><ele>21.4</ele><time>2026-04-25T10:15:52.343Z</time></trkpt><trkpt lat="45.5812726" lon="11.9369991"><ele>21.0</ele><time>2026-04-25T10:15:54.342Z</time></trkpt><trkpt lat="45.5812213" lon="11.936881"><ele>20.8</ele><time>2026-04-25T10:15:56.342Z</time></trkpt><trkpt lat="45.5811785" lon="11.9367788"><ele>20.6</ele><time>2026-04-25T10:15:58.342Z</time></trkpt><trkpt lat="45.5811276" lon="11.9366684"><ele>20.4</ele><time>2026-04-25T10:16:00.342Z</time></trkpt><trkpt lat="45.5810597" lon="11.9365517"><ele>20.2</ele><time>2026-04-25T10:16:02.343Z</time></trkpt><trkpt lat="45.5809779" lon="11.9364573"><ele>20.0</ele><time>2026-04-25T10:16:04.342Z</time></trkpt><trkpt lat="45.5808987" lon="11.9363785"><ele>20.333333333333336</ele><time>2026-04-25T10:16:06.342Z</time></trkpt><trkpt lat="45.5808378" lon="11.9363023"><ele>20.666666666666668</ele><time>2026-04-25T10:16:08.342Z</time></trkpt><trkpt lat="45.5807817" lon="11.9362229"><ele>21.0</ele><time>2026-04-25T10:16:10.342Z</time></trkpt><trkpt lat="45.580734" lon="11.9361475"><ele>21.333333333333332</ele><time>2026-04-25T10:16:12.342Z</time></trkpt><trkpt lat="45.5806688" lon="11.9360477"><ele>21.666666666666664</ele><time>2026-04-25T10:16:15.342Z</time></trkpt><trkpt lat="45.5806216" lon="11.9359666"><ele>22.0</ele><time>2026-04-25T10:16:17.343Z</time></trkpt><trkpt lat="45.5805713" lon="11.9358572"><ele>22.0</ele><time>2026-04-25T10:16:19.342Z</time></trkpt><trkpt lat="45.5805103" lon="11.9357455"><ele>22.0</ele><time>2026-04-25T10:16:21.342Z</time></trkpt><trkpt lat="45.5804397" lon="11.9356247"><ele>22.0</ele><time>2026-04-25T10:16:23.343Z</time></trkpt><trkpt lat="45.5803728" lon="11.9355136"><ele>22.0</ele><time>2026-04-25T10:16:25.342Z</time></trkpt><trkpt lat="45.5803066" lon="11.9354113"><ele>22.0</ele><time>2026-04-25T10:16:27.342Z</time></trkpt><trkpt lat="45.5802296" lon="11.9352889"><ele>22.0</ele><time>2026-04-25T10:16:29.342Z</time></trkpt><trkpt lat="45.5801619" lon="11.9351783"><ele>22.0</ele><time>2026-04-25T10:16:31.342Z</time></trkpt><trkpt lat="45.5801022" lon="11.9350768"><ele>22.0</ele><time>2026-04-25T10:16:33.342Z</time></trkpt><trkpt lat="45.580027" lon="11.9349621"><ele>22.0</ele><time>2026-04-25T10:16:35.342Z</time></trkpt><trkpt lat="45.5799619" lon="11.9348711"><ele>22.0</ele><time>2026-04-25T10:16:37.342Z</time></trkpt><trkpt lat="45.5798834" lon="11.9347712"><ele>22.0</ele><time>2026-04-25T10:16:39.343Z</time></trkpt><trkpt lat="45.5798119" lon="11.934662"><ele>22.0</ele><time>2026-04-25T10:16:41.342Z</time></trkpt><trkpt lat="45.5797415" lon="11.9345505"><ele>22.0</ele><time>2026-04-25T10:16:43.342Z</time></trkpt><trkpt lat="45.5796628" lon="11.9344449"><ele>22.0</ele><time>2026-04-25T10:16:45.342Z</time></trkpt><trkpt lat="45.5795829" lon="11.934347"><ele>22.0</ele><time>2026-04-25T10:16:47.342Z</time></trkpt><trkpt lat="45.5795091" lon="11.9342507"><ele>21.6</ele><time>2026-04-25T10:16:49.343Z</time></trkpt><trkpt lat="45.5794333" lon="11.9341558"><ele>21.200000000000003</ele><time>2026-04-25T10:16:51.342Z</time></trkpt><trkpt lat="45.5793617" lon="11.9340662"><ele>20.8</ele><time>2026-04-25T10:16:53.342Z</time></trkpt><trkpt lat="45.5792904" lon="11.9339785"><ele>20.4</ele><time>2026-04-25T10:16:55.342Z</time></trkpt><trkpt lat="45.57921" lon="11.9339066"><ele>20.0</ele><time>2026-04-25T10:16:57.342Z</time></trkpt><trkpt lat="45.5791227" lon="11.9338081"><ele>20.0</ele><time>2026-04-25T10:16:59.342Z</time></trkpt><trkpt lat="45.5790456" lon="11.9337192"><ele>20.0</ele><time>2026-04-25T10:17:01.342Z</time></trkpt><trkpt lat="45.5789738" lon="11.9336314"><ele>20.0</ele><time>2026-04-25T10:17:03.342Z</time></trkpt><trkpt lat="45.5788938" lon="11.9335381"><ele>20.0</ele><time>2026-04-25T10:17:05.342Z</time></trkpt><trkpt lat="45.5788175" lon="11.9334486"><ele>20.0</ele><time>2026-04-25T10:17:07.342Z</time></trkpt><trkpt lat="45.5787372" lon="11.933374"><ele>20.4</ele><time>2026-04-25T10:17:09.342Z</time></trkpt><trkpt lat="45.5786583" lon="11.9332912"><ele>20.8</ele><time>2026-04-25T10:17:11.343Z</time></trkpt><trkpt lat="45.578568" lon="11.9332114"><ele>21.200000000000003</ele><time>2026-04-25T10:17:13.342Z</time></trkpt><trkpt lat="45.578478" lon="11.9331457"><ele>21.6</ele><time>2026-04-25T10:17:15.342Z</time></trkpt><trkpt lat="45.5783876" lon="11.9330659"><ele>22.0</ele><time>2026-04-25T10:17:17.342Z</time></trkpt><trkpt lat="45.5782993" lon="11.9329902"><ele>22.0</ele><time>2026-04-25T10:17:19.342Z</time></trkpt><trkpt lat="45.5782145" lon="11.9329203"><ele>22.0</ele><time>2026-04-25T10:17:21.342Z</time></trkpt><trkpt lat="45.5781221" lon="11.9328333"><ele>22.0</ele><time>2026-04-25T10:17:23.342Z</time></trkpt><trkpt lat="45.5780349" lon="11.9327444"><ele>22.0</ele><time>2026-04-25T10:17:25.342Z</time></trkpt><trkpt lat="45.577949" lon="11.9326742"><ele>22.0</ele><time>2026-04-25T10:17:27.342Z</time></trkpt><trkpt lat="45.577863" lon="11.9326172"><ele>21.833333333333332</ele><time>2026-04-25T10:17:29.342Z</time></trkpt><trkpt lat="45.5777714" lon="11.9325556"><ele>21.666666666666664</ele><time>2026-04-25T10:17:31.343Z</time></trkpt><trkpt lat="45.5776787" lon="11.9324777"><ele>21.5</ele><time>2026-04-25T10:17:33.342Z</time></trkpt><trkpt lat="45.5776117" lon="11.9323926"><ele>21.333333333333332</ele><time>2026-04-25T10:17:35.342Z</time></trkpt><trkpt lat="45.5775808" lon="11.9322821"><ele>21.166666666666668</ele><time>2026-04-25T10:17:37.342Z</time></trkpt><trkpt lat="45.5775352" lon="11.9322109"><ele>21.0</ele><time>2026-04-25T10:17:39.342Z</time></trkpt><trkpt lat="45.5774693" lon="11.9321791"><ele>21.0</ele><time>2026-04-25T10:17:41.342Z</time></trkpt><trkpt lat="45.5773849" lon="11.9321734"><ele>21.0</ele><time>2026-04-25T10:17:43.342Z</time></trkpt><trkpt lat="45.5773051" lon="11.9321241"><ele>21.0</ele><time>2026-04-25T10:17:45.342Z</time></trkpt><trkpt lat="45.5772178" lon="11.932108"><ele>21.0</ele><time>2026-04-25T10:17:47.342Z</time></trkpt><trkpt lat="45.5771297" lon="11.9320649"><ele>21.0</ele><time>2026-04-25T10:17:49.343Z</time></trkpt><trkpt lat="45.5770446" lon="11.9320148"><ele>21.0</ele><time>2026-04-25T10:17:51.342Z</time></trkpt><trkpt lat="45.5769544" lon="11.9319714"><ele>21.200000000000003</ele><time>2026-04-25T10:17:53.342Z</time></trkpt><trkpt lat="45.5768594" lon="11.931926"><ele>21.400000000000002</ele><time>2026-04-25T10:17:55.342Z</time></trkpt><trkpt lat="45.5767451" lon="11.931879"><ele>21.6</ele><time>2026-04-25T10:17:57.342Z</time></trkpt><trkpt lat="45.5766429" lon="11.9318266"><ele>21.8</ele><time>2026-04-25T10:17:59.342Z</time></trkpt><trkpt lat="45.5765432" lon="11.9317847"><ele>22.0</ele><time>2026-04-25T10:18:01.343Z</time></trkpt><trkpt lat="45.5764376" lon="11.9317407"><ele>22.0</ele><time>2026-04-25T10:18:03.342Z</time></trkpt><trkpt lat="45.5763206" lon="11.9316878"><ele>22.0</ele><time>2026-04-25T10:18:05.342Z</time></trkpt><trkpt lat="45.5762063" lon="11.9316295"><ele>22.0</ele><time>2026-04-25T10:18:07.342Z</time></trkpt><trkpt lat="45.5760893" lon="11.9315798"><ele>22.0</ele><time>2026-04-25T10:18:09.342Z</time></trkpt><trkpt lat="45.5759781" lon="11.9315325"><ele>22.0</ele><time>2026-04-25T10:18:11.342Z</time></trkpt><trkpt lat="45.5758655" lon="11.9314851"><ele>22.0</ele><time>2026-04-25T10:18:13.342Z</time></trkpt><trkpt lat="45.5757544" lon="11.9314268"><ele>22.0</ele><time>2026-04-25T10:18:15.342Z</time></trkpt><trkpt lat="45.5756518" lon="11.9313729"><ele>22.0</ele><time>2026-04-25T10:18:17.343Z</time></trkpt><trkpt lat="45.5755403" lon="11.93133"><ele>22.0</ele><time>2026-04-25T10:18:19.343Z</time></trkpt><trkpt lat="45.5754265" lon="11.9312831"><ele>22.0</ele><time>2026-04-25T10:18:21.342Z</time></trkpt><trkpt lat="45.5753159" lon="11.9312373"><ele>22.0</ele><time>2026-04-25T10:18:23.342Z</time></trkpt><trkpt lat="45.575203" lon="11.9311913"><ele>22.0</ele><time>2026-04-25T10:18:25.342Z</time></trkpt><trkpt lat="45.5750994" lon="11.9311412"><ele>22.0</ele><time>2026-04-25T10:18:27.343Z</time></trkpt><trkpt lat="45.5749905" lon="11.9310914"><ele>22.0</ele><time>2026-04-25T10:18:29.342Z</time></trkpt><trkpt lat="45.5748815" lon="11.9310554"><ele>22.0</ele><time>2026-04-25T10:18:31.343Z</time></trkpt><trkpt lat="45.5747749" lon="11.9310065"><ele>22.0</ele><time>2026-04-25T10:18:33.342Z</time></trkpt><trkpt lat="45.5746655" lon="11.9309603"><ele>22.0</ele><time>2026-04-25T10:18:35.342Z</time></trkpt><trkpt lat="45.5745587" lon="11.9309046"><ele>22.0</ele><time>2026-04-25T10:18:37.343Z</time></trkpt><trkpt lat="45.5744518" lon="11.9308622"><ele>22.0</ele><time>2026-04-25T10:18:39.342Z</time></trkpt><trkpt lat="45.5743467" lon="11.9308171"><ele>22.0</ele><time>2026-04-25T10:18:41.342Z</time></trkpt><trkpt lat="45.574252" lon="11.9307878"><ele>22.0</ele><time>2026-04-25T10:18:43.342Z</time></trkpt><trkpt lat="45.5741633" lon="11.9307497"><ele>22.166666666666664</ele><time>2026-04-25T10:18:45.341Z</time></trkpt><trkpt lat="45.5740747" lon="11.9307107"><ele>22.333333333333332</ele><time>2026-04-25T10:18:47.341Z</time></trkpt><trkpt lat="45.5739877" lon="11.9306748"><ele>22.5</ele><time>2026-04-25T10:18:49.341Z</time></trkpt><trkpt lat="45.573917" lon="11.9306509"><ele>22.666666666666668</ele><time>2026-04-25T10:18:51.341Z</time></trkpt><trkpt lat="45.5738528" lon="11.9306203"><ele>22.833333333333336</ele><time>2026-04-25T10:18:53.341Z</time></trkpt><trkpt lat="45.573767" lon="11.9306269"><ele>23.0</ele><time>2026-04-25T10:18:56.341Z</time></trkpt><trkpt lat="45.5737814" lon="11.930734"><ele>23.0</ele><time>2026-04-25T10:19:00.341Z</time></trkpt><trkpt lat="45.573856" lon="11.9307868"><ele>23.0</ele><time>2026-04-25T10:19:03.341Z</time></trkpt><trkpt lat="45.5739349" lon="11.9308279"><ele>23.0</ele><time>2026-04-25T10:19:05.341Z</time></trkpt><trkpt lat="45.5740148" lon="11.9308607"><ele>23.0</ele><time>2026-04-25T10:19:07.341Z</time></trkpt><trkpt lat="45.5740822" lon="11.9308926"><ele>23.0</ele><time>2026-04-25T10:19:09.341Z</time></trkpt><trkpt lat="45.5740053" lon="11.9308362"><ele>23.0</ele><time>2026-04-25T10:19:14.341Z</time></trkpt><trkpt lat="45.5739233" lon="11.930794"><ele>23.0</ele><time>2026-04-25T10:19:16.341Z</time></trkpt><trkpt lat="45.5738418" lon="11.9307832"><ele>23.0</ele><time>2026-04-25T10:19:19.341Z</time></trkpt><trkpt lat="45.5738733" lon="11.9303112"><ele>23.0</ele><time>2026-04-25T10:19:27.342Z</time></trkpt><trkpt lat="45.57395" lon="11.9301668"><ele>23.0</ele><time>2026-04-25T10:19:29.341Z</time></trkpt><trkpt lat="45.5740167" lon="11.930094"><ele>23.0</ele><time>2026-04-25T10:19:30.341Z</time></trkpt><trkpt lat="45.5740594" lon="11.9300077"><ele>23.0</ele><time>2026-04-25T10:19:31.341Z</time></trkpt><trkpt lat="45.5741361" lon="11.9300183"><ele>23.0</ele><time>2026-04-25T10:19:38.341Z</time></trkpt><trkpt lat="45.5741992" lon="11.9300417"><ele>23.0</ele><time>2026-04-25T10:19:40.341Z</time></trkpt><trkpt lat="45.5741574" lon="11.9299665"><ele>23.0</ele><time>2026-04-25T10:19:45.342Z</time></trkpt><trkpt lat="45.574069" lon="11.9299462"><ele>23.0</ele><time>2026-04-25T10:19:48.341Z</time></trkpt><trkpt lat="45.5740065" lon="11.9299324"><ele>23.0</ele><time>2026-04-25T10:19:50.341Z</time></trkpt><trkpt lat="45.5739344" lon="11.9299319"><ele>23.0</ele><time>2026-04-25T10:19:53.342Z</time></trkpt><trkpt lat="45.5738583" lon="11.9298727"><ele>23.0</ele><time>2026-04-25T10:19:57.341Z</time></trkpt><trkpt lat="45.5738327" lon="11.9297417"><ele>23.0</ele><time>2026-04-25T10:20:00.341Z</time></trkpt><trkpt lat="45.5738188" lon="11.9296459"><ele>23.0</ele><time>2026-04-25T10:20:02.342Z</time></trkpt><trkpt lat="45.5737855" lon="11.9295593"><ele>23.0</ele><time>2026-04-25T10:20:04.341Z</time></trkpt><trkpt lat="45.5737359" lon="11.9294882"><ele>23.0</ele><time>2026-04-25T10:20:06.341Z</time></trkpt><trkpt lat="45.5736755" lon="11.929433"><ele>23.0</ele><time>2026-04-25T10:20:08.342Z</time></trkpt><trkpt lat="45.5736099" lon="11.9293958"><ele>23.0</ele><time>2026-04-25T10:20:10.341Z</time></trkpt><trkpt lat="45.5734801" lon="11.9293933"><ele>23.0</ele><time>2026-04-25T10:20:13.341Z</time></trkpt><trkpt lat="45.5733832" lon="11.9294123"><ele>23.0</ele><time>2026-04-25T10:20:15.341Z</time></trkpt><trkpt lat="45.5732809" lon="11.929431"><ele>23.2</ele><time>2026-04-25T10:20:17.342Z</time></trkpt><trkpt lat="45.5731724" lon="11.9294579"><ele>23.4</ele><time>2026-04-25T10:20:19.341Z</time></trkpt><trkpt lat="45.5730666" lon="11.9294792"><ele>23.599999999999998</ele><time>2026-04-25T10:20:21.342Z</time></trkpt><trkpt lat="45.5729542" lon="11.9295025"><ele>23.799999999999997</ele><time>2026-04-25T10:20:23.341Z</time></trkpt><trkpt lat="45.5728491" lon="11.9295447"><ele>24.0</ele><time>2026-04-25T10:20:25.341Z</time></trkpt><trkpt lat="45.5727396" lon="11.9295339"><ele>24.0</ele><time>2026-04-25T10:20:27.341Z</time></trkpt><trkpt lat="45.5726319" lon="11.9295317"><ele>24.0</ele><time>2026-04-25T10:20:29.342Z</time></trkpt><trkpt lat="45.5725351" lon="11.9295077"><ele>24.0</ele><time>2026-04-25T10:20:31.341Z</time></trkpt><trkpt lat="45.5724452" lon="11.9294341"><ele>24.0</ele><time>2026-04-25T10:20:33.341Z</time></trkpt><trkpt lat="45.5723557" lon="11.9293695"><ele>24.0</ele><time>2026-04-25T10:20:35.341Z</time></trkpt><trkpt lat="45.5722646" lon="11.9293989"><ele>24.0</ele><time>2026-04-25T10:20:37.341Z</time></trkpt><trkpt lat="45.5721746" lon="11.9294123"><ele>24.0</ele><time>2026-04-25T10:20:39.341Z</time></trkpt><trkpt lat="45.5720778" lon="11.9293676"><ele>24.0</ele><time>2026-04-25T10:20:41.341Z</time></trkpt><trkpt lat="45.5719752" lon="11.929283"><ele>24.0</ele><time>2026-04-25T10:20:43.341Z</time></trkpt><trkpt lat="45.5718666" lon="11.9292259"><ele>24.0</ele><time>2026-04-25T10:20:45.341Z</time></trkpt><trkpt lat="45.5717729" lon="11.9291653"><ele>23.4</ele><time>2026-04-25T10:20:47.341Z</time></trkpt><trkpt lat="45.5716865" lon="11.929107"><ele>22.799999999999997</ele><time>2026-04-25T10:20:49.341Z</time></trkpt><trkpt lat="45.5715917" lon="11.9290367"><ele>22.200000000000003</ele><time>2026-04-25T10:20:51.341Z</time></trkpt><trkpt lat="45.5714895" lon="11.9289694"><ele>21.6</ele><time>2026-04-25T10:20:53.341Z</time></trkpt><trkpt lat="45.5713881" lon="11.9288974"><ele>21.0</ele><time>2026-04-25T10:20:55.341Z</time></trkpt><trkpt lat="45.5712828" lon="11.9288267"><ele>21.25</ele><time>2026-04-25T10:20:57.341Z</time></trkpt><trkpt lat="45.5711836" lon="11.9287561"><ele>21.5</ele><time>2026-04-25T10:20:59.342Z</time></trkpt><trkpt lat="45.5710788" lon="11.9286928"><ele>21.75</ele><time>2026-04-25T10:21:01.341Z</time></trkpt><trkpt lat="45.5709714" lon="11.9286258"><ele>22.0</ele><time>2026-04-25T10:21:03.341Z</time></trkpt><trkpt lat="45.5708656" lon="11.9285632"><ele>22.0</ele><time>2026-04-25T10:21:05.341Z</time></trkpt><trkpt lat="45.5707524" lon="11.9285131"><ele>22.0</ele><time>2026-04-25T10:21:07.342Z</time></trkpt><trkpt lat="45.570639" lon="11.9284709"><ele>22.0</ele><time>2026-04-25T10:21:09.341Z</time></trkpt><trkpt lat="45.5705786" lon="11.9284402"><ele>22.0</ele><time>2026-04-25T10:21:10.341Z</time></trkpt><trkpt lat="45.5704659" lon="11.9283879"><ele>22.0</ele><time>2026-04-25T10:21:12.341Z</time></trkpt><trkpt lat="45.5703465" lon="11.9283364"><ele>21.833333333333332</ele><time>2026-04-25T10:21:14.342Z</time></trkpt><trkpt lat="45.5702844" lon="11.9283111"><ele>21.666666666666664</ele><time>2026-04-25T10:21:15.341Z</time></trkpt><trkpt lat="45.5702242" lon="11.9282831"><ele>21.5</ele><time>2026-04-25T10:21:16.341Z</time></trkpt><trkpt lat="45.5701605" lon="11.9282611"><ele>21.333333333333332</ele><time>2026-04-25T10:21:17.341Z</time></trkpt><trkpt lat="45.5700968" lon="11.9282391"><ele>21.166666666666668</ele><time>2026-04-25T10:21:18.341Z</time></trkpt><trkpt lat="45.5699776" lon="11.928192"><ele>21.0</ele><time>2026-04-25T10:21:20.341Z</time></trkpt><trkpt lat="45.5698609" lon="11.9281377"><ele>21.0</ele><time>2026-04-25T10:21:22.342Z</time></trkpt><trkpt lat="45.5697444" lon="11.9280889"><ele>21.0</ele><time>2026-04-25T10:21:24.341Z</time></trkpt><trkpt lat="45.5696368" lon="11.9280494"><ele>21.0</ele><time>2026-04-25T10:21:26.341Z</time></trkpt><trkpt lat="45.5695305" lon="11.9280054"><ele>21.0</ele><time>2026-04-25T10:21:28.341Z</time></trkpt><trkpt lat="45.5694208" lon="11.9279598"><ele>21.200000000000003</ele><time>2026-04-25T10:21:30.342Z</time></trkpt><trkpt lat="45.5693051" lon="11.9279093"><ele>21.400000000000002</ele><time>2026-04-25T10:21:32.341Z</time></trkpt><trkpt lat="45.569244" lon="11.9278826"><ele>21.6</ele><time>2026-04-25T10:21:33.341Z</time></trkpt><trkpt lat="45.5691265" lon="11.9278328"><ele>21.8</ele><time>2026-04-25T10:21:35.341Z</time></trkpt><trkpt lat="45.5690096" lon="11.9277835"><ele>22.0</ele><time>2026-04-25T10:21:37.341Z</time></trkpt><trkpt lat="45.5688935" lon="11.9277345"><ele>22.0</ele><time>2026-04-25T10:21:39.341Z</time></trkpt><trkpt lat="45.5687864" lon="11.9276847"><ele>22.0</ele><time>2026-04-25T10:21:41.341Z</time></trkpt><trkpt lat="45.5686741" lon="11.9276345"><ele>22.0</ele><time>2026-04-25T10:21:43.341Z</time></trkpt><trkpt lat="45.5685589" lon="11.9275931"><ele>22.0</ele><time>2026-04-25T10:21:45.341Z</time></trkpt><trkpt lat="45.5684457" lon="11.927543"><ele>22.0</ele><time>2026-04-25T10:21:47.341Z</time></trkpt><trkpt lat="45.5683277" lon="11.9274874"><ele>22.0</ele><time>2026-04-25T10:21:49.342Z</time></trkpt><trkpt lat="45.5682163" lon="11.9274391"><ele>22.0</ele><time>2026-04-25T10:21:51.341Z</time></trkpt><trkpt lat="45.5680956" lon="11.9273994"><ele>22.0</ele><time>2026-04-25T10:21:53.342Z</time></trkpt><trkpt lat="45.5679718" lon="11.9273532"><ele>22.0</ele><time>2026-04-25T10:21:55.341Z</time></trkpt><trkpt lat="45.5678536" lon="11.9272981"><ele>22.0</ele><time>2026-04-25T10:21:57.342Z</time></trkpt><trkpt lat="45.5677335" lon="11.927252"><ele>22.0</ele><time>2026-04-25T10:21:59.341Z</time></trkpt><trkpt lat="45.5676719" lon="11.9272287"><ele>22.0</ele><time>2026-04-25T10:22:00.341Z</time></trkpt><trkpt lat="45.5676097" lon="11.927204"><ele>22.0</ele><time>2026-04-25T10:22:01.341Z</time></trkpt><trkpt lat="45.5675473" lon="11.9271813"><ele>22.0</ele><time>2026-04-25T10:22:02.341Z</time></trkpt><trkpt lat="45.5674303" lon="11.927128"><ele>22.0</ele><time>2026-04-25T10:22:04.341Z</time></trkpt><trkpt lat="45.567324" lon="11.927085"><ele>22.0</ele><time>2026-04-25T10:22:06.341Z</time></trkpt><trkpt lat="45.5672081" lon="11.9270381"><ele>22.0</ele><time>2026-04-25T10:22:08.341Z</time></trkpt><trkpt lat="45.5670889" lon="11.9269942"><ele>22.0</ele><time>2026-04-25T10:22:10.342Z</time></trkpt><trkpt lat="45.5669704" lon="11.9269406"><ele>21.833333333333332</ele><time>2026-04-25T10:22:12.341Z</time></trkpt><trkpt lat="45.566851" lon="11.9269005"><ele>21.666666666666664</ele><time>2026-04-25T10:22:14.341Z</time></trkpt><trkpt lat="45.5667886" lon="11.9268767"><ele>21.5</ele><time>2026-04-25T10:22:15.341Z</time></trkpt><trkpt lat="45.5667259" lon="11.9268508"><ele>21.333333333333332</ele><time>2026-04-25T10:22:16.342Z</time></trkpt><trkpt lat="45.566664" lon="11.9268266"><ele>21.166666666666668</ele><time>2026-04-25T10:22:17.34Z</time></trkpt><trkpt lat="45.5666019" lon="11.9268046"><ele>21.0</ele><time>2026-04-25T10:22:18.341Z</time></trkpt><trkpt lat="45.5664813" lon="11.9267611"><ele>21.0</ele><time>2026-04-25T10:22:20.34Z</time></trkpt><trkpt lat="45.5664176" lon="11.9267415"><ele>21.0</ele><time>2026-04-25T10:22:21.34Z</time></trkpt><trkpt lat="45.5663545" lon="11.9267277"><ele>21.0</ele><time>2026-04-25T10:22:22.34Z</time></trkpt><trkpt lat="45.5662343" lon="11.9266781"><ele>21.0</ele><time>2026-04-25T10:22:24.34Z</time></trkpt><trkpt lat="45.5661178" lon="11.9266228"><ele>21.0</ele><time>2026-04-25T10:22:26.341Z</time></trkpt><trkpt lat="45.565998" lon="11.9265798"><ele>21.0</ele><time>2026-04-25T10:22:28.341Z</time></trkpt><trkpt lat="45.5659355" lon="11.9265576"><ele>21.0</ele><time>2026-04-25T10:22:29.34Z</time></trkpt><trkpt lat="45.5658117" lon="11.9265177"><ele>21.0</ele><time>2026-04-25T10:22:31.34Z</time></trkpt><trkpt lat="45.5656909" lon="11.9264811"><ele>21.0</ele><time>2026-04-25T10:22:33.341Z</time></trkpt><trkpt lat="45.565567" lon="11.9264509"><ele>21.0</ele><time>2026-04-25T10:22:35.34Z</time></trkpt><trkpt lat="45.5655034" lon="11.9264347"><ele>21.0</ele><time>2026-04-25T10:22:36.34Z</time></trkpt><trkpt lat="45.5653808" lon="11.9264136"><ele>21.0</ele><time>2026-04-25T10:22:38.34Z</time></trkpt><trkpt lat="45.5652635" lon="11.926387"><ele>21.0</ele><time>2026-04-25T10:22:40.34Z</time></trkpt><trkpt lat="45.5651476" lon="11.9263511"><ele>21.0</ele><time>2026-04-25T10:22:42.34Z</time></trkpt><trkpt lat="45.5650266" lon="11.9263067"><ele>21.0</ele><time>2026-04-25T10:22:44.34Z</time></trkpt><trkpt lat="45.5649057" lon="11.9262643"><ele>21.0</ele><time>2026-04-25T10:22:46.34Z</time></trkpt><trkpt lat="45.5647828" lon="11.9262479"><ele>21.0</ele><time>2026-04-25T10:22:48.341Z</time></trkpt><trkpt lat="45.5646569" lon="11.9262221"><ele>21.0</ele><time>2026-04-25T10:22:50.34Z</time></trkpt><trkpt lat="45.5645954" lon="11.9261986"><ele>21.0</ele><time>2026-04-25T10:22:51.341Z</time></trkpt><trkpt lat="45.5645334" lon="11.9261779"><ele>21.0</ele><time>2026-04-25T10:22:52.34Z</time></trkpt><trkpt lat="45.5644696" lon="11.9261499"><ele>21.0</ele><time>2026-04-25T10:22:53.34Z</time></trkpt><trkpt lat="45.5644065" lon="11.9261297"><ele>21.0</ele><time>2026-04-25T10:22:54.34Z</time></trkpt><trkpt lat="45.5643417" lon="11.9261037"><ele>21.0</ele><time>2026-04-25T10:22:55.34Z</time></trkpt><trkpt lat="45.5642739" lon="11.9260787"><ele>21.0</ele><time>2026-04-25T10:22:56.34Z</time></trkpt><trkpt lat="45.5641649" lon="11.9260043"><ele>21.0</ele><time>2026-04-25T10:22:58.34Z</time></trkpt><trkpt lat="45.5640507" lon="11.9259527"><ele>21.0</ele><time>2026-04-25T10:23:00.34Z</time></trkpt><trkpt lat="45.5639317" lon="11.9259092"><ele>21.0</ele><time>2026-04-25T10:23:02.34Z</time></trkpt><trkpt lat="45.5638675" lon="11.9258892"><ele>21.0</ele><time>2026-04-25T10:23:03.34Z</time></trkpt><trkpt lat="45.5638071" lon="11.9258598"><ele>21.0</ele><time>2026-04-25T10:23:04.34Z</time></trkpt><trkpt lat="45.5636912" lon="11.9258029"><ele>21.0</ele><time>2026-04-25T10:23:06.34Z</time></trkpt><trkpt lat="45.5635805" lon="11.9257551"><ele>21.200000000000003</ele><time>2026-04-25T10:23:08.34Z</time></trkpt><trkpt lat="45.5634728" lon="11.9256881"><ele>21.400000000000002</ele><time>2026-04-25T10:23:10.34Z</time></trkpt><trkpt lat="45.5633628" lon="11.925622"><ele>21.6</ele><time>2026-04-25T10:23:12.337Z</time></trkpt><trkpt lat="45.5633045" lon="11.9255806"><ele>21.8</ele><time>2026-04-25T10:23:13.341Z</time></trkpt><trkpt lat="45.5631895" lon="11.9255076"><ele>22.0</ele><time>2026-04-25T10:23:15.34Z</time></trkpt><trkpt lat="45.5631337" lon="11.9254588"><ele>22.0</ele><time>2026-04-25T10:23:16.34Z</time></trkpt><trkpt lat="45.5630851" lon="11.9254003"><ele>22.0</ele><time>2026-04-25T10:23:17.34Z</time></trkpt><trkpt lat="45.5629874" lon="11.9252844"><ele>22.0</ele><time>2026-04-25T10:23:19.34Z</time></trkpt><trkpt lat="45.5629242" lon="11.9252432"><ele>22.0</ele><time>2026-04-25T10:23:20.34Z</time></trkpt><trkpt lat="45.5628142" lon="11.9251603"><ele>22.0</ele><time>2026-04-25T10:23:22.34Z</time></trkpt><trkpt lat="45.5627052" lon="11.9250812"><ele>22.5</ele><time>2026-04-25T10:23:24.34Z</time></trkpt><trkpt lat="45.5626025" lon="11.9249957"><ele>23.0</ele><time>2026-04-25T10:23:26.34Z</time></trkpt><trkpt lat="45.5625114" lon="11.9248967"><ele>23.5</ele><time>2026-04-25T10:23:28.341Z</time></trkpt><trkpt lat="45.5624224" lon="11.9248084"><ele>24.0</ele><time>2026-04-25T10:23:30.34Z</time></trkpt><trkpt lat="45.5623229" lon="11.9247251"><ele>24.0</ele><time>2026-04-25T10:23:32.34Z</time></trkpt><trkpt lat="45.562214" lon="11.9246999"><ele>24.0</ele><time>2026-04-25T10:23:34.34Z</time></trkpt><trkpt lat="45.5621153" lon="11.9247594"><ele>24.0</ele><time>2026-04-25T10:23:36.34Z</time></trkpt><trkpt lat="45.5620059" lon="11.9247527"><ele>24.0</ele><time>2026-04-25T10:23:38.34Z</time></trkpt><trkpt lat="45.5618981" lon="11.9246597"><ele>23.5</ele><time>2026-04-25T10:23:40.34Z</time></trkpt><trkpt lat="45.5618155" lon="11.924566"><ele>23.0</ele><time>2026-04-25T10:23:42.34Z</time></trkpt><trkpt lat="45.5617189" lon="11.9244739"><ele>22.5</ele><time>2026-04-25T10:23:44.34Z</time></trkpt><trkpt lat="45.5616662" lon="11.9244232"><ele>22.0</ele><time>2026-04-25T10:23:45.34Z</time></trkpt><trkpt lat="45.5616086" lon="11.9243765"><ele>21.5</ele><time>2026-04-25T10:23:46.34Z</time></trkpt><trkpt lat="45.5615511" lon="11.9243389"><ele>21.0</ele><time>2026-04-25T10:23:47.34Z</time></trkpt><trkpt lat="45.5614881" lon="11.924309"><ele>21.0</ele><time>2026-04-25T10:23:48.34Z</time></trkpt><trkpt lat="45.56142" lon="11.9242853"><ele>21.0</ele><time>2026-04-25T10:23:49.34Z</time></trkpt><trkpt lat="45.5613529" lon="11.9242656"><ele>21.0</ele><time>2026-04-25T10:23:50.34Z</time></trkpt><trkpt lat="45.5612872" lon="11.924241"><ele>21.0</ele><time>2026-04-25T10:23:51.341Z</time></trkpt><trkpt lat="45.5612244" lon="11.9242173"><ele>21.0</ele><time>2026-04-25T10:23:52.341Z</time></trkpt><trkpt lat="45.5611607" lon="11.9241953"><ele>21.0</ele><time>2026-04-25T10:23:53.34Z</time></trkpt><trkpt lat="45.5610973" lon="11.9241738"><ele>21.0</ele><time>2026-04-25T10:23:54.34Z</time></trkpt><trkpt lat="45.5610355" lon="11.924153"><ele>20.666666666666668</ele><time>2026-04-25T10:23:55.34Z</time></trkpt><trkpt lat="45.5609121" lon="11.9241173"><ele>20.333333333333332</ele><time>2026-04-25T10:23:57.341Z</time></trkpt><trkpt lat="45.5608498" lon="11.9240906"><ele>20.0</ele><time>2026-04-25T10:23:58.34Z</time></trkpt><trkpt lat="45.5607882" lon="11.9240651"><ele>19.666666666666664</ele><time>2026-04-25T10:23:59.34Z</time></trkpt><trkpt lat="45.5607246" lon="11.9240387"><ele>19.333333333333332</ele><time>2026-04-25T10:24:00.34Z</time></trkpt><trkpt lat="45.5606616" lon="11.9240175"><ele>19.0</ele><time>2026-04-25T10:24:01.34Z</time></trkpt><trkpt lat="45.5605993" lon="11.9239909"><ele>19.0</ele><time>2026-04-25T10:24:02.34Z</time></trkpt><trkpt lat="45.5605371" lon="11.9239626"><ele>19.0</ele><time>2026-04-25T10:24:03.34Z</time></trkpt><trkpt lat="45.5604695" lon="11.9239316"><ele>19.0</ele><time>2026-04-25T10:24:04.341Z</time></trkpt><trkpt lat="45.5604035" lon="11.9239053"><ele>19.0</ele><time>2026-04-25T10:24:05.341Z</time></trkpt><trkpt lat="45.5603369" lon="11.9238809"><ele>19.0</ele><time>2026-04-25T10:24:06.34Z</time></trkpt><trkpt lat="45.5602731" lon="11.9238575"><ele>19.0</ele><time>2026-04-25T10:24:07.341Z</time></trkpt><trkpt lat="45.5601555" lon="11.9238075"><ele>19.142857142857142</ele><time>2026-04-25T10:24:09.34Z</time></trkpt><trkpt lat="45.5600369" lon="11.9237633"><ele>19.28571428571429</ele><time>2026-04-25T10:24:11.341Z</time></trkpt><trkpt lat="45.5599762" lon="11.923739"><ele>19.42857142857143</ele><time>2026-04-25T10:24:12.34Z</time></trkpt><trkpt lat="45.5599143" lon="11.9237123"><ele>19.57142857142857</ele><time>2026-04-25T10:24:13.34Z</time></trkpt><trkpt lat="45.559854" lon="11.9236854"><ele>19.714285714285715</ele><time>2026-04-25T10:24:14.34Z</time></trkpt><trkpt lat="45.5597924" lon="11.9236659"><ele>19.857142857142858</ele><time>2026-04-25T10:24:15.341Z</time></trkpt><trkpt lat="45.5597283" lon="11.9236416"><ele>20.0</ele><time>2026-04-25T10:24:16.34Z</time></trkpt><trkpt lat="45.5596655" lon="11.9236163"><ele>20.0</ele><time>2026-04-25T10:24:17.34Z</time></trkpt><trkpt lat="45.5596013" lon="11.9235962"><ele>20.0</ele><time>2026-04-25T10:24:18.34Z</time></trkpt><trkpt lat="45.5595375" lon="11.9235747"><ele>20.0</ele><time>2026-04-25T10:24:19.34Z</time></trkpt><trkpt lat="45.5594693" lon="11.9235477"><ele>20.0</ele><time>2026-04-25T10:24:20.34Z</time></trkpt><trkpt lat="45.5594043" lon="11.9235237"><ele>20.0</ele><time>2026-04-25T10:24:21.34Z</time></trkpt><trkpt lat="45.5593409" lon="11.923503"><ele>20.0</ele><time>2026-04-25T10:24:22.34Z</time></trkpt><trkpt lat="45.55928" lon="11.9234777"><ele>20.0</ele><time>2026-04-25T10:24:23.34Z</time></trkpt><trkpt lat="45.5591664" lon="11.9234189"><ele>19.75</ele><time>2026-04-25T10:24:25.34Z</time></trkpt><trkpt lat="45.55905" lon="11.9233747"><ele>19.5</ele><time>2026-04-25T10:24:27.34Z</time></trkpt><trkpt lat="45.5589356" lon="11.9233511"><ele>19.25</ele><time>2026-04-25T10:24:29.34Z</time></trkpt><trkpt lat="45.5588166" lon="11.9233243"><ele>19.0</ele><time>2026-04-25T10:24:31.34Z</time></trkpt><trkpt lat="45.5587092" lon="11.9232969"><ele>19.0</ele><time>2026-04-25T10:24:33.34Z</time></trkpt><trkpt lat="45.5586029" lon="11.9232601"><ele>19.0</ele><time>2026-04-25T10:24:35.34Z</time></trkpt><trkpt lat="45.5584994" lon="11.9232442"><ele>19.0</ele><time>2026-04-25T10:24:37.34Z</time></trkpt><trkpt lat="45.5584025" lon="11.9232237"><ele>19.0</ele><time>2026-04-25T10:24:39.34Z</time></trkpt><trkpt lat="45.5583112" lon="11.9232233"><ele>19.0</ele><time>2026-04-25T10:24:41.34Z</time></trkpt><trkpt lat="45.5582236" lon="11.9232238"><ele>19.0</ele><time>2026-04-25T10:24:43.341Z</time></trkpt><trkpt lat="45.5581394" lon="11.9232228"><ele>19.0</ele><time>2026-04-25T10:24:45.34Z</time></trkpt><trkpt lat="45.5580563" lon="11.9232278"><ele>19.0</ele><time>2026-04-25T10:24:47.34Z</time></trkpt><trkpt lat="45.5579735" lon="11.9232045"><ele>19.0</ele><time>2026-04-25T10:24:49.34Z</time></trkpt><trkpt lat="45.5579137" lon="11.9231454"><ele>19.0</ele><time>2026-04-25T10:24:51.34Z</time></trkpt><trkpt lat="45.5578803" lon="11.9230345"><ele>19.0</ele><time>2026-04-25T10:24:54.34Z</time></trkpt><trkpt lat="45.5578729" lon="11.9229372"><ele>19.0</ele><time>2026-04-25T10:24:56.34Z</time></trkpt><trkpt lat="45.5578817" lon="11.9227999"><ele>19.0</ele><time>2026-04-25T10:24:58.34Z</time></trkpt><trkpt lat="45.5579033" lon="11.9226681"><ele>19.0</ele><time>2026-04-25T10:25:00.34Z</time></trkpt><trkpt lat="45.5579808" lon="11.9225847"><ele>19.0</ele><time>2026-04-25T10:25:02.34Z</time></trkpt><trkpt lat="45.558091" lon="11.9225545"><ele>19.0</ele><time>2026-04-25T10:25:04.34Z</time></trkpt><trkpt lat="45.558203" lon="11.9225834"><ele>19.0</ele><time>2026-04-25T10:25:06.34Z</time></trkpt><trkpt lat="45.5583217" lon="11.9226236"><ele>19.0</ele><time>2026-04-25T10:25:08.341Z</time></trkpt><trkpt lat="45.5584403" lon="11.9226542"><ele>19.0</ele><time>2026-04-25T10:25:10.34Z</time></trkpt><trkpt lat="45.5585598" lon="11.9226939"><ele>19.0</ele><time>2026-04-25T10:25:12.341Z</time></trkpt><trkpt lat="45.5586756" lon="11.9227396"><ele>19.0</ele><time>2026-04-25T10:25:14.34Z</time></trkpt><trkpt lat="45.5587976" lon="11.9227867"><ele>19.0</ele><time>2026-04-25T10:25:16.34Z</time></trkpt><trkpt lat="45.5588612" lon="11.9228122"><ele>19.0</ele><time>2026-04-25T10:25:17.34Z</time></trkpt><trkpt lat="45.5589829" lon="11.9228617"><ele>19.0</ele><time>2026-04-25T10:25:19.341Z</time></trkpt><trkpt lat="45.5590464" lon="11.9228834"><ele>19.0</ele><time>2026-04-25T10:25:20.34Z</time></trkpt><trkpt lat="45.5591089" lon="11.9229099"><ele>19.0</ele><time>2026-04-25T10:25:21.34Z</time></trkpt><trkpt lat="45.559175" lon="11.9229355"><ele>19.0</ele><time>2026-04-25T10:25:22.34Z</time></trkpt><trkpt lat="45.5592384" lon="11.9229577"><ele>19.0</ele><time>2026-04-25T10:25:23.34Z</time></trkpt><trkpt lat="45.5592998" lon="11.9229823"><ele>19.0</ele><time>2026-04-25T10:25:24.341Z</time></trkpt><trkpt lat="45.5594117" lon="11.9230315"><ele>19.0</ele><time>2026-04-25T10:25:26.34Z</time></trkpt><trkpt lat="45.5595213" lon="11.9230861"><ele>19.0</ele><time>2026-04-25T10:25:28.34Z</time></trkpt><trkpt lat="45.5596375" lon="11.9231407"><ele>19.0</ele><time>2026-04-25T10:25:30.34Z</time></trkpt><trkpt lat="45.5596981" lon="11.9231662"><ele>19.0</ele><time>2026-04-25T10:25:31.34Z</time></trkpt><trkpt lat="45.5597594" lon="11.9231909"><ele>19.0</ele><time>2026-04-25T10:25:32.34Z</time></trkpt><trkpt lat="45.5598806" lon="11.923242"><ele>19.0</ele><time>2026-04-25T10:25:34.341Z</time></trkpt><trkpt lat="45.559944" lon="11.9232625"><ele>19.0</ele><time>2026-04-25T10:25:35.34Z</time></trkpt><trkpt lat="45.5600048" lon="11.9232895"><ele>19.0</ele><time>2026-04-25T10:25:36.34Z</time></trkpt><trkpt lat="45.5600664" lon="11.9233175"><ele>19.0</ele><time>2026-04-25T10:25:37.34Z</time></trkpt><trkpt lat="45.560182" lon="11.9233728"><ele>19.0</ele><time>2026-04-25T10:25:39.341Z</time></trkpt><trkpt lat="45.5602972" lon="11.9234222"><ele>19.0</ele><time>2026-04-25T10:25:41.34Z</time></trkpt><trkpt lat="45.5604169" lon="11.9234728"><ele>19.0</ele><time>2026-04-25T10:25:43.34Z</time></trkpt><trkpt lat="45.5604802" lon="11.9235031"><ele>19.0</ele><time>2026-04-25T10:25:44.34Z</time></trkpt><trkpt lat="45.5605415" lon="11.9235251"><ele>19.0</ele><time>2026-04-25T10:25:45.34Z</time></trkpt><trkpt lat="45.5606603" lon="11.923564"><ele>19.0</ele><time>2026-04-25T10:25:47.34Z</time></trkpt><trkpt lat="45.5607688" lon="11.9236039"><ele>19.0</ele><time>2026-04-25T10:25:49.34Z</time></trkpt><trkpt lat="45.5608798" lon="11.9236406"><ele>19.0</ele><time>2026-04-25T10:25:51.339Z</time></trkpt><trkpt lat="45.5609814" lon="11.9236883"><ele>19.0</ele><time>2026-04-25T10:25:53.339Z</time></trkpt><trkpt lat="45.5610778" lon="11.9237315"><ele>19.0</ele><time>2026-04-25T10:25:55.339Z</time></trkpt><trkpt lat="45.5611297" lon="11.9236654"><ele>19.0</ele><time>2026-04-25T10:25:58.339Z</time></trkpt><trkpt lat="45.5610797" lon="11.9236039"><ele>19.0</ele><time>2026-04-25T10:26:01.339Z</time></trkpt><trkpt lat="45.5610295" lon="11.92354"><ele>19.0</ele><time>2026-04-25T10:26:05.339Z</time></trkpt><trkpt lat="45.5609865" lon="11.9234235"><ele>19.0</ele><time>2026-04-25T10:26:08.339Z</time></trkpt><trkpt lat="45.5609436" lon="11.9233554"><ele>19.0</ele><time>2026-04-25T10:26:10.339Z</time></trkpt><trkpt lat="45.5608825" lon="11.9232903"><ele>19.0</ele><time>2026-04-25T10:26:12.339Z</time></trkpt><trkpt lat="45.5608313" lon="11.9231776"><ele>19.4</ele><time>2026-04-25T10:26:14.339Z</time></trkpt><trkpt lat="45.5607738" lon="11.9230506"><ele>19.799999999999997</ele><time>2026-04-25T10:26:16.339Z</time></trkpt><trkpt lat="45.5607185" lon="11.9229305"><ele>20.200000000000003</ele><time>2026-04-25T10:26:18.34Z</time></trkpt><trkpt lat="45.5606636" lon="11.9228065"><ele>20.6</ele><time>2026-04-25T10:26:20.34Z</time></trkpt><trkpt lat="45.5606" lon="11.9226732"><ele>21.0</ele><time>2026-04-25T10:26:22.339Z</time></trkpt><trkpt lat="45.5605361" lon="11.9225341"><ele>21.0</ele><time>2026-04-25T10:26:24.339Z</time></trkpt><trkpt lat="45.5605069" lon="11.9224524"><ele>21.0</ele><time>2026-04-25T10:26:25.339Z</time></trkpt><trkpt lat="45.5604787" lon="11.9223683"><ele>21.0</ele><time>2026-04-25T10:26:26.339Z</time></trkpt><trkpt lat="45.5604522" lon="11.9222805"><ele>21.0</ele><time>2026-04-25T10:26:27.339Z</time></trkpt><trkpt lat="45.5604246" lon="11.9221986"><ele>21.0</ele><time>2026-04-25T10:26:28.339Z</time></trkpt><trkpt lat="45.560393" lon="11.9221156"><ele>21.0</ele><time>2026-04-25T10:26:29.339Z</time></trkpt><trkpt lat="45.5603648" lon="11.9220306"><ele>21.0</ele><time>2026-04-25T10:26:30.34Z</time></trkpt><trkpt lat="45.5603317" lon="11.9219487"><ele>21.0</ele><time>2026-04-25T10:26:31.34Z</time></trkpt><trkpt lat="45.5603013" lon="11.9218627"><ele>21.0</ele><time>2026-04-25T10:26:32.339Z</time></trkpt><trkpt lat="45.5602739" lon="11.9217802"><ele>21.0</ele><time>2026-04-25T10:26:33.339Z</time></trkpt><trkpt lat="45.560224" lon="11.921622"><ele>21.0</ele><time>2026-04-25T10:26:35.34Z</time></trkpt><trkpt lat="45.5601914" lon="11.9214489"><ele>21.0</ele><time>2026-04-25T10:26:37.339Z</time></trkpt><trkpt lat="45.5601746" lon="11.921353"><ele>21.0</ele><time>2026-04-25T10:26:38.339Z</time></trkpt><trkpt lat="45.5601537" lon="11.9212636"><ele>21.0</ele><time>2026-04-25T10:26:39.339Z</time></trkpt><trkpt lat="45.5601274" lon="11.9210985"><ele>21.0</ele><time>2026-04-25T10:26:41.339Z</time></trkpt><trkpt lat="45.5601109" lon="11.9210053"><ele>21.0</ele><time>2026-04-25T10:26:42.339Z</time></trkpt><trkpt lat="45.5600909" lon="11.9209054"><ele>21.0</ele><time>2026-04-25T10:26:43.339Z</time></trkpt><trkpt lat="45.5600467" lon="11.9207352"><ele>21.0</ele><time>2026-04-25T10:26:45.339Z</time></trkpt><trkpt lat="45.5600167" lon="11.9205641"><ele>21.0</ele><time>2026-04-25T10:26:47.339Z</time></trkpt><trkpt lat="45.5600025" lon="11.9204635"><ele>21.0</ele><time>2026-04-25T10:26:48.34Z</time></trkpt><trkpt lat="45.5599843" lon="11.9203735"><ele>21.0</ele><time>2026-04-25T10:26:49.339Z</time></trkpt><trkpt lat="45.5599673" lon="11.9202791"><ele>21.0</ele><time>2026-04-25T10:26:50.339Z</time></trkpt><trkpt lat="45.5599478" lon="11.9201832"><ele>21.0</ele><time>2026-04-25T10:26:51.339Z</time></trkpt><trkpt lat="45.5599268" lon="11.9200936"><ele>21.0</ele><time>2026-04-25T10:26:52.339Z</time></trkpt><trkpt lat="45.559904" lon="11.9200019"><ele>21.0</ele><time>2026-04-25T10:26:53.339Z</time></trkpt><trkpt lat="45.5598834" lon="11.9199081"><ele>20.666666666666668</ele><time>2026-04-25T10:26:54.339Z</time></trkpt><trkpt lat="45.5598625" lon="11.9198114"><ele>20.333333333333332</ele><time>2026-04-25T10:26:55.339Z</time></trkpt><trkpt lat="45.559843" lon="11.9197251"><ele>20.0</ele><time>2026-04-25T10:26:56.339Z</time></trkpt><trkpt lat="45.5598217" lon="11.9196386"><ele>19.666666666666664</ele><time>2026-04-25T10:26:57.34Z</time></trkpt><trkpt lat="45.5598025" lon="11.919552"><ele>19.333333333333332</ele><time>2026-04-25T10:26:58.34Z</time></trkpt><trkpt lat="45.5597825" lon="11.9194608"><ele>19.0</ele><time>2026-04-25T10:26:59.339Z</time></trkpt><trkpt lat="45.5597477" lon="11.9192908"><ele>19.166666666666664</ele><time>2026-04-25T10:27:01.339Z</time></trkpt><trkpt lat="45.5597203" lon="11.9191309"><ele>19.333333333333332</ele><time>2026-04-25T10:27:03.339Z</time></trkpt><trkpt lat="45.5596947" lon="11.9190357"><ele>19.5</ele><time>2026-04-25T10:27:04.339Z</time></trkpt><trkpt lat="45.5596703" lon="11.9189368"><ele>19.666666666666668</ele><time>2026-04-25T10:27:05.339Z</time></trkpt><trkpt lat="45.5596474" lon="11.9188418"><ele>19.833333333333336</ele><time>2026-04-25T10:27:06.34Z</time></trkpt><trkpt lat="45.5596311" lon="11.9187401"><ele>20.0</ele><time>2026-04-25T10:27:07.339Z</time></trkpt><trkpt lat="45.559609" lon="11.9186493"><ele>20.0</ele><time>2026-04-25T10:27:08.339Z</time></trkpt><trkpt lat="45.5595842" lon="11.9185562"><ele>20.0</ele><time>2026-04-25T10:27:09.339Z</time></trkpt><trkpt lat="45.5595595" lon="11.9184695"><ele>20.0</ele><time>2026-04-25T10:27:10.339Z</time></trkpt><trkpt lat="45.5595376" lon="11.9183821"><ele>20.0</ele><time>2026-04-25T10:27:11.339Z</time></trkpt><trkpt lat="45.5595207" lon="11.918295"><ele>20.0</ele><time>2026-04-25T10:27:12.339Z</time></trkpt><trkpt lat="45.5594921" lon="11.9181361"><ele>20.0</ele><time>2026-04-25T10:27:14.34Z</time></trkpt><trkpt lat="45.5594655" lon="11.9179805"><ele>20.0</ele><time>2026-04-25T10:27:16.339Z</time></trkpt><trkpt lat="45.5594312" lon="11.917843"><ele>20.0</ele><time>2026-04-25T10:27:18.339Z</time></trkpt><trkpt lat="45.5594038" lon="11.9177199"><ele>20.0</ele><time>2026-04-25T10:27:20.339Z</time></trkpt><trkpt lat="45.5593853" lon="11.9175829"><ele>20.0</ele><time>2026-04-25T10:27:22.339Z</time></trkpt><trkpt lat="45.5593657" lon="11.9174238"><ele>20.0</ele><time>2026-04-25T10:27:24.339Z</time></trkpt><trkpt lat="45.5593319" lon="11.9172895"><ele>20.0</ele><time>2026-04-25T10:27:26.339Z</time></trkpt><trkpt lat="45.5592981" lon="11.9171549"><ele>20.0</ele><time>2026-04-25T10:27:28.339Z</time></trkpt><trkpt lat="45.559269" lon="11.9170234"><ele>20.0</ele><time>2026-04-25T10:27:30.339Z</time></trkpt><trkpt lat="45.5592356" lon="11.9168682"><ele>20.0</ele><time>2026-04-25T10:27:32.339Z</time></trkpt><trkpt lat="45.5592073" lon="11.9167079"><ele>20.0</ele><time>2026-04-25T10:27:34.339Z</time></trkpt><trkpt lat="45.5591794" lon="11.9165466"><ele>20.2</ele><time>2026-04-25T10:27:36.339Z</time></trkpt><trkpt lat="45.5591502" lon="11.9164605"><ele>20.4</ele><time>2026-04-25T10:27:37.339Z</time></trkpt><trkpt lat="45.5591143" lon="11.9162942"><ele>20.6</ele><time>2026-04-25T10:27:39.339Z</time></trkpt><trkpt lat="45.5590709" lon="11.9161363"><ele>20.8</ele><time>2026-04-25T10:27:41.339Z</time></trkpt><trkpt lat="45.5590297" lon="11.9159623"><ele>21.0</ele><time>2026-04-25T10:27:43.339Z</time></trkpt><trkpt lat="45.5590088" lon="11.9158695"><ele>21.0</ele><time>2026-04-25T10:27:44.339Z</time></trkpt><trkpt lat="45.5589924" lon="11.9157741"><ele>21.0</ele><time>2026-04-25T10:27:45.339Z</time></trkpt><trkpt lat="45.5589791" lon="11.9156862"><ele>21.0</ele><time>2026-04-25T10:27:46.339Z</time></trkpt><trkpt lat="45.5589557" lon="11.9155985"><ele>21.0</ele><time>2026-04-25T10:27:47.339Z</time></trkpt><trkpt lat="45.5589307" lon="11.9155055"><ele>21.0</ele><time>2026-04-25T10:27:48.339Z</time></trkpt><trkpt lat="45.5589104" lon="11.9154146"><ele>21.0</ele><time>2026-04-25T10:27:49.339Z</time></trkpt><trkpt lat="45.5588973" lon="11.9153211"><ele>21.0</ele><time>2026-04-25T10:27:50.339Z</time></trkpt><trkpt lat="45.5588812" lon="11.9152321"><ele>21.0</ele><time>2026-04-25T10:27:51.339Z</time></trkpt><trkpt lat="45.5588607" lon="11.9151447"><ele>21.0</ele><time>2026-04-25T10:27:52.339Z</time></trkpt><trkpt lat="45.5588219" lon="11.9149932"><ele>21.0</ele><time>2026-04-25T10:27:54.339Z</time></trkpt><trkpt lat="45.5587921" lon="11.9148147"><ele>21.0</ele><time>2026-04-25T10:27:56.339Z</time></trkpt><trkpt lat="45.5587699" lon="11.914721"><ele>21.0</ele><time>2026-04-25T10:27:57.339Z</time></trkpt><trkpt lat="45.5587475" lon="11.9146345"><ele>21.0</ele><time>2026-04-25T10:27:58.34Z</time></trkpt><trkpt lat="45.5587263" lon="11.9145462"><ele>21.0</ele><time>2026-04-25T10:27:59.34Z</time></trkpt><trkpt lat="45.5587095" lon="11.914458"><ele>21.0</ele><time>2026-04-25T10:28:00.339Z</time></trkpt><trkpt lat="45.5586696" lon="11.9142932"><ele>21.0</ele><time>2026-04-25T10:28:02.34Z</time></trkpt><trkpt lat="45.5586377" lon="11.9141185"><ele>21.0</ele><time>2026-04-25T10:28:04.339Z</time></trkpt><trkpt lat="45.5586226" lon="11.9140286"><ele>21.0</ele><time>2026-04-25T10:28:05.339Z</time></trkpt><trkpt lat="45.5586056" lon="11.9139388"><ele>21.0</ele><time>2026-04-25T10:28:06.339Z</time></trkpt><trkpt lat="45.5585859" lon="11.9138384"><ele>21.0</ele><time>2026-04-25T10:28:07.339Z</time></trkpt><trkpt lat="45.5585699" lon="11.913751"><ele>21.0</ele><time>2026-04-25T10:28:08.339Z</time></trkpt><trkpt lat="45.5585301" lon="11.9135852"><ele>21.0</ele><time>2026-04-25T10:28:10.339Z</time></trkpt><trkpt lat="45.5585081" lon="11.9134877"><ele>21.0</ele><time>2026-04-25T10:28:11.339Z</time></trkpt><trkpt lat="45.5584859" lon="11.913398"><ele>21.0</ele><time>2026-04-25T10:28:12.339Z</time></trkpt><trkpt lat="45.5584642" lon="11.9133117"><ele>21.0</ele><time>2026-04-25T10:28:13.339Z</time></trkpt><trkpt lat="45.5584488" lon="11.9132194"><ele>21.0</ele><time>2026-04-25T10:28:14.339Z</time></trkpt><trkpt lat="45.5584331" lon="11.9131317"><ele>21.0</ele><time>2026-04-25T10:28:15.34Z</time></trkpt><trkpt lat="45.5584043" lon="11.9129613"><ele>21.0</ele><time>2026-04-25T10:28:17.339Z</time></trkpt><trkpt lat="45.5583737" lon="11.9127957"><ele>21.0</ele><time>2026-04-25T10:28:19.339Z</time></trkpt><trkpt lat="45.5583398" lon="11.9126486"><ele>21.0</ele><time>2026-04-25T10:28:21.34Z</time></trkpt><trkpt lat="45.5583088" lon="11.9125163"><ele>20.6</ele><time>2026-04-25T10:28:23.339Z</time></trkpt><trkpt lat="45.5582815" lon="11.9123829"><ele>20.200000000000003</ele><time>2026-04-25T10:28:25.34Z</time></trkpt><trkpt lat="45.5582446" lon="11.9122389"><ele>19.799999999999997</ele><time>2026-04-25T10:28:27.339Z</time></trkpt><trkpt lat="45.5582251" lon="11.9121514"><ele>19.4</ele><time>2026-04-25T10:28:28.339Z</time></trkpt><trkpt lat="45.5581867" lon="11.9119836"><ele>19.0</ele><time>2026-04-25T10:28:30.34Z</time></trkpt><trkpt lat="45.5581658" lon="11.9118942"><ele>19.333333333333332</ele><time>2026-04-25T10:28:31.339Z</time></trkpt><trkpt lat="45.5581417" lon="11.9117197"><ele>19.666666666666664</ele><time>2026-04-25T10:28:33.339Z</time></trkpt><trkpt lat="45.5581217" lon="11.9116316"><ele>20.0</ele><time>2026-04-25T10:28:34.339Z</time></trkpt><trkpt lat="45.5580862" lon="11.9114581"><ele>20.333333333333332</ele><time>2026-04-25T10:28:36.339Z</time></trkpt><trkpt lat="45.5580627" lon="11.9113697"><ele>20.666666666666668</ele><time>2026-04-25T10:28:37.339Z</time></trkpt><trkpt lat="45.5580442" lon="11.9112782"><ele>21.0</ele><time>2026-04-25T10:28:38.34Z</time></trkpt><trkpt lat="45.5580071" lon="11.9111104"><ele>21.0</ele><time>2026-04-25T10:28:40.339Z</time></trkpt><trkpt lat="45.5579673" lon="11.9109722"><ele>21.0</ele><time>2026-04-25T10:28:42.34Z</time></trkpt><trkpt lat="45.5579391" lon="11.9108893"><ele>21.0</ele><time>2026-04-25T10:28:43.34Z</time></trkpt><trkpt lat="45.5579053" lon="11.9107174"><ele>21.0</ele><time>2026-04-25T10:28:45.339Z</time></trkpt><trkpt lat="45.5579082" lon="11.9105604"><ele>21.0</ele><time>2026-04-25T10:28:47.34Z</time></trkpt><trkpt lat="45.5579301" lon="11.910434"><ele>21.333333333333332</ele><time>2026-04-25T10:28:49.339Z</time></trkpt><trkpt lat="45.5578527" lon="11.9104221"><ele>21.666666666666668</ele><time>2026-04-25T10:28:53.339Z</time></trkpt><trkpt lat="45.5577766" lon="11.9104381"><ele>22.0</ele><time>2026-04-25T10:28:55.339Z</time></trkpt><trkpt lat="45.5576907" lon="11.910442"><ele>22.333333333333336</ele><time>2026-04-25T10:28:57.339Z</time></trkpt><trkpt lat="45.55761" lon="11.9104728"><ele>22.666666666666668</ele><time>2026-04-25T10:28:59.339Z</time></trkpt><trkpt lat="45.5575174" lon="11.910497"><ele>23.0</ele><time>2026-04-25T10:29:01.339Z</time></trkpt><trkpt lat="45.5574143" lon="11.9104692"><ele>23.0</ele><time>2026-04-25T10:29:03.339Z</time></trkpt><trkpt lat="45.5573022" lon="11.9104137"><ele>23.0</ele><time>2026-04-25T10:29:05.339Z</time></trkpt><trkpt lat="45.5572398" lon="11.9103848"><ele>23.0</ele><time>2026-04-25T10:29:06.339Z</time></trkpt><trkpt lat="45.5571773" lon="11.9103593"><ele>23.0</ele><time>2026-04-25T10:29:07.34Z</time></trkpt><trkpt lat="45.5571154" lon="11.9103316"><ele>23.0</ele><time>2026-04-25T10:29:08.339Z</time></trkpt><trkpt lat="45.5570505" lon="11.910305"><ele>23.0</ele><time>2026-04-25T10:29:09.339Z</time></trkpt><trkpt lat="45.5569861" lon="11.9102765"><ele>23.0</ele><time>2026-04-25T10:29:10.339Z</time></trkpt><trkpt lat="45.5569223" lon="11.9102449"><ele>22.714285714285715</ele><time>2026-04-25T10:29:11.339Z</time></trkpt><trkpt lat="45.5568603" lon="11.9102182"><ele>22.428571428571427</ele><time>2026-04-25T10:29:12.339Z</time></trkpt><trkpt lat="45.5567981" lon="11.9101966"><ele>22.142857142857142</ele><time>2026-04-25T10:29:13.339Z</time></trkpt><trkpt lat="45.5567343" lon="11.9101723"><ele>21.857142857142858</ele><time>2026-04-25T10:29:14.339Z</time></trkpt><trkpt lat="45.5566719" lon="11.9101467"><ele>21.57142857142857</ele><time>2026-04-25T10:29:15.339Z</time></trkpt><trkpt lat="45.5566119" lon="11.9101187"><ele>21.285714285714285</ele><time>2026-04-25T10:29:16.339Z</time></trkpt><trkpt lat="45.5565523" lon="11.9100895"><ele>21.0</ele><time>2026-04-25T10:29:17.339Z</time></trkpt><trkpt lat="45.5564913" lon="11.9100589"><ele>20.857142857142858</ele><time>2026-04-25T10:29:18.339Z</time></trkpt><trkpt lat="45.5564287" lon="11.9100297"><ele>20.714285714285715</ele><time>2026-04-25T10:29:19.34Z</time></trkpt><trkpt lat="45.5563661" lon="11.9100056"><ele>20.57142857142857</ele><time>2026-04-25T10:29:20.339Z</time></trkpt><trkpt lat="45.5563034" lon="11.9099802"><ele>20.42857142857143</ele><time>2026-04-25T10:29:21.339Z</time></trkpt><trkpt lat="45.5562383" lon="11.9099507"><ele>20.285714285714285</ele><time>2026-04-25T10:29:22.339Z</time></trkpt><trkpt lat="45.5561776" lon="11.9099194"><ele>20.142857142857142</ele><time>2026-04-25T10:29:23.339Z</time></trkpt><trkpt lat="45.5561139" lon="11.9098911"><ele>20.0</ele><time>2026-04-25T10:29:24.339Z</time></trkpt><trkpt lat="45.555993" lon="11.9098507"><ele>19.833333333333336</ele><time>2026-04-25T10:29:26.339Z</time></trkpt><trkpt lat="45.55593" lon="11.9098336"><ele>19.666666666666668</ele><time>2026-04-25T10:29:27.338Z</time></trkpt><trkpt lat="45.5558651" lon="11.9098205"><ele>19.5</ele><time>2026-04-25T10:29:28.338Z</time></trkpt><trkpt lat="45.555803" lon="11.9098031"><ele>19.333333333333332</ele><time>2026-04-25T10:29:29.338Z</time></trkpt><trkpt lat="45.5556784" lon="11.9097772"><ele>19.166666666666664</ele><time>2026-04-25T10:29:31.338Z</time></trkpt><trkpt lat="45.5556141" lon="11.9097601"><ele>19.0</ele><time>2026-04-25T10:29:32.338Z</time></trkpt><trkpt lat="45.5555479" lon="11.9097447"><ele>19.0</ele><time>2026-04-25T10:29:33.338Z</time></trkpt><trkpt lat="45.5554823" lon="11.9097261"><ele>19.0</ele><time>2026-04-25T10:29:34.338Z</time></trkpt><trkpt lat="45.555417" lon="11.9097119"><ele>19.0</ele><time>2026-04-25T10:29:35.338Z</time></trkpt><trkpt lat="45.5553511" lon="11.9096968"><ele>19.0</ele><time>2026-04-25T10:29:36.338Z</time></trkpt><trkpt lat="45.5552877" lon="11.9096784"><ele>19.0</ele><time>2026-04-25T10:29:37.338Z</time></trkpt><trkpt lat="45.5552247" lon="11.9096625"><ele>19.0</ele><time>2026-04-25T10:29:38.338Z</time></trkpt><trkpt lat="45.55516" lon="11.9096492"><ele>19.0</ele><time>2026-04-25T10:29:39.338Z</time></trkpt><trkpt lat="45.5550956" lon="11.9096285"><ele>19.0</ele><time>2026-04-25T10:29:40.338Z</time></trkpt><trkpt lat="45.5550332" lon="11.9096086"><ele>19.0</ele><time>2026-04-25T10:29:41.339Z</time></trkpt><trkpt lat="45.554968" lon="11.9095919"><ele>19.0</ele><time>2026-04-25T10:29:42.339Z</time></trkpt><trkpt lat="45.554904" lon="11.9095825"><ele>19.0</ele><time>2026-04-25T10:29:43.338Z</time></trkpt><trkpt lat="45.5548395" lon="11.9095794"><ele>19.0</ele><time>2026-04-25T10:29:44.338Z</time></trkpt><trkpt lat="45.5547748" lon="11.9095822"><ele>19.0</ele><time>2026-04-25T10:29:45.338Z</time></trkpt><trkpt lat="45.5547114" lon="11.9095959"><ele>19.0</ele><time>2026-04-25T10:29:46.338Z</time></trkpt><trkpt lat="45.5546486" lon="11.9096295"><ele>19.0</ele><time>2026-04-25T10:29:47.338Z</time></trkpt><trkpt lat="45.5545365" lon="11.9097023"><ele>19.0</ele><time>2026-04-25T10:29:49.338Z</time></trkpt><trkpt lat="45.5544449" lon="11.909822"><ele>19.0</ele><time>2026-04-25T10:29:51.338Z</time></trkpt><trkpt lat="45.5543743" lon="11.9099435"><ele>19.0</ele><time>2026-04-25T10:29:53.338Z</time></trkpt><trkpt lat="45.5543224" lon="11.9100895"><ele>19.4</ele><time>2026-04-25T10:29:55.338Z</time></trkpt><trkpt lat="45.5542811" lon="11.9102394"><ele>19.799999999999997</ele><time>2026-04-25T10:29:57.339Z</time></trkpt><trkpt lat="45.5542527" lon="11.9103911"><ele>20.200000000000003</ele><time>2026-04-25T10:29:59.339Z</time></trkpt><trkpt lat="45.5542165" lon="11.9105384"><ele>20.6</ele><time>2026-04-25T10:30:01.338Z</time></trkpt><trkpt lat="45.554152" lon="11.9106738"><ele>21.0</ele><time>2026-04-25T10:30:03.339Z</time></trkpt><trkpt lat="45.5540435" lon="11.9107494"><ele>21.0</ele><time>2026-04-25T10:30:05.338Z</time></trkpt><trkpt lat="45.5539303" lon="11.9107593"><ele>21.0</ele><time>2026-04-25T10:30:07.339Z</time></trkpt><trkpt lat="45.5538091" lon="11.9107325"><ele>21.0</ele><time>2026-04-25T10:30:09.338Z</time></trkpt><trkpt lat="45.5537465" lon="11.9107214"><ele>21.0</ele><time>2026-04-25T10:30:10.338Z</time></trkpt><trkpt lat="45.5536293" lon="11.9107018"><ele>21.0</ele><time>2026-04-25T10:30:12.338Z</time></trkpt><trkpt lat="45.5535153" lon="11.9106737"><ele>21.0</ele><time>2026-04-25T10:30:14.338Z</time></trkpt><trkpt lat="45.5533955" lon="11.910643"><ele>21.0</ele><time>2026-04-25T10:30:16.339Z</time></trkpt><trkpt lat="45.5533308" lon="11.9106343"><ele>21.0</ele><time>2026-04-25T10:30:17.338Z</time></trkpt><trkpt lat="45.5532657" lon="11.910623"><ele>21.0</ele><time>2026-04-25T10:30:18.338Z</time></trkpt><trkpt lat="45.5532008" lon="11.9106086"><ele>21.0</ele><time>2026-04-25T10:30:19.338Z</time></trkpt><trkpt lat="45.5531358" lon="11.9105971"><ele>21.0</ele><time>2026-04-25T10:30:20.338Z</time></trkpt><trkpt lat="45.5530688" lon="11.9105868"><ele>21.0</ele><time>2026-04-25T10:30:21.338Z</time></trkpt><trkpt lat="45.5530047" lon="11.9105852"><ele>21.0</ele><time>2026-04-25T10:30:22.338Z</time></trkpt><trkpt lat="45.5529412" lon="11.9105977"><ele>21.0</ele><time>2026-04-25T10:30:23.338Z</time></trkpt><trkpt lat="45.5528793" lon="11.9106207"><ele>21.0</ele><time>2026-04-25T10:30:24.338Z</time></trkpt><trkpt lat="45.5528177" lon="11.9106497"><ele>21.0</ele><time>2026-04-25T10:30:25.338Z</time></trkpt><trkpt lat="45.5527086" lon="11.910731"><ele>21.0</ele><time>2026-04-25T10:30:27.339Z</time></trkpt><trkpt lat="45.5526497" lon="11.910775"><ele>21.0</ele><time>2026-04-25T10:30:28.338Z</time></trkpt><trkpt lat="45.5525884" lon="11.9108136"><ele>21.0</ele><time>2026-04-25T10:30:29.339Z</time></trkpt><trkpt lat="45.5525247" lon="11.9108505"><ele>21.0</ele><time>2026-04-25T10:30:30.338Z</time></trkpt><trkpt lat="45.5524605" lon="11.9108818"><ele>21.0</ele><time>2026-04-25T10:30:31.338Z</time></trkpt><trkpt lat="45.5523968" lon="11.910899"><ele>21.0</ele><time>2026-04-25T10:30:32.338Z</time></trkpt><trkpt lat="45.552268" lon="11.9109174"><ele>21.0</ele><time>2026-04-25T10:30:34.338Z</time></trkpt><trkpt lat="45.5522003" lon="11.9109204"><ele>21.0</ele><time>2026-04-25T10:30:35.338Z</time></trkpt><trkpt lat="45.5521318" lon="11.910919"><ele>21.0</ele><time>2026-04-25T10:30:36.338Z</time></trkpt><trkpt lat="45.5520667" lon="11.9109133"><ele>21.0</ele><time>2026-04-25T10:30:37.339Z</time></trkpt><trkpt lat="45.5520008" lon="11.9109066"><ele>21.0</ele><time>2026-04-25T10:30:38.338Z</time></trkpt><trkpt lat="45.5519373" lon="11.9108993"><ele>21.0</ele><time>2026-04-25T10:30:39.338Z</time></trkpt><trkpt lat="45.5518193" lon="11.9108857"><ele>21.0</ele><time>2026-04-25T10:30:41.338Z</time></trkpt><trkpt lat="45.5516977" lon="11.9109216"><ele>21.0</ele><time>2026-04-25T10:30:43.338Z</time></trkpt><trkpt lat="45.551644" lon="11.9109749"><ele>20.8</ele><time>2026-04-25T10:30:44.338Z</time></trkpt><trkpt lat="45.5515938" lon="11.9110385"><ele>20.6</ele><time>2026-04-25T10:30:45.338Z</time></trkpt><trkpt lat="45.5515157" lon="11.9111774"><ele>20.4</ele><time>2026-04-25T10:30:47.338Z</time></trkpt><trkpt lat="45.5514818" lon="11.9112546"><ele>20.2</ele><time>2026-04-25T10:30:48.338Z</time></trkpt><trkpt lat="45.5514103" lon="11.9113972"><ele>20.0</ele><time>2026-04-25T10:30:50.339Z</time></trkpt><trkpt lat="45.5513449" lon="11.9115249"><ele>20.0</ele><time>2026-04-25T10:30:52.338Z</time></trkpt><trkpt lat="45.5512515" lon="11.9116466"><ele>20.0</ele><time>2026-04-25T10:30:54.338Z</time></trkpt><trkpt lat="45.5511989" lon="11.9116967"><ele>20.0</ele><time>2026-04-25T10:30:55.338Z</time></trkpt><trkpt lat="45.5510803" lon="11.9117584"><ele>20.0</ele><time>2026-04-25T10:30:57.338Z</time></trkpt><trkpt lat="45.5510157" lon="11.9117666"><ele>20.0</ele><time>2026-04-25T10:30:58.338Z</time></trkpt><trkpt lat="45.5509476" lon="11.9117511"><ele>20.0</ele><time>2026-04-25T10:30:59.338Z</time></trkpt><trkpt lat="45.5508793" lon="11.9117332"><ele>20.0</ele><time>2026-04-25T10:31:00.339Z</time></trkpt><trkpt lat="45.550815" lon="11.9117057"><ele>20.0</ele><time>2026-04-25T10:31:01.338Z</time></trkpt><trkpt lat="45.5507459" lon="11.9116793"><ele>20.0</ele><time>2026-04-25T10:31:02.338Z</time></trkpt><trkpt lat="45.5506801" lon="11.9116507"><ele>20.0</ele><time>2026-04-25T10:31:03.338Z</time></trkpt><trkpt lat="45.5506138" lon="11.9116231"><ele>20.0</ele><time>2026-04-25T10:31:04.338Z</time></trkpt><trkpt lat="45.5505443" lon="11.9115968"><ele>20.0</ele><time>2026-04-25T10:31:05.338Z</time></trkpt><trkpt lat="45.5504789" lon="11.9115721"><ele>20.0</ele><time>2026-04-25T10:31:06.339Z</time></trkpt><trkpt lat="45.5504131" lon="11.9115371"><ele>20.0</ele><time>2026-04-25T10:31:07.338Z</time></trkpt><trkpt lat="45.5503496" lon="11.9115052"><ele>20.0</ele><time>2026-04-25T10:31:08.339Z</time></trkpt><trkpt lat="45.5502872" lon="11.9114782"><ele>20.0</ele><time>2026-04-25T10:31:09.338Z</time></trkpt><trkpt lat="45.5502233" lon="11.9114597"><ele>20.0</ele><time>2026-04-25T10:31:10.338Z</time></trkpt><trkpt lat="45.55016" lon="11.9114495"><ele>20.0</ele><time>2026-04-25T10:31:11.338Z</time></trkpt><trkpt lat="45.5500433" lon="11.9114902"><ele>20.0</ele><time>2026-04-25T10:31:13.338Z</time></trkpt><trkpt lat="45.5499477" lon="11.9115956"><ele>20.0</ele><time>2026-04-25T10:31:15.338Z</time></trkpt><trkpt lat="45.5498661" lon="11.9117199"><ele>20.0</ele><time>2026-04-25T10:31:17.338Z</time></trkpt><trkpt lat="45.5498222" lon="11.9117849"><ele>20.0</ele><time>2026-04-25T10:31:18.338Z</time></trkpt><trkpt lat="45.5497765" lon="11.9118484"><ele>20.0</ele><time>2026-04-25T10:31:19.338Z</time></trkpt><trkpt lat="45.54973" lon="11.9119104"><ele>20.0</ele><time>2026-04-25T10:31:20.338Z</time></trkpt><trkpt lat="45.5496854" lon="11.9119745"><ele>20.0</ele><time>2026-04-25T10:31:21.338Z</time></trkpt><trkpt lat="45.5495885" lon="11.9120928"><ele>20.0</ele><time>2026-04-25T10:31:23.338Z</time></trkpt><trkpt lat="45.5495237" lon="11.9121223"><ele>20.0</ele><time>2026-04-25T10:31:24.338Z</time></trkpt><trkpt lat="45.5494596" lon="11.9121512"><ele>20.0</ele><time>2026-04-25T10:31:25.338Z</time></trkpt><trkpt lat="45.5493962" lon="11.9121722"><ele>20.0</ele><time>2026-04-25T10:31:26.338Z</time></trkpt><trkpt lat="45.549329" lon="11.9121926"><ele>20.0</ele><time>2026-04-25T10:31:27.338Z</time></trkpt><trkpt lat="45.5492612" lon="11.9121933"><ele>19.5</ele><time>2026-04-25T10:31:28.338Z</time></trkpt><trkpt lat="45.5491932" lon="11.9122009"><ele>19.0</ele><time>2026-04-25T10:31:29.338Z</time></trkpt><trkpt lat="45.5491284" lon="11.9122155"><ele>18.5</ele><time>2026-04-25T10:31:30.338Z</time></trkpt><trkpt lat="45.5490653" lon="11.9122303"><ele>18.0</ele><time>2026-04-25T10:31:31.338Z</time></trkpt><trkpt lat="45.5489471" lon="11.9122277"><ele>17.5</ele><time>2026-04-25T10:31:33.338Z</time></trkpt><trkpt lat="45.5488236" lon="11.9122556"><ele>17.0</ele><time>2026-04-25T10:31:35.339Z</time></trkpt><trkpt lat="45.5487607" lon="11.9122634"><ele>17.142857142857142</ele><time>2026-04-25T10:31:36.338Z</time></trkpt><trkpt lat="45.5486984" lon="11.9122829"><ele>17.285714285714285</ele><time>2026-04-25T10:31:37.338Z</time></trkpt><trkpt lat="45.5486345" lon="11.912289"><ele>17.42857142857143</ele><time>2026-04-25T10:31:38.338Z</time></trkpt><trkpt lat="45.5485684" lon="11.9122873"><ele>17.57142857142857</ele><time>2026-04-25T10:31:39.338Z</time></trkpt><trkpt lat="45.548499" lon="11.912289"><ele>17.714285714285715</ele><time>2026-04-25T10:31:40.338Z</time></trkpt><trkpt lat="45.5484315" lon="11.9122966"><ele>17.857142857142858</ele><time>2026-04-25T10:31:41.338Z</time></trkpt><trkpt lat="45.5483638" lon="11.912309"><ele>18.0</ele><time>2026-04-25T10:31:42.338Z</time></trkpt><trkpt lat="45.5482976" lon="11.9123166"><ele>18.0</ele><time>2026-04-25T10:31:43.338Z</time></trkpt><trkpt lat="45.5482251" lon="11.9123114"><ele>18.0</ele><time>2026-04-25T10:31:44.338Z</time></trkpt><trkpt lat="45.5481577" lon="11.9123086"><ele>18.0</ele><time>2026-04-25T10:31:45.338Z</time></trkpt><trkpt lat="45.5480306" lon="11.9123032"><ele>18.0</ele><time>2026-04-25T10:31:47.338Z</time></trkpt><trkpt lat="45.5479675" lon="11.9122921"><ele>18.0</ele><time>2026-04-25T10:31:48.338Z</time></trkpt><trkpt lat="45.5478452" lon="11.9122817"><ele>18.25</ele><time>2026-04-25T10:31:50.338Z</time></trkpt><trkpt lat="45.5477211" lon="11.9122755"><ele>18.5</ele><time>2026-04-25T10:31:52.338Z</time></trkpt><trkpt lat="45.5476033" lon="11.9122689"><ele>18.75</ele><time>2026-04-25T10:31:54.338Z</time></trkpt><trkpt lat="45.5474904" lon="11.9122703"><ele>19.0</ele><time>2026-04-25T10:31:56.338Z</time></trkpt><trkpt lat="45.5473816" lon="11.9122769"><ele>19.0</ele><time>2026-04-25T10:31:58.339Z</time></trkpt><trkpt lat="45.5472612" lon="11.912269"><ele>19.0</ele><time>2026-04-25T10:32:00.338Z</time></trkpt><trkpt lat="45.547141" lon="11.9122543"><ele>19.0</ele><time>2026-04-25T10:32:02.339Z</time></trkpt><trkpt lat="45.5470164" lon="11.9122302"><ele>19.0</ele><time>2026-04-25T10:32:04.338Z</time></trkpt><trkpt lat="45.5468945" lon="11.9122103"><ele>19.0</ele><time>2026-04-25T10:32:06.338Z</time></trkpt><trkpt lat="45.5467746" lon="11.9121918"><ele>19.0</ele><time>2026-04-25T10:32:08.338Z</time></trkpt><trkpt lat="45.5466516" lon="11.912173"><ele>19.0</ele><time>2026-04-25T10:32:10.338Z</time></trkpt><trkpt lat="45.546526" lon="11.9121502"><ele>19.0</ele><time>2026-04-25T10:32:12.338Z</time></trkpt><trkpt lat="45.5464575" lon="11.9121444"><ele>19.0</ele><time>2026-04-25T10:32:13.338Z</time></trkpt><trkpt lat="45.5463915" lon="11.9121376"><ele>19.0</ele><time>2026-04-25T10:32:14.338Z</time></trkpt><trkpt lat="45.5463226" lon="11.9121333"><ele>19.0</ele><time>2026-04-25T10:32:15.338Z</time></trkpt><trkpt lat="45.5462565" lon="11.9121242"><ele>19.0</ele><time>2026-04-25T10:32:16.338Z</time></trkpt><trkpt lat="45.546185" lon="11.9121206"><ele>19.0</ele><time>2026-04-25T10:32:17.338Z</time></trkpt><trkpt lat="45.5461167" lon="11.9121111"><ele>19.0</ele><time>2026-04-25T10:32:18.338Z</time></trkpt><trkpt lat="45.5460514" lon="11.9121013"><ele>19.0</ele><time>2026-04-25T10:32:19.338Z</time></trkpt><trkpt lat="45.5459845" lon="11.9120927"><ele>19.0</ele><time>2026-04-25T10:32:20.339Z</time></trkpt><trkpt lat="45.5459104" lon="11.9120859"><ele>19.0</ele><time>2026-04-25T10:32:21.338Z</time></trkpt><trkpt lat="45.5458427" lon="11.9120802"><ele>19.0</ele><time>2026-04-25T10:32:22.339Z</time></trkpt><trkpt lat="45.5457758" lon="11.9120797"><ele>19.0</ele><time>2026-04-25T10:32:23.338Z</time></trkpt><trkpt lat="45.5457082" lon="11.9120699"><ele>19.0</ele><time>2026-04-25T10:32:24.338Z</time></trkpt><trkpt lat="45.5456406" lon="11.912063"><ele>19.0</ele><time>2026-04-25T10:32:25.338Z</time></trkpt><trkpt lat="45.5455712" lon="11.9120543"><ele>19.0</ele><time>2026-04-25T10:32:26.338Z</time></trkpt><trkpt lat="45.5455011" lon="11.9120449"><ele>19.0</ele><time>2026-04-25T10:32:27.338Z</time></trkpt><trkpt lat="45.5454317" lon="11.9120403"><ele>19.0</ele><time>2026-04-25T10:32:28.338Z</time></trkpt><trkpt lat="45.545362" lon="11.9120377"><ele>19.0</ele><time>2026-04-25T10:32:29.338Z</time></trkpt><trkpt lat="45.5452872" lon="11.912032"><ele>19.0</ele><time>2026-04-25T10:32:30.338Z</time></trkpt><trkpt lat="45.5452177" lon="11.9120334"><ele>19.0</ele><time>2026-04-25T10:32:31.339Z</time></trkpt><trkpt lat="45.5451503" lon="11.912026"><ele>19.0</ele><time>2026-04-25T10:32:32.338Z</time></trkpt><trkpt lat="45.5450789" lon="11.9120225"><ele>19.0</ele><time>2026-04-25T10:32:33.338Z</time></trkpt><trkpt lat="45.5450147" lon="11.9120078"><ele>19.0</ele><time>2026-04-25T10:32:34.339Z</time></trkpt><trkpt lat="45.5449514" lon="11.9120029"><ele>19.0</ele><time>2026-04-25T10:32:35.338Z</time></trkpt><trkpt lat="45.5448858" lon="11.9120046"><ele>19.0</ele><time>2026-04-25T10:32:36.339Z</time></trkpt><trkpt lat="45.544767" lon="11.9119939"><ele>19.0</ele><time>2026-04-25T10:32:38.338Z</time></trkpt><trkpt lat="45.5447031" lon="11.9119854"><ele>19.0</ele><time>2026-04-25T10:32:39.339Z</time></trkpt><trkpt lat="45.5446388" lon="11.9119829"><ele>19.0</ele><time>2026-04-25T10:32:40.338Z</time></trkpt><trkpt lat="45.5445114" lon="11.9119657"><ele>19.0</ele><time>2026-04-25T10:32:42.338Z</time></trkpt><trkpt lat="45.5444483" lon="11.9119584"><ele>19.166666666666664</ele><time>2026-04-25T10:32:43.338Z</time></trkpt><trkpt lat="45.5443843" lon="11.9119552"><ele>19.333333333333332</ele><time>2026-04-25T10:32:44.338Z</time></trkpt><trkpt lat="45.5442587" lon="11.9119435"><ele>19.5</ele><time>2026-04-25T10:32:46.339Z</time></trkpt><trkpt lat="45.544193" lon="11.911934"><ele>19.666666666666668</ele><time>2026-04-25T10:32:47.338Z</time></trkpt><trkpt lat="45.5441239" lon="11.9119309"><ele>19.833333333333336</ele><time>2026-04-25T10:32:48.338Z</time></trkpt><trkpt lat="45.5440553" lon="11.9119162"><ele>20.0</ele><time>2026-04-25T10:32:49.338Z</time></trkpt><trkpt lat="45.5439878" lon="11.9119125"><ele>20.0</ele><time>2026-04-25T10:32:50.339Z</time></trkpt><trkpt lat="45.5439226" lon="11.9119037"><ele>20.0</ele><time>2026-04-25T10:32:51.339Z</time></trkpt><trkpt lat="45.5438584" lon="11.9119074"><ele>20.0</ele><time>2026-04-25T10:32:52.338Z</time></trkpt><trkpt lat="45.5437375" lon="11.911893"><ele>20.0</ele><time>2026-04-25T10:32:54.339Z</time></trkpt><trkpt lat="45.5436147" lon="11.9118832"><ele>20.0</ele><time>2026-04-25T10:32:56.339Z</time></trkpt><trkpt lat="45.5434888" lon="11.9118723"><ele>20.0</ele><time>2026-04-25T10:32:58.338Z</time></trkpt><trkpt lat="45.5434243" lon="11.911863"><ele>20.0</ele><time>2026-04-25T10:32:59.337Z</time></trkpt><trkpt lat="45.5433594" lon="11.9118688"><ele>20.0</ele><time>2026-04-25T10:33:00.337Z</time></trkpt><trkpt lat="45.543235" lon="11.911859"><ele>20.0</ele><time>2026-04-25T10:33:02.337Z</time></trkpt><trkpt lat="45.54317" lon="11.9118538"><ele>20.0</ele><time>2026-04-25T10:33:03.337Z</time></trkpt><trkpt lat="45.5430404" lon="11.9118425"><ele>20.0</ele><time>2026-04-25T10:33:05.337Z</time></trkpt><trkpt lat="45.5429139" lon="11.9118207"><ele>20.0</ele><time>2026-04-25T10:33:07.337Z</time></trkpt><trkpt lat="45.5428499" lon="11.9118124"><ele>20.0</ele><time>2026-04-25T10:33:08.337Z</time></trkpt><trkpt lat="45.5427849" lon="11.9118003"><ele>20.0</ele><time>2026-04-25T10:33:09.338Z</time></trkpt><trkpt lat="45.5427215" lon="11.9117904"><ele>20.0</ele><time>2026-04-25T10:33:10.338Z</time></trkpt><trkpt lat="45.5426" lon="11.9117829"><ele>20.0</ele><time>2026-04-25T10:33:12.337Z</time></trkpt><trkpt lat="45.5424769" lon="11.9117679"><ele>20.0</ele><time>2026-04-25T10:33:14.337Z</time></trkpt><trkpt lat="45.5423593" lon="11.911754"><ele>20.0</ele><time>2026-04-25T10:33:16.338Z</time></trkpt><trkpt lat="45.5422434" lon="11.9117455"><ele>20.0</ele><time>2026-04-25T10:33:18.337Z</time></trkpt><trkpt lat="45.542128" lon="11.9117311"><ele>20.0</ele><time>2026-04-25T10:33:20.338Z</time></trkpt><trkpt lat="45.5420151" lon="11.9117264"><ele>20.0</ele><time>2026-04-25T10:33:22.338Z</time></trkpt><trkpt lat="45.5419447" lon="11.9117244"><ele>20.0</ele><time>2026-04-25T10:33:24.338Z</time></trkpt><trkpt lat="45.5418804" lon="11.9117066"><ele>20.0</ele><time>2026-04-25T10:33:27.338Z</time></trkpt><trkpt lat="45.5418156" lon="11.9116679"><ele>20.0</ele><time>2026-04-25T10:33:29.337Z</time></trkpt><trkpt lat="45.5417489" lon="11.9116177"><ele>20.0</ele><time>2026-04-25T10:33:31.337Z</time></trkpt><trkpt lat="45.5416949" lon="11.9115373"><ele>20.0</ele><time>2026-04-25T10:33:33.337Z</time></trkpt><trkpt lat="45.5416471" lon="11.9114347"><ele>20.0</ele><time>2026-04-25T10:33:35.337Z</time></trkpt><trkpt lat="45.5416051" lon="11.9113142"><ele>20.0</ele><time>2026-04-25T10:33:37.338Z</time></trkpt><trkpt lat="45.5415644" lon="11.9111859"><ele>20.0</ele><time>2026-04-25T10:33:39.337Z</time></trkpt><trkpt lat="45.5415223" lon="11.9110468"><ele>20.0</ele><time>2026-04-25T10:33:41.338Z</time></trkpt><trkpt lat="45.5414503" lon="11.910923"><ele>20.0</ele><time>2026-04-25T10:33:43.337Z</time></trkpt><trkpt lat="45.5413694" lon="11.9107952"><ele>20.0</ele><time>2026-04-25T10:33:45.337Z</time></trkpt><trkpt lat="45.5412878" lon="11.9106659"><ele>19.75</ele><time>2026-04-25T10:33:47.338Z</time></trkpt><trkpt lat="45.5412036" lon="11.9105534"><ele>19.5</ele><time>2026-04-25T10:33:49.337Z</time></trkpt><trkpt lat="45.5411251" lon="11.9104226"><ele>19.25</ele><time>2026-04-25T10:33:51.338Z</time></trkpt><trkpt lat="45.5410421" lon="11.9102947"><ele>19.0</ele><time>2026-04-25T10:33:53.337Z</time></trkpt><trkpt lat="45.5409709" lon="11.9101833"><ele>19.0</ele><time>2026-04-25T10:33:55.338Z</time></trkpt><trkpt lat="45.5408915" lon="11.9100587"><ele>19.0</ele><time>2026-04-25T10:33:57.337Z</time></trkpt><trkpt lat="45.5408202" lon="11.9099427"><ele>19.0</ele><time>2026-04-25T10:33:59.338Z</time></trkpt><trkpt lat="45.5407394" lon="11.9098202"><ele>19.0</ele><time>2026-04-25T10:34:01.337Z</time></trkpt><trkpt lat="45.5406603" lon="11.9097046"><ele>19.0</ele><time>2026-04-25T10:34:03.338Z</time></trkpt><trkpt lat="45.5405805" lon="11.909571"><ele>19.0</ele><time>2026-04-25T10:34:05.337Z</time></trkpt><trkpt lat="45.5405009" lon="11.9094406"><ele>19.0</ele><time>2026-04-25T10:34:07.337Z</time></trkpt><trkpt lat="45.5404182" lon="11.9093139"><ele>19.0</ele><time>2026-04-25T10:34:09.337Z</time></trkpt><trkpt lat="45.540331" lon="11.9091941"><ele>19.0</ele><time>2026-04-25T10:34:11.337Z</time></trkpt><trkpt lat="45.5402406" lon="11.9090659"><ele>19.0</ele><time>2026-04-25T10:34:13.337Z</time></trkpt><trkpt lat="45.5401591" lon="11.9089255"><ele>19.0</ele><time>2026-04-25T10:34:15.337Z</time></trkpt><trkpt lat="45.5400876" lon="11.9087904"><ele>19.0</ele><time>2026-04-25T10:34:17.337Z</time></trkpt><trkpt lat="45.5400141" lon="11.9086596"><ele>19.0</ele><time>2026-04-25T10:34:19.337Z</time></trkpt><trkpt lat="45.5399613" lon="11.9085169"><ele>19.0</ele><time>2026-04-25T10:34:21.338Z</time></trkpt><trkpt lat="45.5399383" lon="11.9083562"><ele>19.0</ele><time>2026-04-25T10:34:23.337Z</time></trkpt><trkpt lat="45.5399273" lon="11.9081983"><ele>19.0</ele><time>2026-04-25T10:34:25.337Z</time></trkpt><trkpt lat="45.5399418" lon="11.9080418"><ele>19.2</ele><time>2026-04-25T10:34:27.337Z</time></trkpt><trkpt lat="45.5399139" lon="11.9079132"><ele>19.4</ele><time>2026-04-25T10:34:29.338Z</time></trkpt><trkpt lat="45.5398024" lon="11.9078579"><ele>19.6</ele><time>2026-04-25T10:34:31.337Z</time></trkpt><trkpt lat="45.5397044" lon="11.9078149"><ele>19.8</ele><time>2026-04-25T10:34:33.337Z</time></trkpt><trkpt lat="45.53959" lon="11.9077688"><ele>20.0</ele><time>2026-04-25T10:34:35.337Z</time></trkpt><trkpt lat="45.5394778" lon="11.907713"><ele>19.8</ele><time>2026-04-25T10:34:37.337Z</time></trkpt><trkpt lat="45.5393603" lon="11.9076607"><ele>19.6</ele><time>2026-04-25T10:34:39.337Z</time></trkpt><trkpt lat="45.5392979" lon="11.90764"><ele>19.4</ele><time>2026-04-25T10:34:40.337Z</time></trkpt><trkpt lat="45.5391823" lon="11.9075956"><ele>19.2</ele><time>2026-04-25T10:34:42.338Z</time></trkpt><trkpt lat="45.5390705" lon="11.9075364"><ele>19.0</ele><time>2026-04-25T10:34:44.337Z</time></trkpt><trkpt lat="45.5389511" lon="11.907487"><ele>19.0</ele><time>2026-04-25T10:34:46.337Z</time></trkpt><trkpt lat="45.5388912" lon="11.9074509"><ele>19.0</ele><time>2026-04-25T10:34:47.337Z</time></trkpt><trkpt lat="45.5388338" lon="11.9074101"><ele>19.0</ele><time>2026-04-25T10:34:48.337Z</time></trkpt><trkpt lat="45.5387263" lon="11.907305"><ele>19.0</ele><time>2026-04-25T10:34:50.338Z</time></trkpt><trkpt lat="45.5386733" lon="11.9072488"><ele>19.0</ele><time>2026-04-25T10:34:51.337Z</time></trkpt><trkpt lat="45.5386247" lon="11.9071885"><ele>19.0</ele><time>2026-04-25T10:34:52.337Z</time></trkpt><trkpt lat="45.5385776" lon="11.9071287"><ele>18.833333333333332</ele><time>2026-04-25T10:34:53.338Z</time></trkpt><trkpt lat="45.5385281" lon="11.9070643"><ele>18.666666666666664</ele><time>2026-04-25T10:34:54.338Z</time></trkpt><trkpt lat="45.5384766" lon="11.907001"><ele>18.5</ele><time>2026-04-25T10:34:55.337Z</time></trkpt><trkpt lat="45.5383841" lon="11.9068763"><ele>18.333333333333332</ele><time>2026-04-25T10:34:57.337Z</time></trkpt><trkpt lat="45.5383353" lon="11.9068106"><ele>18.166666666666668</ele><time>2026-04-25T10:34:58.337Z</time></trkpt><trkpt lat="45.5382833" lon="11.9067592"><ele>18.0</ele><time>2026-04-25T10:34:59.337Z</time></trkpt><trkpt lat="45.5382228" lon="11.9067116"><ele>18.0</ele><time>2026-04-25T10:35:00.337Z</time></trkpt><trkpt lat="45.5381091" lon="11.906638"><ele>18.0</ele><time>2026-04-25T10:35:02.338Z</time></trkpt><trkpt lat="45.5380495" lon="11.9066048"><ele>18.0</ele><time>2026-04-25T10:35:03.337Z</time></trkpt><trkpt lat="45.5379334" lon="11.9065367"><ele>18.0</ele><time>2026-04-25T10:35:05.338Z</time></trkpt><trkpt lat="45.5378166" lon="11.9064681"><ele>18.0</ele><time>2026-04-25T10:35:07.338Z</time></trkpt><trkpt lat="45.537692" lon="11.9064123"><ele>18.2</ele><time>2026-04-25T10:35:09.337Z</time></trkpt><trkpt lat="45.5375756" lon="11.906357"><ele>18.4</ele><time>2026-04-25T10:35:11.337Z</time></trkpt><trkpt lat="45.5375099" lon="11.9063242"><ele>18.599999999999998</ele><time>2026-04-25T10:35:12.337Z</time></trkpt><trkpt lat="45.5373896" lon="11.9062557"><ele>18.8</ele><time>2026-04-25T10:35:14.337Z</time></trkpt><trkpt lat="45.5373273" lon="11.9062168"><ele>19.0</ele><time>2026-04-25T10:35:15.337Z</time></trkpt><trkpt lat="45.537266" lon="11.9061721"><ele>19.0</ele><time>2026-04-25T10:35:16.337Z</time></trkpt><trkpt lat="45.5372037" lon="11.9061281"><ele>19.0</ele><time>2026-04-25T10:35:17.337Z</time></trkpt><trkpt lat="45.5371438" lon="11.9060842"><ele>19.0</ele><time>2026-04-25T10:35:18.337Z</time></trkpt><trkpt lat="45.5370857" lon="11.9060395"><ele>19.0</ele><time>2026-04-25T10:35:19.338Z</time></trkpt><trkpt lat="45.5369782" lon="11.9059522"><ele>19.0</ele><time>2026-04-25T10:35:21.337Z</time></trkpt><trkpt lat="45.5368839" lon="11.905848"><ele>19.0</ele><time>2026-04-25T10:35:23.337Z</time></trkpt><trkpt lat="45.5368316" lon="11.9057978"><ele>19.0</ele><time>2026-04-25T10:35:24.337Z</time></trkpt><trkpt lat="45.5367366" lon="11.9056932"><ele>19.0</ele><time>2026-04-25T10:35:26.337Z</time></trkpt><trkpt lat="45.5366395" lon="11.905587"><ele>19.0</ele><time>2026-04-25T10:35:28.337Z</time></trkpt><trkpt lat="45.5365855" lon="11.9055326"><ele>19.0</ele><time>2026-04-25T10:35:29.337Z</time></trkpt><trkpt lat="45.5364781" lon="11.9054414"><ele>19.0</ele><time>2026-04-25T10:35:31.338Z</time></trkpt><trkpt lat="45.536422" lon="11.9053926"><ele>19.0</ele><time>2026-04-25T10:35:32.338Z</time></trkpt><trkpt lat="45.5363662" lon="11.9053475"><ele>19.0</ele><time>2026-04-25T10:35:33.337Z</time></trkpt><trkpt lat="45.5363105" lon="11.9053052"><ele>19.0</ele><time>2026-04-25T10:35:34.337Z</time></trkpt><trkpt lat="45.5361939" lon="11.9052345"><ele>19.0</ele><time>2026-04-25T10:35:36.338Z</time></trkpt><trkpt lat="45.5360816" lon="11.9051521"><ele>19.0</ele><time>2026-04-25T10:35:38.337Z</time></trkpt><trkpt lat="45.5359756" lon="11.9050865"><ele>19.0</ele><time>2026-04-25T10:35:40.337Z</time></trkpt><trkpt lat="45.5358717" lon="11.9050207"><ele>19.0</ele><time>2026-04-25T10:35:42.337Z</time></trkpt><trkpt lat="45.5357707" lon="11.9049436"><ele>19.0</ele><time>2026-04-25T10:35:44.337Z</time></trkpt><trkpt lat="45.5356746" lon="11.9048847"><ele>19.0</ele><time>2026-04-25T10:35:46.337Z</time></trkpt><trkpt lat="45.5355802" lon="11.9048236"><ele>19.0</ele><time>2026-04-25T10:35:48.337Z</time></trkpt><trkpt lat="45.5354828" lon="11.9047587"><ele>19.0</ele><time>2026-04-25T10:35:50.337Z</time></trkpt><trkpt lat="45.5354004" lon="11.9047056"><ele>19.0</ele><time>2026-04-25T10:35:52.337Z</time></trkpt><trkpt lat="45.5353207" lon="11.9046574"><ele>19.0</ele><time>2026-04-25T10:35:54.337Z</time></trkpt><trkpt lat="45.5352656" lon="11.9046111"><ele>19.0</ele><time>2026-04-25T10:35:56.337Z</time></trkpt><trkpt lat="45.5352005" lon="11.9045572"><ele>19.0</ele><time>2026-04-25T10:35:59.337Z</time></trkpt><trkpt lat="45.5351322" lon="11.9045414"><ele>19.0</ele><time>2026-04-25T10:36:02.337Z</time></trkpt><trkpt lat="45.5350761" lon="11.9045851"><ele>19.0</ele><time>2026-04-25T10:36:04.337Z</time></trkpt><trkpt lat="45.5349828" lon="11.9045879"><ele>19.2</ele><time>2026-04-25T10:36:06.337Z</time></trkpt><trkpt lat="45.5348831" lon="11.9045542"><ele>19.4</ele><time>2026-04-25T10:36:08.337Z</time></trkpt><trkpt lat="45.5347816" lon="11.9045182"><ele>19.6</ele><time>2026-04-25T10:36:10.337Z</time></trkpt><trkpt lat="45.5346739" lon="11.9044712"><ele>19.8</ele><time>2026-04-25T10:36:12.337Z</time></trkpt><trkpt lat="45.5345661" lon="11.9044268"><ele>20.0</ele><time>2026-04-25T10:36:14.337Z</time></trkpt><trkpt lat="45.5344601" lon="11.9043793"><ele>19.75</ele><time>2026-04-25T10:36:16.337Z</time></trkpt><trkpt lat="45.534348" lon="11.9043419"><ele>19.5</ele><time>2026-04-25T10:36:18.337Z</time></trkpt><trkpt lat="45.5342309" lon="11.9042987"><ele>19.25</ele><time>2026-04-25T10:36:20.337Z</time></trkpt><trkpt lat="45.5341222" lon="11.9042506"><ele>19.0</ele><time>2026-04-25T10:36:22.337Z</time></trkpt><trkpt lat="45.5340132" lon="11.904191"><ele>19.0</ele><time>2026-04-25T10:36:24.338Z</time></trkpt><trkpt lat="45.5339025" lon="11.9041339"><ele>19.0</ele><time>2026-04-25T10:36:26.338Z</time></trkpt><trkpt lat="45.5337895" lon="11.9040635"><ele>19.0</ele><time>2026-04-25T10:36:28.337Z</time></trkpt><trkpt lat="45.5336775" lon="11.9039874"><ele>19.0</ele><time>2026-04-25T10:36:30.337Z</time></trkpt><trkpt lat="45.5336197" lon="11.9039492"><ele>19.0</ele><time>2026-04-25T10:36:31.337Z</time></trkpt><trkpt lat="45.5335624" lon="11.9039113"><ele>19.0</ele><time>2026-04-25T10:36:32.337Z</time></trkpt><trkpt lat="45.5335049" lon="11.9038735"><ele>19.0</ele><time>2026-04-25T10:36:33.336Z</time></trkpt><trkpt lat="45.5334484" lon="11.9038335"><ele>19.0</ele><time>2026-04-25T10:36:34.336Z</time></trkpt><trkpt lat="45.5333889" lon="11.9037946"><ele>19.0</ele><time>2026-04-25T10:36:35.336Z</time></trkpt><trkpt lat="45.5333286" lon="11.9037599"><ele>19.0</ele><time>2026-04-25T10:36:36.336Z</time></trkpt><trkpt lat="45.5332701" lon="11.9037254"><ele>19.0</ele><time>2026-04-25T10:36:37.337Z</time></trkpt><trkpt lat="45.5332095" lon="11.9036899"><ele>19.0</ele><time>2026-04-25T10:36:38.336Z</time></trkpt><trkpt lat="45.5330911" lon="11.9036304"><ele>19.0</ele><time>2026-04-25T10:36:40.336Z</time></trkpt><trkpt lat="45.5330313" lon="11.9035975"><ele>19.0</ele><time>2026-04-25T10:36:41.336Z</time></trkpt><trkpt lat="45.5329701" lon="11.9035707"><ele>19.0</ele><time>2026-04-25T10:36:42.337Z</time></trkpt><trkpt lat="45.5329082" lon="11.9035402"><ele>19.0</ele><time>2026-04-25T10:36:43.336Z</time></trkpt><trkpt lat="45.5328423" lon="11.9035125"><ele>19.0</ele><time>2026-04-25T10:36:44.336Z</time></trkpt><trkpt lat="45.5327817" lon="11.903487"><ele>19.0</ele><time>2026-04-25T10:36:45.336Z</time></trkpt><trkpt lat="45.5327168" lon="11.9034572"><ele>19.0</ele><time>2026-04-25T10:36:46.336Z</time></trkpt><trkpt lat="45.5326543" lon="11.9034273"><ele>19.0</ele><time>2026-04-25T10:36:47.337Z</time></trkpt><trkpt lat="45.5325915" lon="11.9033973"><ele>19.0</ele><time>2026-04-25T10:36:48.336Z</time></trkpt><trkpt lat="45.5325289" lon="11.9033746"><ele>19.0</ele><time>2026-04-25T10:36:49.336Z</time></trkpt><trkpt lat="45.5324665" lon="11.9033518"><ele>19.0</ele><time>2026-04-25T10:36:50.336Z</time></trkpt><trkpt lat="45.5324057" lon="11.9033277"><ele>19.0</ele><time>2026-04-25T10:36:51.336Z</time></trkpt><trkpt lat="45.5323448" lon="11.9033047"><ele>19.0</ele><time>2026-04-25T10:36:52.337Z</time></trkpt><trkpt lat="45.5322836" lon="11.9032834"><ele>19.0</ele><time>2026-04-25T10:36:53.337Z</time></trkpt><trkpt lat="45.5322177" lon="11.9032617"><ele>19.0</ele><time>2026-04-25T10:36:54.337Z</time></trkpt><trkpt lat="45.5320984" lon="11.9032279"><ele>19.0</ele><time>2026-04-25T10:36:56.336Z</time></trkpt><trkpt lat="45.5320332" lon="11.9032127"><ele>19.0</ele><time>2026-04-25T10:36:57.336Z</time></trkpt><trkpt lat="45.5319684" lon="11.9031955"><ele>19.0</ele><time>2026-04-25T10:36:58.337Z</time></trkpt><trkpt lat="45.5318509" lon="11.903156"><ele>19.0</ele><time>2026-04-25T10:37:00.336Z</time></trkpt><trkpt lat="45.5317269" lon="11.9031174"><ele>18.8</ele><time>2026-04-25T10:37:02.336Z</time></trkpt><trkpt lat="45.5316064" lon="11.9030798"><ele>18.599999999999998</ele><time>2026-04-25T10:37:04.336Z</time></trkpt><trkpt lat="45.5315414" lon="11.9030613"><ele>18.4</ele><time>2026-04-25T10:37:05.336Z</time></trkpt><trkpt lat="45.5314246" lon="11.9030389"><ele>18.2</ele><time>2026-04-25T10:37:07.336Z</time></trkpt><trkpt lat="45.5313099" lon="11.9030023"><ele>18.0</ele><time>2026-04-25T10:37:09.336Z</time></trkpt><trkpt lat="45.531192" lon="11.9029622"><ele>18.0</ele><time>2026-04-25T10:37:11.336Z</time></trkpt><trkpt lat="45.5310768" lon="11.9029124"><ele>18.0</ele><time>2026-04-25T10:37:13.336Z</time></trkpt><trkpt lat="45.5310152" lon="11.9028909"><ele>18.0</ele><time>2026-04-25T10:37:14.337Z</time></trkpt><trkpt lat="45.5308952" lon="11.9028496"><ele>18.0</ele><time>2026-04-25T10:37:16.336Z</time></trkpt><trkpt lat="45.530779" lon="11.9028047"><ele>18.0</ele><time>2026-04-25T10:37:18.336Z</time></trkpt><trkpt lat="45.5306615" lon="11.9027548"><ele>18.0</ele><time>2026-04-25T10:37:20.336Z</time></trkpt><trkpt lat="45.5305457" lon="11.9027117"><ele>18.0</ele><time>2026-04-25T10:37:22.336Z</time></trkpt><trkpt lat="45.5304294" lon="11.902666"><ele>18.0</ele><time>2026-04-25T10:37:24.336Z</time></trkpt><trkpt lat="45.5303673" lon="11.9026437"><ele>18.0</ele><time>2026-04-25T10:37:25.336Z</time></trkpt><trkpt lat="45.5303042" lon="11.9026297"><ele>18.0</ele><time>2026-04-25T10:37:26.336Z</time></trkpt><trkpt lat="45.5302397" lon="11.9026126"><ele>18.0</ele><time>2026-04-25T10:37:27.336Z</time></trkpt><trkpt lat="45.5301753" lon="11.9025913"><ele>17.8</ele><time>2026-04-25T10:37:28.336Z</time></trkpt><trkpt lat="45.5300558" lon="11.9025543"><ele>17.6</ele><time>2026-04-25T10:37:30.336Z</time></trkpt><trkpt lat="45.5299385" lon="11.9025042"><ele>17.4</ele><time>2026-04-25T10:37:32.336Z</time></trkpt><trkpt lat="45.5298245" lon="11.9024499"><ele>17.2</ele><time>2026-04-25T10:37:34.336Z</time></trkpt><trkpt lat="45.5297621" lon="11.9024343"><ele>17.0</ele><time>2026-04-25T10:37:35.336Z</time></trkpt><trkpt lat="45.5296956" lon="11.9024131"><ele>17.0</ele><time>2026-04-25T10:37:36.336Z</time></trkpt><trkpt lat="45.5296311" lon="11.9023841"><ele>17.0</ele><time>2026-04-25T10:37:37.336Z</time></trkpt><trkpt lat="45.5295678" lon="11.9023676"><ele>17.0</ele><time>2026-04-25T10:37:38.336Z</time></trkpt><trkpt lat="45.5295058" lon="11.9023446"><ele>17.0</ele><time>2026-04-25T10:37:39.336Z</time></trkpt><trkpt lat="45.5293866" lon="11.9023074"><ele>17.0</ele><time>2026-04-25T10:37:41.337Z</time></trkpt><trkpt lat="45.5292712" lon="11.9022702"><ele>17.0</ele><time>2026-04-25T10:37:43.336Z</time></trkpt><trkpt lat="45.5291582" lon="11.9022219"><ele>17.0</ele><time>2026-04-25T10:37:45.336Z</time></trkpt><trkpt lat="45.5290408" lon="11.9021869"><ele>17.0</ele><time>2026-04-25T10:37:47.336Z</time></trkpt><trkpt lat="45.5289288" lon="11.9021426"><ele>17.0</ele><time>2026-04-25T10:37:49.336Z</time></trkpt><trkpt lat="45.5288165" lon="11.9020992"><ele>17.0</ele><time>2026-04-25T10:37:51.336Z</time></trkpt><trkpt lat="45.5287014" lon="11.9020591"><ele>17.5</ele><time>2026-04-25T10:37:53.336Z</time></trkpt><trkpt lat="45.5285841" lon="11.902004"><ele>18.0</ele><time>2026-04-25T10:37:55.336Z</time></trkpt><trkpt lat="45.5284661" lon="11.9019536"><ele>18.5</ele><time>2026-04-25T10:37:57.336Z</time></trkpt><trkpt lat="45.528347" lon="11.9019034"><ele>19.0</ele><time>2026-04-25T10:37:59.336Z</time></trkpt><trkpt lat="45.5282269" lon="11.9018575"><ele>19.0</ele><time>2026-04-25T10:38:01.336Z</time></trkpt><trkpt lat="45.5281045" lon="11.9018247"><ele>19.0</ele><time>2026-04-25T10:38:03.336Z</time></trkpt><trkpt lat="45.5280418" lon="11.9018089"><ele>19.0</ele><time>2026-04-25T10:38:04.336Z</time></trkpt><trkpt lat="45.5279793" lon="11.9017911"><ele>19.0</ele><time>2026-04-25T10:38:05.336Z</time></trkpt><trkpt lat="45.5279164" lon="11.901776"><ele>19.0</ele><time>2026-04-25T10:38:06.336Z</time></trkpt><trkpt lat="45.527796" lon="11.9017521"><ele>19.0</ele><time>2026-04-25T10:38:08.336Z</time></trkpt><trkpt lat="45.5276778" lon="11.9017315"><ele>18.8</ele><time>2026-04-25T10:38:10.336Z</time></trkpt><trkpt lat="45.5275553" lon="11.9017265"><ele>18.599999999999998</ele><time>2026-04-25T10:38:12.337Z</time></trkpt><trkpt lat="45.5274923" lon="11.9017174"><ele>18.4</ele><time>2026-04-25T10:38:13.336Z</time></trkpt><trkpt lat="45.5273694" lon="11.9017004"><ele>18.2</ele><time>2026-04-25T10:38:15.336Z</time></trkpt><trkpt lat="45.5273051" lon="11.9016938"><ele>18.0</ele><time>2026-04-25T10:38:16.336Z</time></trkpt><trkpt lat="45.5271832" lon="11.9016766"><ele>18.0</ele><time>2026-04-25T10:38:18.336Z</time></trkpt><trkpt lat="45.5271208" lon="11.9016647"><ele>18.0</ele><time>2026-04-25T10:38:19.336Z</time></trkpt><trkpt lat="45.526998" lon="11.9016249"><ele>18.0</ele><time>2026-04-25T10:38:21.336Z</time></trkpt><trkpt lat="45.5269369" lon="11.9016024"><ele>18.0</ele><time>2026-04-25T10:38:22.337Z</time></trkpt><trkpt lat="45.5268758" lon="11.9015777"><ele>18.0</ele><time>2026-04-25T10:38:23.336Z</time></trkpt><trkpt lat="45.5267589" lon="11.9015278"><ele>18.0</ele><time>2026-04-25T10:38:25.336Z</time></trkpt><trkpt lat="45.5266479" lon="11.9014799"><ele>17.75</ele><time>2026-04-25T10:38:27.336Z</time></trkpt><trkpt lat="45.5265331" lon="11.9014419"><ele>17.5</ele><time>2026-04-25T10:38:29.336Z</time></trkpt><trkpt lat="45.5264163" lon="11.901398"><ele>17.25</ele><time>2026-04-25T10:38:31.336Z</time></trkpt><trkpt lat="45.5262963" lon="11.9013578"><ele>17.0</ele><time>2026-04-25T10:38:33.336Z</time></trkpt><trkpt lat="45.5261775" lon="11.9013092"><ele>16.999999999999996</ele><time>2026-04-25T10:38:35.336Z</time></trkpt><trkpt lat="45.5260594" lon="11.9012585"><ele>17.0</ele><time>2026-04-25T10:38:37.337Z</time></trkpt><trkpt lat="45.525998" lon="11.9012333"><ele>17.0</ele><time>2026-04-25T10:38:38.336Z</time></trkpt><trkpt lat="45.525937" lon="11.9012055"><ele>17.0</ele><time>2026-04-25T10:38:39.336Z</time></trkpt><trkpt lat="45.5258757" lon="11.901182"><ele>17.0</ele><time>2026-04-25T10:38:40.336Z</time></trkpt><trkpt lat="45.5258157" lon="11.9011529"><ele>16.999999999999996</ele><time>2026-04-25T10:38:41.336Z</time></trkpt><trkpt lat="45.5257543" lon="11.9011262"><ele>17.0</ele><time>2026-04-25T10:38:42.336Z</time></trkpt><trkpt lat="45.5256351" lon="11.9010673"><ele>17.0</ele><time>2026-04-25T10:38:44.337Z</time></trkpt><trkpt lat="45.5255721" lon="11.901043"><ele>17.0</ele><time>2026-04-25T10:38:45.336Z</time></trkpt><trkpt lat="45.5254498" lon="11.9009974"><ele>17.0</ele><time>2026-04-25T10:38:47.336Z</time></trkpt><trkpt lat="45.5253271" lon="11.9009636"><ele>17.0</ele><time>2026-04-25T10:38:49.336Z</time></trkpt><trkpt lat="45.5252121" lon="11.900928"><ele>17.0</ele><time>2026-04-25T10:38:51.337Z</time></trkpt><trkpt lat="45.5250996" lon="11.9008838"><ele>17.25</ele><time>2026-04-25T10:38:53.336Z</time></trkpt><trkpt lat="45.5249868" lon="11.9008461"><ele>17.5</ele><time>2026-04-25T10:38:55.336Z</time></trkpt><trkpt lat="45.5248797" lon="11.9008197"><ele>17.75</ele><time>2026-04-25T10:38:57.336Z</time></trkpt><trkpt lat="45.5247698" lon="11.9007809"><ele>18.0</ele><time>2026-04-25T10:38:59.336Z</time></trkpt><trkpt lat="45.5246551" lon="11.9007496"><ele>18.0</ele><time>2026-04-25T10:39:01.336Z</time></trkpt><trkpt lat="45.5245387" lon="11.9007454"><ele>18.0</ele><time>2026-04-25T10:39:03.336Z</time></trkpt><trkpt lat="45.5244413" lon="11.9008105"><ele>18.0</ele><time>2026-04-25T10:39:05.336Z</time></trkpt><trkpt lat="45.5243859" lon="11.9009473"><ele>18.0</ele><time>2026-04-25T10:39:07.336Z</time></trkpt><trkpt lat="45.5243699" lon="11.901039"><ele>18.0</ele><time>2026-04-25T10:39:08.337Z</time></trkpt><trkpt lat="45.5243317" lon="11.9012012"><ele>18.0</ele><time>2026-04-25T10:39:10.336Z</time></trkpt><trkpt lat="45.5242938" lon="11.9013546"><ele>18.0</ele><time>2026-04-25T10:39:12.336Z</time></trkpt><trkpt lat="45.5242594" lon="11.9015104"><ele>18.0</ele><time>2026-04-25T10:39:14.336Z</time></trkpt><trkpt lat="45.5242346" lon="11.9016611"><ele>18.0</ele><time>2026-04-25T10:39:16.336Z</time></trkpt><trkpt lat="45.5242067" lon="11.9018024"><ele>18.0</ele><time>2026-04-25T10:39:18.336Z</time></trkpt><trkpt lat="45.5241377" lon="11.9019121"><ele>18.0</ele><time>2026-04-25T10:39:20.336Z</time></trkpt><trkpt lat="45.5240422" lon="11.9019051"><ele>18.0</ele><time>2026-04-25T10:39:22.337Z</time></trkpt><trkpt lat="45.5239572" lon="11.9018516"><ele>18.0</ele><time>2026-04-25T10:39:24.336Z</time></trkpt><trkpt lat="45.5238568" lon="11.9018153"><ele>18.0</ele><time>2026-04-25T10:39:26.336Z</time></trkpt><trkpt lat="45.5237584" lon="11.901773"><ele>18.0</ele><time>2026-04-25T10:39:28.336Z</time></trkpt><trkpt lat="45.5236574" lon="11.9017305"><ele>18.0</ele><time>2026-04-25T10:39:30.336Z</time></trkpt><trkpt lat="45.5235599" lon="11.9016878"><ele>18.0</ele><time>2026-04-25T10:39:32.336Z</time></trkpt><trkpt lat="45.5234631" lon="11.9016367"><ele>18.0</ele><time>2026-04-25T10:39:34.337Z</time></trkpt><trkpt lat="45.5233553" lon="11.9015924"><ele>18.0</ele><time>2026-04-25T10:39:36.336Z</time></trkpt><trkpt lat="45.5232468" lon="11.9015482"><ele>18.0</ele><time>2026-04-25T10:39:38.336Z</time></trkpt><trkpt lat="45.523138" lon="11.9014931"><ele>18.0</ele><time>2026-04-25T10:39:40.336Z</time></trkpt><trkpt lat="45.5230269" lon="11.9014561"><ele>18.0</ele><time>2026-04-25T10:39:42.336Z</time></trkpt><trkpt lat="45.522918" lon="11.9014137"><ele>18.0</ele><time>2026-04-25T10:39:44.336Z</time></trkpt><trkpt lat="45.5228117" lon="11.9013674"><ele>18.0</ele><time>2026-04-25T10:39:46.336Z</time></trkpt><trkpt lat="45.5227043" lon="11.9013284"><ele>18.0</ele><time>2026-04-25T10:39:48.336Z</time></trkpt><trkpt lat="45.5225916" lon="11.9012834"><ele>17.75</ele><time>2026-04-25T10:39:50.336Z</time></trkpt><trkpt lat="45.5224909" lon="11.9012488"><ele>17.5</ele><time>2026-04-25T10:39:52.337Z</time></trkpt><trkpt lat="45.5223827" lon="11.9012057"><ele>17.25</ele><time>2026-04-25T10:39:54.336Z</time></trkpt><trkpt lat="45.522274" lon="11.9011677"><ele>17.0</ele><time>2026-04-25T10:39:56.336Z</time></trkpt><trkpt lat="45.5221525" lon="11.9011207"><ele>17.0</ele><time>2026-04-25T10:39:58.336Z</time></trkpt><trkpt lat="45.522035" lon="11.9010777"><ele>17.0</ele><time>2026-04-25T10:40:00.336Z</time></trkpt><trkpt lat="45.5219254" lon="11.9010328"><ele>17.0</ele><time>2026-04-25T10:40:02.336Z</time></trkpt><trkpt lat="45.5218093" lon="11.9009888"><ele>17.0</ele><time>2026-04-25T10:40:04.337Z</time></trkpt><trkpt lat="45.5216964" lon="11.9009428"><ele>17.0</ele><time>2026-04-25T10:40:06.335Z</time></trkpt><trkpt lat="45.5216344" lon="11.9009254"><ele>17.0</ele><time>2026-04-25T10:40:07.335Z</time></trkpt><trkpt lat="45.5215161" lon="11.9008777"><ele>17.0</ele><time>2026-04-25T10:40:09.335Z</time></trkpt><trkpt lat="45.5214007" lon="11.9008323"><ele>17.0</ele><time>2026-04-25T10:40:11.336Z</time></trkpt><trkpt lat="45.5212833" lon="11.9007824"><ele>17.0</ele><time>2026-04-25T10:40:13.336Z</time></trkpt><trkpt lat="45.5212218" lon="11.9007591"><ele>17.0</ele><time>2026-04-25T10:40:14.335Z</time></trkpt><trkpt lat="45.5211021" lon="11.9007154"><ele>17.0</ele><time>2026-04-25T10:40:16.335Z</time></trkpt><trkpt lat="45.5210397" lon="11.9006929"><ele>17.0</ele><time>2026-04-25T10:40:17.335Z</time></trkpt><trkpt lat="45.5209221" lon="11.9006403"><ele>17.0</ele><time>2026-04-25T10:40:19.336Z</time></trkpt><trkpt lat="45.5208616" lon="11.900613"><ele>17.0</ele><time>2026-04-25T10:40:20.335Z</time></trkpt><trkpt lat="45.520741" lon="11.9005653"><ele>17.0</ele><time>2026-04-25T10:40:22.335Z</time></trkpt><trkpt lat="45.5206239" lon="11.9005098"><ele>17.0</ele><time>2026-04-25T10:40:24.335Z</time></trkpt><trkpt lat="45.5205637" lon="11.9004813"><ele>17.0</ele><time>2026-04-25T10:40:25.335Z</time></trkpt><trkpt lat="45.5204476" lon="11.9004219"><ele>17.0</ele><time>2026-04-25T10:40:27.335Z</time></trkpt><trkpt lat="45.5203865" lon="11.9003935"><ele>17.0</ele><time>2026-04-25T10:40:28.335Z</time></trkpt><trkpt lat="45.5203236" lon="11.9003651"><ele>17.0</ele><time>2026-04-25T10:40:29.335Z</time></trkpt><trkpt lat="45.5202095" lon="11.9003094"><ele>16.75</ele><time>2026-04-25T10:40:31.335Z</time></trkpt><trkpt lat="45.5201024" lon="11.9002654"><ele>16.5</ele><time>2026-04-25T10:40:33.335Z</time></trkpt><trkpt lat="45.5199952" lon="11.9002091"><ele>16.25</ele><time>2026-04-25T10:40:35.335Z</time></trkpt><trkpt lat="45.5198863" lon="11.9001547"><ele>16.0</ele><time>2026-04-25T10:40:37.336Z</time></trkpt><trkpt lat="45.5197739" lon="11.9000968"><ele>16.0</ele><time>2026-04-25T10:40:39.335Z</time></trkpt><trkpt lat="45.5196621" lon="11.9000512"><ele>16.0</ele><time>2026-04-25T10:40:41.336Z</time></trkpt><trkpt lat="45.5195515" lon="11.9000047"><ele>16.0</ele><time>2026-04-25T10:40:43.335Z</time></trkpt><trkpt lat="45.5194439" lon="11.8999604"><ele>16.0</ele><time>2026-04-25T10:40:45.335Z</time></trkpt><trkpt lat="45.5193279" lon="11.8999049"><ele>15.999999999999998</ele><time>2026-04-25T10:40:47.335Z</time></trkpt><trkpt lat="45.5192105" lon="11.8998549"><ele>16.0</ele><time>2026-04-25T10:40:49.336Z</time></trkpt><trkpt lat="45.5191505" lon="11.8998241"><ele>16.0</ele><time>2026-04-25T10:40:50.335Z</time></trkpt><trkpt lat="45.5190328" lon="11.8997635"><ele>16.0</ele><time>2026-04-25T10:40:52.335Z</time></trkpt><trkpt lat="45.5189708" lon="11.8997383"><ele>15.999999999999998</ele><time>2026-04-25T10:40:53.336Z</time></trkpt><trkpt lat="45.5189099" lon="11.8997056"><ele>16.0</ele><time>2026-04-25T10:40:54.335Z</time></trkpt><trkpt lat="45.5187921" lon="11.8996478"><ele>15.8</ele><time>2026-04-25T10:40:56.336Z</time></trkpt><trkpt lat="45.5186754" lon="11.899587"><ele>15.600000000000001</ele><time>2026-04-25T10:40:58.335Z</time></trkpt><trkpt lat="45.5185573" lon="11.8995359"><ele>15.4</ele><time>2026-04-25T10:41:00.335Z</time></trkpt><trkpt lat="45.5184967" lon="11.8995081"><ele>15.2</ele><time>2026-04-25T10:41:01.335Z</time></trkpt><trkpt lat="45.5183752" lon="11.8994555"><ele>15.0</ele><time>2026-04-25T10:41:03.336Z</time></trkpt><trkpt lat="45.5183142" lon="11.8994313"><ele>15.0</ele><time>2026-04-25T10:41:04.336Z</time></trkpt><trkpt lat="45.5181943" lon="11.8993819"><ele>15.0</ele><time>2026-04-25T10:41:06.335Z</time></trkpt><trkpt lat="45.5180831" lon="11.899332"><ele>15.0</ele><time>2026-04-25T10:41:08.335Z</time></trkpt><trkpt lat="45.5179687" lon="11.8992835"><ele>15.0</ele><time>2026-04-25T10:41:10.335Z</time></trkpt><trkpt lat="45.5178565" lon="11.8992184"><ele>15.25</ele><time>2026-04-25T10:41:12.335Z</time></trkpt><trkpt lat="45.5177453" lon="11.8991697"><ele>15.5</ele><time>2026-04-25T10:41:14.335Z</time></trkpt><trkpt lat="45.5176331" lon="11.8991134"><ele>15.75</ele><time>2026-04-25T10:41:16.335Z</time></trkpt><trkpt lat="45.51752" lon="11.8990554"><ele>16.0</ele><time>2026-04-25T10:41:18.336Z</time></trkpt><trkpt lat="45.5174144" lon="11.8990093"><ele>16.0</ele><time>2026-04-25T10:41:20.335Z</time></trkpt><trkpt lat="45.5173121" lon="11.899026"><ele>16.0</ele><time>2026-04-25T10:41:22.335Z</time></trkpt><trkpt lat="45.5172527" lon="11.8991426"><ele>16.0</ele><time>2026-04-25T10:41:24.335Z</time></trkpt><trkpt lat="45.5172381" lon="11.8992887"><ele>16.0</ele><time>2026-04-25T10:41:26.335Z</time></trkpt><trkpt lat="45.5172167" lon="11.8994448"><ele>16.0</ele><time>2026-04-25T10:41:28.335Z</time></trkpt><trkpt lat="45.5171866" lon="11.8995913"><ele>16.0</ele><time>2026-04-25T10:41:30.336Z</time></trkpt><trkpt lat="45.5171642" lon="11.8997472"><ele>16.0</ele><time>2026-04-25T10:41:32.335Z</time></trkpt><trkpt lat="45.5171378" lon="11.8999086"><ele>16.0</ele><time>2026-04-25T10:41:34.335Z</time></trkpt><trkpt lat="45.5171115" lon="11.9000714"><ele>16.0</ele><time>2026-04-25T10:41:36.335Z</time></trkpt><trkpt lat="45.5170784" lon="11.9002371"><ele>16.0</ele><time>2026-04-25T10:41:38.335Z</time></trkpt><trkpt lat="45.5170493" lon="11.9004006"><ele>16.0</ele><time>2026-04-25T10:41:40.335Z</time></trkpt><trkpt lat="45.5170224" lon="11.9005751"><ele>16.0</ele><time>2026-04-25T10:41:42.335Z</time></trkpt><trkpt lat="45.5169935" lon="11.9007509"><ele>16.0</ele><time>2026-04-25T10:41:44.335Z</time></trkpt><trkpt lat="45.5169673" lon="11.900924"><ele>15.8</ele><time>2026-04-25T10:41:46.335Z</time></trkpt><trkpt lat="45.5169517" lon="11.9010134"><ele>15.600000000000001</ele><time>2026-04-25T10:41:47.336Z</time></trkpt><trkpt lat="45.5169182" lon="11.901182"><ele>15.4</ele><time>2026-04-25T10:41:49.335Z</time></trkpt><trkpt lat="45.5168894" lon="11.9013428"><ele>15.2</ele><time>2026-04-25T10:41:51.336Z</time></trkpt><trkpt lat="45.5168634" lon="11.9014981"><ele>15.0</ele><time>2026-04-25T10:41:53.335Z</time></trkpt><trkpt lat="45.516834" lon="11.9016615"><ele>14.75</ele><time>2026-04-25T10:41:55.335Z</time></trkpt><trkpt lat="45.5168058" lon="11.9018287"><ele>14.5</ele><time>2026-04-25T10:41:57.336Z</time></trkpt><trkpt lat="45.5167781" lon="11.9019894"><ele>14.25</ele><time>2026-04-25T10:41:59.336Z</time></trkpt><trkpt lat="45.5167468" lon="11.9021546"><ele>14.0</ele><time>2026-04-25T10:42:01.335Z</time></trkpt><trkpt lat="45.5167199" lon="11.902324"><ele>14.0</ele><time>2026-04-25T10:42:03.335Z</time></trkpt><trkpt lat="45.5166935" lon="11.9024941"><ele>13.999999999999998</ele><time>2026-04-25T10:42:05.335Z</time></trkpt><trkpt lat="45.516662" lon="11.9026654"><ele>13.999999999999998</ele><time>2026-04-25T10:42:07.335Z</time></trkpt><trkpt lat="45.5166469" lon="11.9027544"><ele>14.0</ele><time>2026-04-25T10:42:08.335Z</time></trkpt><trkpt lat="45.5166242" lon="11.9029277"><ele>14.0</ele><time>2026-04-25T10:42:10.335Z</time></trkpt><trkpt lat="45.5166082" lon="11.9030156"><ele>14.25</ele><time>2026-04-25T10:42:11.335Z</time></trkpt><trkpt lat="45.5165798" lon="11.9031743"><ele>14.5</ele><time>2026-04-25T10:42:13.336Z</time></trkpt><trkpt lat="45.5165515" lon="11.9033364"><ele>14.75</ele><time>2026-04-25T10:42:15.335Z</time></trkpt><trkpt lat="45.5165181" lon="11.9034924"><ele>15.0</ele><time>2026-04-25T10:42:17.335Z</time></trkpt><trkpt lat="45.5164888" lon="11.903651"><ele>15.0</ele><time>2026-04-25T10:42:19.335Z</time></trkpt><trkpt lat="45.5164647" lon="11.9038198"><ele>15.0</ele><time>2026-04-25T10:42:21.335Z</time></trkpt><trkpt lat="45.5164347" lon="11.9039787"><ele>15.0</ele><time>2026-04-25T10:42:23.335Z</time></trkpt><trkpt lat="45.5164074" lon="11.9041527"><ele>15.0</ele><time>2026-04-25T10:42:25.335Z</time></trkpt><trkpt lat="45.5163845" lon="11.9043139"><ele>14.75</ele><time>2026-04-25T10:42:27.335Z</time></trkpt><trkpt lat="45.5163534" lon="11.9044769"><ele>14.5</ele><time>2026-04-25T10:42:29.335Z</time></trkpt><trkpt lat="45.5163228" lon="11.9046395"><ele>14.25</ele><time>2026-04-25T10:42:31.335Z</time></trkpt><trkpt lat="45.5162977" lon="11.904801"><ele>14.0</ele><time>2026-04-25T10:42:33.335Z</time></trkpt><trkpt lat="45.5162662" lon="11.9049602"><ele>14.5</ele><time>2026-04-25T10:42:35.335Z</time></trkpt><trkpt lat="45.5162055" lon="11.9051097"><ele>15.0</ele><time>2026-04-25T10:42:37.335Z</time></trkpt><trkpt lat="45.516112" lon="11.9052112"><ele>15.5</ele><time>2026-04-25T10:42:39.336Z</time></trkpt><trkpt lat="45.5159944" lon="11.9052342"><ele>16.0</ele><time>2026-04-25T10:42:41.336Z</time></trkpt><trkpt lat="45.5158734" lon="11.9052062"><ele>16.0</ele><time>2026-04-25T10:42:43.335Z</time></trkpt><trkpt lat="45.5157548" lon="11.905165"><ele>16.0</ele><time>2026-04-25T10:42:45.335Z</time></trkpt><trkpt lat="45.5156927" lon="11.9051399"><ele>16.0</ele><time>2026-04-25T10:42:46.336Z</time></trkpt><trkpt lat="45.5155738" lon="11.9050892"><ele>16.0</ele><time>2026-04-25T10:42:48.336Z</time></trkpt><trkpt lat="45.5155131" lon="11.9050612"><ele>16.0</ele><time>2026-04-25T10:42:49.335Z</time></trkpt><trkpt lat="45.5153983" lon="11.9050094"><ele>15.8</ele><time>2026-04-25T10:42:51.335Z</time></trkpt><trkpt lat="45.5152837" lon="11.9049563"><ele>15.600000000000001</ele><time>2026-04-25T10:42:53.336Z</time></trkpt><trkpt lat="45.5151663" lon="11.9048944"><ele>15.4</ele><time>2026-04-25T10:42:55.335Z</time></trkpt><trkpt lat="45.5151047" lon="11.90487"><ele>15.2</ele><time>2026-04-25T10:42:56.335Z</time></trkpt><trkpt lat="45.5149859" lon="11.904817"><ele>15.0</ele><time>2026-04-25T10:42:58.335Z</time></trkpt><trkpt lat="45.5149251" lon="11.904791"><ele>15.0</ele><time>2026-04-25T10:42:59.335Z</time></trkpt><trkpt lat="45.5148633" lon="11.904763"><ele>15.0</ele><time>2026-04-25T10:43:00.335Z</time></trkpt><trkpt lat="45.5147483" lon="11.9047066"><ele>15.0</ele><time>2026-04-25T10:43:02.335Z</time></trkpt><trkpt lat="45.5146333" lon="11.9046503"><ele>15.0</ele><time>2026-04-25T10:43:04.335Z</time></trkpt><trkpt lat="45.5145719" lon="11.904622"><ele>15.0</ele><time>2026-04-25T10:43:05.335Z</time></trkpt><trkpt lat="45.5144549" lon="11.9045703"><ele>15.0</ele><time>2026-04-25T10:43:07.335Z</time></trkpt><trkpt lat="45.5143371" lon="11.9045216"><ele>15.0</ele><time>2026-04-25T10:43:09.335Z</time></trkpt><trkpt lat="45.5142221" lon="11.9044655"><ele>15.0</ele><time>2026-04-25T10:43:11.335Z</time></trkpt><trkpt lat="45.5141221" lon="11.9043779"><ele>15.0</ele><time>2026-04-25T10:43:13.335Z</time></trkpt><trkpt lat="45.5140664" lon="11.9042304"><ele>15.0</ele><time>2026-04-25T10:43:15.335Z</time></trkpt><trkpt lat="45.5140512" lon="11.9040557"><ele>15.0</ele><time>2026-04-25T10:43:17.335Z</time></trkpt><trkpt lat="45.5140692" lon="11.9038855"><ele>15.0</ele><time>2026-04-25T10:43:19.335Z</time></trkpt><trkpt lat="45.5141053" lon="11.9037261"><ele>15.0</ele><time>2026-04-25T10:43:21.335Z</time></trkpt><trkpt lat="45.5141439" lon="11.9035595"><ele>15.0</ele><time>2026-04-25T10:43:23.335Z</time></trkpt><trkpt lat="45.5141714" lon="11.9033987"><ele>15.0</ele><time>2026-04-25T10:43:25.336Z</time></trkpt><trkpt lat="45.514194" lon="11.9032408"><ele>15.0</ele><time>2026-04-25T10:43:27.335Z</time></trkpt><trkpt lat="45.5141969" lon="11.9030794"><ele>15.0</ele><time>2026-04-25T10:43:29.335Z</time></trkpt><trkpt lat="45.5141749" lon="11.9029182"><ele>15.0</ele><time>2026-04-25T10:43:31.335Z</time></trkpt><trkpt lat="45.5140985" lon="11.902783"><ele>15.0</ele><time>2026-04-25T10:43:33.335Z</time></trkpt><trkpt lat="45.5139901" lon="11.9026995"><ele>15.0</ele><time>2026-04-25T10:43:35.335Z</time></trkpt><trkpt lat="45.5138761" lon="11.9026496"><ele>15.0</ele><time>2026-04-25T10:43:37.335Z</time></trkpt><trkpt lat="45.5137576" lon="11.9026126"><ele>15.0</ele><time>2026-04-25T10:43:39.335Z</time></trkpt><trkpt lat="45.5136441" lon="11.9025602"><ele>15.0</ele><time>2026-04-25T10:43:41.335Z</time></trkpt><trkpt lat="45.5135404" lon="11.9025246"><ele>15.0</ele><time>2026-04-25T10:43:43.334Z</time></trkpt><trkpt lat="45.5134322" lon="11.9024948"><ele>15.0</ele><time>2026-04-25T10:43:45.334Z</time></trkpt><trkpt lat="45.5133244" lon="11.902452"><ele>15.0</ele><time>2026-04-25T10:43:47.334Z</time></trkpt><trkpt lat="45.5132148" lon="11.9024133"><ele>15.0</ele><time>2026-04-25T10:43:49.334Z</time></trkpt><trkpt lat="45.5130974" lon="11.9023658"><ele>15.0</ele><time>2026-04-25T10:43:51.335Z</time></trkpt><trkpt lat="45.5129861" lon="11.9023126"><ele>15.0</ele><time>2026-04-25T10:43:53.335Z</time></trkpt><trkpt lat="45.5128724" lon="11.9022768"><ele>15.0</ele><time>2026-04-25T10:43:55.335Z</time></trkpt><trkpt lat="45.5127634" lon="11.9022403"><ele>14.6</ele><time>2026-04-25T10:43:57.334Z</time></trkpt><trkpt lat="45.5126653" lon="11.9021933"><ele>14.2</ele><time>2026-04-25T10:43:59.334Z</time></trkpt><trkpt lat="45.5125646" lon="11.9021555"><ele>13.8</ele><time>2026-04-25T10:44:01.335Z</time></trkpt><trkpt lat="45.512459" lon="11.9021251"><ele>13.4</ele><time>2026-04-25T10:44:03.334Z</time></trkpt><trkpt lat="45.5123444" lon="11.9020837"><ele>13.0</ele><time>2026-04-25T10:44:05.334Z</time></trkpt><trkpt lat="45.5122319" lon="11.9020323"><ele>12.999999999999998</ele><time>2026-04-25T10:44:07.334Z</time></trkpt><trkpt lat="45.5121702" lon="11.9020041"><ele>13.0</ele><time>2026-04-25T10:44:08.334Z</time></trkpt><trkpt lat="45.5120532" lon="11.9019401"><ele>13.0</ele><time>2026-04-25T10:44:10.334Z</time></trkpt><trkpt lat="45.5119427" lon="11.9018663"><ele>13.0</ele><time>2026-04-25T10:44:12.334Z</time></trkpt><trkpt lat="45.5118883" lon="11.9018158"><ele>12.999999999999998</ele><time>2026-04-25T10:44:13.335Z</time></trkpt><trkpt lat="45.5118371" lon="11.9017625"><ele>13.0</ele><time>2026-04-25T10:44:14.335Z</time></trkpt><trkpt lat="45.5117331" lon="11.9016545"><ele>13.2</ele><time>2026-04-25T10:44:16.334Z</time></trkpt><trkpt lat="45.5116796" lon="11.9015979"><ele>13.4</ele><time>2026-04-25T10:44:17.334Z</time></trkpt><trkpt lat="45.5116272" lon="11.901548"><ele>13.599999999999998</ele><time>2026-04-25T10:44:18.334Z</time></trkpt><trkpt lat="45.5115265" lon="11.9014629"><ele>13.799999999999999</ele><time>2026-04-25T10:44:20.334Z</time></trkpt><trkpt lat="45.5114203" lon="11.9014095"><ele>14.0</ele><time>2026-04-25T10:44:22.334Z</time></trkpt><trkpt lat="45.5113007" lon="11.9013692"><ele>14.5</ele><time>2026-04-25T10:44:24.335Z</time></trkpt><trkpt lat="45.5111803" lon="11.9013424"><ele>15.0</ele><time>2026-04-25T10:44:26.334Z</time></trkpt><trkpt lat="45.5110605" lon="11.9013191"><ele>15.5</ele><time>2026-04-25T10:44:28.334Z</time></trkpt><trkpt lat="45.5109498" lon="11.9012914"><ele>16.0</ele><time>2026-04-25T10:44:30.334Z</time></trkpt><trkpt lat="45.5108754" lon="11.9011813"><ele>16.0</ele><time>2026-04-25T10:44:32.335Z</time></trkpt><trkpt lat="45.5108744" lon="11.9010482"><ele>16.0</ele><time>2026-04-25T10:44:34.334Z</time></trkpt><trkpt lat="45.5108967" lon="11.9009251"><ele>16.0</ele><time>2026-04-25T10:44:36.334Z</time></trkpt><trkpt lat="45.5109191" lon="11.900775"><ele>16.0</ele><time>2026-04-25T10:44:38.334Z</time></trkpt><trkpt lat="45.5109362" lon="11.9006138"><ele>16.0</ele><time>2026-04-25T10:44:40.334Z</time></trkpt><trkpt lat="45.5109602" lon="11.900447"><ele>15.833333333333332</ele><time>2026-04-25T10:44:42.334Z</time></trkpt><trkpt lat="45.5109889" lon="11.9002815"><ele>15.666666666666666</ele><time>2026-04-25T10:44:44.334Z</time></trkpt><trkpt lat="45.5110002" lon="11.900192"><ele>15.5</ele><time>2026-04-25T10:44:45.334Z</time></trkpt><trkpt lat="45.5110289" lon="11.9000228"><ele>15.333333333333332</ele><time>2026-04-25T10:44:47.335Z</time></trkpt><trkpt lat="45.5110409" lon="11.8999331"><ele>15.166666666666666</ele><time>2026-04-25T10:44:48.334Z</time></trkpt><trkpt lat="45.5110585" lon="11.8998431"><ele>15.0</ele><time>2026-04-25T10:44:49.334Z</time></trkpt><trkpt lat="45.5110731" lon="11.8997504"><ele>15.0</ele><time>2026-04-25T10:44:50.334Z</time></trkpt><trkpt lat="45.511087" lon="11.8996576"><ele>15.0</ele><time>2026-04-25T10:44:51.334Z</time></trkpt><trkpt lat="45.5111143" lon="11.8994868"><ele>15.0</ele><time>2026-04-25T10:44:53.334Z</time></trkpt><trkpt lat="45.51114" lon="11.8993103"><ele>15.0</ele><time>2026-04-25T10:44:55.334Z</time></trkpt><trkpt lat="45.5111509" lon="11.8992206"><ele>15.0</ele><time>2026-04-25T10:44:56.334Z</time></trkpt><trkpt lat="45.5111749" lon="11.8990478"><ele>14.833333333333334</ele><time>2026-04-25T10:44:58.335Z</time></trkpt><trkpt lat="45.5111939" lon="11.8989615"><ele>14.666666666666668</ele><time>2026-04-25T10:44:59.335Z</time></trkpt><trkpt lat="45.5112329" lon="11.898784"><ele>14.5</ele><time>2026-04-25T10:45:01.334Z</time></trkpt><trkpt lat="45.511248" lon="11.8986919"><ele>14.333333333333334</ele><time>2026-04-25T10:45:02.334Z</time></trkpt><trkpt lat="45.5112654" lon="11.8986049"><ele>14.166666666666668</ele><time>2026-04-25T10:45:03.335Z</time></trkpt><trkpt lat="45.511298" lon="11.8984337"><ele>14.0</ele><time>2026-04-25T10:45:05.334Z</time></trkpt><trkpt lat="45.5113176" lon="11.8983458"><ele>14.399999999999999</ele><time>2026-04-25T10:45:06.334Z</time></trkpt><trkpt lat="45.5113349" lon="11.8982545"><ele>14.799999999999999</ele><time>2026-04-25T10:45:07.335Z</time></trkpt><trkpt lat="45.5113517" lon="11.8981649"><ele>15.200000000000001</ele><time>2026-04-25T10:45:08.334Z</time></trkpt><trkpt lat="45.5113808" lon="11.8979921"><ele>15.600000000000001</ele><time>2026-04-25T10:45:10.334Z</time></trkpt><trkpt lat="45.5114032" lon="11.8978246"><ele>16.0</ele><time>2026-04-25T10:45:12.334Z</time></trkpt><trkpt lat="45.511431" lon="11.8976619"><ele>15.75</ele><time>2026-04-25T10:45:14.334Z</time></trkpt><trkpt lat="45.5114543" lon="11.8974996"><ele>15.5</ele><time>2026-04-25T10:45:16.334Z</time></trkpt><trkpt lat="45.5114919" lon="11.8973383"><ele>15.25</ele><time>2026-04-25T10:45:18.334Z</time></trkpt><trkpt lat="45.5115162" lon="11.8971806"><ele>15.0</ele><time>2026-04-25T10:45:20.334Z</time></trkpt><trkpt lat="45.5115462" lon="11.8970149"><ele>15.0</ele><time>2026-04-25T10:45:22.334Z</time></trkpt><trkpt lat="45.5115575" lon="11.8969253"><ele>15.0</ele><time>2026-04-25T10:45:23.334Z</time></trkpt><trkpt lat="45.5115721" lon="11.8967585"><ele>15.0</ele><time>2026-04-25T10:45:25.334Z</time></trkpt><trkpt lat="45.5115812" lon="11.8965797"><ele>15.0</ele><time>2026-04-25T10:45:27.334Z</time></trkpt><trkpt lat="45.5115897" lon="11.8964876"><ele>15.0</ele><time>2026-04-25T10:45:28.334Z</time></trkpt><trkpt lat="45.511596" lon="11.8963959"><ele>15.0</ele><time>2026-04-25T10:45:29.334Z</time></trkpt><trkpt lat="45.5116012" lon="11.8962214"><ele>15.166666666666666</ele><time>2026-04-25T10:45:31.334Z</time></trkpt><trkpt lat="45.5116071" lon="11.8961272"><ele>15.333333333333332</ele><time>2026-04-25T10:45:32.334Z</time></trkpt><trkpt lat="45.5116056" lon="11.8960317"><ele>15.5</ele><time>2026-04-25T10:45:33.335Z</time></trkpt><trkpt lat="45.5116032" lon="11.8959408"><ele>15.666666666666666</ele><time>2026-04-25T10:45:34.334Z</time></trkpt><trkpt lat="45.5115938" lon="11.8957742"><ele>15.833333333333332</ele><time>2026-04-25T10:45:36.334Z</time></trkpt><trkpt lat="45.5115921" lon="11.8956091"><ele>16.0</ele><time>2026-04-25T10:45:38.334Z</time></trkpt><trkpt lat="45.5115897" lon="11.895447"><ele>16.0</ele><time>2026-04-25T10:45:40.334Z</time></trkpt><trkpt lat="45.511581" lon="11.8952714"><ele>16.0</ele><time>2026-04-25T10:45:42.334Z</time></trkpt><trkpt lat="45.5115654" lon="11.8950991"><ele>16.0</ele><time>2026-04-25T10:45:44.334Z</time></trkpt><trkpt lat="45.5115543" lon="11.8949373"><ele>16.0</ele><time>2026-04-25T10:45:46.335Z</time></trkpt><trkpt lat="45.5115422" lon="11.8947624"><ele>16.0</ele><time>2026-04-25T10:45:48.334Z</time></trkpt><trkpt lat="45.5115294" lon="11.8945969"><ele>16.0</ele><time>2026-04-25T10:45:50.334Z</time></trkpt><trkpt lat="45.5115173" lon="11.8944446"><ele>16.0</ele><time>2026-04-25T10:45:52.334Z</time></trkpt><trkpt lat="45.5114867" lon="11.8943098"><ele>16.0</ele><time>2026-04-25T10:45:54.334Z</time></trkpt><trkpt lat="45.5114669" lon="11.8941746"><ele>16.0</ele><time>2026-04-25T10:45:56.334Z</time></trkpt><trkpt lat="45.5114364" lon="11.8940649"><ele>16.0</ele><time>2026-04-25T10:45:58.334Z</time></trkpt><trkpt lat="45.5113693" lon="11.8940908"><ele>16.0</ele><time>2026-04-25T10:46:00.334Z</time></trkpt><trkpt lat="45.5113311" lon="11.8941996"><ele>16.0</ele><time>2026-04-25T10:46:02.334Z</time></trkpt><trkpt lat="45.5112949" lon="11.8943321"><ele>16.0</ele><time>2026-04-25T10:46:04.334Z</time></trkpt><trkpt lat="45.5112517" lon="11.8944625"><ele>16.0</ele><time>2026-04-25T10:46:06.334Z</time></trkpt><trkpt lat="45.5111949" lon="11.8945846"><ele>16.0</ele><time>2026-04-25T10:46:08.334Z</time></trkpt><trkpt lat="45.5111464" lon="11.8947311"><ele>16.0</ele><time>2026-04-25T10:46:10.334Z</time></trkpt><trkpt lat="45.5110936" lon="11.8948652"><ele>16.0</ele><time>2026-04-25T10:46:12.334Z</time></trkpt><trkpt lat="45.5110319" lon="11.8949981"><ele>16.0</ele><time>2026-04-25T10:46:14.334Z</time></trkpt><trkpt lat="45.5109619" lon="11.8951232"><ele>16.0</ele><time>2026-04-25T10:46:16.335Z</time></trkpt><trkpt lat="45.5108829" lon="11.8952504"><ele>15.8</ele><time>2026-04-25T10:46:18.334Z</time></trkpt><trkpt lat="45.5107874" lon="11.8953418"><ele>15.600000000000001</ele><time>2026-04-25T10:46:20.334Z</time></trkpt><trkpt lat="45.5106879" lon="11.8954097"><ele>15.4</ele><time>2026-04-25T10:46:22.334Z</time></trkpt><trkpt lat="45.5105889" lon="11.8954474"><ele>15.2</ele><time>2026-04-25T10:46:24.334Z</time></trkpt><trkpt lat="45.5104827" lon="11.8954482"><ele>15.0</ele><time>2026-04-25T10:46:26.334Z</time></trkpt><trkpt lat="45.5103709" lon="11.895445"><ele>15.0</ele><time>2026-04-25T10:46:28.334Z</time></trkpt><trkpt lat="45.510252" lon="11.8954549"><ele>15.0</ele><time>2026-04-25T10:46:30.334Z</time></trkpt><trkpt lat="45.510136" lon="11.8954629"><ele>15.0</ele><time>2026-04-25T10:46:32.334Z</time></trkpt><trkpt lat="45.5100212" lon="11.8954761"><ele>15.0</ele><time>2026-04-25T10:46:34.334Z</time></trkpt><trkpt lat="45.5099063" lon="11.895465"><ele>15.0</ele><time>2026-04-25T10:46:36.334Z</time></trkpt><trkpt lat="45.5097981" lon="11.8954276"><ele>15.0</ele><time>2026-04-25T10:46:38.334Z</time></trkpt><trkpt lat="45.5096852" lon="11.8953858"><ele>15.0</ele><time>2026-04-25T10:46:40.334Z</time></trkpt><trkpt lat="45.5095824" lon="11.8953347"><ele>15.0</ele><time>2026-04-25T10:46:42.334Z</time></trkpt><trkpt lat="45.5094808" lon="11.8952612"><ele>15.2</ele><time>2026-04-25T10:46:44.334Z</time></trkpt><trkpt lat="45.5093885" lon="11.8952128"><ele>15.4</ele><time>2026-04-25T10:46:46.334Z</time></trkpt><trkpt lat="45.5092983" lon="11.8951888"><ele>15.600000000000001</ele><time>2026-04-25T10:46:48.334Z</time></trkpt><trkpt lat="45.5092091" lon="11.8951744"><ele>15.8</ele><time>2026-04-25T10:46:50.334Z</time></trkpt><trkpt lat="45.5091203" lon="11.8951454"><ele>16.0</ele><time>2026-04-25T10:46:52.334Z</time></trkpt><trkpt lat="45.5090395" lon="11.8951357"><ele>15.999999999999998</ele><time>2026-04-25T10:46:54.334Z</time></trkpt><trkpt lat="45.5089584" lon="11.8951315"><ele>16.0</ele><time>2026-04-25T10:46:56.335Z</time></trkpt><trkpt lat="45.5088676" lon="11.8951228"><ele>16.0</ele><time>2026-04-25T10:46:58.334Z</time></trkpt><trkpt lat="45.5087892" lon="11.8951369"><ele>16.0</ele><time>2026-04-25T10:47:00.334Z</time></trkpt><trkpt lat="45.5087147" lon="11.895175"><ele>15.999999999999998</ele><time>2026-04-25T10:47:02.334Z</time></trkpt><trkpt lat="45.5086445" lon="11.8952085"><ele>16.0</ele><time>2026-04-25T10:47:04.334Z</time></trkpt><trkpt lat="45.5085786" lon="11.8952343"><ele>17.0</ele><time>2026-04-25T10:47:06.334Z</time></trkpt><trkpt lat="45.5085079" lon="11.8952724"><ele>17.0</ele><time>2026-04-25T10:47:08.334Z</time></trkpt><trkpt lat="45.5084328" lon="11.895312"><ele>17.0</ele><time>2026-04-25T10:47:10.333Z</time></trkpt></trkseg></trk></gpx>